<?xml version="1.0" encoding="UTF-8" standalone="no" ?>
<gpx xmlns="http://www.topografix.com/GPX/1/1" xmlns:xsi="http://www.w3.org/2001/XMLSchema-instance" xsi:schemaLocation="http://www.topografix.com/GPX/1/1 http://www.topografix.com/GPX/1/1/gpx.xsd" version="1.1" creator="VisuGPX - https://www.visugpx.com">
  <metadata>
    <name>Vélo bleu - Circuit 18</name>
    <desc><![CDATA[Petit patrimoine sur ce circuit :
- Lavoirs de Darmannes, Mareilles, Cirey-les-Mareilles, Rochefort-la-Côte, Annéville-la-Prairie
- Châteaux de Chaumont, et de Marault
- Chapelle ND de Buxereuilles à Chaumont, Chapelle de l'ermitage Saint-Roch à Chaumont, Chapelle Saint-Joseph à La Crête (Cirey-les-Mareilles)
- Abbaye de La Crête à Cirey-les-Mareilles.]]></desc>
  </metadata>
  <trk>
    <name><![CDATA[CONDES 2 Chaumont Annéville Darm]]></name>
    <trkseg>
      <trkpt lat="48.12528" lon="5.13483">
        <ele>263.24</ele>
        <time>2024-12-23T21:10:08.000Z</time>
      </trkpt>
      <trkpt lat="48.12531" lon="5.13486">
        <ele>262.65</ele>
        <time>2024-12-23T21:10:08.001Z</time>
      </trkpt>
      <trkpt lat="48.12542" lon="5.13508">
        <ele>261.91</ele>
        <time>2024-12-23T21:10:08.005Z</time>
      </trkpt>
      <trkpt lat="48.12552" lon="5.13542">
        <ele>261</ele>
        <time>2024-12-23T21:10:08.013Z</time>
      </trkpt>
      <trkpt lat="48.12563" lon="5.13577">
        <ele>259.84</ele>
        <time>2024-12-23T21:10:08.025Z</time>
      </trkpt>
      <trkpt lat="48.12578" lon="5.13602">
        <ele>258.71</ele>
        <time>2024-12-23T21:10:08.040Z</time>
      </trkpt>
      <trkpt lat="48.12591" lon="5.13619">
        <ele>257.49</ele>
        <time>2024-12-23T21:10:08.058Z</time>
      </trkpt>
      <trkpt lat="48.12604" lon="5.13637">
        <ele>256.27</ele>
        <time>2024-12-23T21:10:08.079Z</time>
      </trkpt>
      <trkpt lat="48.12615" lon="5.13667">
        <ele>255.1</ele>
        <time>2024-12-23T21:10:08.103Z</time>
      </trkpt>
      <trkpt lat="48.12616" lon="5.13697">
        <ele>254.25</ele>
        <time>2024-12-23T21:10:08.131Z</time>
      </trkpt>
      <trkpt lat="48.12617" lon="5.13727">
        <ele>253.72</ele>
        <time>2024-12-23T21:10:08.162Z</time>
      </trkpt>
      <trkpt lat="48.1262" lon="5.1375">
        <ele>253.5</ele>
        <time>2024-12-23T21:10:08.196Z</time>
      </trkpt>
      <trkpt lat="48.12623" lon="5.13774">
        <ele>253.49</ele>
        <time>2024-12-23T21:10:08.232Z</time>
      </trkpt>
      <trkpt lat="48.1263" lon="5.13804">
        <ele>253.6</ele>
        <time>2024-12-23T21:10:08.271Z</time>
      </trkpt>
      <trkpt lat="48.12646" lon="5.13843">
        <ele>253.62</ele>
        <time>2024-12-23T21:10:08.315Z</time>
      </trkpt>
      <trkpt lat="48.12662" lon="5.13881">
        <ele>253.59</ele>
        <time>2024-12-23T21:10:08.364Z</time>
      </trkpt>
      <trkpt lat="48.12679" lon="5.13908">
        <ele>253.62</ele>
        <time>2024-12-23T21:10:08.417Z</time>
      </trkpt>
      <trkpt lat="48.12696" lon="5.13934">
        <ele>253.82</ele>
        <time>2024-12-23T21:10:08.474Z</time>
      </trkpt>
      <trkpt lat="48.12713" lon="5.13961">
        <ele>253.95</ele>
        <time>2024-12-23T21:10:08.535Z</time>
      </trkpt>
      <trkpt lat="48.12713" lon="5.13961">
        <ele>254.07</ele>
        <time>2024-12-23T21:10:08.596Z</time>
      </trkpt>
      <trkpt lat="48.12728" lon="5.13986">
        <ele>254.15</ele>
        <time>2024-12-23T21:10:08.661Z</time>
      </trkpt>
      <trkpt lat="48.12742" lon="5.14011">
        <ele>254.21</ele>
        <time>2024-12-23T21:10:08.729Z</time>
      </trkpt>
      <trkpt lat="48.12756" lon="5.14036">
        <ele>254.19</ele>
        <time>2024-12-23T21:10:08.801Z</time>
      </trkpt>
      <trkpt lat="48.12765" lon="5.14046">
        <ele>254.15</ele>
        <time>2024-12-23T21:10:08.874Z</time>
      </trkpt>
      <trkpt lat="48.12781" lon="5.14074">
        <ele>254.08</ele>
        <time>2024-12-23T21:10:08.951Z</time>
      </trkpt>
      <trkpt lat="48.12797" lon="5.14102">
        <ele>254.09</ele>
        <time>2024-12-23T21:10:09.032Z</time>
      </trkpt>
      <trkpt lat="48.12819" lon="5.14133">
        <ele>254.33</ele>
        <time>2024-12-23T21:10:09.118Z</time>
      </trkpt>
      <trkpt lat="48.1284" lon="5.14164">
        <ele>254.46</ele>
        <time>2024-12-23T21:10:09.209Z</time>
      </trkpt>
      <trkpt lat="48.12862" lon="5.14195">
        <ele>254.45</ele>
        <time>2024-12-23T21:10:09.305Z</time>
      </trkpt>
      <trkpt lat="48.12883" lon="5.14226">
        <ele>254.51</ele>
        <time>2024-12-23T21:10:09.405Z</time>
      </trkpt>
      <trkpt lat="48.12904" lon="5.14257">
        <ele>254.59</ele>
        <time>2024-12-23T21:10:09.510Z</time>
      </trkpt>
      <trkpt lat="48.12926" lon="5.14288">
        <ele>254.75</ele>
        <time>2024-12-23T21:10:09.620Z</time>
      </trkpt>
      <trkpt lat="48.12947" lon="5.14319">
        <ele>254.95</ele>
        <time>2024-12-23T21:10:09.735Z</time>
      </trkpt>
      <trkpt lat="48.12969" lon="5.14349">
        <ele>255.13</ele>
        <time>2024-12-23T21:10:09.855Z</time>
      </trkpt>
      <trkpt lat="48.1299" lon="5.1438">
        <ele>255.32</ele>
        <time>2024-12-23T21:10:09.979Z</time>
      </trkpt>
      <trkpt lat="48.13012" lon="5.14411">
        <ele>255.53</ele>
        <time>2024-12-23T21:10:10.108Z</time>
      </trkpt>
      <trkpt lat="48.13033" lon="5.14442">
        <ele>255.84</ele>
        <time>2024-12-23T21:10:10.242Z</time>
      </trkpt>
      <trkpt lat="48.13055" lon="5.14473">
        <ele>256.23</ele>
        <time>2024-12-23T21:10:10.381Z</time>
      </trkpt>
      <trkpt lat="48.13076" lon="5.14503">
        <ele>256.59</ele>
        <time>2024-12-23T21:10:10.524Z</time>
      </trkpt>
      <trkpt lat="48.13089" lon="5.14534">
        <ele>256.9</ele>
        <time>2024-12-23T21:10:10.671Z</time>
      </trkpt>
      <trkpt lat="48.13095" lon="5.14568">
        <ele>257.22</ele>
        <time>2024-12-23T21:10:10.822Z</time>
      </trkpt>
      <trkpt lat="48.13095" lon="5.146">
        <ele>257.68</ele>
        <time>2024-12-23T21:10:10.976Z</time>
      </trkpt>
      <trkpt lat="48.1309" lon="5.14626">
        <ele>258.14</ele>
        <time>2024-12-23T21:10:11.133Z</time>
      </trkpt>
      <trkpt lat="48.13085" lon="5.14652">
        <ele>258.66</ele>
        <time>2024-12-23T21:10:11.293Z</time>
      </trkpt>
      <trkpt lat="48.13082" lon="5.1466">
        <ele>259.15</ele>
        <time>2024-12-23T21:10:11.454Z</time>
      </trkpt>
      <trkpt lat="48.13064" lon="5.14688">
        <ele>259.72</ele>
        <time>2024-12-23T21:10:11.619Z</time>
      </trkpt>
      <trkpt lat="48.13046" lon="5.14716">
        <ele>260.2</ele>
        <time>2024-12-23T21:10:11.789Z</time>
      </trkpt>
      <trkpt lat="48.13024" lon="5.14741">
        <ele>260.86</ele>
        <time>2024-12-23T21:10:11.963Z</time>
      </trkpt>
      <trkpt lat="48.13003" lon="5.14765">
        <ele>261.5</ele>
        <time>2024-12-23T21:10:12.141Z</time>
      </trkpt>
      <trkpt lat="48.12979" lon="5.14785">
        <ele>262.1</ele>
        <time>2024-12-23T21:10:12.324Z</time>
      </trkpt>
      <trkpt lat="48.1295" lon="5.14801">
        <ele>262.84</ele>
        <time>2024-12-23T21:10:12.512Z</time>
      </trkpt>
      <trkpt lat="48.12921" lon="5.14817">
        <ele>263.39</ele>
        <time>2024-12-23T21:10:12.705Z</time>
      </trkpt>
      <trkpt lat="48.12891" lon="5.14833">
        <ele>263.74</ele>
        <time>2024-12-23T21:10:12.903Z</time>
      </trkpt>
      <trkpt lat="48.12862" lon="5.14849">
        <ele>263.94</ele>
        <time>2024-12-23T21:10:13.106Z</time>
      </trkpt>
      <trkpt lat="48.12833" lon="5.14865">
        <ele>264.17</ele>
        <time>2024-12-23T21:10:13.314Z</time>
      </trkpt>
      <trkpt lat="48.12804" lon="5.14881">
        <ele>264.57</ele>
        <time>2024-12-23T21:10:13.527Z</time>
      </trkpt>
      <trkpt lat="48.1278" lon="5.14888">
        <ele>265.09</ele>
        <time>2024-12-23T21:10:13.743Z</time>
      </trkpt>
      <trkpt lat="48.12756" lon="5.14895">
        <ele>265.36</ele>
        <time>2024-12-23T21:10:13.963Z</time>
      </trkpt>
      <trkpt lat="48.12733" lon="5.14903">
        <ele>265.49</ele>
        <time>2024-12-23T21:10:14.187Z</time>
      </trkpt>
      <trkpt lat="48.12708" lon="5.14907">
        <ele>265.55</ele>
        <time>2024-12-23T21:10:14.415Z</time>
      </trkpt>
      <trkpt lat="48.12683" lon="5.14911">
        <ele>265.64</ele>
        <time>2024-12-23T21:10:14.647Z</time>
      </trkpt>
      <trkpt lat="48.12666" lon="5.14909">
        <ele>265.71</ele>
        <time>2024-12-23T21:10:14.882Z</time>
      </trkpt>
      <trkpt lat="48.12649" lon="5.14907">
        <ele>265.67</ele>
        <time>2024-12-23T21:10:15.120Z</time>
      </trkpt>
      <trkpt lat="48.12621" lon="5.14896">
        <ele>265.56</ele>
        <time>2024-12-23T21:10:15.362Z</time>
      </trkpt>
      <trkpt lat="48.12593" lon="5.14885">
        <ele>265.34</ele>
        <time>2024-12-23T21:10:15.609Z</time>
      </trkpt>
      <trkpt lat="48.1257" lon="5.14873">
        <ele>265.19</ele>
        <time>2024-12-23T21:10:15.860Z</time>
      </trkpt>
      <trkpt lat="48.12565" lon="5.1486">
        <ele>264.99</ele>
        <time>2024-12-23T21:10:16.112Z</time>
      </trkpt>
      <trkpt lat="48.1255" lon="5.14853">
        <ele>264.54</ele>
        <time>2024-12-23T21:10:16.367Z</time>
      </trkpt>
      <trkpt lat="48.12537" lon="5.14864">
        <ele>263.87</ele>
        <time>2024-12-23T21:10:16.624Z</time>
      </trkpt>
      <trkpt lat="48.12533" lon="5.14888">
        <ele>263.06</ele>
        <time>2024-12-23T21:10:16.884Z</time>
      </trkpt>
      <trkpt lat="48.12542" lon="5.14905">
        <ele>262.27</ele>
        <time>2024-12-23T21:10:17.146Z</time>
      </trkpt>
      <trkpt lat="48.12559" lon="5.14907">
        <ele>261.53</ele>
        <time>2024-12-23T21:10:17.411Z</time>
      </trkpt>
      <trkpt lat="48.1257" lon="5.14924">
        <ele>260.7</ele>
        <time>2024-12-23T21:10:17.678Z</time>
      </trkpt>
      <trkpt lat="48.12576" lon="5.14958">
        <ele>259.76</ele>
        <time>2024-12-23T21:10:17.949Z</time>
      </trkpt>
      <trkpt lat="48.12581" lon="5.14996">
        <ele>258.93</ele>
        <time>2024-12-23T21:10:18.224Z</time>
      </trkpt>
      <trkpt lat="48.12587" lon="5.15033">
        <ele>258.09</ele>
        <time>2024-12-23T21:10:18.503Z</time>
      </trkpt>
      <trkpt lat="48.12591" lon="5.15066">
        <ele>257.31</ele>
        <time>2024-12-23T21:10:18.786Z</time>
      </trkpt>
      <trkpt lat="48.12595" lon="5.15098">
        <ele>256.51</ele>
        <time>2024-12-23T21:10:19.073Z</time>
      </trkpt>
      <trkpt lat="48.126" lon="5.1513">
        <ele>255.8</ele>
        <time>2024-12-23T21:10:19.363Z</time>
      </trkpt>
      <trkpt lat="48.12606" lon="5.15174">
        <ele>255.1</ele>
        <time>2024-12-23T21:10:19.658Z</time>
      </trkpt>
      <trkpt lat="48.12613" lon="5.15218">
        <ele>254.5</ele>
        <time>2024-12-23T21:10:19.958Z</time>
      </trkpt>
      <trkpt lat="48.12618" lon="5.15256">
        <ele>254</ele>
        <time>2024-12-23T21:10:20.262Z</time>
      </trkpt>
      <trkpt lat="48.12623" lon="5.15293">
        <ele>253.66</ele>
        <time>2024-12-23T21:10:20.570Z</time>
      </trkpt>
      <trkpt lat="48.12625" lon="5.1532">
        <ele>253.38</ele>
        <time>2024-12-23T21:10:20.881Z</time>
      </trkpt>
      <trkpt lat="48.12628" lon="5.15347">
        <ele>253.17</ele>
        <time>2024-12-23T21:10:21.195Z</time>
      </trkpt>
      <trkpt lat="48.12628" lon="5.15375">
        <ele>253.06</ele>
        <time>2024-12-23T21:10:21.512Z</time>
      </trkpt>
      <trkpt lat="48.12628" lon="5.15403">
        <ele>253.1</ele>
        <time>2024-12-23T21:10:21.832Z</time>
      </trkpt>
      <trkpt lat="48.12625" lon="5.15441">
        <ele>253.29</ele>
        <time>2024-12-23T21:10:22.156Z</time>
      </trkpt>
      <trkpt lat="48.12625" lon="5.15467">
        <ele>253.6</ele>
        <time>2024-12-23T21:10:22.483Z</time>
      </trkpt>
      <trkpt lat="48.12623" lon="5.15484">
        <ele>254.06</ele>
        <time>2024-12-23T21:10:22.811Z</time>
      </trkpt>
      <trkpt lat="48.12623" lon="5.15493">
        <ele>254.62</ele>
        <time>2024-12-23T21:10:23.140Z</time>
      </trkpt>
      <trkpt lat="48.12623" lon="5.15501">
        <ele>255.34</ele>
        <time>2024-12-23T21:10:23.470Z</time>
      </trkpt>
      <trkpt lat="48.12621" lon="5.15523">
        <ele>256.26</ele>
        <time>2024-12-23T21:10:23.803Z</time>
      </trkpt>
      <trkpt lat="48.12621" lon="5.15527">
        <ele>257.19</ele>
        <time>2024-12-23T21:10:24.136Z</time>
      </trkpt>
      <trkpt lat="48.12619" lon="5.15548">
        <ele>258.38</ele>
        <time>2024-12-23T21:10:24.471Z</time>
      </trkpt>
      <trkpt lat="48.12608" lon="5.15563">
        <ele>259.64</ele>
        <time>2024-12-23T21:10:24.809Z</time>
      </trkpt>
      <trkpt lat="48.12581" lon="5.15584">
        <ele>260.97</ele>
        <time>2024-12-23T21:10:25.152Z</time>
      </trkpt>
      <trkpt lat="48.12554" lon="5.15604">
        <ele>262.22</ele>
        <time>2024-12-23T21:10:25.500Z</time>
      </trkpt>
      <trkpt lat="48.12527" lon="5.15624">
        <ele>263.39</ele>
        <time>2024-12-23T21:10:25.852Z</time>
      </trkpt>
      <trkpt lat="48.12522" lon="5.15639">
        <ele>264.77</ele>
        <time>2024-12-23T21:10:26.206Z</time>
      </trkpt>
      <trkpt lat="48.12525" lon="5.15656">
        <ele>266.27</ele>
        <time>2024-12-23T21:10:26.562Z</time>
      </trkpt>
      <trkpt lat="48.12529" lon="5.15664">
        <ele>267.83</ele>
        <time>2024-12-23T21:10:26.919Z</time>
      </trkpt>
      <trkpt lat="48.12537" lon="5.15666">
        <ele>269.43</ele>
        <time>2024-12-23T21:10:27.278Z</time>
      </trkpt>
      <trkpt lat="48.12552" lon="5.1566">
        <ele>271.16</ele>
        <time>2024-12-23T21:10:27.639Z</time>
      </trkpt>
      <trkpt lat="48.12572" lon="5.15642">
        <ele>272.99</ele>
        <time>2024-12-23T21:10:28.004Z</time>
      </trkpt>
      <trkpt lat="48.12591" lon="5.15624">
        <ele>274.73</ele>
        <time>2024-12-23T21:10:28.372Z</time>
      </trkpt>
      <trkpt lat="48.12602" lon="5.15617">
        <ele>276.4</ele>
        <time>2024-12-23T21:10:28.742Z</time>
      </trkpt>
      <trkpt lat="48.12628" lon="5.15606">
        <ele>278.11</ele>
        <time>2024-12-23T21:10:29.116Z</time>
      </trkpt>
      <trkpt lat="48.12648" lon="5.15604">
        <ele>279.91</ele>
        <time>2024-12-23T21:10:29.494Z</time>
      </trkpt>
      <trkpt lat="48.12668" lon="5.15602">
        <ele>281.55</ele>
        <time>2024-12-23T21:10:29.875Z</time>
      </trkpt>
      <trkpt lat="48.12688" lon="5.15603">
        <ele>283.15</ele>
        <time>2024-12-23T21:10:30.259Z</time>
      </trkpt>
      <trkpt lat="48.12707" lon="5.15604">
        <ele>284.75</ele>
        <time>2024-12-23T21:10:30.646Z</time>
      </trkpt>
      <trkpt lat="48.1273" lon="5.1561">
        <ele>286.52</ele>
        <time>2024-12-23T21:10:31.037Z</time>
      </trkpt>
      <trkpt lat="48.12753" lon="5.15616">
        <ele>288.27</ele>
        <time>2024-12-23T21:10:31.432Z</time>
      </trkpt>
      <trkpt lat="48.12776" lon="5.15621">
        <ele>290.03</ele>
        <time>2024-12-23T21:10:31.830Z</time>
      </trkpt>
      <trkpt lat="48.12803" lon="5.15631">
        <ele>291.74</ele>
        <time>2024-12-23T21:10:32.233Z</time>
      </trkpt>
      <trkpt lat="48.12831" lon="5.15641">
        <ele>293.4</ele>
        <time>2024-12-23T21:10:32.641Z</time>
      </trkpt>
      <trkpt lat="48.12847" lon="5.15651">
        <ele>295.2</ele>
        <time>2024-12-23T21:10:33.051Z</time>
      </trkpt>
      <trkpt lat="48.12864" lon="5.15662">
        <ele>296.91</ele>
        <time>2024-12-23T21:10:33.464Z</time>
      </trkpt>
      <trkpt lat="48.12881" lon="5.15687">
        <ele>298.76</ele>
        <time>2024-12-23T21:10:33.881Z</time>
      </trkpt>
      <trkpt lat="48.12898" lon="5.15711">
        <ele>300.54</ele>
        <time>2024-12-23T21:10:34.302Z</time>
      </trkpt>
      <trkpt lat="48.12915" lon="5.15735">
        <ele>302.33</ele>
        <time>2024-12-23T21:10:34.727Z</time>
      </trkpt>
      <trkpt lat="48.12932" lon="5.15767">
        <ele>304.1</ele>
        <time>2024-12-23T21:10:35.156Z</time>
      </trkpt>
      <trkpt lat="48.12945" lon="5.15797">
        <ele>305.81</ele>
        <time>2024-12-23T21:10:35.589Z</time>
      </trkpt>
      <trkpt lat="48.12949" lon="5.15836">
        <ele>307.58</ele>
        <time>2024-12-23T21:10:36.026Z</time>
      </trkpt>
      <trkpt lat="48.12946" lon="5.1587">
        <ele>309.41</ele>
        <time>2024-12-23T21:10:36.467Z</time>
      </trkpt>
      <trkpt lat="48.12942" lon="5.15905">
        <ele>311.28</ele>
        <time>2024-12-23T21:10:36.911Z</time>
      </trkpt>
      <trkpt lat="48.12939" lon="5.15939">
        <ele>313.13</ele>
        <time>2024-12-23T21:10:37.359Z</time>
      </trkpt>
      <trkpt lat="48.12941" lon="5.15965">
        <ele>314.83</ele>
        <time>2024-12-23T21:10:37.810Z</time>
      </trkpt>
      <trkpt lat="48.12943" lon="5.1599">
        <ele>316.56</ele>
        <time>2024-12-23T21:10:38.264Z</time>
      </trkpt>
      <trkpt lat="48.12949" lon="5.16016">
        <ele>318.24</ele>
        <time>2024-12-23T21:10:38.721Z</time>
      </trkpt>
      <trkpt lat="48.12964" lon="5.16054">
        <ele>319.92</ele>
        <time>2024-12-23T21:10:39.182Z</time>
      </trkpt>
      <trkpt lat="48.12978" lon="5.16091">
        <ele>321.58</ele>
        <time>2024-12-23T21:10:39.648Z</time>
      </trkpt>
      <trkpt lat="48.12992" lon="5.16128">
        <ele>323.2</ele>
        <time>2024-12-23T21:10:40.118Z</time>
      </trkpt>
      <trkpt lat="48.13007" lon="5.16165">
        <ele>324.68</ele>
        <time>2024-12-23T21:10:40.593Z</time>
      </trkpt>
      <trkpt lat="48.13021" lon="5.16203">
        <ele>326.15</ele>
        <time>2024-12-23T21:10:41.073Z</time>
      </trkpt>
      <trkpt lat="48.13035" lon="5.16239">
        <ele>327.59</ele>
        <time>2024-12-23T21:10:41.557Z</time>
      </trkpt>
      <trkpt lat="48.1304" lon="5.16252">
        <ele>328.88</ele>
        <time>2024-12-23T21:10:42.043Z</time>
      </trkpt>
      <trkpt lat="48.13052" lon="5.16286">
        <ele>330.17</ele>
        <time>2024-12-23T21:10:42.533Z</time>
      </trkpt>
      <trkpt lat="48.13065" lon="5.16319">
        <ele>331.41</ele>
        <time>2024-12-23T21:10:43.027Z</time>
      </trkpt>
      <trkpt lat="48.13072" lon="5.1636">
        <ele>332.47</ele>
        <time>2024-12-23T21:10:43.526Z</time>
      </trkpt>
      <trkpt lat="48.13074" lon="5.16388">
        <ele>333.41</ele>
        <time>2024-12-23T21:10:44.028Z</time>
      </trkpt>
      <trkpt lat="48.13076" lon="5.16415">
        <ele>334.31</ele>
        <time>2024-12-23T21:10:44.533Z</time>
      </trkpt>
      <trkpt lat="48.13074" lon="5.16459">
        <ele>335.23</ele>
        <time>2024-12-23T21:10:45.042Z</time>
      </trkpt>
      <trkpt lat="48.13072" lon="5.16502">
        <ele>336.04</ele>
        <time>2024-12-23T21:10:45.556Z</time>
      </trkpt>
      <trkpt lat="48.1307" lon="5.16545">
        <ele>336.78</ele>
        <time>2024-12-23T21:10:46.074Z</time>
      </trkpt>
      <trkpt lat="48.13068" lon="5.16588">
        <ele>337.43</ele>
        <time>2024-12-23T21:10:46.597Z</time>
      </trkpt>
      <trkpt lat="48.13066" lon="5.16632">
        <ele>338.08</ele>
        <time>2024-12-23T21:10:47.125Z</time>
      </trkpt>
      <trkpt lat="48.13064" lon="5.16675">
        <ele>338.63</ele>
        <time>2024-12-23T21:10:47.657Z</time>
      </trkpt>
      <trkpt lat="48.13062" lon="5.16718">
        <ele>339.08</ele>
        <time>2024-12-23T21:10:48.194Z</time>
      </trkpt>
      <trkpt lat="48.13061" lon="5.16761">
        <ele>339.46</ele>
        <time>2024-12-23T21:10:48.736Z</time>
      </trkpt>
      <trkpt lat="48.13059" lon="5.16805">
        <ele>339.84</ele>
        <time>2024-12-23T21:10:49.282Z</time>
      </trkpt>
      <trkpt lat="48.13057" lon="5.16847">
        <ele>340.28</ele>
        <time>2024-12-23T21:10:49.833Z</time>
      </trkpt>
      <trkpt lat="48.13061" lon="5.16878">
        <ele>340.61</ele>
        <time>2024-12-23T21:10:50.387Z</time>
      </trkpt>
      <trkpt lat="48.13065" lon="5.16909">
        <ele>340.97</ele>
        <time>2024-12-23T21:10:50.945Z</time>
      </trkpt>
      <trkpt lat="48.13074" lon="5.16939">
        <ele>341.22</ele>
        <time>2024-12-23T21:10:51.506Z</time>
      </trkpt>
      <trkpt lat="48.13082" lon="5.16969">
        <ele>341.42</ele>
        <time>2024-12-23T21:10:52.071Z</time>
      </trkpt>
      <trkpt lat="48.131" lon="5.17001">
        <ele>341.56</ele>
        <time>2024-12-23T21:10:52.640Z</time>
      </trkpt>
      <trkpt lat="48.13117" lon="5.17033">
        <ele>341.73</ele>
        <time>2024-12-23T21:10:53.214Z</time>
      </trkpt>
      <trkpt lat="48.13135" lon="5.17065">
        <ele>341.95</ele>
        <time>2024-12-23T21:10:53.792Z</time>
      </trkpt>
      <trkpt lat="48.13152" lon="5.17097">
        <ele>342.13</ele>
        <time>2024-12-23T21:10:54.374Z</time>
      </trkpt>
      <trkpt lat="48.1317" lon="5.17129">
        <ele>342.26</ele>
        <time>2024-12-23T21:10:54.961Z</time>
      </trkpt>
      <trkpt lat="48.13187" lon="5.17161">
        <ele>342.35</ele>
        <time>2024-12-23T21:10:55.552Z</time>
      </trkpt>
      <trkpt lat="48.13205" lon="5.17192">
        <ele>342.57</ele>
        <time>2024-12-23T21:10:56.148Z</time>
      </trkpt>
      <trkpt lat="48.13228" lon="5.1722">
        <ele>342.78</ele>
        <time>2024-12-23T21:10:56.748Z</time>
      </trkpt>
      <trkpt lat="48.13255" lon="5.17244">
        <ele>342.97</ele>
        <time>2024-12-23T21:10:57.353Z</time>
      </trkpt>
      <trkpt lat="48.13281" lon="5.17267">
        <ele>343.17</ele>
        <time>2024-12-23T21:10:57.963Z</time>
      </trkpt>
      <trkpt lat="48.13308" lon="5.17291">
        <ele>343.39</ele>
        <time>2024-12-23T21:10:58.578Z</time>
      </trkpt>
      <trkpt lat="48.13329" lon="5.17314">
        <ele>343.66</ele>
        <time>2024-12-23T21:10:59.197Z</time>
      </trkpt>
      <trkpt lat="48.13351" lon="5.17337">
        <ele>343.96</ele>
        <time>2024-12-23T21:10:59.821Z</time>
      </trkpt>
      <trkpt lat="48.13372" lon="5.1736">
        <ele>344.27</ele>
        <time>2024-12-23T21:11:00.449Z</time>
      </trkpt>
      <trkpt lat="48.13394" lon="5.17383">
        <ele>344.6</ele>
        <time>2024-12-23T21:11:01.081Z</time>
      </trkpt>
      <trkpt lat="48.13417" lon="5.1741">
        <ele>344.89</ele>
        <time>2024-12-23T21:11:01.718Z</time>
      </trkpt>
      <trkpt lat="48.13441" lon="5.17437">
        <ele>345.16</ele>
        <time>2024-12-23T21:11:02.360Z</time>
      </trkpt>
      <trkpt lat="48.13464" lon="5.17465">
        <ele>345.43</ele>
        <time>2024-12-23T21:11:03.006Z</time>
      </trkpt>
      <trkpt lat="48.13485" lon="5.17492">
        <ele>345.88</ele>
        <time>2024-12-23T21:11:03.657Z</time>
      </trkpt>
      <trkpt lat="48.13506" lon="5.17519">
        <ele>346.35</ele>
        <time>2024-12-23T21:11:04.312Z</time>
      </trkpt>
      <trkpt lat="48.13526" lon="5.17547">
        <ele>346.78</ele>
        <time>2024-12-23T21:11:04.972Z</time>
      </trkpt>
      <trkpt lat="48.13547" lon="5.17574">
        <ele>347.15</ele>
        <time>2024-12-23T21:11:05.636Z</time>
      </trkpt>
      <trkpt lat="48.13568" lon="5.17602">
        <ele>347.49</ele>
        <time>2024-12-23T21:11:06.305Z</time>
      </trkpt>
      <trkpt lat="48.13588" lon="5.17629">
        <ele>347.84</ele>
        <time>2024-12-23T21:11:06.978Z</time>
      </trkpt>
      <trkpt lat="48.13609" lon="5.17656">
        <ele>348.25</ele>
        <time>2024-12-23T21:11:07.655Z</time>
      </trkpt>
      <trkpt lat="48.1363" lon="5.17684">
        <ele>348.66</ele>
        <time>2024-12-23T21:11:08.337Z</time>
      </trkpt>
      <trkpt lat="48.13647" lon="5.17703">
        <ele>349.1</ele>
        <time>2024-12-23T21:11:09.022Z</time>
      </trkpt>
      <trkpt lat="48.13664" lon="5.17722">
        <ele>349.62</ele>
        <time>2024-12-23T21:11:09.711Z</time>
      </trkpt>
      <trkpt lat="48.13681" lon="5.17741">
        <ele>350.24</ele>
        <time>2024-12-23T21:11:10.403Z</time>
      </trkpt>
      <trkpt lat="48.13704" lon="5.17761">
        <ele>350.53</ele>
        <time>2024-12-23T21:11:11.099Z</time>
      </trkpt>
      <trkpt lat="48.13727" lon="5.17781">
        <ele>350.55</ele>
        <time>2024-12-23T21:11:11.800Z</time>
      </trkpt>
      <trkpt lat="48.1375" lon="5.17801">
        <ele>350.53</ele>
        <time>2024-12-23T21:11:12.505Z</time>
      </trkpt>
      <trkpt lat="48.13773" lon="5.17821">
        <ele>350.58</ele>
        <time>2024-12-23T21:11:13.214Z</time>
      </trkpt>
      <trkpt lat="48.13791" lon="5.17841">
        <ele>350.69</ele>
        <time>2024-12-23T21:11:13.927Z</time>
      </trkpt>
      <trkpt lat="48.13808" lon="5.17862">
        <ele>350.81</ele>
        <time>2024-12-23T21:11:14.643Z</time>
      </trkpt>
      <trkpt lat="48.1382" lon="5.17884">
        <ele>350.9</ele>
        <time>2024-12-23T21:11:15.362Z</time>
      </trkpt>
      <trkpt lat="48.13831" lon="5.17907">
        <ele>350.92</ele>
        <time>2024-12-23T21:11:16.084Z</time>
      </trkpt>
      <trkpt lat="48.13842" lon="5.17932">
        <ele>350.9</ele>
        <time>2024-12-23T21:11:16.810Z</time>
      </trkpt>
      <trkpt lat="48.13853" lon="5.17968">
        <ele>350.78</ele>
        <time>2024-12-23T21:11:17.540Z</time>
      </trkpt>
      <trkpt lat="48.13864" lon="5.18004">
        <ele>350.64</ele>
        <time>2024-12-23T21:11:18.274Z</time>
      </trkpt>
      <trkpt lat="48.13874" lon="5.1804">
        <ele>350.48</ele>
        <time>2024-12-23T21:11:19.012Z</time>
      </trkpt>
      <trkpt lat="48.13885" lon="5.18076">
        <ele>350.27</ele>
        <time>2024-12-23T21:11:19.754Z</time>
      </trkpt>
      <trkpt lat="48.13896" lon="5.18112">
        <ele>350.12</ele>
        <time>2024-12-23T21:11:20.501Z</time>
      </trkpt>
      <trkpt lat="48.13906" lon="5.18147">
        <ele>349.94</ele>
        <time>2024-12-23T21:11:21.252Z</time>
      </trkpt>
      <trkpt lat="48.13916" lon="5.18175">
        <ele>349.72</ele>
        <time>2024-12-23T21:11:22.006Z</time>
      </trkpt>
      <trkpt lat="48.13926" lon="5.18203">
        <ele>349.44</ele>
        <time>2024-12-23T21:11:22.764Z</time>
      </trkpt>
      <trkpt lat="48.13936" lon="5.18223">
        <ele>349.14</ele>
        <time>2024-12-23T21:11:23.524Z</time>
      </trkpt>
      <trkpt lat="48.13947" lon="5.18244">
        <ele>348.8</ele>
        <time>2024-12-23T21:11:24.287Z</time>
      </trkpt>
      <trkpt lat="48.1397" lon="5.18269">
        <ele>348.44</ele>
        <time>2024-12-23T21:11:25.055Z</time>
      </trkpt>
      <trkpt lat="48.13993" lon="5.18294">
        <ele>348.03</ele>
        <time>2024-12-23T21:11:25.827Z</time>
      </trkpt>
      <trkpt lat="48.14016" lon="5.18319">
        <ele>347.57</ele>
        <time>2024-12-23T21:11:26.604Z</time>
      </trkpt>
      <trkpt lat="48.14039" lon="5.18344">
        <ele>347.08</ele>
        <time>2024-12-23T21:11:27.385Z</time>
      </trkpt>
      <trkpt lat="48.14058" lon="5.18362">
        <ele>346.57</ele>
        <time>2024-12-23T21:11:28.170Z</time>
      </trkpt>
      <trkpt lat="48.14077" lon="5.18379">
        <ele>346.03</ele>
        <time>2024-12-23T21:11:28.958Z</time>
      </trkpt>
      <trkpt lat="48.14095" lon="5.18396">
        <ele>345.48</ele>
        <time>2024-12-23T21:11:29.750Z</time>
      </trkpt>
      <trkpt lat="48.1412" lon="5.18415">
        <ele>344.9</ele>
        <time>2024-12-23T21:11:30.546Z</time>
      </trkpt>
      <trkpt lat="48.14145" lon="5.18435">
        <ele>344.33</ele>
        <time>2024-12-23T21:11:31.347Z</time>
      </trkpt>
      <trkpt lat="48.1417" lon="5.18454">
        <ele>343.77</ele>
        <time>2024-12-23T21:11:32.152Z</time>
      </trkpt>
      <trkpt lat="48.14197" lon="5.18472">
        <ele>343.18</ele>
        <time>2024-12-23T21:11:32.962Z</time>
      </trkpt>
      <trkpt lat="48.14224" lon="5.1849">
        <ele>342.59</ele>
        <time>2024-12-23T21:11:33.777Z</time>
      </trkpt>
      <trkpt lat="48.14252" lon="5.18505">
        <ele>341.9</ele>
        <time>2024-12-23T21:11:34.597Z</time>
      </trkpt>
      <trkpt lat="48.14281" lon="5.1852">
        <ele>341.2</ele>
        <time>2024-12-23T21:11:35.421Z</time>
      </trkpt>
      <trkpt lat="48.14309" lon="5.18535">
        <ele>340.56</ele>
        <time>2024-12-23T21:11:36.250Z</time>
      </trkpt>
      <trkpt lat="48.14337" lon="5.1855">
        <ele>339.89</ele>
        <time>2024-12-23T21:11:37.084Z</time>
      </trkpt>
      <trkpt lat="48.14366" lon="5.18565">
        <ele>339.14</ele>
        <time>2024-12-23T21:11:37.923Z</time>
      </trkpt>
      <trkpt lat="48.14366" lon="5.18565">
        <ele>338.5</ele>
        <time>2024-12-23T21:11:38.762Z</time>
      </trkpt>
      <trkpt lat="48.14388" lon="5.18579">
        <ele>337.78</ele>
        <time>2024-12-23T21:11:39.605Z</time>
      </trkpt>
      <trkpt lat="48.14411" lon="5.18592">
        <ele>337.08</ele>
        <time>2024-12-23T21:11:40.452Z</time>
      </trkpt>
      <trkpt lat="48.14433" lon="5.18606">
        <ele>336.39</ele>
        <time>2024-12-23T21:11:41.303Z</time>
      </trkpt>
      <trkpt lat="48.14456" lon="5.18619">
        <ele>335.83</ele>
        <time>2024-12-23T21:11:42.157Z</time>
      </trkpt>
      <trkpt lat="48.14484" lon="5.18641">
        <ele>335.31</ele>
        <time>2024-12-23T21:11:43.016Z</time>
      </trkpt>
      <trkpt lat="48.14512" lon="5.18662">
        <ele>334.77</ele>
        <time>2024-12-23T21:11:43.880Z</time>
      </trkpt>
      <trkpt lat="48.1452" lon="5.18666">
        <ele>334.17</ele>
        <time>2024-12-23T21:11:44.746Z</time>
      </trkpt>
      <trkpt lat="48.14543" lon="5.18669">
        <ele>333.54</ele>
        <time>2024-12-23T21:11:45.616Z</time>
      </trkpt>
      <trkpt lat="48.14565" lon="5.18673">
        <ele>332.88</ele>
        <time>2024-12-23T21:11:46.489Z</time>
      </trkpt>
      <trkpt lat="48.14593" lon="5.18682">
        <ele>332.28</ele>
        <time>2024-12-23T21:11:47.367Z</time>
      </trkpt>
      <trkpt lat="48.1462" lon="5.18691">
        <ele>331.69</ele>
        <time>2024-12-23T21:11:48.249Z</time>
      </trkpt>
      <trkpt lat="48.14648" lon="5.187">
        <ele>331.15</ele>
        <time>2024-12-23T21:11:49.136Z</time>
      </trkpt>
      <trkpt lat="48.14675" lon="5.18709">
        <ele>330.62</ele>
        <time>2024-12-23T21:11:50.027Z</time>
      </trkpt>
      <trkpt lat="48.14703" lon="5.18718">
        <ele>330.03</ele>
        <time>2024-12-23T21:11:50.923Z</time>
      </trkpt>
      <trkpt lat="48.14705" lon="5.18718">
        <ele>329.58</ele>
        <time>2024-12-23T21:11:51.819Z</time>
      </trkpt>
      <trkpt lat="48.14722" lon="5.18724">
        <ele>329.09</ele>
        <time>2024-12-23T21:11:52.718Z</time>
      </trkpt>
      <trkpt lat="48.1474" lon="5.18736">
        <ele>328.64</ele>
        <time>2024-12-23T21:11:53.620Z</time>
      </trkpt>
      <trkpt lat="48.14758" lon="5.18748">
        <ele>328.29</ele>
        <time>2024-12-23T21:11:54.525Z</time>
      </trkpt>
      <trkpt lat="48.14786" lon="5.18756">
        <ele>328.02</ele>
        <time>2024-12-23T21:11:55.435Z</time>
      </trkpt>
      <trkpt lat="48.14814" lon="5.18764">
        <ele>327.83</ele>
        <time>2024-12-23T21:11:56.349Z</time>
      </trkpt>
      <trkpt lat="48.14842" lon="5.18771">
        <ele>327.65</ele>
        <time>2024-12-23T21:11:57.268Z</time>
      </trkpt>
      <trkpt lat="48.14853" lon="5.18776">
        <ele>327.55</ele>
        <time>2024-12-23T21:11:58.189Z</time>
      </trkpt>
      <trkpt lat="48.1488" lon="5.18785">
        <ele>327.54</ele>
        <time>2024-12-23T21:11:59.114Z</time>
      </trkpt>
      <trkpt lat="48.14906" lon="5.18795">
        <ele>327.72</ele>
        <time>2024-12-23T21:12:00.044Z</time>
      </trkpt>
      <trkpt lat="48.14913" lon="5.18801">
        <ele>327.84</ele>
        <time>2024-12-23T21:12:00.975Z</time>
      </trkpt>
      <trkpt lat="48.14919" lon="5.18812">
        <ele>328.01</ele>
        <time>2024-12-23T21:12:01.907Z</time>
      </trkpt>
      <trkpt lat="48.14925" lon="5.18842">
        <ele>328.2</ele>
        <time>2024-12-23T21:12:02.843Z</time>
      </trkpt>
      <trkpt lat="48.1493" lon="5.18872">
        <ele>328.42</ele>
        <time>2024-12-23T21:12:03.782Z</time>
      </trkpt>
      <trkpt lat="48.14935" lon="5.18902">
        <ele>328.71</ele>
        <time>2024-12-23T21:12:04.724Z</time>
      </trkpt>
      <trkpt lat="48.14941" lon="5.18932">
        <ele>329.06</ele>
        <time>2024-12-23T21:12:05.670Z</time>
      </trkpt>
      <trkpt lat="48.14945" lon="5.18971">
        <ele>329.53</ele>
        <time>2024-12-23T21:12:06.620Z</time>
      </trkpt>
      <trkpt lat="48.14945" lon="5.19006">
        <ele>330</ele>
        <time>2024-12-23T21:12:07.574Z</time>
      </trkpt>
      <trkpt lat="48.14945" lon="5.19041">
        <ele>330.47</ele>
        <time>2024-12-23T21:12:08.531Z</time>
      </trkpt>
      <trkpt lat="48.14945" lon="5.19076">
        <ele>330.95</ele>
        <time>2024-12-23T21:12:09.492Z</time>
      </trkpt>
      <trkpt lat="48.14942" lon="5.19119">
        <ele>331.5</ele>
        <time>2024-12-23T21:12:10.458Z</time>
      </trkpt>
      <trkpt lat="48.14939" lon="5.19162">
        <ele>332.01</ele>
        <time>2024-12-23T21:12:11.428Z</time>
      </trkpt>
      <trkpt lat="48.14932" lon="5.19201">
        <ele>332.56</ele>
        <time>2024-12-23T21:12:12.403Z</time>
      </trkpt>
      <trkpt lat="48.14921" lon="5.19239">
        <ele>333.08</ele>
        <time>2024-12-23T21:12:13.382Z</time>
      </trkpt>
      <trkpt lat="48.1491" lon="5.19278">
        <ele>333.62</ele>
        <time>2024-12-23T21:12:14.366Z</time>
      </trkpt>
      <trkpt lat="48.14898" lon="5.19317">
        <ele>334.19</ele>
        <time>2024-12-23T21:12:15.354Z</time>
      </trkpt>
      <trkpt lat="48.14887" lon="5.19355">
        <ele>334.8</ele>
        <time>2024-12-23T21:12:16.347Z</time>
      </trkpt>
      <trkpt lat="48.14878" lon="5.19379">
        <ele>335.4</ele>
        <time>2024-12-23T21:12:17.343Z</time>
      </trkpt>
      <trkpt lat="48.1487" lon="5.19402">
        <ele>335.96</ele>
        <time>2024-12-23T21:12:18.341Z</time>
      </trkpt>
      <trkpt lat="48.14858" lon="5.19427">
        <ele>336.54</ele>
        <time>2024-12-23T21:12:19.343Z</time>
      </trkpt>
      <trkpt lat="48.14846" lon="5.19452">
        <ele>337.07</ele>
        <time>2024-12-23T21:12:20.348Z</time>
      </trkpt>
      <trkpt lat="48.14828" lon="5.1949">
        <ele>337.62</ele>
        <time>2024-12-23T21:12:21.358Z</time>
      </trkpt>
      <trkpt lat="48.1481" lon="5.19529">
        <ele>338.18</ele>
        <time>2024-12-23T21:12:22.373Z</time>
      </trkpt>
      <trkpt lat="48.14793" lon="5.19567">
        <ele>338.67</ele>
        <time>2024-12-23T21:12:23.393Z</time>
      </trkpt>
      <trkpt lat="48.1479" lon="5.19573">
        <ele>339.15</ele>
        <time>2024-12-23T21:12:24.414Z</time>
      </trkpt>
      <trkpt lat="48.1479" lon="5.19573">
        <ele>339.6</ele>
        <time>2024-12-23T21:12:25.435Z</time>
      </trkpt>
      <trkpt lat="48.1479" lon="5.19573">
        <ele>340.04</ele>
        <time>2024-12-23T21:12:26.456Z</time>
      </trkpt>
      <trkpt lat="48.1479" lon="5.19573">
        <ele>340.46</ele>
        <time>2024-12-23T21:12:27.477Z</time>
      </trkpt>
      <trkpt lat="48.1479" lon="5.19573">
        <ele>340.87</ele>
        <time>2024-12-23T21:12:28.498Z</time>
      </trkpt>
      <trkpt lat="48.14773" lon="5.1961">
        <ele>341.31</ele>
        <time>2024-12-23T21:12:29.524Z</time>
      </trkpt>
      <trkpt lat="48.14755" lon="5.19647">
        <ele>341.73</ele>
        <time>2024-12-23T21:12:30.554Z</time>
      </trkpt>
      <trkpt lat="48.14737" lon="5.19685">
        <ele>342.08</ele>
        <time>2024-12-23T21:12:31.589Z</time>
      </trkpt>
      <trkpt lat="48.1472" lon="5.19722">
        <ele>342.43</ele>
        <time>2024-12-23T21:12:32.629Z</time>
      </trkpt>
      <trkpt lat="48.14704" lon="5.19756">
        <ele>342.75</ele>
        <time>2024-12-23T21:12:33.674Z</time>
      </trkpt>
      <trkpt lat="48.14689" lon="5.1979">
        <ele>343.05</ele>
        <time>2024-12-23T21:12:34.723Z</time>
      </trkpt>
      <trkpt lat="48.14674" lon="5.19825">
        <ele>343.35</ele>
        <time>2024-12-23T21:12:35.777Z</time>
      </trkpt>
      <trkpt lat="48.14658" lon="5.19859">
        <ele>343.68</ele>
        <time>2024-12-23T21:12:36.835Z</time>
      </trkpt>
      <trkpt lat="48.14643" lon="5.19894">
        <ele>343.95</ele>
        <time>2024-12-23T21:12:37.897Z</time>
      </trkpt>
      <trkpt lat="48.14627" lon="5.19928">
        <ele>344.2</ele>
        <time>2024-12-23T21:12:38.964Z</time>
      </trkpt>
      <trkpt lat="48.14612" lon="5.19963">
        <ele>344.45</ele>
        <time>2024-12-23T21:12:40.035Z</time>
      </trkpt>
      <trkpt lat="48.14597" lon="5.19999">
        <ele>344.74</ele>
        <time>2024-12-23T21:12:41.111Z</time>
      </trkpt>
      <trkpt lat="48.1459" lon="5.20036">
        <ele>344.95</ele>
        <time>2024-12-23T21:12:42.191Z</time>
      </trkpt>
      <trkpt lat="48.14582" lon="5.20073">
        <ele>345.16</ele>
        <time>2024-12-23T21:12:43.275Z</time>
      </trkpt>
      <trkpt lat="48.14574" lon="5.2011">
        <ele>345.37</ele>
        <time>2024-12-23T21:12:44.363Z</time>
      </trkpt>
      <trkpt lat="48.14564" lon="5.20152">
        <ele>345.59</ele>
        <time>2024-12-23T21:12:45.456Z</time>
      </trkpt>
      <trkpt lat="48.14553" lon="5.20193">
        <ele>345.79</ele>
        <time>2024-12-23T21:12:46.554Z</time>
      </trkpt>
      <trkpt lat="48.14543" lon="5.20235">
        <ele>345.95</ele>
        <time>2024-12-23T21:12:47.657Z</time>
      </trkpt>
      <trkpt lat="48.14533" lon="5.20277">
        <ele>346.1</ele>
        <time>2024-12-23T21:12:48.764Z</time>
      </trkpt>
      <trkpt lat="48.14522" lon="5.20319">
        <ele>346.35</ele>
        <time>2024-12-23T21:12:49.876Z</time>
      </trkpt>
      <trkpt lat="48.14512" lon="5.20346">
        <ele>346.53</ele>
        <time>2024-12-23T21:12:50.992Z</time>
      </trkpt>
      <trkpt lat="48.14501" lon="5.20374">
        <ele>346.75</ele>
        <time>2024-12-23T21:12:52.111Z</time>
      </trkpt>
      <trkpt lat="48.14485" lon="5.20412">
        <ele>346.92</ele>
        <time>2024-12-23T21:12:53.235Z</time>
      </trkpt>
      <trkpt lat="48.14469" lon="5.2045">
        <ele>347.08</ele>
        <time>2024-12-23T21:12:54.364Z</time>
      </trkpt>
      <trkpt lat="48.14454" lon="5.20488">
        <ele>347.14</ele>
        <time>2024-12-23T21:12:55.497Z</time>
      </trkpt>
      <trkpt lat="48.14482" lon="5.20506">
        <ele>347.25</ele>
        <time>2024-12-23T21:12:56.635Z</time>
      </trkpt>
      <trkpt lat="48.1451" lon="5.20523">
        <ele>347.34</ele>
        <time>2024-12-23T21:12:57.778Z</time>
      </trkpt>
      <trkpt lat="48.14539" lon="5.20541">
        <ele>347.42</ele>
        <time>2024-12-23T21:12:58.926Z</time>
      </trkpt>
      <trkpt lat="48.14567" lon="5.20558">
        <ele>347.48</ele>
        <time>2024-12-23T21:13:00.079Z</time>
      </trkpt>
      <trkpt lat="48.14595" lon="5.20576">
        <ele>347.54</ele>
        <time>2024-12-23T21:13:01.237Z</time>
      </trkpt>
      <trkpt lat="48.14624" lon="5.20594">
        <ele>347.55</ele>
        <time>2024-12-23T21:13:02.400Z</time>
      </trkpt>
      <trkpt lat="48.14652" lon="5.20611">
        <ele>347.6</ele>
        <time>2024-12-23T21:13:03.568Z</time>
      </trkpt>
      <trkpt lat="48.1468" lon="5.20629">
        <ele>347.7</ele>
        <time>2024-12-23T21:13:04.741Z</time>
      </trkpt>
      <trkpt lat="48.14709" lon="5.20647">
        <ele>347.76</ele>
        <time>2024-12-23T21:13:05.919Z</time>
      </trkpt>
      <trkpt lat="48.14737" lon="5.20664">
        <ele>347.83</ele>
        <time>2024-12-23T21:13:07.102Z</time>
      </trkpt>
      <trkpt lat="48.14766" lon="5.20682">
        <ele>347.94</ele>
        <time>2024-12-23T21:13:08.289Z</time>
      </trkpt>
      <trkpt lat="48.14794" lon="5.207">
        <ele>348.06</ele>
        <time>2024-12-23T21:13:09.481Z</time>
      </trkpt>
      <trkpt lat="48.14822" lon="5.20717">
        <ele>348.12</ele>
        <time>2024-12-23T21:13:10.678Z</time>
      </trkpt>
      <trkpt lat="48.14851" lon="5.20735">
        <ele>348.17</ele>
        <time>2024-12-23T21:13:11.880Z</time>
      </trkpt>
      <trkpt lat="48.14879" lon="5.20752">
        <ele>348.27</ele>
        <time>2024-12-23T21:13:13.087Z</time>
      </trkpt>
      <trkpt lat="48.14907" lon="5.2077">
        <ele>348.37</ele>
        <time>2024-12-23T21:13:14.299Z</time>
      </trkpt>
      <trkpt lat="48.14936" lon="5.20788">
        <ele>348.47</ele>
        <time>2024-12-23T21:13:15.516Z</time>
      </trkpt>
      <trkpt lat="48.14964" lon="5.20805">
        <ele>348.63</ele>
        <time>2024-12-23T21:13:16.738Z</time>
      </trkpt>
      <trkpt lat="48.14992" lon="5.20823">
        <ele>348.76</ele>
        <time>2024-12-23T21:13:17.965Z</time>
      </trkpt>
      <trkpt lat="48.15021" lon="5.20841">
        <ele>348.92</ele>
        <time>2024-12-23T21:13:19.197Z</time>
      </trkpt>
      <trkpt lat="48.15049" lon="5.20858">
        <ele>349.08</ele>
        <time>2024-12-23T21:13:20.434Z</time>
      </trkpt>
      <trkpt lat="48.15078" lon="5.20876">
        <ele>349.1</ele>
        <time>2024-12-23T21:13:21.676Z</time>
      </trkpt>
      <trkpt lat="48.15106" lon="5.20894">
        <ele>349.17</ele>
        <time>2024-12-23T21:13:22.922Z</time>
      </trkpt>
      <trkpt lat="48.15132" lon="5.20917">
        <ele>349.26</ele>
        <time>2024-12-23T21:13:24.173Z</time>
      </trkpt>
      <trkpt lat="48.15158" lon="5.20942">
        <ele>349.28</ele>
        <time>2024-12-23T21:13:25.429Z</time>
      </trkpt>
      <trkpt lat="48.15184" lon="5.20966">
        <ele>349.26</ele>
        <time>2024-12-23T21:13:26.690Z</time>
      </trkpt>
      <trkpt lat="48.1521" lon="5.20991">
        <ele>349.04</ele>
        <time>2024-12-23T21:13:27.956Z</time>
      </trkpt>
      <trkpt lat="48.15236" lon="5.21015">
        <ele>348.83</ele>
        <time>2024-12-23T21:13:29.227Z</time>
      </trkpt>
      <trkpt lat="48.15262" lon="5.2104">
        <ele>348.67</ele>
        <time>2024-12-23T21:13:30.503Z</time>
      </trkpt>
      <trkpt lat="48.15288" lon="5.21064">
        <ele>348.48</ele>
        <time>2024-12-23T21:13:31.784Z</time>
      </trkpt>
      <trkpt lat="48.15314" lon="5.21088">
        <ele>348.26</ele>
        <time>2024-12-23T21:13:33.070Z</time>
      </trkpt>
      <trkpt lat="48.1534" lon="5.21113">
        <ele>348.02</ele>
        <time>2024-12-23T21:13:34.361Z</time>
      </trkpt>
      <trkpt lat="48.15366" lon="5.21137">
        <ele>347.78</ele>
        <time>2024-12-23T21:13:35.657Z</time>
      </trkpt>
      <trkpt lat="48.15393" lon="5.21162">
        <ele>347.57</ele>
        <time>2024-12-23T21:13:36.958Z</time>
      </trkpt>
      <trkpt lat="48.15419" lon="5.21186">
        <ele>347.38</ele>
        <time>2024-12-23T21:13:38.264Z</time>
      </trkpt>
      <trkpt lat="48.15445" lon="5.21211">
        <ele>347.15</ele>
        <time>2024-12-23T21:13:39.575Z</time>
      </trkpt>
      <trkpt lat="48.15471" lon="5.21235">
        <ele>346.85</ele>
        <time>2024-12-23T21:13:40.890Z</time>
      </trkpt>
      <trkpt lat="48.15497" lon="5.21259">
        <ele>346.54</ele>
        <time>2024-12-23T21:13:42.210Z</time>
      </trkpt>
      <trkpt lat="48.15523" lon="5.21284">
        <ele>346.23</ele>
        <time>2024-12-23T21:13:43.535Z</time>
      </trkpt>
      <trkpt lat="48.15549" lon="5.21308">
        <ele>346.08</ele>
        <time>2024-12-23T21:13:44.865Z</time>
      </trkpt>
      <trkpt lat="48.15575" lon="5.21333">
        <ele>346.01</ele>
        <time>2024-12-23T21:13:46.200Z</time>
      </trkpt>
      <trkpt lat="48.15601" lon="5.21357">
        <ele>345.88</ele>
        <time>2024-12-23T21:13:47.540Z</time>
      </trkpt>
      <trkpt lat="48.15627" lon="5.21382">
        <ele>345.75</ele>
        <time>2024-12-23T21:13:48.885Z</time>
      </trkpt>
      <trkpt lat="48.15654" lon="5.21406">
        <ele>345.71</ele>
        <time>2024-12-23T21:13:50.235Z</time>
      </trkpt>
      <trkpt lat="48.1568" lon="5.2143">
        <ele>345.68</ele>
        <time>2024-12-23T21:13:51.590Z</time>
      </trkpt>
      <trkpt lat="48.15706" lon="5.21455">
        <ele>345.59</ele>
        <time>2024-12-23T21:13:52.950Z</time>
      </trkpt>
      <trkpt lat="48.15732" lon="5.21479">
        <ele>345.47</ele>
        <time>2024-12-23T21:13:54.315Z</time>
      </trkpt>
      <trkpt lat="48.15758" lon="5.21504">
        <ele>345.33</ele>
        <time>2024-12-23T21:13:55.685Z</time>
      </trkpt>
      <trkpt lat="48.15784" lon="5.21528">
        <ele>345.17</ele>
        <time>2024-12-23T21:13:57.060Z</time>
      </trkpt>
      <trkpt lat="48.1581" lon="5.21553">
        <ele>345.02</ele>
        <time>2024-12-23T21:13:58.440Z</time>
      </trkpt>
      <trkpt lat="48.15836" lon="5.21577">
        <ele>344.89</ele>
        <time>2024-12-23T21:13:59.824Z</time>
      </trkpt>
      <trkpt lat="48.15862" lon="5.21601">
        <ele>344.8</ele>
        <time>2024-12-23T21:14:01.213Z</time>
      </trkpt>
      <trkpt lat="48.15888" lon="5.21626">
        <ele>344.72</ele>
        <time>2024-12-23T21:14:02.607Z</time>
      </trkpt>
      <trkpt lat="48.15915" lon="5.2165">
        <ele>344.63</ele>
        <time>2024-12-23T21:14:04.006Z</time>
      </trkpt>
      <trkpt lat="48.15941" lon="5.21675">
        <ele>344.53</ele>
        <time>2024-12-23T21:14:05.410Z</time>
      </trkpt>
      <trkpt lat="48.15966" lon="5.21698">
        <ele>344.49</ele>
        <time>2024-12-23T21:14:06.819Z</time>
      </trkpt>
      <trkpt lat="48.15991" lon="5.21722">
        <ele>344.41</ele>
        <time>2024-12-23T21:14:08.233Z</time>
      </trkpt>
      <trkpt lat="48.16017" lon="5.21746">
        <ele>344.34</ele>
        <time>2024-12-23T21:14:09.652Z</time>
      </trkpt>
      <trkpt lat="48.16043" lon="5.2177">
        <ele>344.27</ele>
        <time>2024-12-23T21:14:11.075Z</time>
      </trkpt>
      <trkpt lat="48.16068" lon="5.21794">
        <ele>344.25</ele>
        <time>2024-12-23T21:14:12.503Z</time>
      </trkpt>
      <trkpt lat="48.16094" lon="5.21818">
        <ele>344.19</ele>
        <time>2024-12-23T21:14:13.936Z</time>
      </trkpt>
      <trkpt lat="48.16119" lon="5.21842">
        <ele>344.13</ele>
        <time>2024-12-23T21:14:15.374Z</time>
      </trkpt>
      <trkpt lat="48.16145" lon="5.21866">
        <ele>344.06</ele>
        <time>2024-12-23T21:14:16.817Z</time>
      </trkpt>
      <trkpt lat="48.1617" lon="5.2189">
        <ele>344</ele>
        <time>2024-12-23T21:14:18.265Z</time>
      </trkpt>
      <trkpt lat="48.16196" lon="5.21914">
        <ele>343.94</ele>
        <time>2024-12-23T21:14:19.717Z</time>
      </trkpt>
      <trkpt lat="48.16221" lon="5.21938">
        <ele>343.86</ele>
        <time>2024-12-23T21:14:21.174Z</time>
      </trkpt>
      <trkpt lat="48.16247" lon="5.21962">
        <ele>343.71</ele>
        <time>2024-12-23T21:14:22.636Z</time>
      </trkpt>
      <trkpt lat="48.16272" lon="5.21986">
        <ele>343.57</ele>
        <time>2024-12-23T21:14:24.103Z</time>
      </trkpt>
      <trkpt lat="48.16298" lon="5.22009">
        <ele>343.49</ele>
        <time>2024-12-23T21:14:25.575Z</time>
      </trkpt>
      <trkpt lat="48.16324" lon="5.22033">
        <ele>343.46</ele>
        <time>2024-12-23T21:14:27.052Z</time>
      </trkpt>
      <trkpt lat="48.16349" lon="5.22057">
        <ele>343.46</ele>
        <time>2024-12-23T21:14:28.533Z</time>
      </trkpt>
      <trkpt lat="48.16375" lon="5.22081">
        <ele>343.49</ele>
        <time>2024-12-23T21:14:30.019Z</time>
      </trkpt>
      <trkpt lat="48.164" lon="5.22105">
        <ele>343.46</ele>
        <time>2024-12-23T21:14:31.510Z</time>
      </trkpt>
      <trkpt lat="48.16426" lon="5.22129">
        <ele>343.41</ele>
        <time>2024-12-23T21:14:33.006Z</time>
      </trkpt>
      <trkpt lat="48.16451" lon="5.22153">
        <ele>343.42</ele>
        <time>2024-12-23T21:14:34.507Z</time>
      </trkpt>
      <trkpt lat="48.16475" lon="5.22175">
        <ele>343.45</ele>
        <time>2024-12-23T21:14:36.012Z</time>
      </trkpt>
      <trkpt lat="48.16498" lon="5.22197">
        <ele>343.51</ele>
        <time>2024-12-23T21:14:37.522Z</time>
      </trkpt>
      <trkpt lat="48.16522" lon="5.2222">
        <ele>343.58</ele>
        <time>2024-12-23T21:14:39.036Z</time>
      </trkpt>
      <trkpt lat="48.16546" lon="5.22242">
        <ele>343.69</ele>
        <time>2024-12-23T21:14:40.555Z</time>
      </trkpt>
      <trkpt lat="48.16569" lon="5.22264">
        <ele>343.8</ele>
        <time>2024-12-23T21:14:42.078Z</time>
      </trkpt>
      <trkpt lat="48.16593" lon="5.22286">
        <ele>343.87</ele>
        <time>2024-12-23T21:14:43.605Z</time>
      </trkpt>
      <trkpt lat="48.16607" lon="5.22248">
        <ele>343.97</ele>
        <time>2024-12-23T21:14:45.137Z</time>
      </trkpt>
      <trkpt lat="48.16621" lon="5.22209">
        <ele>344.13</ele>
        <time>2024-12-23T21:14:46.674Z</time>
      </trkpt>
      <trkpt lat="48.16642" lon="5.22178">
        <ele>344.21</ele>
        <time>2024-12-23T21:14:48.216Z</time>
      </trkpt>
      <trkpt lat="48.16664" lon="5.22147">
        <ele>344.22</ele>
        <time>2024-12-23T21:14:49.762Z</time>
      </trkpt>
      <trkpt lat="48.16668" lon="5.2214">
        <ele>344.18</ele>
        <time>2024-12-23T21:14:51.309Z</time>
      </trkpt>
      <trkpt lat="48.16689" lon="5.22117">
        <ele>344.16</ele>
        <time>2024-12-23T21:14:52.861Z</time>
      </trkpt>
      <trkpt lat="48.1671" lon="5.22094">
        <ele>344.07</ele>
        <time>2024-12-23T21:14:54.417Z</time>
      </trkpt>
      <trkpt lat="48.1673" lon="5.22072">
        <ele>343.95</ele>
        <time>2024-12-23T21:14:55.977Z</time>
      </trkpt>
      <trkpt lat="48.16752" lon="5.2205">
        <ele>343.77</ele>
        <time>2024-12-23T21:14:57.541Z</time>
      </trkpt>
      <trkpt lat="48.16773" lon="5.22029">
        <ele>343.54</ele>
        <time>2024-12-23T21:14:59.109Z</time>
      </trkpt>
      <trkpt lat="48.16784" lon="5.2201">
        <ele>343.26</ele>
        <time>2024-12-23T21:15:00.680Z</time>
      </trkpt>
      <trkpt lat="48.16795" lon="5.21992">
        <ele>342.99</ele>
        <time>2024-12-23T21:15:02.253Z</time>
      </trkpt>
      <trkpt lat="48.16802" lon="5.21956">
        <ele>342.64</ele>
        <time>2024-12-23T21:15:03.830Z</time>
      </trkpt>
      <trkpt lat="48.1681" lon="5.21919">
        <ele>342.37</ele>
        <time>2024-12-23T21:15:05.411Z</time>
      </trkpt>
      <trkpt lat="48.16817" lon="5.21881">
        <ele>341.99</ele>
        <time>2024-12-23T21:15:06.997Z</time>
      </trkpt>
      <trkpt lat="48.16824" lon="5.21842">
        <ele>341.62</ele>
        <time>2024-12-23T21:15:08.587Z</time>
      </trkpt>
      <trkpt lat="48.16831" lon="5.21804">
        <ele>341.21</ele>
        <time>2024-12-23T21:15:10.181Z</time>
      </trkpt>
      <trkpt lat="48.16838" lon="5.21765">
        <ele>340.8</ele>
        <time>2024-12-23T21:15:11.780Z</time>
      </trkpt>
      <trkpt lat="48.16845" lon="5.21726">
        <ele>340.38</ele>
        <time>2024-12-23T21:15:13.383Z</time>
      </trkpt>
      <trkpt lat="48.16853" lon="5.21688">
        <ele>339.95</ele>
        <time>2024-12-23T21:15:14.990Z</time>
      </trkpt>
      <trkpt lat="48.16859" lon="5.21652">
        <ele>339.63</ele>
        <time>2024-12-23T21:15:16.601Z</time>
      </trkpt>
      <trkpt lat="48.16865" lon="5.21616">
        <ele>339.23</ele>
        <time>2024-12-23T21:15:18.216Z</time>
      </trkpt>
      <trkpt lat="48.16872" lon="5.2158">
        <ele>338.85</ele>
        <time>2024-12-23T21:15:19.835Z</time>
      </trkpt>
      <trkpt lat="48.16852" lon="5.21569">
        <ele>338.5</ele>
        <time>2024-12-23T21:15:21.458Z</time>
      </trkpt>
      <trkpt lat="48.16832" lon="5.21559">
        <ele>338.11</ele>
        <time>2024-12-23T21:15:23.084Z</time>
      </trkpt>
      <trkpt lat="48.16812" lon="5.21548">
        <ele>337.77</ele>
        <time>2024-12-23T21:15:24.713Z</time>
      </trkpt>
      <trkpt lat="48.16784" lon="5.21534">
        <ele>337.45</ele>
        <time>2024-12-23T21:15:26.347Z</time>
      </trkpt>
      <trkpt lat="48.16756" lon="5.21519">
        <ele>337.15</ele>
        <time>2024-12-23T21:15:27.986Z</time>
      </trkpt>
      <trkpt lat="48.16728" lon="5.21505">
        <ele>336.85</ele>
        <time>2024-12-23T21:15:29.629Z</time>
      </trkpt>
      <trkpt lat="48.16711" lon="5.21494">
        <ele>336.54</ele>
        <time>2024-12-23T21:15:31.275Z</time>
      </trkpt>
      <trkpt lat="48.16694" lon="5.21475">
        <ele>336.27</ele>
        <time>2024-12-23T21:15:32.925Z</time>
      </trkpt>
      <trkpt lat="48.16679" lon="5.21458">
        <ele>336.05</ele>
        <time>2024-12-23T21:15:34.578Z</time>
      </trkpt>
      <trkpt lat="48.16672" lon="5.21447">
        <ele>335.87</ele>
        <time>2024-12-23T21:15:36.232Z</time>
      </trkpt>
      <trkpt lat="48.16682" lon="5.21418">
        <ele>335.7</ele>
        <time>2024-12-23T21:15:37.890Z</time>
      </trkpt>
      <trkpt lat="48.16691" lon="5.21389">
        <ele>335.55</ele>
        <time>2024-12-23T21:15:39.551Z</time>
      </trkpt>
      <trkpt lat="48.167" lon="5.21359">
        <ele>335.45</ele>
        <time>2024-12-23T21:15:41.216Z</time>
      </trkpt>
      <trkpt lat="48.16708" lon="5.21328">
        <ele>335.4</ele>
        <time>2024-12-23T21:15:42.884Z</time>
      </trkpt>
      <trkpt lat="48.16708" lon="5.21328">
        <ele>335.34</ele>
        <time>2024-12-23T21:15:44.552Z</time>
      </trkpt>
      <trkpt lat="48.16708" lon="5.21328">
        <ele>335.31</ele>
        <time>2024-12-23T21:15:46.220Z</time>
      </trkpt>
      <trkpt lat="48.16708" lon="5.21328">
        <ele>335.29</ele>
        <time>2024-12-23T21:15:47.888Z</time>
      </trkpt>
      <trkpt lat="48.16708" lon="5.21328">
        <ele>335.3</ele>
        <time>2024-12-23T21:15:49.557Z</time>
      </trkpt>
      <trkpt lat="48.16708" lon="5.21328">
        <ele>335.31</ele>
        <time>2024-12-23T21:15:51.226Z</time>
      </trkpt>
      <trkpt lat="48.16708" lon="5.21328">
        <ele>335.34</ele>
        <time>2024-12-23T21:15:52.895Z</time>
      </trkpt>
      <trkpt lat="48.16708" lon="5.21328">
        <ele>335.37</ele>
        <time>2024-12-23T21:15:54.564Z</time>
      </trkpt>
      <trkpt lat="48.167" lon="5.21359">
        <ele>335.45</ele>
        <time>2024-12-23T21:15:56.236Z</time>
      </trkpt>
      <trkpt lat="48.16691" lon="5.21388">
        <ele>335.43</ele>
        <time>2024-12-23T21:15:57.912Z</time>
      </trkpt>
      <trkpt lat="48.16682" lon="5.21418">
        <ele>335.49</ele>
        <time>2024-12-23T21:15:59.591Z</time>
      </trkpt>
      <trkpt lat="48.16672" lon="5.21447">
        <ele>335.87</ele>
        <time>2024-12-23T21:16:01.273Z</time>
      </trkpt>
      <trkpt lat="48.16679" lon="5.21458">
        <ele>336.05</ele>
        <time>2024-12-23T21:16:02.957Z</time>
      </trkpt>
      <trkpt lat="48.16694" lon="5.21475">
        <ele>336.27</ele>
        <time>2024-12-23T21:16:04.644Z</time>
      </trkpt>
      <trkpt lat="48.16711" lon="5.21494">
        <ele>336.54</ele>
        <time>2024-12-23T21:16:06.335Z</time>
      </trkpt>
      <trkpt lat="48.16728" lon="5.21505">
        <ele>336.85</ele>
        <time>2024-12-23T21:16:08.028Z</time>
      </trkpt>
      <trkpt lat="48.16756" lon="5.21519">
        <ele>337.15</ele>
        <time>2024-12-23T21:16:09.726Z</time>
      </trkpt>
      <trkpt lat="48.16784" lon="5.21534">
        <ele>337.45</ele>
        <time>2024-12-23T21:16:11.429Z</time>
      </trkpt>
      <trkpt lat="48.16812" lon="5.21548">
        <ele>337.77</ele>
        <time>2024-12-23T21:16:13.137Z</time>
      </trkpt>
      <trkpt lat="48.16832" lon="5.21559">
        <ele>335.26</ele>
        <time>2024-12-23T21:16:14.848Z</time>
      </trkpt>
      <trkpt lat="48.16852" lon="5.21569">
        <ele>335.12</ele>
        <time>2024-12-23T21:16:16.562Z</time>
      </trkpt>
      <trkpt lat="48.16872" lon="5.2158">
        <ele>338.85</ele>
        <time>2024-12-23T21:16:18.280Z</time>
      </trkpt>
      <trkpt lat="48.16898" lon="5.21593">
        <ele>334.58</ele>
        <time>2024-12-23T21:16:20.002Z</time>
      </trkpt>
      <trkpt lat="48.16921" lon="5.21604">
        <ele>334.25</ele>
        <time>2024-12-23T21:16:21.728Z</time>
      </trkpt>
      <trkpt lat="48.16945" lon="5.21615">
        <ele>333.91</ele>
        <time>2024-12-23T21:16:23.458Z</time>
      </trkpt>
      <trkpt lat="48.16968" lon="5.21625">
        <ele>333.54</ele>
        <time>2024-12-23T21:16:25.192Z</time>
      </trkpt>
      <trkpt lat="48.16992" lon="5.21636">
        <ele>333.14</ele>
        <time>2024-12-23T21:16:26.930Z</time>
      </trkpt>
      <trkpt lat="48.17014" lon="5.21655">
        <ele>332.71</ele>
        <time>2024-12-23T21:16:28.672Z</time>
      </trkpt>
      <trkpt lat="48.1703" lon="5.21667">
        <ele>332.28</ele>
        <time>2024-12-23T21:16:30.417Z</time>
      </trkpt>
      <trkpt lat="48.17046" lon="5.21679">
        <ele>331.82</ele>
        <time>2024-12-23T21:16:32.165Z</time>
      </trkpt>
      <trkpt lat="48.17072" lon="5.21688">
        <ele>331.37</ele>
        <time>2024-12-23T21:16:33.917Z</time>
      </trkpt>
      <trkpt lat="48.17098" lon="5.21696">
        <ele>330.92</ele>
        <time>2024-12-23T21:16:35.673Z</time>
      </trkpt>
      <trkpt lat="48.17124" lon="5.21705">
        <ele>330.47</ele>
        <time>2024-12-23T21:16:37.434Z</time>
      </trkpt>
      <trkpt lat="48.1715" lon="5.21713">
        <ele>330.04</ele>
        <time>2024-12-23T21:16:39.199Z</time>
      </trkpt>
      <trkpt lat="48.17177" lon="5.21722">
        <ele>329.6</ele>
        <time>2024-12-23T21:16:40.968Z</time>
      </trkpt>
      <trkpt lat="48.172" lon="5.21737">
        <ele>329.21</ele>
        <time>2024-12-23T21:16:42.741Z</time>
      </trkpt>
      <trkpt lat="48.17224" lon="5.21752">
        <ele>328.86</ele>
        <time>2024-12-23T21:16:44.518Z</time>
      </trkpt>
      <trkpt lat="48.17247" lon="5.21767">
        <ele>328.58</ele>
        <time>2024-12-23T21:16:46.300Z</time>
      </trkpt>
      <trkpt lat="48.17271" lon="5.21782">
        <ele>328.35</ele>
        <time>2024-12-23T21:16:48.086Z</time>
      </trkpt>
      <trkpt lat="48.17281" lon="5.2179">
        <ele>328.11</ele>
        <time>2024-12-23T21:16:49.874Z</time>
      </trkpt>
      <trkpt lat="48.17281" lon="5.2179">
        <ele>327.93</ele>
        <time>2024-12-23T21:16:51.662Z</time>
      </trkpt>
      <trkpt lat="48.17281" lon="5.2179">
        <ele>327.79</ele>
        <time>2024-12-23T21:16:53.450Z</time>
      </trkpt>
      <trkpt lat="48.17281" lon="5.2179">
        <ele>327.7</ele>
        <time>2024-12-23T21:16:55.238Z</time>
      </trkpt>
      <trkpt lat="48.17281" lon="5.2179">
        <ele>327.66</ele>
        <time>2024-12-23T21:16:57.026Z</time>
      </trkpt>
      <trkpt lat="48.17281" lon="5.2179">
        <ele>327.67</ele>
        <time>2024-12-23T21:16:58.814Z</time>
      </trkpt>
      <trkpt lat="48.17281" lon="5.2179">
        <ele>327.74</ele>
        <time>2024-12-23T21:17:00.602Z</time>
      </trkpt>
      <trkpt lat="48.17281" lon="5.2179">
        <ele>327.85</ele>
        <time>2024-12-23T21:17:02.390Z</time>
      </trkpt>
      <trkpt lat="48.17271" lon="5.21782">
        <ele>328.35</ele>
        <time>2024-12-23T21:17:04.179Z</time>
      </trkpt>
      <trkpt lat="48.17247" lon="5.21767">
        <ele>328.23</ele>
        <time>2024-12-23T21:17:05.972Z</time>
      </trkpt>
      <trkpt lat="48.17224" lon="5.21752">
        <ele>328.49</ele>
        <time>2024-12-23T21:17:07.770Z</time>
      </trkpt>
      <trkpt lat="48.172" lon="5.21737">
        <ele>328.83</ele>
        <time>2024-12-23T21:17:09.572Z</time>
      </trkpt>
      <trkpt lat="48.17177" lon="5.21722">
        <ele>329.6</ele>
        <time>2024-12-23T21:17:11.378Z</time>
      </trkpt>
      <trkpt lat="48.1715" lon="5.21713">
        <ele>329.72</ele>
        <time>2024-12-23T21:17:13.188Z</time>
      </trkpt>
      <trkpt lat="48.17124" lon="5.21705">
        <ele>330.22</ele>
        <time>2024-12-23T21:17:15.002Z</time>
      </trkpt>
      <trkpt lat="48.17098" lon="5.21696">
        <ele>330.76</ele>
        <time>2024-12-23T21:17:16.821Z</time>
      </trkpt>
      <trkpt lat="48.17072" lon="5.21687">
        <ele>331.34</ele>
        <time>2024-12-23T21:17:18.644Z</time>
      </trkpt>
      <trkpt lat="48.17046" lon="5.21679">
        <ele>331.82</ele>
        <time>2024-12-23T21:17:20.471Z</time>
      </trkpt>
      <trkpt lat="48.1703" lon="5.21667">
        <ele>332.59</ele>
        <time>2024-12-23T21:17:22.301Z</time>
      </trkpt>
      <trkpt lat="48.17014" lon="5.21655">
        <ele>332.71</ele>
        <time>2024-12-23T21:17:24.134Z</time>
      </trkpt>
      <trkpt lat="48.16992" lon="5.21636">
        <ele>333.14</ele>
        <time>2024-12-23T21:17:25.971Z</time>
      </trkpt>
      <trkpt lat="48.16968" lon="5.21625">
        <ele>334.64</ele>
        <time>2024-12-23T21:17:27.812Z</time>
      </trkpt>
      <trkpt lat="48.16945" lon="5.21615">
        <ele>335.33</ele>
        <time>2024-12-23T21:17:29.657Z</time>
      </trkpt>
      <trkpt lat="48.16921" lon="5.21604">
        <ele>336.03</ele>
        <time>2024-12-23T21:17:31.506Z</time>
      </trkpt>
      <trkpt lat="48.16898" lon="5.21593">
        <ele>334.58</ele>
        <time>2024-12-23T21:17:33.359Z</time>
      </trkpt>
      <trkpt lat="48.16872" lon="5.2158">
        <ele>338.85</ele>
        <time>2024-12-23T21:17:35.216Z</time>
      </trkpt>
      <trkpt lat="48.16865" lon="5.21616">
        <ele>338.16</ele>
        <time>2024-12-23T21:17:37.077Z</time>
      </trkpt>
      <trkpt lat="48.16859" lon="5.21652">
        <ele>338.84</ele>
        <time>2024-12-23T21:17:38.942Z</time>
      </trkpt>
      <trkpt lat="48.16853" lon="5.21688">
        <ele>339.95</ele>
        <time>2024-12-23T21:17:40.811Z</time>
      </trkpt>
      <trkpt lat="48.16846" lon="5.21726">
        <ele>340.09</ele>
        <time>2024-12-23T21:17:42.684Z</time>
      </trkpt>
      <trkpt lat="48.16838" lon="5.21764">
        <ele>340.73</ele>
        <time>2024-12-23T21:17:44.562Z</time>
      </trkpt>
      <trkpt lat="48.16831" lon="5.21803">
        <ele>341.35</ele>
        <time>2024-12-23T21:17:46.444Z</time>
      </trkpt>
      <trkpt lat="48.16824" lon="5.21842">
        <ele>341.93</ele>
        <time>2024-12-23T21:17:48.330Z</time>
      </trkpt>
      <trkpt lat="48.16817" lon="5.21881">
        <ele>342.48</ele>
        <time>2024-12-23T21:17:50.221Z</time>
      </trkpt>
      <trkpt lat="48.1681" lon="5.21919">
        <ele>342.37</ele>
        <time>2024-12-23T21:17:52.116Z</time>
      </trkpt>
      <trkpt lat="48.16802" lon="5.21956">
        <ele>343.4</ele>
        <time>2024-12-23T21:17:54.015Z</time>
      </trkpt>
      <trkpt lat="48.16795" lon="5.21992">
        <ele>342.99</ele>
        <time>2024-12-23T21:17:55.918Z</time>
      </trkpt>
      <trkpt lat="48.16784" lon="5.2201">
        <ele>344.22</ele>
        <time>2024-12-23T21:17:57.824Z</time>
      </trkpt>
      <trkpt lat="48.16773" lon="5.22029">
        <ele>343.54</ele>
        <time>2024-12-23T21:17:59.732Z</time>
      </trkpt>
      <trkpt lat="48.16752" lon="5.2205">
        <ele>344.87</ele>
        <time>2024-12-23T21:18:01.644Z</time>
      </trkpt>
      <trkpt lat="48.1673" lon="5.22072">
        <ele>343.95</ele>
        <time>2024-12-23T21:18:03.560Z</time>
      </trkpt>
      <trkpt lat="48.1671" lon="5.22094">
        <ele>345.25</ele>
        <time>2024-12-23T21:18:05.481Z</time>
      </trkpt>
      <trkpt lat="48.16689" lon="5.22117">
        <ele>345.36</ele>
        <time>2024-12-23T21:18:07.406Z</time>
      </trkpt>
      <trkpt lat="48.16668" lon="5.2214">
        <ele>344.18</ele>
        <time>2024-12-23T21:18:09.335Z</time>
      </trkpt>
      <trkpt lat="48.16664" lon="5.22147">
        <ele>344.22</ele>
        <time>2024-12-23T21:18:11.265Z</time>
      </trkpt>
      <trkpt lat="48.16642" lon="5.22178">
        <ele>345.41</ele>
        <time>2024-12-23T21:18:13.200Z</time>
      </trkpt>
      <trkpt lat="48.16621" lon="5.22209">
        <ele>344.13</ele>
        <time>2024-12-23T21:18:15.139Z</time>
      </trkpt>
      <trkpt lat="48.16607" lon="5.22247">
        <ele>345.12</ele>
        <time>2024-12-23T21:18:17.083Z</time>
      </trkpt>
      <trkpt lat="48.16593" lon="5.22286">
        <ele>343.87</ele>
        <time>2024-12-23T21:18:19.032Z</time>
      </trkpt>
      <trkpt lat="48.16587" lon="5.22295">
        <ele>344.87</ele>
        <time>2024-12-23T21:18:20.982Z</time>
      </trkpt>
      <trkpt lat="48.16589" lon="5.22312">
        <ele>344.72</ele>
        <time>2024-12-23T21:18:22.934Z</time>
      </trkpt>
      <trkpt lat="48.16608" lon="5.22331">
        <ele>344.57</ele>
        <time>2024-12-23T21:18:24.890Z</time>
      </trkpt>
      <trkpt lat="48.16625" lon="5.22343">
        <ele>344.45</ele>
        <time>2024-12-23T21:18:26.849Z</time>
      </trkpt>
      <trkpt lat="48.16642" lon="5.22355">
        <ele>344.35</ele>
        <time>2024-12-23T21:18:28.811Z</time>
      </trkpt>
      <trkpt lat="48.16667" lon="5.22378">
        <ele>344.28</ele>
        <time>2024-12-23T21:18:30.778Z</time>
      </trkpt>
      <trkpt lat="48.16692" lon="5.22402">
        <ele>344.14</ele>
        <time>2024-12-23T21:18:32.749Z</time>
      </trkpt>
      <trkpt lat="48.16717" lon="5.22425">
        <ele>343.95</ele>
        <time>2024-12-23T21:18:34.725Z</time>
      </trkpt>
      <trkpt lat="48.16743" lon="5.22449">
        <ele>343.77</ele>
        <time>2024-12-23T21:18:36.706Z</time>
      </trkpt>
      <trkpt lat="48.16768" lon="5.22473">
        <ele>343.61</ele>
        <time>2024-12-23T21:18:38.692Z</time>
      </trkpt>
      <trkpt lat="48.16793" lon="5.22496">
        <ele>343.56</ele>
        <time>2024-12-23T21:18:40.682Z</time>
      </trkpt>
      <trkpt lat="48.16818" lon="5.2252">
        <ele>343.49</ele>
        <time>2024-12-23T21:18:42.677Z</time>
      </trkpt>
      <trkpt lat="48.16843" lon="5.22544">
        <ele>343.46</ele>
        <time>2024-12-23T21:18:44.677Z</time>
      </trkpt>
      <trkpt lat="48.16868" lon="5.22567">
        <ele>343.44</ele>
        <time>2024-12-23T21:18:46.682Z</time>
      </trkpt>
      <trkpt lat="48.16893" lon="5.22591">
        <ele>343.41</ele>
        <time>2024-12-23T21:18:48.691Z</time>
      </trkpt>
      <trkpt lat="48.16919" lon="5.22614">
        <ele>343.39</ele>
        <time>2024-12-23T21:18:50.705Z</time>
      </trkpt>
      <trkpt lat="48.16944" lon="5.22638">
        <ele>343.38</ele>
        <time>2024-12-23T21:18:52.724Z</time>
      </trkpt>
      <trkpt lat="48.16969" lon="5.22662">
        <ele>343.33</ele>
        <time>2024-12-23T21:18:54.748Z</time>
      </trkpt>
      <trkpt lat="48.16994" lon="5.22685">
        <ele>343.28</ele>
        <time>2024-12-23T21:18:56.776Z</time>
      </trkpt>
      <trkpt lat="48.17019" lon="5.22709">
        <ele>343.27</ele>
        <time>2024-12-23T21:18:58.809Z</time>
      </trkpt>
      <trkpt lat="48.17044" lon="5.22733">
        <ele>343.21</ele>
        <time>2024-12-23T21:19:00.847Z</time>
      </trkpt>
      <trkpt lat="48.17044" lon="5.22733">
        <ele>343.13</ele>
        <time>2024-12-23T21:19:02.885Z</time>
      </trkpt>
      <trkpt lat="48.17044" lon="5.22733">
        <ele>343.04</ele>
        <time>2024-12-23T21:19:04.923Z</time>
      </trkpt>
      <trkpt lat="48.17044" lon="5.22733">
        <ele>342.93</ele>
        <time>2024-12-23T21:19:06.961Z</time>
      </trkpt>
      <trkpt lat="48.17044" lon="5.22733">
        <ele>342.8</ele>
        <time>2024-12-23T21:19:08.999Z</time>
      </trkpt>
      <trkpt lat="48.17044" lon="5.22733">
        <ele>342.66</ele>
        <time>2024-12-23T21:19:11.037Z</time>
      </trkpt>
      <trkpt lat="48.17044" lon="5.22733">
        <ele>342.49</ele>
        <time>2024-12-23T21:19:13.075Z</time>
      </trkpt>
      <trkpt lat="48.1707" lon="5.22757">
        <ele>342.27</ele>
        <time>2024-12-23T21:19:15.118Z</time>
      </trkpt>
      <trkpt lat="48.17096" lon="5.22781">
        <ele>342.02</ele>
        <time>2024-12-23T21:19:17.166Z</time>
      </trkpt>
      <trkpt lat="48.17122" lon="5.22805">
        <ele>341.79</ele>
        <time>2024-12-23T21:19:19.219Z</time>
      </trkpt>
      <trkpt lat="48.17148" lon="5.2283">
        <ele>341.52</ele>
        <time>2024-12-23T21:19:21.276Z</time>
      </trkpt>
      <trkpt lat="48.17174" lon="5.22854">
        <ele>341.23</ele>
        <time>2024-12-23T21:19:23.338Z</time>
      </trkpt>
      <trkpt lat="48.172" lon="5.22879">
        <ele>340.92</ele>
        <time>2024-12-23T21:19:25.405Z</time>
      </trkpt>
      <trkpt lat="48.17226" lon="5.22903">
        <ele>340.65</ele>
        <time>2024-12-23T21:19:27.477Z</time>
      </trkpt>
      <trkpt lat="48.17252" lon="5.22927">
        <ele>340.31</ele>
        <time>2024-12-23T21:19:29.554Z</time>
      </trkpt>
      <trkpt lat="48.17278" lon="5.22952">
        <ele>340</ele>
        <time>2024-12-23T21:19:31.636Z</time>
      </trkpt>
      <trkpt lat="48.17304" lon="5.22976">
        <ele>339.67</ele>
        <time>2024-12-23T21:19:33.723Z</time>
      </trkpt>
      <trkpt lat="48.1733" lon="5.23001">
        <ele>339.31</ele>
        <time>2024-12-23T21:19:35.815Z</time>
      </trkpt>
      <trkpt lat="48.17356" lon="5.23025">
        <ele>339.04</ele>
        <time>2024-12-23T21:19:37.912Z</time>
      </trkpt>
      <trkpt lat="48.17382" lon="5.2305">
        <ele>338.77</ele>
        <time>2024-12-23T21:19:40.014Z</time>
      </trkpt>
      <trkpt lat="48.17408" lon="5.23074">
        <ele>338.41</ele>
        <time>2024-12-23T21:19:42.121Z</time>
      </trkpt>
      <trkpt lat="48.17434" lon="5.23098">
        <ele>338.05</ele>
        <time>2024-12-23T21:19:44.232Z</time>
      </trkpt>
      <trkpt lat="48.1746" lon="5.23123">
        <ele>337.69</ele>
        <time>2024-12-23T21:19:46.348Z</time>
      </trkpt>
      <trkpt lat="48.17485" lon="5.23147">
        <ele>337.4</ele>
        <time>2024-12-23T21:19:48.469Z</time>
      </trkpt>
      <trkpt lat="48.17511" lon="5.23172">
        <ele>337.08</ele>
        <time>2024-12-23T21:19:50.595Z</time>
      </trkpt>
      <trkpt lat="48.17537" lon="5.23196">
        <ele>336.7</ele>
        <time>2024-12-23T21:19:52.726Z</time>
      </trkpt>
      <trkpt lat="48.17563" lon="5.2322">
        <ele>336.35</ele>
        <time>2024-12-23T21:19:54.862Z</time>
      </trkpt>
      <trkpt lat="48.17589" lon="5.23245">
        <ele>336.02</ele>
        <time>2024-12-23T21:19:57.003Z</time>
      </trkpt>
      <trkpt lat="48.17615" lon="5.23269">
        <ele>335.63</ele>
        <time>2024-12-23T21:19:59.149Z</time>
      </trkpt>
      <trkpt lat="48.17641" lon="5.23294">
        <ele>335.27</ele>
        <time>2024-12-23T21:20:01.300Z</time>
      </trkpt>
      <trkpt lat="48.17667" lon="5.23318">
        <ele>334.92</ele>
        <time>2024-12-23T21:20:03.456Z</time>
      </trkpt>
      <trkpt lat="48.17693" lon="5.23342">
        <ele>334.52</ele>
        <time>2024-12-23T21:20:05.617Z</time>
      </trkpt>
      <trkpt lat="48.17719" lon="5.23367">
        <ele>334.2</ele>
        <time>2024-12-23T21:20:07.782Z</time>
      </trkpt>
      <trkpt lat="48.17745" lon="5.23391">
        <ele>333.98</ele>
        <time>2024-12-23T21:20:09.952Z</time>
      </trkpt>
      <trkpt lat="48.17752" lon="5.23413">
        <ele>333.72</ele>
        <time>2024-12-23T21:20:12.125Z</time>
      </trkpt>
      <trkpt lat="48.17747" lon="5.2343">
        <ele>333.45</ele>
        <time>2024-12-23T21:20:14.300Z</time>
      </trkpt>
      <trkpt lat="48.17725" lon="5.23456">
        <ele>333.17</ele>
        <time>2024-12-23T21:20:16.479Z</time>
      </trkpt>
      <trkpt lat="48.17702" lon="5.23482">
        <ele>332.85</ele>
        <time>2024-12-23T21:20:18.663Z</time>
      </trkpt>
      <trkpt lat="48.17679" lon="5.23508">
        <ele>332.48</ele>
        <time>2024-12-23T21:20:20.852Z</time>
      </trkpt>
      <trkpt lat="48.17657" lon="5.23534">
        <ele>332.09</ele>
        <time>2024-12-23T21:20:23.045Z</time>
      </trkpt>
      <trkpt lat="48.17634" lon="5.2356">
        <ele>331.55</ele>
        <time>2024-12-23T21:20:25.243Z</time>
      </trkpt>
      <trkpt lat="48.17611" lon="5.23586">
        <ele>330.92</ele>
        <time>2024-12-23T21:20:27.445Z</time>
      </trkpt>
      <trkpt lat="48.17589" lon="5.23612">
        <ele>330.25</ele>
        <time>2024-12-23T21:20:29.652Z</time>
      </trkpt>
      <trkpt lat="48.17607" lon="5.23648">
        <ele>329.69</ele>
        <time>2024-12-23T21:20:31.864Z</time>
      </trkpt>
      <trkpt lat="48.17627" lon="5.23683">
        <ele>329.02</ele>
        <time>2024-12-23T21:20:34.081Z</time>
      </trkpt>
      <trkpt lat="48.17646" lon="5.23719">
        <ele>328.13</ele>
        <time>2024-12-23T21:20:36.303Z</time>
      </trkpt>
      <trkpt lat="48.17665" lon="5.23755">
        <ele>327.1</ele>
        <time>2024-12-23T21:20:38.530Z</time>
      </trkpt>
      <trkpt lat="48.17684" lon="5.23791">
        <ele>326.02</ele>
        <time>2024-12-23T21:20:40.761Z</time>
      </trkpt>
      <trkpt lat="48.17703" lon="5.23827">
        <ele>324.85</ele>
        <time>2024-12-23T21:20:42.997Z</time>
      </trkpt>
      <trkpt lat="48.17722" lon="5.23863">
        <ele>323.63</ele>
        <time>2024-12-23T21:20:45.238Z</time>
      </trkpt>
      <trkpt lat="48.17741" lon="5.23899">
        <ele>322.36</ele>
        <time>2024-12-23T21:20:47.484Z</time>
      </trkpt>
      <trkpt lat="48.1776" lon="5.23935">
        <ele>321.03</ele>
        <time>2024-12-23T21:20:49.735Z</time>
      </trkpt>
      <trkpt lat="48.1778" lon="5.23971">
        <ele>319.73</ele>
        <time>2024-12-23T21:20:51.991Z</time>
      </trkpt>
      <trkpt lat="48.17799" lon="5.24004">
        <ele>318.45</ele>
        <time>2024-12-23T21:20:54.252Z</time>
      </trkpt>
      <trkpt lat="48.17819" lon="5.24038">
        <ele>317.11</ele>
        <time>2024-12-23T21:20:56.518Z</time>
      </trkpt>
      <trkpt lat="48.1784" lon="5.24071">
        <ele>315.8</ele>
        <time>2024-12-23T21:20:58.788Z</time>
      </trkpt>
      <trkpt lat="48.1786" lon="5.24105">
        <ele>314.48</ele>
        <time>2024-12-23T21:21:01.063Z</time>
      </trkpt>
      <trkpt lat="48.1788" lon="5.24139">
        <ele>313.21</ele>
        <time>2024-12-23T21:21:03.343Z</time>
      </trkpt>
      <trkpt lat="48.179" lon="5.24172">
        <ele>312.14</ele>
        <time>2024-12-23T21:21:05.628Z</time>
      </trkpt>
      <trkpt lat="48.17916" lon="5.24189">
        <ele>311.19</ele>
        <time>2024-12-23T21:21:07.916Z</time>
      </trkpt>
      <trkpt lat="48.17932" lon="5.24207">
        <ele>310.32</ele>
        <time>2024-12-23T21:21:10.207Z</time>
      </trkpt>
      <trkpt lat="48.17951" lon="5.24216">
        <ele>309.52</ele>
        <time>2024-12-23T21:21:12.502Z</time>
      </trkpt>
      <trkpt lat="48.17971" lon="5.24226">
        <ele>308.86</ele>
        <time>2024-12-23T21:21:14.800Z</time>
      </trkpt>
      <trkpt lat="48.17988" lon="5.24247">
        <ele>308.36</ele>
        <time>2024-12-23T21:21:17.101Z</time>
      </trkpt>
      <trkpt lat="48.18004" lon="5.24275">
        <ele>308.14</ele>
        <time>2024-12-23T21:21:19.406Z</time>
      </trkpt>
      <trkpt lat="48.1802" lon="5.24303">
        <ele>308.12</ele>
        <time>2024-12-23T21:21:21.715Z</time>
      </trkpt>
      <trkpt lat="48.1804" lon="5.24316">
        <ele>308.38</ele>
        <time>2024-12-23T21:21:24.028Z</time>
      </trkpt>
      <trkpt lat="48.18061" lon="5.24329">
        <ele>308.8</ele>
        <time>2024-12-23T21:21:26.344Z</time>
      </trkpt>
      <trkpt lat="48.18072" lon="5.24345">
        <ele>309.27</ele>
        <time>2024-12-23T21:21:28.663Z</time>
      </trkpt>
      <trkpt lat="48.18084" lon="5.24361">
        <ele>309.85</ele>
        <time>2024-12-23T21:21:30.984Z</time>
      </trkpt>
      <trkpt lat="48.18095" lon="5.24404">
        <ele>310.52</ele>
        <time>2024-12-23T21:21:33.310Z</time>
      </trkpt>
      <trkpt lat="48.18102" lon="5.24438">
        <ele>311.34</ele>
        <time>2024-12-23T21:21:35.640Z</time>
      </trkpt>
      <trkpt lat="48.18109" lon="5.24471">
        <ele>312.24</ele>
        <time>2024-12-23T21:21:37.974Z</time>
      </trkpt>
      <trkpt lat="48.18116" lon="5.24505">
        <ele>313.22</ele>
        <time>2024-12-23T21:21:40.312Z</time>
      </trkpt>
      <trkpt lat="48.18134" lon="5.24538">
        <ele>314.3</ele>
        <time>2024-12-23T21:21:42.654Z</time>
      </trkpt>
      <trkpt lat="48.18151" lon="5.24571">
        <ele>315.39</ele>
        <time>2024-12-23T21:21:45.001Z</time>
      </trkpt>
      <trkpt lat="48.18168" lon="5.24604">
        <ele>316.51</ele>
        <time>2024-12-23T21:21:47.352Z</time>
      </trkpt>
      <trkpt lat="48.18187" lon="5.24636">
        <ele>317.61</ele>
        <time>2024-12-23T21:21:49.708Z</time>
      </trkpt>
      <trkpt lat="48.18206" lon="5.24668">
        <ele>318.78</ele>
        <time>2024-12-23T21:21:52.068Z</time>
      </trkpt>
      <trkpt lat="48.18226" lon="5.247">
        <ele>319.93</ele>
        <time>2024-12-23T21:21:54.433Z</time>
      </trkpt>
      <trkpt lat="48.18245" lon="5.24732">
        <ele>321.07</ele>
        <time>2024-12-23T21:21:56.803Z</time>
      </trkpt>
      <trkpt lat="48.18264" lon="5.24764">
        <ele>322.11</ele>
        <time>2024-12-23T21:21:59.177Z</time>
      </trkpt>
      <trkpt lat="48.18284" lon="5.24797">
        <ele>323.14</ele>
        <time>2024-12-23T21:22:01.556Z</time>
      </trkpt>
      <trkpt lat="48.18297" lon="5.24832">
        <ele>324.12</ele>
        <time>2024-12-23T21:22:03.939Z</time>
      </trkpt>
      <trkpt lat="48.18311" lon="5.24868">
        <ele>325.05</ele>
        <time>2024-12-23T21:22:06.327Z</time>
      </trkpt>
      <trkpt lat="48.18324" lon="5.24904">
        <ele>325.99</ele>
        <time>2024-12-23T21:22:08.719Z</time>
      </trkpt>
      <trkpt lat="48.18337" lon="5.2494">
        <ele>327.04</ele>
        <time>2024-12-23T21:22:11.116Z</time>
      </trkpt>
      <trkpt lat="48.18349" lon="5.24982">
        <ele>328.06</ele>
        <time>2024-12-23T21:22:13.517Z</time>
      </trkpt>
      <trkpt lat="48.1836" lon="5.25025">
        <ele>328.99</ele>
        <time>2024-12-23T21:22:15.923Z</time>
      </trkpt>
      <trkpt lat="48.18372" lon="5.25067">
        <ele>329.84</ele>
        <time>2024-12-23T21:22:18.334Z</time>
      </trkpt>
      <trkpt lat="48.18383" lon="5.2511">
        <ele>330.71</ele>
        <time>2024-12-23T21:22:20.750Z</time>
      </trkpt>
      <trkpt lat="48.18395" lon="5.25152">
        <ele>331.6</ele>
        <time>2024-12-23T21:22:23.171Z</time>
      </trkpt>
      <trkpt lat="48.18407" lon="5.25195">
        <ele>332.37</ele>
        <time>2024-12-23T21:22:25.597Z</time>
      </trkpt>
      <trkpt lat="48.18418" lon="5.25237">
        <ele>333.15</ele>
        <time>2024-12-23T21:22:28.028Z</time>
      </trkpt>
      <trkpt lat="48.1843" lon="5.2528">
        <ele>333.88</ele>
        <time>2024-12-23T21:22:30.464Z</time>
      </trkpt>
      <trkpt lat="48.18444" lon="5.25313">
        <ele>334.5</ele>
        <time>2024-12-23T21:22:32.904Z</time>
      </trkpt>
      <trkpt lat="48.18459" lon="5.25347">
        <ele>335.12</ele>
        <time>2024-12-23T21:22:35.348Z</time>
      </trkpt>
      <trkpt lat="48.18473" lon="5.25381">
        <ele>335.71</ele>
        <time>2024-12-23T21:22:37.797Z</time>
      </trkpt>
      <trkpt lat="48.18488" lon="5.25415">
        <ele>336.34</ele>
        <time>2024-12-23T21:22:40.250Z</time>
      </trkpt>
      <trkpt lat="48.18503" lon="5.25449">
        <ele>336.95</ele>
        <time>2024-12-23T21:22:42.707Z</time>
      </trkpt>
      <trkpt lat="48.18515" lon="5.2549">
        <ele>337.47</ele>
        <time>2024-12-23T21:22:45.169Z</time>
      </trkpt>
      <trkpt lat="48.18527" lon="5.25532">
        <ele>338.06</ele>
        <time>2024-12-23T21:22:47.636Z</time>
      </trkpt>
      <trkpt lat="48.1854" lon="5.25574">
        <ele>338.66</ele>
        <time>2024-12-23T21:22:50.108Z</time>
      </trkpt>
      <trkpt lat="48.18552" lon="5.25615">
        <ele>339.24</ele>
        <time>2024-12-23T21:22:52.585Z</time>
      </trkpt>
      <trkpt lat="48.18565" lon="5.25657">
        <ele>339.78</ele>
        <time>2024-12-23T21:22:55.067Z</time>
      </trkpt>
      <trkpt lat="48.18582" lon="5.25685">
        <ele>340.32</ele>
        <time>2024-12-23T21:22:57.553Z</time>
      </trkpt>
      <trkpt lat="48.18599" lon="5.25713">
        <ele>340.86</ele>
        <time>2024-12-23T21:23:00.043Z</time>
      </trkpt>
      <trkpt lat="48.1861" lon="5.25752">
        <ele>341.41</ele>
        <time>2024-12-23T21:23:02.537Z</time>
      </trkpt>
      <trkpt lat="48.18621" lon="5.25792">
        <ele>341.97</ele>
        <time>2024-12-23T21:23:05.036Z</time>
      </trkpt>
      <trkpt lat="48.18631" lon="5.25832">
        <ele>342.51</ele>
        <time>2024-12-23T21:23:07.540Z</time>
      </trkpt>
      <trkpt lat="48.18642" lon="5.25872">
        <ele>343.01</ele>
        <time>2024-12-23T21:23:10.048Z</time>
      </trkpt>
      <trkpt lat="48.18653" lon="5.25911">
        <ele>343.51</ele>
        <time>2024-12-23T21:23:12.561Z</time>
      </trkpt>
      <trkpt lat="48.18664" lon="5.25951">
        <ele>344.03</ele>
        <time>2024-12-23T21:23:15.078Z</time>
      </trkpt>
      <trkpt lat="48.18664" lon="5.25979">
        <ele>344.54</ele>
        <time>2024-12-23T21:23:17.598Z</time>
      </trkpt>
      <trkpt lat="48.18657" lon="5.25994">
        <ele>344.99</ele>
        <time>2024-12-23T21:23:20.120Z</time>
      </trkpt>
      <trkpt lat="48.18628" lon="5.2601">
        <ele>345.48</ele>
        <time>2024-12-23T21:23:22.647Z</time>
      </trkpt>
      <trkpt lat="48.18599" lon="5.26026">
        <ele>345.91</ele>
        <time>2024-12-23T21:23:25.179Z</time>
      </trkpt>
      <trkpt lat="48.1857" lon="5.26042">
        <ele>346.3</ele>
        <time>2024-12-23T21:23:27.716Z</time>
      </trkpt>
      <trkpt lat="48.18541" lon="5.26057">
        <ele>346.73</ele>
        <time>2024-12-23T21:23:30.258Z</time>
      </trkpt>
      <trkpt lat="48.18512" lon="5.26073">
        <ele>347.26</ele>
        <time>2024-12-23T21:23:32.805Z</time>
      </trkpt>
      <trkpt lat="48.18483" lon="5.26089">
        <ele>347.76</ele>
        <time>2024-12-23T21:23:35.357Z</time>
      </trkpt>
      <trkpt lat="48.18454" lon="5.26105">
        <ele>348.19</ele>
        <time>2024-12-23T21:23:37.914Z</time>
      </trkpt>
      <trkpt lat="48.18425" lon="5.26121">
        <ele>348.61</ele>
        <time>2024-12-23T21:23:40.476Z</time>
      </trkpt>
      <trkpt lat="48.18413" lon="5.26134">
        <ele>349.03</ele>
        <time>2024-12-23T21:23:43.040Z</time>
      </trkpt>
      <trkpt lat="48.18408" lon="5.26151">
        <ele>349.43</ele>
        <time>2024-12-23T21:23:45.606Z</time>
      </trkpt>
      <trkpt lat="48.1841" lon="5.26174">
        <ele>349.8</ele>
        <time>2024-12-23T21:23:48.175Z</time>
      </trkpt>
      <trkpt lat="48.1842" lon="5.26215">
        <ele>350.2</ele>
        <time>2024-12-23T21:23:50.748Z</time>
      </trkpt>
      <trkpt lat="48.1843" lon="5.26256">
        <ele>350.61</ele>
        <time>2024-12-23T21:23:53.326Z</time>
      </trkpt>
      <trkpt lat="48.1844" lon="5.26295">
        <ele>350.97</ele>
        <time>2024-12-23T21:23:55.909Z</time>
      </trkpt>
      <trkpt lat="48.18451" lon="5.26335">
        <ele>351.23</ele>
        <time>2024-12-23T21:23:58.496Z</time>
      </trkpt>
      <trkpt lat="48.18451" lon="5.26335">
        <ele>351.45</ele>
        <time>2024-12-23T21:24:01.083Z</time>
      </trkpt>
      <trkpt lat="48.18457" lon="5.26361">
        <ele>351.62</ele>
        <time>2024-12-23T21:24:03.673Z</time>
      </trkpt>
      <trkpt lat="48.18462" lon="5.26387">
        <ele>351.76</ele>
        <time>2024-12-23T21:24:06.266Z</time>
      </trkpt>
      <trkpt lat="48.18483" lon="5.26399">
        <ele>351.85</ele>
        <time>2024-12-23T21:24:08.863Z</time>
      </trkpt>
      <trkpt lat="48.18505" lon="5.2641">
        <ele>351.91</ele>
        <time>2024-12-23T21:24:11.463Z</time>
      </trkpt>
      <trkpt lat="48.18518" lon="5.26436">
        <ele>351.92</ele>
        <time>2024-12-23T21:24:14.067Z</time>
      </trkpt>
      <trkpt lat="48.18532" lon="5.26462">
        <ele>351.87</ele>
        <time>2024-12-23T21:24:16.674Z</time>
      </trkpt>
      <trkpt lat="48.18546" lon="5.26488">
        <ele>351.77</ele>
        <time>2024-12-23T21:24:19.285Z</time>
      </trkpt>
      <trkpt lat="48.18568" lon="5.26519">
        <ele>351.58</ele>
        <time>2024-12-23T21:24:21.901Z</time>
      </trkpt>
      <trkpt lat="48.1859" lon="5.2655">
        <ele>351.33</ele>
        <time>2024-12-23T21:24:24.522Z</time>
      </trkpt>
      <trkpt lat="48.18612" lon="5.26581">
        <ele>351.03</ele>
        <time>2024-12-23T21:24:27.147Z</time>
      </trkpt>
      <trkpt lat="48.18635" lon="5.26613">
        <ele>350.68</ele>
        <time>2024-12-23T21:24:29.777Z</time>
      </trkpt>
      <trkpt lat="48.18657" lon="5.26644">
        <ele>350.29</ele>
        <time>2024-12-23T21:24:32.412Z</time>
      </trkpt>
      <trkpt lat="48.18668" lon="5.26653">
        <ele>349.8</ele>
        <time>2024-12-23T21:24:35.049Z</time>
      </trkpt>
      <trkpt lat="48.18694" lon="5.26674">
        <ele>349.18</ele>
        <time>2024-12-23T21:24:37.691Z</time>
      </trkpt>
      <trkpt lat="48.18721" lon="5.26696">
        <ele>348.49</ele>
        <time>2024-12-23T21:24:40.338Z</time>
      </trkpt>
      <trkpt lat="48.18747" lon="5.26717">
        <ele>347.78</ele>
        <time>2024-12-23T21:24:42.990Z</time>
      </trkpt>
      <trkpt lat="48.18761" lon="5.26734">
        <ele>347.08</ele>
        <time>2024-12-23T21:24:45.645Z</time>
      </trkpt>
      <trkpt lat="48.18775" lon="5.26752">
        <ele>346.36</ele>
        <time>2024-12-23T21:24:48.303Z</time>
      </trkpt>
      <trkpt lat="48.18796" lon="5.26778">
        <ele>345.63</ele>
        <time>2024-12-23T21:24:50.965Z</time>
      </trkpt>
      <trkpt lat="48.18817" lon="5.26805">
        <ele>344.93</ele>
        <time>2024-12-23T21:24:53.631Z</time>
      </trkpt>
      <trkpt lat="48.18838" lon="5.26833">
        <ele>344.23</ele>
        <time>2024-12-23T21:24:56.302Z</time>
      </trkpt>
      <trkpt lat="48.1886" lon="5.2686">
        <ele>343.48</ele>
        <time>2024-12-23T21:24:58.977Z</time>
      </trkpt>
      <trkpt lat="48.18881" lon="5.26887">
        <ele>342.64</ele>
        <time>2024-12-23T21:25:01.657Z</time>
      </trkpt>
      <trkpt lat="48.18902" lon="5.26914">
        <ele>341.81</ele>
        <time>2024-12-23T21:25:04.341Z</time>
      </trkpt>
      <trkpt lat="48.18923" lon="5.26941">
        <ele>341.02</ele>
        <time>2024-12-23T21:25:07.030Z</time>
      </trkpt>
      <trkpt lat="48.18923" lon="5.26941">
        <ele>339.68</ele>
        <time>2024-12-23T21:25:09.719Z</time>
      </trkpt>
      <trkpt lat="48.18923" lon="5.26941">
        <ele>339.06</ele>
        <time>2024-12-23T21:25:12.408Z</time>
      </trkpt>
      <trkpt lat="48.18923" lon="5.26941">
        <ele>338.47</ele>
        <time>2024-12-23T21:25:15.097Z</time>
      </trkpt>
      <trkpt lat="48.18923" lon="5.26941">
        <ele>337.91</ele>
        <time>2024-12-23T21:25:17.786Z</time>
      </trkpt>
      <trkpt lat="48.18923" lon="5.26941">
        <ele>337.39</ele>
        <time>2024-12-23T21:25:20.475Z</time>
      </trkpt>
      <trkpt lat="48.18937" lon="5.26959">
        <ele>336.86</ele>
        <time>2024-12-23T21:25:23.167Z</time>
      </trkpt>
      <trkpt lat="48.18951" lon="5.26977">
        <ele>336.41</ele>
        <time>2024-12-23T21:25:25.862Z</time>
      </trkpt>
      <trkpt lat="48.1897" lon="5.27004">
        <ele>336.04</ele>
        <time>2024-12-23T21:25:28.561Z</time>
      </trkpt>
      <trkpt lat="48.18988" lon="5.27031">
        <ele>335.74</ele>
        <time>2024-12-23T21:25:31.264Z</time>
      </trkpt>
      <trkpt lat="48.19007" lon="5.27058">
        <ele>335.44</ele>
        <time>2024-12-23T21:25:33.971Z</time>
      </trkpt>
      <trkpt lat="48.19027" lon="5.27059">
        <ele>335.17</ele>
        <time>2024-12-23T21:25:36.681Z</time>
      </trkpt>
      <trkpt lat="48.19048" lon="5.27061">
        <ele>334.91</ele>
        <time>2024-12-23T21:25:39.395Z</time>
      </trkpt>
      <trkpt lat="48.19069" lon="5.2708">
        <ele>334.7</ele>
        <time>2024-12-23T21:25:42.113Z</time>
      </trkpt>
      <trkpt lat="48.19086" lon="5.27084">
        <ele>334.52</ele>
        <time>2024-12-23T21:25:44.833Z</time>
      </trkpt>
      <trkpt lat="48.19099" lon="5.27082">
        <ele>334.38</ele>
        <time>2024-12-23T21:25:47.555Z</time>
      </trkpt>
      <trkpt lat="48.19105" lon="5.27078">
        <ele>334.32</ele>
        <time>2024-12-23T21:25:50.279Z</time>
      </trkpt>
      <trkpt lat="48.19105" lon="5.27078">
        <ele>334.33</ele>
        <time>2024-12-23T21:25:53.003Z</time>
      </trkpt>
      <trkpt lat="48.19105" lon="5.27077">
        <ele>334.39</ele>
        <time>2024-12-23T21:25:55.727Z</time>
      </trkpt>
      <trkpt lat="48.19105" lon="5.27077">
        <ele>334.49</ele>
        <time>2024-12-23T21:25:58.451Z</time>
      </trkpt>
      <trkpt lat="48.19105" lon="5.27077">
        <ele>334.64</ele>
        <time>2024-12-23T21:26:01.175Z</time>
      </trkpt>
      <trkpt lat="48.19099" lon="5.27082">
        <ele>334.38</ele>
        <time>2024-12-23T21:26:03.900Z</time>
      </trkpt>
      <trkpt lat="48.19086" lon="5.27084">
        <ele>334.52</ele>
        <time>2024-12-23T21:26:06.627Z</time>
      </trkpt>
      <trkpt lat="48.19069" lon="5.2708">
        <ele>334.7</ele>
        <time>2024-12-23T21:26:09.356Z</time>
      </trkpt>
      <trkpt lat="48.19048" lon="5.27061">
        <ele>334.91</ele>
        <time>2024-12-23T21:26:12.090Z</time>
      </trkpt>
      <trkpt lat="48.19027" lon="5.27059">
        <ele>336.18</ele>
        <time>2024-12-23T21:26:14.827Z</time>
      </trkpt>
      <trkpt lat="48.19007" lon="5.27058">
        <ele>336.56</ele>
        <time>2024-12-23T21:26:17.567Z</time>
      </trkpt>
      <trkpt lat="48.19021" lon="5.27084">
        <ele>336.92</ele>
        <time>2024-12-23T21:26:20.311Z</time>
      </trkpt>
      <trkpt lat="48.19036" lon="5.2711">
        <ele>337.35</ele>
        <time>2024-12-23T21:26:23.058Z</time>
      </trkpt>
      <trkpt lat="48.1905" lon="5.27136">
        <ele>337.84</ele>
        <time>2024-12-23T21:26:25.809Z</time>
      </trkpt>
      <trkpt lat="48.19067" lon="5.27174">
        <ele>338.33</ele>
        <time>2024-12-23T21:26:28.565Z</time>
      </trkpt>
      <trkpt lat="48.19084" lon="5.27213">
        <ele>338.86</ele>
        <time>2024-12-23T21:26:31.326Z</time>
      </trkpt>
      <trkpt lat="48.19095" lon="5.27247">
        <ele>339.42</ele>
        <time>2024-12-23T21:26:34.091Z</time>
      </trkpt>
      <trkpt lat="48.19106" lon="5.27282">
        <ele>339.93</ele>
        <time>2024-12-23T21:26:36.860Z</time>
      </trkpt>
      <trkpt lat="48.19121" lon="5.27316">
        <ele>340.41</ele>
        <time>2024-12-23T21:26:39.633Z</time>
      </trkpt>
      <trkpt lat="48.1914" lon="5.27346">
        <ele>340.89</ele>
        <time>2024-12-23T21:26:42.411Z</time>
      </trkpt>
      <trkpt lat="48.19168" lon="5.27367">
        <ele>341.41</ele>
        <time>2024-12-23T21:26:45.194Z</time>
      </trkpt>
      <trkpt lat="48.19186" lon="5.27386">
        <ele>341.99</ele>
        <time>2024-12-23T21:26:47.980Z</time>
      </trkpt>
      <trkpt lat="48.19204" lon="5.27404">
        <ele>342.57</ele>
        <time>2024-12-23T21:26:50.770Z</time>
      </trkpt>
      <trkpt lat="48.19222" lon="5.27428">
        <ele>343.14</ele>
        <time>2024-12-23T21:26:53.564Z</time>
      </trkpt>
      <trkpt lat="48.19239" lon="5.27453">
        <ele>343.68</ele>
        <time>2024-12-23T21:26:56.361Z</time>
      </trkpt>
      <trkpt lat="48.19256" lon="5.27477">
        <ele>344.16</ele>
        <time>2024-12-23T21:26:59.162Z</time>
      </trkpt>
      <trkpt lat="48.19279" lon="5.275">
        <ele>344.63</ele>
        <time>2024-12-23T21:27:01.968Z</time>
      </trkpt>
      <trkpt lat="48.19302" lon="5.27523">
        <ele>345.1</ele>
        <time>2024-12-23T21:27:04.778Z</time>
      </trkpt>
      <trkpt lat="48.19324" lon="5.27545">
        <ele>345.6</ele>
        <time>2024-12-23T21:27:07.592Z</time>
      </trkpt>
      <trkpt lat="48.1935" lon="5.27569">
        <ele>346.08</ele>
        <time>2024-12-23T21:27:10.411Z</time>
      </trkpt>
      <trkpt lat="48.19375" lon="5.27593">
        <ele>346.5</ele>
        <time>2024-12-23T21:27:13.235Z</time>
      </trkpt>
      <trkpt lat="48.194" lon="5.27616">
        <ele>346.85</ele>
        <time>2024-12-23T21:27:16.064Z</time>
      </trkpt>
      <trkpt lat="48.19425" lon="5.2764">
        <ele>347.19</ele>
        <time>2024-12-23T21:27:18.897Z</time>
      </trkpt>
      <trkpt lat="48.19451" lon="5.27664">
        <ele>347.54</ele>
        <time>2024-12-23T21:27:21.735Z</time>
      </trkpt>
      <trkpt lat="48.19476" lon="5.27687">
        <ele>347.91</ele>
        <time>2024-12-23T21:27:24.578Z</time>
      </trkpt>
      <trkpt lat="48.19501" lon="5.27711">
        <ele>348.26</ele>
        <time>2024-12-23T21:27:27.426Z</time>
      </trkpt>
      <trkpt lat="48.19526" lon="5.27734">
        <ele>348.61</ele>
        <time>2024-12-23T21:27:30.278Z</time>
      </trkpt>
      <trkpt lat="48.19543" lon="5.27756">
        <ele>348.94</ele>
        <time>2024-12-23T21:27:33.134Z</time>
      </trkpt>
      <trkpt lat="48.19561" lon="5.27777">
        <ele>349.27</ele>
        <time>2024-12-23T21:27:35.994Z</time>
      </trkpt>
      <trkpt lat="48.19579" lon="5.27804">
        <ele>349.56</ele>
        <time>2024-12-23T21:27:38.858Z</time>
      </trkpt>
      <trkpt lat="48.19597" lon="5.27831">
        <ele>349.83</ele>
        <time>2024-12-23T21:27:41.726Z</time>
      </trkpt>
      <trkpt lat="48.19615" lon="5.27858">
        <ele>350.05</ele>
        <time>2024-12-23T21:27:44.598Z</time>
      </trkpt>
      <trkpt lat="48.19633" lon="5.27884">
        <ele>350.31</ele>
        <time>2024-12-23T21:27:47.474Z</time>
      </trkpt>
      <trkpt lat="48.19646" lon="5.27916">
        <ele>350.42</ele>
        <time>2024-12-23T21:27:50.354Z</time>
      </trkpt>
      <trkpt lat="48.19659" lon="5.27948">
        <ele>350.46</ele>
        <time>2024-12-23T21:27:53.238Z</time>
      </trkpt>
      <trkpt lat="48.19672" lon="5.2798">
        <ele>350.52</ele>
        <time>2024-12-23T21:27:56.126Z</time>
      </trkpt>
      <trkpt lat="48.19685" lon="5.28011">
        <ele>350.57</ele>
        <time>2024-12-23T21:27:59.018Z</time>
      </trkpt>
      <trkpt lat="48.19703" lon="5.28049">
        <ele>350.59</ele>
        <time>2024-12-23T21:28:01.915Z</time>
      </trkpt>
      <trkpt lat="48.1972" lon="5.28087">
        <ele>350.6</ele>
        <time>2024-12-23T21:28:04.817Z</time>
      </trkpt>
      <trkpt lat="48.19738" lon="5.28125">
        <ele>350.6</ele>
        <time>2024-12-23T21:28:07.724Z</time>
      </trkpt>
      <trkpt lat="48.19755" lon="5.28162">
        <ele>350.58</ele>
        <time>2024-12-23T21:28:10.636Z</time>
      </trkpt>
      <trkpt lat="48.19773" lon="5.282">
        <ele>350.52</ele>
        <time>2024-12-23T21:28:13.552Z</time>
      </trkpt>
      <trkpt lat="48.19783" lon="5.28222">
        <ele>350.41</ele>
        <time>2024-12-23T21:28:16.471Z</time>
      </trkpt>
      <trkpt lat="48.19792" lon="5.28245">
        <ele>350.27</ele>
        <time>2024-12-23T21:28:19.393Z</time>
      </trkpt>
      <trkpt lat="48.19803" lon="5.28274">
        <ele>350.06</ele>
        <time>2024-12-23T21:28:22.319Z</time>
      </trkpt>
      <trkpt lat="48.19814" lon="5.28302">
        <ele>349.82</ele>
        <time>2024-12-23T21:28:25.248Z</time>
      </trkpt>
      <trkpt lat="48.19824" lon="5.28331">
        <ele>349.55</ele>
        <time>2024-12-23T21:28:28.181Z</time>
      </trkpt>
      <trkpt lat="48.19846" lon="5.28361">
        <ele>349.13</ele>
        <time>2024-12-23T21:28:31.118Z</time>
      </trkpt>
      <trkpt lat="48.19867" lon="5.28391">
        <ele>348.75</ele>
        <time>2024-12-23T21:28:34.060Z</time>
      </trkpt>
      <trkpt lat="48.19889" lon="5.28421">
        <ele>348.36</ele>
        <time>2024-12-23T21:28:37.007Z</time>
      </trkpt>
      <trkpt lat="48.19915" lon="5.28438">
        <ele>347.94</ele>
        <time>2024-12-23T21:28:39.958Z</time>
      </trkpt>
      <trkpt lat="48.19912" lon="5.2847">
        <ele>347.55</ele>
        <time>2024-12-23T21:28:42.913Z</time>
      </trkpt>
      <trkpt lat="48.19896" lon="5.28509">
        <ele>347.13</ele>
        <time>2024-12-23T21:28:45.873Z</time>
      </trkpt>
      <trkpt lat="48.19879" lon="5.28548">
        <ele>346.69</ele>
        <time>2024-12-23T21:28:48.838Z</time>
      </trkpt>
      <trkpt lat="48.19863" lon="5.28586">
        <ele>346.28</ele>
        <time>2024-12-23T21:28:51.808Z</time>
      </trkpt>
      <trkpt lat="48.1988" lon="5.28605">
        <ele>345.81</ele>
        <time>2024-12-23T21:28:54.781Z</time>
      </trkpt>
      <trkpt lat="48.19897" lon="5.28625">
        <ele>345.43</ele>
        <time>2024-12-23T21:28:57.757Z</time>
      </trkpt>
      <trkpt lat="48.19915" lon="5.28644">
        <ele>345.01</ele>
        <time>2024-12-23T21:29:00.737Z</time>
      </trkpt>
      <trkpt lat="48.19931" lon="5.28666">
        <ele>344.55</ele>
        <time>2024-12-23T21:29:03.720Z</time>
      </trkpt>
      <trkpt lat="48.19948" lon="5.28687">
        <ele>344.09</ele>
        <time>2024-12-23T21:29:06.707Z</time>
      </trkpt>
      <trkpt lat="48.19964" lon="5.28708">
        <ele>343.59</ele>
        <time>2024-12-23T21:29:09.697Z</time>
      </trkpt>
      <trkpt lat="48.19981" lon="5.28736">
        <ele>343.08</ele>
        <time>2024-12-23T21:29:12.691Z</time>
      </trkpt>
      <trkpt lat="48.19998" lon="5.28764">
        <ele>342.56</ele>
        <time>2024-12-23T21:29:15.689Z</time>
      </trkpt>
      <trkpt lat="48.20013" lon="5.28792">
        <ele>342.06</ele>
        <time>2024-12-23T21:29:18.691Z</time>
      </trkpt>
      <trkpt lat="48.20028" lon="5.2882">
        <ele>341.59</ele>
        <time>2024-12-23T21:29:21.697Z</time>
      </trkpt>
      <trkpt lat="48.2004" lon="5.28846">
        <ele>341.18</ele>
        <time>2024-12-23T21:29:24.706Z</time>
      </trkpt>
      <trkpt lat="48.20052" lon="5.28872">
        <ele>340.76</ele>
        <time>2024-12-23T21:29:27.719Z</time>
      </trkpt>
      <trkpt lat="48.20066" lon="5.28908">
        <ele>340.35</ele>
        <time>2024-12-23T21:29:30.736Z</time>
      </trkpt>
      <trkpt lat="48.2008" lon="5.28944">
        <ele>340.01</ele>
        <time>2024-12-23T21:29:33.758Z</time>
      </trkpt>
      <trkpt lat="48.20092" lon="5.28981">
        <ele>339.82</ele>
        <time>2024-12-23T21:29:36.784Z</time>
      </trkpt>
      <trkpt lat="48.20104" lon="5.29018">
        <ele>339.66</ele>
        <time>2024-12-23T21:29:39.815Z</time>
      </trkpt>
      <trkpt lat="48.20116" lon="5.29055">
        <ele>339.46</ele>
        <time>2024-12-23T21:29:42.850Z</time>
      </trkpt>
      <trkpt lat="48.20129" lon="5.29092">
        <ele>339.32</ele>
        <time>2024-12-23T21:29:45.889Z</time>
      </trkpt>
      <trkpt lat="48.20141" lon="5.29129">
        <ele>339.26</ele>
        <time>2024-12-23T21:29:48.933Z</time>
      </trkpt>
      <trkpt lat="48.20153" lon="5.29166">
        <ele>339.27</ele>
        <time>2024-12-23T21:29:51.981Z</time>
      </trkpt>
      <trkpt lat="48.20162" lon="5.29206">
        <ele>339.22</ele>
        <time>2024-12-23T21:29:55.034Z</time>
      </trkpt>
      <trkpt lat="48.20172" lon="5.29247">
        <ele>339.18</ele>
        <time>2024-12-23T21:29:58.091Z</time>
      </trkpt>
      <trkpt lat="48.20179" lon="5.29284">
        <ele>339.17</ele>
        <time>2024-12-23T21:30:01.153Z</time>
      </trkpt>
      <trkpt lat="48.20186" lon="5.29321">
        <ele>339.17</ele>
        <time>2024-12-23T21:30:04.219Z</time>
      </trkpt>
      <trkpt lat="48.20193" lon="5.29358">
        <ele>339.23</ele>
        <time>2024-12-23T21:30:07.289Z</time>
      </trkpt>
      <trkpt lat="48.202" lon="5.29395">
        <ele>339.34</ele>
        <time>2024-12-23T21:30:10.363Z</time>
      </trkpt>
      <trkpt lat="48.20211" lon="5.29427">
        <ele>339.58</ele>
        <time>2024-12-23T21:30:13.441Z</time>
      </trkpt>
      <trkpt lat="48.20226" lon="5.29456">
        <ele>339.87</ele>
        <time>2024-12-23T21:30:16.523Z</time>
      </trkpt>
      <trkpt lat="48.20241" lon="5.29485">
        <ele>340.22</ele>
        <time>2024-12-23T21:30:19.609Z</time>
      </trkpt>
      <trkpt lat="48.20254" lon="5.2952">
        <ele>340.58</ele>
        <time>2024-12-23T21:30:22.699Z</time>
      </trkpt>
      <trkpt lat="48.20255" lon="5.29557">
        <ele>341</ele>
        <time>2024-12-23T21:30:25.793Z</time>
      </trkpt>
      <trkpt lat="48.20257" lon="5.29594">
        <ele>341.5</ele>
        <time>2024-12-23T21:30:28.891Z</time>
      </trkpt>
      <trkpt lat="48.20258" lon="5.29631">
        <ele>342.05</ele>
        <time>2024-12-23T21:30:31.993Z</time>
      </trkpt>
      <trkpt lat="48.2026" lon="5.29668">
        <ele>342.6</ele>
        <time>2024-12-23T21:30:35.099Z</time>
      </trkpt>
      <trkpt lat="48.2026" lon="5.29668">
        <ele>343.13</ele>
        <time>2024-12-23T21:30:38.205Z</time>
      </trkpt>
      <trkpt lat="48.20267" lon="5.29708">
        <ele>343.74</ele>
        <time>2024-12-23T21:30:41.315Z</time>
      </trkpt>
      <trkpt lat="48.20273" lon="5.29749">
        <ele>344.33</ele>
        <time>2024-12-23T21:30:44.430Z</time>
      </trkpt>
      <trkpt lat="48.20279" lon="5.2979">
        <ele>344.97</ele>
        <time>2024-12-23T21:30:47.549Z</time>
      </trkpt>
      <trkpt lat="48.20286" lon="5.29831">
        <ele>345.55</ele>
        <time>2024-12-23T21:30:50.673Z</time>
      </trkpt>
      <trkpt lat="48.20292" lon="5.29871">
        <ele>346.11</ele>
        <time>2024-12-23T21:30:53.801Z</time>
      </trkpt>
      <trkpt lat="48.20302" lon="5.29914">
        <ele>346.61</ele>
        <time>2024-12-23T21:30:56.934Z</time>
      </trkpt>
      <trkpt lat="48.20311" lon="5.29956">
        <ele>347.14</ele>
        <time>2024-12-23T21:31:00.072Z</time>
      </trkpt>
      <trkpt lat="48.2032" lon="5.29998">
        <ele>347.56</ele>
        <time>2024-12-23T21:31:03.214Z</time>
      </trkpt>
      <trkpt lat="48.20331" lon="5.30042">
        <ele>348.08</ele>
        <time>2024-12-23T21:31:06.361Z</time>
      </trkpt>
      <trkpt lat="48.20342" lon="5.30085">
        <ele>348.6</ele>
        <time>2024-12-23T21:31:09.513Z</time>
      </trkpt>
      <trkpt lat="48.20352" lon="5.30129">
        <ele>348.97</ele>
        <time>2024-12-23T21:31:12.670Z</time>
      </trkpt>
      <trkpt lat="48.20363" lon="5.30172">
        <ele>349.33</ele>
        <time>2024-12-23T21:31:15.832Z</time>
      </trkpt>
      <trkpt lat="48.20369" lon="5.30213">
        <ele>349.73</ele>
        <time>2024-12-23T21:31:18.999Z</time>
      </trkpt>
      <trkpt lat="48.20373" lon="5.30254">
        <ele>350.1</ele>
        <time>2024-12-23T21:31:22.170Z</time>
      </trkpt>
      <trkpt lat="48.20377" lon="5.30296">
        <ele>350.32</ele>
        <time>2024-12-23T21:31:25.346Z</time>
      </trkpt>
      <trkpt lat="48.20381" lon="5.30337">
        <ele>350.48</ele>
        <time>2024-12-23T21:31:28.526Z</time>
      </trkpt>
      <trkpt lat="48.20385" lon="5.30379">
        <ele>350.5</ele>
        <time>2024-12-23T21:31:31.711Z</time>
      </trkpt>
      <trkpt lat="48.20389" lon="5.30421">
        <ele>350.46</ele>
        <time>2024-12-23T21:31:34.900Z</time>
      </trkpt>
      <trkpt lat="48.20393" lon="5.30462">
        <ele>350.31</ele>
        <time>2024-12-23T21:31:38.094Z</time>
      </trkpt>
      <trkpt lat="48.20393" lon="5.30462">
        <ele>350.08</ele>
        <time>2024-12-23T21:31:41.288Z</time>
      </trkpt>
      <trkpt lat="48.20403" lon="5.30502">
        <ele>349.82</ele>
        <time>2024-12-23T21:31:44.486Z</time>
      </trkpt>
      <trkpt lat="48.20413" lon="5.30543">
        <ele>349.41</ele>
        <time>2024-12-23T21:31:47.689Z</time>
      </trkpt>
      <trkpt lat="48.20423" lon="5.30584">
        <ele>348.83</ele>
        <time>2024-12-23T21:31:50.897Z</time>
      </trkpt>
      <trkpt lat="48.20439" lon="5.30621">
        <ele>348.09</ele>
        <time>2024-12-23T21:31:54.109Z</time>
      </trkpt>
      <trkpt lat="48.20455" lon="5.30658">
        <ele>347.29</ele>
        <time>2024-12-23T21:31:57.326Z</time>
      </trkpt>
      <trkpt lat="48.2047" lon="5.30695">
        <ele>346.41</ele>
        <time>2024-12-23T21:32:00.548Z</time>
      </trkpt>
      <trkpt lat="48.20485" lon="5.30719">
        <ele>345.39</ele>
        <time>2024-12-23T21:32:03.773Z</time>
      </trkpt>
      <trkpt lat="48.20509" lon="5.30745">
        <ele>344.22</ele>
        <time>2024-12-23T21:32:07.003Z</time>
      </trkpt>
      <trkpt lat="48.2053" lon="5.30763">
        <ele>343.02</ele>
        <time>2024-12-23T21:32:10.237Z</time>
      </trkpt>
      <trkpt lat="48.20552" lon="5.30782">
        <ele>341.73</ele>
        <time>2024-12-23T21:32:13.475Z</time>
      </trkpt>
      <trkpt lat="48.20573" lon="5.30801">
        <ele>340.38</ele>
        <time>2024-12-23T21:32:16.717Z</time>
      </trkpt>
      <trkpt lat="48.20588" lon="5.30811">
        <ele>338.94</ele>
        <time>2024-12-23T21:32:19.961Z</time>
      </trkpt>
      <trkpt lat="48.20603" lon="5.30822">
        <ele>337.44</ele>
        <time>2024-12-23T21:32:23.208Z</time>
      </trkpt>
      <trkpt lat="48.20633" lon="5.30831">
        <ele>335.74</ele>
        <time>2024-12-23T21:32:26.460Z</time>
      </trkpt>
      <trkpt lat="48.20653" lon="5.30831">
        <ele>334.14</ele>
        <time>2024-12-23T21:32:29.715Z</time>
      </trkpt>
      <trkpt lat="48.20676" lon="5.30826">
        <ele>332.58</ele>
        <time>2024-12-23T21:32:32.974Z</time>
      </trkpt>
      <trkpt lat="48.20698" lon="5.30828">
        <ele>331.01</ele>
        <time>2024-12-23T21:32:36.236Z</time>
      </trkpt>
      <trkpt lat="48.2072" lon="5.3086">
        <ele>329.24</ele>
        <time>2024-12-23T21:32:39.503Z</time>
      </trkpt>
      <trkpt lat="48.20743" lon="5.30891">
        <ele>327.57</ele>
        <time>2024-12-23T21:32:42.775Z</time>
      </trkpt>
      <trkpt lat="48.20765" lon="5.30922">
        <ele>325.71</ele>
        <time>2024-12-23T21:32:46.052Z</time>
      </trkpt>
      <trkpt lat="48.20788" lon="5.30953">
        <ele>323.9</ele>
        <time>2024-12-23T21:32:49.334Z</time>
      </trkpt>
      <trkpt lat="48.20808" lon="5.30983">
        <ele>322.1</ele>
        <time>2024-12-23T21:32:52.621Z</time>
      </trkpt>
      <trkpt lat="48.20829" lon="5.31013">
        <ele>320.26</ele>
        <time>2024-12-23T21:32:55.912Z</time>
      </trkpt>
      <trkpt lat="48.2084" lon="5.31036">
        <ele>318.36</ele>
        <time>2024-12-23T21:32:59.206Z</time>
      </trkpt>
      <trkpt lat="48.20852" lon="5.31058">
        <ele>316.45</ele>
        <time>2024-12-23T21:33:02.503Z</time>
      </trkpt>
      <trkpt lat="48.20867" lon="5.31092">
        <ele>314.63</ele>
        <time>2024-12-23T21:33:05.805Z</time>
      </trkpt>
      <trkpt lat="48.20882" lon="5.31127">
        <ele>312.92</ele>
        <time>2024-12-23T21:33:09.111Z</time>
      </trkpt>
      <trkpt lat="48.2089" lon="5.31165">
        <ele>311.12</ele>
        <time>2024-12-23T21:33:12.421Z</time>
      </trkpt>
      <trkpt lat="48.20898" lon="5.31204">
        <ele>309.33</ele>
        <time>2024-12-23T21:33:15.736Z</time>
      </trkpt>
      <trkpt lat="48.20907" lon="5.31243">
        <ele>307.62</ele>
        <time>2024-12-23T21:33:19.055Z</time>
      </trkpt>
      <trkpt lat="48.20915" lon="5.31281">
        <ele>305.95</ele>
        <time>2024-12-23T21:33:22.378Z</time>
      </trkpt>
      <trkpt lat="48.2092" lon="5.3131">
        <ele>304.25</ele>
        <time>2024-12-23T21:33:25.705Z</time>
      </trkpt>
      <trkpt lat="48.20925" lon="5.31339">
        <ele>302.6</ele>
        <time>2024-12-23T21:33:29.035Z</time>
      </trkpt>
      <trkpt lat="48.20929" lon="5.31371">
        <ele>300.99</ele>
        <time>2024-12-23T21:33:32.368Z</time>
      </trkpt>
      <trkpt lat="48.20932" lon="5.31402">
        <ele>299.42</ele>
        <time>2024-12-23T21:33:35.705Z</time>
      </trkpt>
      <trkpt lat="48.20936" lon="5.31434">
        <ele>297.88</ele>
        <time>2024-12-23T21:33:39.045Z</time>
      </trkpt>
      <trkpt lat="48.20942" lon="5.31464">
        <ele>296.38</ele>
        <time>2024-12-23T21:33:42.388Z</time>
      </trkpt>
      <trkpt lat="48.2096" lon="5.315">
        <ele>294.85</ele>
        <time>2024-12-23T21:33:45.736Z</time>
      </trkpt>
      <trkpt lat="48.20977" lon="5.31517">
        <ele>293.37</ele>
        <time>2024-12-23T21:33:49.088Z</time>
      </trkpt>
      <trkpt lat="48.20994" lon="5.31524">
        <ele>292.02</ele>
        <time>2024-12-23T21:33:52.442Z</time>
      </trkpt>
      <trkpt lat="48.21011" lon="5.31522">
        <ele>290.74</ele>
        <time>2024-12-23T21:33:55.799Z</time>
      </trkpt>
      <trkpt lat="48.21028" lon="5.31519">
        <ele>289.54</ele>
        <time>2024-12-23T21:33:59.159Z</time>
      </trkpt>
      <trkpt lat="48.21043" lon="5.31504">
        <ele>288.58</ele>
        <time>2024-12-23T21:34:02.522Z</time>
      </trkpt>
      <trkpt lat="48.21064" lon="5.31489">
        <ele>287.73</ele>
        <time>2024-12-23T21:34:05.888Z</time>
      </trkpt>
      <trkpt lat="48.21084" lon="5.31474">
        <ele>286.9</ele>
        <time>2024-12-23T21:34:09.258Z</time>
      </trkpt>
      <trkpt lat="48.2109" lon="5.31479">
        <ele>286</ele>
        <time>2024-12-23T21:34:12.629Z</time>
      </trkpt>
      <trkpt lat="48.21097" lon="5.31492">
        <ele>285.09</ele>
        <time>2024-12-23T21:34:16.002Z</time>
      </trkpt>
      <trkpt lat="48.21099" lon="5.315">
        <ele>284.27</ele>
        <time>2024-12-23T21:34:19.376Z</time>
      </trkpt>
      <trkpt lat="48.21093" lon="5.31515">
        <ele>283.48</ele>
        <time>2024-12-23T21:34:22.752Z</time>
      </trkpt>
      <trkpt lat="48.21084" lon="5.31522">
        <ele>282.75</ele>
        <time>2024-12-23T21:34:26.129Z</time>
      </trkpt>
      <trkpt lat="48.21056" lon="5.31532">
        <ele>282.06</ele>
        <time>2024-12-23T21:34:29.511Z</time>
      </trkpt>
      <trkpt lat="48.21028" lon="5.31542">
        <ele>281.5</ele>
        <time>2024-12-23T21:34:32.898Z</time>
      </trkpt>
      <trkpt lat="48.21" lon="5.31552">
        <ele>281.11</ele>
        <time>2024-12-23T21:34:36.289Z</time>
      </trkpt>
      <trkpt lat="48.20972" lon="5.31562">
        <ele>280.79</ele>
        <time>2024-12-23T21:34:39.685Z</time>
      </trkpt>
      <trkpt lat="48.20944" lon="5.31575">
        <ele>280.29</ele>
        <time>2024-12-23T21:34:43.085Z</time>
      </trkpt>
      <trkpt lat="48.20916" lon="5.31588">
        <ele>279.8</ele>
        <time>2024-12-23T21:34:46.490Z</time>
      </trkpt>
      <trkpt lat="48.20888" lon="5.31601">
        <ele>279.49</ele>
        <time>2024-12-23T21:34:49.900Z</time>
      </trkpt>
      <trkpt lat="48.20859" lon="5.31614">
        <ele>279.29</ele>
        <time>2024-12-23T21:34:53.315Z</time>
      </trkpt>
      <trkpt lat="48.20831" lon="5.31627">
        <ele>279.11</ele>
        <time>2024-12-23T21:34:56.734Z</time>
      </trkpt>
      <trkpt lat="48.20803" lon="5.3164">
        <ele>278.95</ele>
        <time>2024-12-23T21:35:00.158Z</time>
      </trkpt>
      <trkpt lat="48.20779" lon="5.31647">
        <ele>278.82</ele>
        <time>2024-12-23T21:35:03.586Z</time>
      </trkpt>
      <trkpt lat="48.20754" lon="5.31655">
        <ele>278.7</ele>
        <time>2024-12-23T21:35:07.018Z</time>
      </trkpt>
      <trkpt lat="48.2073" lon="5.31663">
        <ele>278.54</ele>
        <time>2024-12-23T21:35:10.454Z</time>
      </trkpt>
      <trkpt lat="48.20701" lon="5.31679">
        <ele>278.4</ele>
        <time>2024-12-23T21:35:13.895Z</time>
      </trkpt>
      <trkpt lat="48.20672" lon="5.31695">
        <ele>278.33</ele>
        <time>2024-12-23T21:35:17.341Z</time>
      </trkpt>
      <trkpt lat="48.20648" lon="5.31711">
        <ele>278.31</ele>
        <time>2024-12-23T21:35:20.791Z</time>
      </trkpt>
      <trkpt lat="48.20624" lon="5.31727">
        <ele>278.27</ele>
        <time>2024-12-23T21:35:24.245Z</time>
      </trkpt>
      <trkpt lat="48.206" lon="5.31743">
        <ele>278.23</ele>
        <time>2024-12-23T21:35:27.704Z</time>
      </trkpt>
      <trkpt lat="48.20576" lon="5.31759">
        <ele>278.19</ele>
        <time>2024-12-23T21:35:31.167Z</time>
      </trkpt>
      <trkpt lat="48.20552" lon="5.31775">
        <ele>278.11</ele>
        <time>2024-12-23T21:35:34.634Z</time>
      </trkpt>
      <trkpt lat="48.20529" lon="5.31793">
        <ele>278.06</ele>
        <time>2024-12-23T21:35:38.105Z</time>
      </trkpt>
      <trkpt lat="48.20507" lon="5.31811">
        <ele>278.01</ele>
        <time>2024-12-23T21:35:41.580Z</time>
      </trkpt>
      <trkpt lat="48.20507" lon="5.31824">
        <ele>277.83</ele>
        <time>2024-12-23T21:35:45.057Z</time>
      </trkpt>
      <trkpt lat="48.20511" lon="5.31848">
        <ele>277.65</ele>
        <time>2024-12-23T21:35:48.536Z</time>
      </trkpt>
      <trkpt lat="48.20495" lon="5.31865">
        <ele>277.73</ele>
        <time>2024-12-23T21:35:52.018Z</time>
      </trkpt>
      <trkpt lat="48.20495" lon="5.31865">
        <ele>277.79</ele>
        <time>2024-12-23T21:35:55.500Z</time>
      </trkpt>
      <trkpt lat="48.20495" lon="5.31865">
        <ele>277.9</ele>
        <time>2024-12-23T21:35:58.982Z</time>
      </trkpt>
      <trkpt lat="48.20495" lon="5.31865">
        <ele>278.05</ele>
        <time>2024-12-23T21:36:02.464Z</time>
      </trkpt>
      <trkpt lat="48.20495" lon="5.31865">
        <ele>278.25</ele>
        <time>2024-12-23T21:36:05.946Z</time>
      </trkpt>
      <trkpt lat="48.20473" lon="5.31889">
        <ele>278.47</ele>
        <time>2024-12-23T21:36:09.433Z</time>
      </trkpt>
      <trkpt lat="48.20451" lon="5.31912">
        <ele>278.67</ele>
        <time>2024-12-23T21:36:12.924Z</time>
      </trkpt>
      <trkpt lat="48.2043" lon="5.31936">
        <ele>279.01</ele>
        <time>2024-12-23T21:36:16.419Z</time>
      </trkpt>
      <trkpt lat="48.20423" lon="5.31955">
        <ele>279.44</ele>
        <time>2024-12-23T21:36:19.917Z</time>
      </trkpt>
      <trkpt lat="48.20423" lon="5.31974">
        <ele>279.91</ele>
        <time>2024-12-23T21:36:23.417Z</time>
      </trkpt>
      <trkpt lat="48.20432" lon="5.32015">
        <ele>280.48</ele>
        <time>2024-12-23T21:36:26.921Z</time>
      </trkpt>
      <trkpt lat="48.20441" lon="5.32056">
        <ele>281.12</ele>
        <time>2024-12-23T21:36:30.430Z</time>
      </trkpt>
      <trkpt lat="48.2045" lon="5.32096">
        <ele>281.89</ele>
        <time>2024-12-23T21:36:33.943Z</time>
      </trkpt>
      <trkpt lat="48.20459" lon="5.32137">
        <ele>282.79</ele>
        <time>2024-12-23T21:36:37.461Z</time>
      </trkpt>
      <trkpt lat="48.20468" lon="5.32178">
        <ele>283.75</ele>
        <time>2024-12-23T21:36:40.984Z</time>
      </trkpt>
      <trkpt lat="48.20478" lon="5.32202">
        <ele>284.67</ele>
        <time>2024-12-23T21:36:44.510Z</time>
      </trkpt>
      <trkpt lat="48.20487" lon="5.32225">
        <ele>285.6</ele>
        <time>2024-12-23T21:36:48.039Z</time>
      </trkpt>
      <trkpt lat="48.20499" lon="5.32258">
        <ele>286.56</ele>
        <time>2024-12-23T21:36:51.572Z</time>
      </trkpt>
      <trkpt lat="48.2051" lon="5.32292">
        <ele>287.55</ele>
        <time>2024-12-23T21:36:55.109Z</time>
      </trkpt>
      <trkpt lat="48.20521" lon="5.32325">
        <ele>288.56</ele>
        <time>2024-12-23T21:36:58.650Z</time>
      </trkpt>
      <trkpt lat="48.20533" lon="5.32358">
        <ele>289.69</ele>
        <time>2024-12-23T21:37:02.195Z</time>
      </trkpt>
      <trkpt lat="48.20546" lon="5.32383">
        <ele>290.72</ele>
        <time>2024-12-23T21:37:05.743Z</time>
      </trkpt>
      <trkpt lat="48.2056" lon="5.32408">
        <ele>291.72</ele>
        <time>2024-12-23T21:37:09.294Z</time>
      </trkpt>
      <trkpt lat="48.20573" lon="5.32434">
        <ele>292.75</ele>
        <time>2024-12-23T21:37:12.849Z</time>
      </trkpt>
      <trkpt lat="48.2058" lon="5.32393">
        <ele>293.57</ele>
        <time>2024-12-23T21:37:16.408Z</time>
      </trkpt>
      <trkpt lat="48.20587" lon="5.32352">
        <ele>294.36</ele>
        <time>2024-12-23T21:37:19.972Z</time>
      </trkpt>
      <trkpt lat="48.20594" lon="5.3231">
        <ele>294.91</ele>
        <time>2024-12-23T21:37:23.540Z</time>
      </trkpt>
      <trkpt lat="48.206" lon="5.32269">
        <ele>295.34</ele>
        <time>2024-12-23T21:37:27.113Z</time>
      </trkpt>
      <trkpt lat="48.20607" lon="5.32228">
        <ele>295.75</ele>
        <time>2024-12-23T21:37:30.691Z</time>
      </trkpt>
      <trkpt lat="48.20614" lon="5.32187">
        <ele>295.99</ele>
        <time>2024-12-23T21:37:34.273Z</time>
      </trkpt>
      <trkpt lat="48.20622" lon="5.32153">
        <ele>296.08</ele>
        <time>2024-12-23T21:37:37.859Z</time>
      </trkpt>
      <trkpt lat="48.2063" lon="5.3212">
        <ele>296.03</ele>
        <time>2024-12-23T21:37:41.449Z</time>
      </trkpt>
      <trkpt lat="48.20638" lon="5.32086">
        <ele>295.89</ele>
        <time>2024-12-23T21:37:45.043Z</time>
      </trkpt>
      <trkpt lat="48.20653" lon="5.32054">
        <ele>295.67</ele>
        <time>2024-12-23T21:37:48.641Z</time>
      </trkpt>
      <trkpt lat="48.20668" lon="5.32022">
        <ele>295.35</ele>
        <time>2024-12-23T21:37:52.243Z</time>
      </trkpt>
      <trkpt lat="48.20693" lon="5.31999">
        <ele>294.96</ele>
        <time>2024-12-23T21:37:55.850Z</time>
      </trkpt>
      <trkpt lat="48.20718" lon="5.31976">
        <ele>294.48</ele>
        <time>2024-12-23T21:37:59.461Z</time>
      </trkpt>
      <trkpt lat="48.20743" lon="5.31954">
        <ele>293.89</ele>
        <time>2024-12-23T21:38:03.077Z</time>
      </trkpt>
      <trkpt lat="48.20769" lon="5.31931">
        <ele>293.14</ele>
        <time>2024-12-23T21:38:06.698Z</time>
      </trkpt>
      <trkpt lat="48.20792" lon="5.31916">
        <ele>292.38</ele>
        <time>2024-12-23T21:38:10.323Z</time>
      </trkpt>
      <trkpt lat="48.20816" lon="5.31901">
        <ele>291.54</ele>
        <time>2024-12-23T21:38:13.952Z</time>
      </trkpt>
      <trkpt lat="48.20839" lon="5.31886">
        <ele>290.64</ele>
        <time>2024-12-23T21:38:17.585Z</time>
      </trkpt>
      <trkpt lat="48.20863" lon="5.31871">
        <ele>289.66</ele>
        <time>2024-12-23T21:38:21.222Z</time>
      </trkpt>
      <trkpt lat="48.20889" lon="5.31849">
        <ele>288.57</ele>
        <time>2024-12-23T21:38:24.864Z</time>
      </trkpt>
      <trkpt lat="48.20914" lon="5.31827">
        <ele>287.53</ele>
        <time>2024-12-23T21:38:28.511Z</time>
      </trkpt>
      <trkpt lat="48.2094" lon="5.31805">
        <ele>286.58</ele>
        <time>2024-12-23T21:38:32.162Z</time>
      </trkpt>
      <trkpt lat="48.20954" lon="5.31795">
        <ele>285.67</ele>
        <time>2024-12-23T21:38:35.816Z</time>
      </trkpt>
      <trkpt lat="48.20955" lon="5.31795">
        <ele>284.74</ele>
        <time>2024-12-23T21:38:39.470Z</time>
      </trkpt>
      <trkpt lat="48.20955" lon="5.31795">
        <ele>283.83</ele>
        <time>2024-12-23T21:38:43.124Z</time>
      </trkpt>
      <trkpt lat="48.20955" lon="5.31795">
        <ele>282.94</ele>
        <time>2024-12-23T21:38:46.778Z</time>
      </trkpt>
      <trkpt lat="48.20955" lon="5.31795">
        <ele>282.1</ele>
        <time>2024-12-23T21:38:50.432Z</time>
      </trkpt>
      <trkpt lat="48.20955" lon="5.31795">
        <ele>281.29</ele>
        <time>2024-12-23T21:38:54.086Z</time>
      </trkpt>
      <trkpt lat="48.20955" lon="5.31795">
        <ele>280.54</ele>
        <time>2024-12-23T21:38:57.740Z</time>
      </trkpt>
      <trkpt lat="48.2098" lon="5.31777">
        <ele>279.85</ele>
        <time>2024-12-23T21:39:01.398Z</time>
      </trkpt>
      <trkpt lat="48.21005" lon="5.3176">
        <ele>279.19</ele>
        <time>2024-12-23T21:39:05.061Z</time>
      </trkpt>
      <trkpt lat="48.2103" lon="5.31743">
        <ele>278.44</ele>
        <time>2024-12-23T21:39:08.728Z</time>
      </trkpt>
      <trkpt lat="48.21022" lon="5.31718">
        <ele>277.81</ele>
        <time>2024-12-23T21:39:12.398Z</time>
      </trkpt>
      <trkpt lat="48.21013" lon="5.31693">
        <ele>277.35</ele>
        <time>2024-12-23T21:39:16.071Z</time>
      </trkpt>
      <trkpt lat="48.20996" lon="5.31676">
        <ele>277.04</ele>
        <time>2024-12-23T21:39:19.748Z</time>
      </trkpt>
      <trkpt lat="48.20979" lon="5.31659">
        <ele>276.85</ele>
        <time>2024-12-23T21:39:23.428Z</time>
      </trkpt>
      <trkpt lat="48.20977" lon="5.3163">
        <ele>276.85</ele>
        <time>2024-12-23T21:39:27.111Z</time>
      </trkpt>
      <trkpt lat="48.20975" lon="5.31601">
        <ele>277.07</ele>
        <time>2024-12-23T21:39:30.797Z</time>
      </trkpt>
      <trkpt lat="48.20972" lon="5.31564">
        <ele>277.55</ele>
        <time>2024-12-23T21:39:34.487Z</time>
      </trkpt>
      <trkpt lat="48.20972" lon="5.31562">
        <ele>280.79</ele>
        <time>2024-12-23T21:39:38.177Z</time>
      </trkpt>
      <trkpt lat="48.21" lon="5.31552">
        <ele>281.11</ele>
        <time>2024-12-23T21:39:41.872Z</time>
      </trkpt>
      <trkpt lat="48.21028" lon="5.31542">
        <ele>281.5</ele>
        <time>2024-12-23T21:39:45.571Z</time>
      </trkpt>
      <trkpt lat="48.21056" lon="5.31532">
        <ele>282.06</ele>
        <time>2024-12-23T21:39:49.275Z</time>
      </trkpt>
      <trkpt lat="48.21084" lon="5.31522">
        <ele>282.75</ele>
        <time>2024-12-23T21:39:52.984Z</time>
      </trkpt>
      <trkpt lat="48.21093" lon="5.31515">
        <ele>283.48</ele>
        <time>2024-12-23T21:39:56.694Z</time>
      </trkpt>
      <trkpt lat="48.21099" lon="5.315">
        <ele>284.27</ele>
        <time>2024-12-23T21:40:00.406Z</time>
      </trkpt>
      <trkpt lat="48.21097" lon="5.31492">
        <ele>285.09</ele>
        <time>2024-12-23T21:40:04.119Z</time>
      </trkpt>
      <trkpt lat="48.2109" lon="5.31479">
        <ele>286</ele>
        <time>2024-12-23T21:40:07.834Z</time>
      </trkpt>
      <trkpt lat="48.21084" lon="5.31474">
        <ele>286.9</ele>
        <time>2024-12-23T21:40:11.550Z</time>
      </trkpt>
      <trkpt lat="48.21064" lon="5.31489">
        <ele>287.73</ele>
        <time>2024-12-23T21:40:15.270Z</time>
      </trkpt>
      <trkpt lat="48.21043" lon="5.31504">
        <ele>288.58</ele>
        <time>2024-12-23T21:40:18.993Z</time>
      </trkpt>
      <trkpt lat="48.21028" lon="5.31519">
        <ele>289.54</ele>
        <time>2024-12-23T21:40:22.719Z</time>
      </trkpt>
      <trkpt lat="48.21011" lon="5.31522">
        <ele>290.74</ele>
        <time>2024-12-23T21:40:26.448Z</time>
      </trkpt>
      <trkpt lat="48.20994" lon="5.31524">
        <ele>292.02</ele>
        <time>2024-12-23T21:40:30.180Z</time>
      </trkpt>
      <trkpt lat="48.20977" lon="5.31517">
        <ele>293.37</ele>
        <time>2024-12-23T21:40:33.914Z</time>
      </trkpt>
      <trkpt lat="48.2096" lon="5.315">
        <ele>294.85</ele>
        <time>2024-12-23T21:40:37.652Z</time>
      </trkpt>
      <trkpt lat="48.20942" lon="5.31464">
        <ele>296.38</ele>
        <time>2024-12-23T21:40:41.395Z</time>
      </trkpt>
      <trkpt lat="48.20936" lon="5.31434">
        <ele>297.88</ele>
        <time>2024-12-23T21:40:45.141Z</time>
      </trkpt>
      <trkpt lat="48.20932" lon="5.31402">
        <ele>299.42</ele>
        <time>2024-12-23T21:40:48.890Z</time>
      </trkpt>
      <trkpt lat="48.20929" lon="5.31371">
        <ele>300.99</ele>
        <time>2024-12-23T21:40:52.643Z</time>
      </trkpt>
      <trkpt lat="48.20925" lon="5.31339">
        <ele>302.6</ele>
        <time>2024-12-23T21:40:56.399Z</time>
      </trkpt>
      <trkpt lat="48.2092" lon="5.3131">
        <ele>304.25</ele>
        <time>2024-12-23T21:41:00.158Z</time>
      </trkpt>
      <trkpt lat="48.20915" lon="5.31281">
        <ele>305.95</ele>
        <time>2024-12-23T21:41:03.921Z</time>
      </trkpt>
      <trkpt lat="48.20907" lon="5.31243">
        <ele>307.62</ele>
        <time>2024-12-23T21:41:07.688Z</time>
      </trkpt>
      <trkpt lat="48.20898" lon="5.31204">
        <ele>309.33</ele>
        <time>2024-12-23T21:41:11.459Z</time>
      </trkpt>
      <trkpt lat="48.2089" lon="5.31165">
        <ele>311.12</ele>
        <time>2024-12-23T21:41:15.235Z</time>
      </trkpt>
      <trkpt lat="48.20882" lon="5.31127">
        <ele>312.92</ele>
        <time>2024-12-23T21:41:19.015Z</time>
      </trkpt>
      <trkpt lat="48.20867" lon="5.31092">
        <ele>314.63</ele>
        <time>2024-12-23T21:41:22.799Z</time>
      </trkpt>
      <trkpt lat="48.20852" lon="5.31058">
        <ele>316.45</ele>
        <time>2024-12-23T21:41:26.588Z</time>
      </trkpt>
      <trkpt lat="48.2084" lon="5.31036">
        <ele>318.36</ele>
        <time>2024-12-23T21:41:30.380Z</time>
      </trkpt>
      <trkpt lat="48.20829" lon="5.31013">
        <ele>320.26</ele>
        <time>2024-12-23T21:41:34.175Z</time>
      </trkpt>
      <trkpt lat="48.20808" lon="5.30983">
        <ele>322.1</ele>
        <time>2024-12-23T21:41:37.974Z</time>
      </trkpt>
      <trkpt lat="48.20788" lon="5.30953">
        <ele>323.9</ele>
        <time>2024-12-23T21:41:41.778Z</time>
      </trkpt>
      <trkpt lat="48.20765" lon="5.30922">
        <ele>325.71</ele>
        <time>2024-12-23T21:41:45.587Z</time>
      </trkpt>
      <trkpt lat="48.20743" lon="5.30891">
        <ele>327.57</ele>
        <time>2024-12-23T21:41:49.401Z</time>
      </trkpt>
      <trkpt lat="48.2072" lon="5.3086">
        <ele>329.24</ele>
        <time>2024-12-23T21:41:53.220Z</time>
      </trkpt>
      <trkpt lat="48.20698" lon="5.30828">
        <ele>331.01</ele>
        <time>2024-12-23T21:41:57.044Z</time>
      </trkpt>
      <trkpt lat="48.20676" lon="5.30826">
        <ele>332.58</ele>
        <time>2024-12-23T21:42:00.871Z</time>
      </trkpt>
      <trkpt lat="48.20653" lon="5.30831">
        <ele>334.14</ele>
        <time>2024-12-23T21:42:04.702Z</time>
      </trkpt>
      <trkpt lat="48.20633" lon="5.30831">
        <ele>335.74</ele>
        <time>2024-12-23T21:42:08.536Z</time>
      </trkpt>
      <trkpt lat="48.20603" lon="5.30822">
        <ele>337.44</ele>
        <time>2024-12-23T21:42:12.375Z</time>
      </trkpt>
      <trkpt lat="48.20588" lon="5.30811">
        <ele>338.94</ele>
        <time>2024-12-23T21:42:16.217Z</time>
      </trkpt>
      <trkpt lat="48.20573" lon="5.30801">
        <ele>340.38</ele>
        <time>2024-12-23T21:42:20.061Z</time>
      </trkpt>
      <trkpt lat="48.20552" lon="5.30782">
        <ele>341.73</ele>
        <time>2024-12-23T21:42:23.909Z</time>
      </trkpt>
      <trkpt lat="48.2053" lon="5.30763">
        <ele>343.02</ele>
        <time>2024-12-23T21:42:27.761Z</time>
      </trkpt>
      <trkpt lat="48.20509" lon="5.30745">
        <ele>344.22</ele>
        <time>2024-12-23T21:42:31.617Z</time>
      </trkpt>
      <trkpt lat="48.20485" lon="5.30719">
        <ele>345.39</ele>
        <time>2024-12-23T21:42:35.478Z</time>
      </trkpt>
      <trkpt lat="48.2047" lon="5.30695">
        <ele>346.41</ele>
        <time>2024-12-23T21:42:39.342Z</time>
      </trkpt>
      <trkpt lat="48.20455" lon="5.30658">
        <ele>347.29</ele>
        <time>2024-12-23T21:42:43.211Z</time>
      </trkpt>
      <trkpt lat="48.20439" lon="5.30621">
        <ele>348.09</ele>
        <time>2024-12-23T21:42:47.085Z</time>
      </trkpt>
      <trkpt lat="48.20423" lon="5.30584">
        <ele>348.83</ele>
        <time>2024-12-23T21:42:50.963Z</time>
      </trkpt>
      <trkpt lat="48.20413" lon="5.30543">
        <ele>349.41</ele>
        <time>2024-12-23T21:42:54.846Z</time>
      </trkpt>
      <trkpt lat="48.20403" lon="5.30502">
        <ele>349.82</ele>
        <time>2024-12-23T21:42:58.734Z</time>
      </trkpt>
      <trkpt lat="48.20393" lon="5.30462">
        <ele>350.08</ele>
        <time>2024-12-23T21:43:02.626Z</time>
      </trkpt>
      <trkpt lat="48.20393" lon="5.30462">
        <ele>350.31</ele>
        <time>2024-12-23T21:43:06.518Z</time>
      </trkpt>
      <trkpt lat="48.20389" lon="5.30421">
        <ele>350.46</ele>
        <time>2024-12-23T21:43:10.415Z</time>
      </trkpt>
      <trkpt lat="48.20385" lon="5.30379">
        <ele>350.5</ele>
        <time>2024-12-23T21:43:14.316Z</time>
      </trkpt>
      <trkpt lat="48.20381" lon="5.30337">
        <ele>350.48</ele>
        <time>2024-12-23T21:43:18.222Z</time>
      </trkpt>
      <trkpt lat="48.20377" lon="5.30296">
        <ele>350.32</ele>
        <time>2024-12-23T21:43:22.132Z</time>
      </trkpt>
      <trkpt lat="48.20373" lon="5.30254">
        <ele>350.1</ele>
        <time>2024-12-23T21:43:26.047Z</time>
      </trkpt>
      <trkpt lat="48.20369" lon="5.30213">
        <ele>349.73</ele>
        <time>2024-12-23T21:43:29.966Z</time>
      </trkpt>
      <trkpt lat="48.20363" lon="5.30172">
        <ele>349.33</ele>
        <time>2024-12-23T21:43:33.890Z</time>
      </trkpt>
      <trkpt lat="48.20352" lon="5.30129">
        <ele>348.97</ele>
        <time>2024-12-23T21:43:37.819Z</time>
      </trkpt>
      <trkpt lat="48.20342" lon="5.30085">
        <ele>348.6</ele>
        <time>2024-12-23T21:43:41.753Z</time>
      </trkpt>
      <trkpt lat="48.20331" lon="5.30042">
        <ele>348.08</ele>
        <time>2024-12-23T21:43:45.692Z</time>
      </trkpt>
      <trkpt lat="48.2032" lon="5.29998">
        <ele>347.56</ele>
        <time>2024-12-23T21:43:49.636Z</time>
      </trkpt>
      <trkpt lat="48.20311" lon="5.29956">
        <ele>347.14</ele>
        <time>2024-12-23T21:43:53.584Z</time>
      </trkpt>
      <trkpt lat="48.20302" lon="5.29914">
        <ele>346.61</ele>
        <time>2024-12-23T21:43:57.537Z</time>
      </trkpt>
      <trkpt lat="48.20292" lon="5.29871">
        <ele>346.11</ele>
        <time>2024-12-23T21:44:01.495Z</time>
      </trkpt>
      <trkpt lat="48.20286" lon="5.29831">
        <ele>345.55</ele>
        <time>2024-12-23T21:44:05.457Z</time>
      </trkpt>
      <trkpt lat="48.20279" lon="5.2979">
        <ele>344.97</ele>
        <time>2024-12-23T21:44:09.424Z</time>
      </trkpt>
      <trkpt lat="48.20273" lon="5.29749">
        <ele>344.33</ele>
        <time>2024-12-23T21:44:13.395Z</time>
      </trkpt>
      <trkpt lat="48.20267" lon="5.29708">
        <ele>343.74</ele>
        <time>2024-12-23T21:44:17.371Z</time>
      </trkpt>
      <trkpt lat="48.2026" lon="5.29668">
        <ele>343.13</ele>
        <time>2024-12-23T21:44:21.351Z</time>
      </trkpt>
      <trkpt lat="48.2026" lon="5.29668">
        <ele>342.6</ele>
        <time>2024-12-23T21:44:25.331Z</time>
      </trkpt>
      <trkpt lat="48.20258" lon="5.29631">
        <ele>342.05</ele>
        <time>2024-12-23T21:44:29.315Z</time>
      </trkpt>
      <trkpt lat="48.20257" lon="5.29594">
        <ele>341.5</ele>
        <time>2024-12-23T21:44:33.303Z</time>
      </trkpt>
      <trkpt lat="48.20255" lon="5.29557">
        <ele>341</ele>
        <time>2024-12-23T21:44:37.295Z</time>
      </trkpt>
      <trkpt lat="48.20254" lon="5.2952">
        <ele>340.58</ele>
        <time>2024-12-23T21:44:41.291Z</time>
      </trkpt>
      <trkpt lat="48.20241" lon="5.29485">
        <ele>340.22</ele>
        <time>2024-12-23T21:44:45.291Z</time>
      </trkpt>
      <trkpt lat="48.20226" lon="5.29456">
        <ele>339.87</ele>
        <time>2024-12-23T21:44:49.295Z</time>
      </trkpt>
      <trkpt lat="48.20211" lon="5.29427">
        <ele>339.58</ele>
        <time>2024-12-23T21:44:53.303Z</time>
      </trkpt>
      <trkpt lat="48.202" lon="5.29395">
        <ele>339.34</ele>
        <time>2024-12-23T21:44:57.315Z</time>
      </trkpt>
      <trkpt lat="48.20193" lon="5.29358">
        <ele>339.23</ele>
        <time>2024-12-23T21:45:01.331Z</time>
      </trkpt>
      <trkpt lat="48.20186" lon="5.29321">
        <ele>339.17</ele>
        <time>2024-12-23T21:45:05.351Z</time>
      </trkpt>
      <trkpt lat="48.20179" lon="5.29284">
        <ele>339.17</ele>
        <time>2024-12-23T21:45:09.375Z</time>
      </trkpt>
      <trkpt lat="48.20172" lon="5.29247">
        <ele>339.18</ele>
        <time>2024-12-23T21:45:13.404Z</time>
      </trkpt>
      <trkpt lat="48.20162" lon="5.29206">
        <ele>339.22</ele>
        <time>2024-12-23T21:45:17.437Z</time>
      </trkpt>
      <trkpt lat="48.20153" lon="5.29166">
        <ele>339.27</ele>
        <time>2024-12-23T21:45:21.475Z</time>
      </trkpt>
      <trkpt lat="48.20141" lon="5.29129">
        <ele>339.26</ele>
        <time>2024-12-23T21:45:25.517Z</time>
      </trkpt>
      <trkpt lat="48.20129" lon="5.29092">
        <ele>339.32</ele>
        <time>2024-12-23T21:45:29.564Z</time>
      </trkpt>
      <trkpt lat="48.20116" lon="5.29055">
        <ele>339.46</ele>
        <time>2024-12-23T21:45:33.615Z</time>
      </trkpt>
      <trkpt lat="48.20104" lon="5.29018">
        <ele>339.66</ele>
        <time>2024-12-23T21:45:37.670Z</time>
      </trkpt>
      <trkpt lat="48.20092" lon="5.28981">
        <ele>339.82</ele>
        <time>2024-12-23T21:45:41.730Z</time>
      </trkpt>
      <trkpt lat="48.2008" lon="5.28944">
        <ele>340.01</ele>
        <time>2024-12-23T21:45:45.794Z</time>
      </trkpt>
      <trkpt lat="48.20066" lon="5.28908">
        <ele>340.35</ele>
        <time>2024-12-23T21:45:49.863Z</time>
      </trkpt>
      <trkpt lat="48.20052" lon="5.28872">
        <ele>340.76</ele>
        <time>2024-12-23T21:45:53.936Z</time>
      </trkpt>
      <trkpt lat="48.2004" lon="5.28846">
        <ele>341.18</ele>
        <time>2024-12-23T21:45:58.013Z</time>
      </trkpt>
      <trkpt lat="48.20028" lon="5.2882">
        <ele>341.59</ele>
        <time>2024-12-23T21:46:02.093Z</time>
      </trkpt>
      <trkpt lat="48.20013" lon="5.28792">
        <ele>342.06</ele>
        <time>2024-12-23T21:46:06.177Z</time>
      </trkpt>
      <trkpt lat="48.19998" lon="5.28764">
        <ele>342.56</ele>
        <time>2024-12-23T21:46:10.265Z</time>
      </trkpt>
      <trkpt lat="48.19981" lon="5.28736">
        <ele>343.08</ele>
        <time>2024-12-23T21:46:14.357Z</time>
      </trkpt>
      <trkpt lat="48.19964" lon="5.28708">
        <ele>343.59</ele>
        <time>2024-12-23T21:46:18.453Z</time>
      </trkpt>
      <trkpt lat="48.19948" lon="5.28687">
        <ele>344.09</ele>
        <time>2024-12-23T21:46:22.552Z</time>
      </trkpt>
      <trkpt lat="48.19931" lon="5.28666">
        <ele>344.55</ele>
        <time>2024-12-23T21:46:26.655Z</time>
      </trkpt>
      <trkpt lat="48.19915" lon="5.28644">
        <ele>345.01</ele>
        <time>2024-12-23T21:46:30.761Z</time>
      </trkpt>
      <trkpt lat="48.19897" lon="5.28625">
        <ele>345.43</ele>
        <time>2024-12-23T21:46:34.871Z</time>
      </trkpt>
      <trkpt lat="48.1988" lon="5.28605">
        <ele>345.81</ele>
        <time>2024-12-23T21:46:38.984Z</time>
      </trkpt>
      <trkpt lat="48.19863" lon="5.28586">
        <ele>346.28</ele>
        <time>2024-12-23T21:46:43.100Z</time>
      </trkpt>
      <trkpt lat="48.19879" lon="5.28548">
        <ele>346.69</ele>
        <time>2024-12-23T21:46:47.221Z</time>
      </trkpt>
      <trkpt lat="48.19896" lon="5.28509">
        <ele>347.13</ele>
        <time>2024-12-23T21:46:51.347Z</time>
      </trkpt>
      <trkpt lat="48.19912" lon="5.2847">
        <ele>347.55</ele>
        <time>2024-12-23T21:46:55.478Z</time>
      </trkpt>
      <trkpt lat="48.19915" lon="5.28438">
        <ele>347.94</ele>
        <time>2024-12-23T21:46:59.613Z</time>
      </trkpt>
      <trkpt lat="48.19926" lon="5.2842">
        <ele>346.36</ele>
        <time>2024-12-23T21:47:03.750Z</time>
      </trkpt>
      <trkpt lat="48.19938" lon="5.28402">
        <ele>346.37</ele>
        <time>2024-12-23T21:47:07.890Z</time>
      </trkpt>
      <trkpt lat="48.19962" lon="5.28371">
        <ele>346.39</ele>
        <time>2024-12-23T21:47:12.035Z</time>
      </trkpt>
      <trkpt lat="48.19985" lon="5.28339">
        <ele>346.34</ele>
        <time>2024-12-23T21:47:16.185Z</time>
      </trkpt>
      <trkpt lat="48.20009" lon="5.28314">
        <ele>346.23</ele>
        <time>2024-12-23T21:47:20.340Z</time>
      </trkpt>
      <trkpt lat="48.20033" lon="5.28288">
        <ele>346.12</ele>
        <time>2024-12-23T21:47:24.499Z</time>
      </trkpt>
      <trkpt lat="48.20056" lon="5.28262">
        <ele>345.98</ele>
        <time>2024-12-23T21:47:28.663Z</time>
      </trkpt>
      <trkpt lat="48.20082" lon="5.28242">
        <ele>345.78</ele>
        <time>2024-12-23T21:47:32.832Z</time>
      </trkpt>
      <trkpt lat="48.20108" lon="5.28221">
        <ele>345.51</ele>
        <time>2024-12-23T21:47:37.005Z</time>
      </trkpt>
      <trkpt lat="48.20132" lon="5.28201">
        <ele>345.21</ele>
        <time>2024-12-23T21:47:41.183Z</time>
      </trkpt>
      <trkpt lat="48.20156" lon="5.28181">
        <ele>344.93</ele>
        <time>2024-12-23T21:47:45.365Z</time>
      </trkpt>
      <trkpt lat="48.20181" lon="5.28161">
        <ele>344.54</ele>
        <time>2024-12-23T21:47:49.552Z</time>
      </trkpt>
      <trkpt lat="48.20206" lon="5.2814">
        <ele>344.14</ele>
        <time>2024-12-23T21:47:53.744Z</time>
      </trkpt>
      <trkpt lat="48.20232" lon="5.28118">
        <ele>343.74</ele>
        <time>2024-12-23T21:47:57.940Z</time>
      </trkpt>
      <trkpt lat="48.2025" lon="5.28095">
        <ele>343.36</ele>
        <time>2024-12-23T21:48:02.140Z</time>
      </trkpt>
      <trkpt lat="48.20269" lon="5.28072">
        <ele>342.95</ele>
        <time>2024-12-23T21:48:06.344Z</time>
      </trkpt>
      <trkpt lat="48.20287" lon="5.28049">
        <ele>342.54</ele>
        <time>2024-12-23T21:48:10.552Z</time>
      </trkpt>
      <trkpt lat="48.20305" lon="5.28026">
        <ele>342.13</ele>
        <time>2024-12-23T21:48:14.764Z</time>
      </trkpt>
      <trkpt lat="48.20322" lon="5.28008">
        <ele>341.79</ele>
        <time>2024-12-23T21:48:18.979Z</time>
      </trkpt>
      <trkpt lat="48.20339" lon="5.2799">
        <ele>341.43</ele>
        <time>2024-12-23T21:48:23.197Z</time>
      </trkpt>
      <trkpt lat="48.20356" lon="5.27979">
        <ele>341.07</ele>
        <time>2024-12-23T21:48:27.418Z</time>
      </trkpt>
      <trkpt lat="48.20372" lon="5.27968">
        <ele>340.68</ele>
        <time>2024-12-23T21:48:31.642Z</time>
      </trkpt>
      <trkpt lat="48.20376" lon="5.27961">
        <ele>340.32</ele>
        <time>2024-12-23T21:48:35.867Z</time>
      </trkpt>
      <trkpt lat="48.20376" lon="5.27961">
        <ele>339.99</ele>
        <time>2024-12-23T21:48:40.092Z</time>
      </trkpt>
      <trkpt lat="48.20376" lon="5.27961">
        <ele>339.66</ele>
        <time>2024-12-23T21:48:44.317Z</time>
      </trkpt>
      <trkpt lat="48.20376" lon="5.27961">
        <ele>339.35</ele>
        <time>2024-12-23T21:48:48.542Z</time>
      </trkpt>
      <trkpt lat="48.20376" lon="5.27961">
        <ele>339.06</ele>
        <time>2024-12-23T21:48:52.767Z</time>
      </trkpt>
      <trkpt lat="48.20376" lon="5.27961">
        <ele>338.77</ele>
        <time>2024-12-23T21:48:56.992Z</time>
      </trkpt>
      <trkpt lat="48.20376" lon="5.27961">
        <ele>338.5</ele>
        <time>2024-12-23T21:49:01.217Z</time>
      </trkpt>
      <trkpt lat="48.20388" lon="5.27942">
        <ele>338.23</ele>
        <time>2024-12-23T21:49:05.445Z</time>
      </trkpt>
      <trkpt lat="48.204" lon="5.27923">
        <ele>337.93</ele>
        <time>2024-12-23T21:49:09.676Z</time>
      </trkpt>
      <trkpt lat="48.20421" lon="5.27896">
        <ele>337.69</ele>
        <time>2024-12-23T21:49:13.911Z</time>
      </trkpt>
      <trkpt lat="48.20442" lon="5.27869">
        <ele>337.47</ele>
        <time>2024-12-23T21:49:18.151Z</time>
      </trkpt>
      <trkpt lat="48.20464" lon="5.27842">
        <ele>337.25</ele>
        <time>2024-12-23T21:49:22.395Z</time>
      </trkpt>
      <trkpt lat="48.20487" lon="5.27822">
        <ele>337.05</ele>
        <time>2024-12-23T21:49:26.643Z</time>
      </trkpt>
      <trkpt lat="48.2051" lon="5.27803">
        <ele>336.84</ele>
        <time>2024-12-23T21:49:30.895Z</time>
      </trkpt>
      <trkpt lat="48.20533" lon="5.27784">
        <ele>336.64</ele>
        <time>2024-12-23T21:49:35.152Z</time>
      </trkpt>
      <trkpt lat="48.20555" lon="5.27764">
        <ele>336.45</ele>
        <time>2024-12-23T21:49:39.413Z</time>
      </trkpt>
      <trkpt lat="48.20578" lon="5.27745">
        <ele>336.29</ele>
        <time>2024-12-23T21:49:43.678Z</time>
      </trkpt>
      <trkpt lat="48.20601" lon="5.27726">
        <ele>336.15</ele>
        <time>2024-12-23T21:49:47.947Z</time>
      </trkpt>
      <trkpt lat="48.20626" lon="5.27704">
        <ele>335.92</ele>
        <time>2024-12-23T21:49:52.221Z</time>
      </trkpt>
      <trkpt lat="48.20651" lon="5.27683">
        <ele>335.71</ele>
        <time>2024-12-23T21:49:56.499Z</time>
      </trkpt>
      <trkpt lat="48.20676" lon="5.27661">
        <ele>335.62</ele>
        <time>2024-12-23T21:50:00.782Z</time>
      </trkpt>
      <trkpt lat="48.20701" lon="5.2764">
        <ele>335.51</ele>
        <time>2024-12-23T21:50:05.070Z</time>
      </trkpt>
      <trkpt lat="48.20726" lon="5.27618">
        <ele>335.38</ele>
        <time>2024-12-23T21:50:09.362Z</time>
      </trkpt>
      <trkpt lat="48.20748" lon="5.27591">
        <ele>335.25</ele>
        <time>2024-12-23T21:50:13.659Z</time>
      </trkpt>
      <trkpt lat="48.20771" lon="5.27563">
        <ele>335.16</ele>
        <time>2024-12-23T21:50:17.961Z</time>
      </trkpt>
      <trkpt lat="48.2079" lon="5.27545">
        <ele>335.03</ele>
        <time>2024-12-23T21:50:22.266Z</time>
      </trkpt>
      <trkpt lat="48.20809" lon="5.27528">
        <ele>334.97</ele>
        <time>2024-12-23T21:50:26.575Z</time>
      </trkpt>
      <trkpt lat="48.20836" lon="5.27515">
        <ele>334.92</ele>
        <time>2024-12-23T21:50:30.888Z</time>
      </trkpt>
      <trkpt lat="48.20863" lon="5.27503">
        <ele>334.9</ele>
        <time>2024-12-23T21:50:35.206Z</time>
      </trkpt>
      <trkpt lat="48.20877" lon="5.27491">
        <ele>334.83</ele>
        <time>2024-12-23T21:50:39.526Z</time>
      </trkpt>
      <trkpt lat="48.20891" lon="5.27479">
        <ele>334.75</ele>
        <time>2024-12-23T21:50:43.849Z</time>
      </trkpt>
      <trkpt lat="48.20902" lon="5.27448">
        <ele>334.66</ele>
        <time>2024-12-23T21:50:48.176Z</time>
      </trkpt>
      <trkpt lat="48.20912" lon="5.27416">
        <ele>334.49</ele>
        <time>2024-12-23T21:50:52.507Z</time>
      </trkpt>
      <trkpt lat="48.20923" lon="5.27385">
        <ele>334.35</ele>
        <time>2024-12-23T21:50:56.841Z</time>
      </trkpt>
      <trkpt lat="48.20932" lon="5.27342">
        <ele>334.18</ele>
        <time>2024-12-23T21:51:01.180Z</time>
      </trkpt>
      <trkpt lat="48.20932" lon="5.27342">
        <ele>334.02</ele>
        <time>2024-12-23T21:51:05.519Z</time>
      </trkpt>
      <trkpt lat="48.20932" lon="5.27299">
        <ele>333.83</ele>
        <time>2024-12-23T21:51:09.863Z</time>
      </trkpt>
      <trkpt lat="48.20932" lon="5.27267">
        <ele>333.6</ele>
        <time>2024-12-23T21:51:14.210Z</time>
      </trkpt>
      <trkpt lat="48.20933" lon="5.27234">
        <ele>333.42</ele>
        <time>2024-12-23T21:51:18.561Z</time>
      </trkpt>
      <trkpt lat="48.20934" lon="5.27202">
        <ele>333.24</ele>
        <time>2024-12-23T21:51:22.915Z</time>
      </trkpt>
      <trkpt lat="48.20937" lon="5.27166">
        <ele>333.01</ele>
        <time>2024-12-23T21:51:27.273Z</time>
      </trkpt>
      <trkpt lat="48.2094" lon="5.27129">
        <ele>332.73</ele>
        <time>2024-12-23T21:51:31.635Z</time>
      </trkpt>
      <trkpt lat="48.20942" lon="5.27093">
        <ele>332.47</ele>
        <time>2024-12-23T21:51:36.001Z</time>
      </trkpt>
      <trkpt lat="48.20939" lon="5.27053">
        <ele>332.22</ele>
        <time>2024-12-23T21:51:40.371Z</time>
      </trkpt>
      <trkpt lat="48.20935" lon="5.27013">
        <ele>331.91</ele>
        <time>2024-12-23T21:51:44.745Z</time>
      </trkpt>
      <trkpt lat="48.20932" lon="5.26973">
        <ele>331.66</ele>
        <time>2024-12-23T21:51:49.124Z</time>
      </trkpt>
      <trkpt lat="48.20932" lon="5.26949">
        <ele>331.42</ele>
        <time>2024-12-23T21:51:53.505Z</time>
      </trkpt>
      <trkpt lat="48.20932" lon="5.26925">
        <ele>331.17</ele>
        <time>2024-12-23T21:51:57.889Z</time>
      </trkpt>
      <trkpt lat="48.20938" lon="5.26895">
        <ele>330.95</ele>
        <time>2024-12-23T21:52:02.276Z</time>
      </trkpt>
      <trkpt lat="48.20945" lon="5.26865">
        <ele>330.66</ele>
        <time>2024-12-23T21:52:06.667Z</time>
      </trkpt>
      <trkpt lat="48.20954" lon="5.26826">
        <ele>330.38</ele>
        <time>2024-12-23T21:52:11.062Z</time>
      </trkpt>
      <trkpt lat="48.20963" lon="5.26786">
        <ele>330.11</ele>
        <time>2024-12-23T21:52:15.462Z</time>
      </trkpt>
      <trkpt lat="48.20972" lon="5.26746">
        <ele>329.77</ele>
        <time>2024-12-23T21:52:19.866Z</time>
      </trkpt>
      <trkpt lat="48.20982" lon="5.26707">
        <ele>329.48</ele>
        <time>2024-12-23T21:52:24.275Z</time>
      </trkpt>
      <trkpt lat="48.20991" lon="5.26667">
        <ele>329.15</ele>
        <time>2024-12-23T21:52:28.688Z</time>
      </trkpt>
      <trkpt lat="48.21" lon="5.26627">
        <ele>328.72</ele>
        <time>2024-12-23T21:52:33.106Z</time>
      </trkpt>
      <trkpt lat="48.21011" lon="5.26594">
        <ele>328.34</ele>
        <time>2024-12-23T21:52:37.528Z</time>
      </trkpt>
      <trkpt lat="48.21022" lon="5.26561">
        <ele>327.93</ele>
        <time>2024-12-23T21:52:41.954Z</time>
      </trkpt>
      <trkpt lat="48.21039" lon="5.26524">
        <ele>327.54</ele>
        <time>2024-12-23T21:52:46.384Z</time>
      </trkpt>
      <trkpt lat="48.21058" lon="5.26491">
        <ele>327.24</ele>
        <time>2024-12-23T21:52:50.819Z</time>
      </trkpt>
      <trkpt lat="48.21076" lon="5.26457">
        <ele>326.91</ele>
        <time>2024-12-23T21:52:55.259Z</time>
      </trkpt>
      <trkpt lat="48.21095" lon="5.26423">
        <ele>326.57</ele>
        <time>2024-12-23T21:52:59.703Z</time>
      </trkpt>
      <trkpt lat="48.2111" lon="5.26401">
        <ele>326.17</ele>
        <time>2024-12-23T21:53:04.151Z</time>
      </trkpt>
      <trkpt lat="48.21125" lon="5.26379">
        <ele>325.83</ele>
        <time>2024-12-23T21:53:08.602Z</time>
      </trkpt>
      <trkpt lat="48.2114" lon="5.26357">
        <ele>325.46</ele>
        <time>2024-12-23T21:53:13.056Z</time>
      </trkpt>
      <trkpt lat="48.21167" lon="5.26334">
        <ele>325.13</ele>
        <time>2024-12-23T21:53:17.515Z</time>
      </trkpt>
      <trkpt lat="48.21193" lon="5.26312">
        <ele>324.79</ele>
        <time>2024-12-23T21:53:21.979Z</time>
      </trkpt>
      <trkpt lat="48.2122" lon="5.26289">
        <ele>324.41</ele>
        <time>2024-12-23T21:53:26.448Z</time>
      </trkpt>
      <trkpt lat="48.21247" lon="5.26267">
        <ele>323.93</ele>
        <time>2024-12-23T21:53:30.922Z</time>
      </trkpt>
      <trkpt lat="48.21273" lon="5.26248">
        <ele>323.47</ele>
        <time>2024-12-23T21:53:35.401Z</time>
      </trkpt>
      <trkpt lat="48.21299" lon="5.2623">
        <ele>323.05</ele>
        <time>2024-12-23T21:53:39.884Z</time>
      </trkpt>
      <trkpt lat="48.21324" lon="5.26212">
        <ele>322.6</ele>
        <time>2024-12-23T21:53:44.372Z</time>
      </trkpt>
      <trkpt lat="48.2135" lon="5.26194">
        <ele>322.09</ele>
        <time>2024-12-23T21:53:48.864Z</time>
      </trkpt>
      <trkpt lat="48.21365" lon="5.26178">
        <ele>321.63</ele>
        <time>2024-12-23T21:53:53.359Z</time>
      </trkpt>
      <trkpt lat="48.2138" lon="5.26161">
        <ele>321.15</ele>
        <time>2024-12-23T21:53:57.857Z</time>
      </trkpt>
      <trkpt lat="48.21404" lon="5.26131">
        <ele>320.61</ele>
        <time>2024-12-23T21:54:02.360Z</time>
      </trkpt>
      <trkpt lat="48.21427" lon="5.261">
        <ele>320.05</ele>
        <time>2024-12-23T21:54:06.868Z</time>
      </trkpt>
      <trkpt lat="48.21451" lon="5.26069">
        <ele>319.44</ele>
        <time>2024-12-23T21:54:11.381Z</time>
      </trkpt>
      <trkpt lat="48.21474" lon="5.26038">
        <ele>318.8</ele>
        <time>2024-12-23T21:54:15.899Z</time>
      </trkpt>
      <trkpt lat="48.21498" lon="5.26007">
        <ele>318.1</ele>
        <time>2024-12-23T21:54:20.422Z</time>
      </trkpt>
      <trkpt lat="48.21522" lon="5.25976">
        <ele>317.42</ele>
        <time>2024-12-23T21:54:24.950Z</time>
      </trkpt>
      <trkpt lat="48.21545" lon="5.25945">
        <ele>316.7</ele>
        <time>2024-12-23T21:54:29.484Z</time>
      </trkpt>
      <trkpt lat="48.2157" lon="5.25919">
        <ele>315.96</ele>
        <time>2024-12-23T21:54:34.022Z</time>
      </trkpt>
      <trkpt lat="48.21595" lon="5.25893">
        <ele>315.16</ele>
        <time>2024-12-23T21:54:38.565Z</time>
      </trkpt>
      <trkpt lat="48.21619" lon="5.25867">
        <ele>314.35</ele>
        <time>2024-12-23T21:54:43.113Z</time>
      </trkpt>
      <trkpt lat="48.21644" lon="5.25842">
        <ele>313.56</ele>
        <time>2024-12-23T21:54:47.666Z</time>
      </trkpt>
      <trkpt lat="48.21644" lon="5.25842">
        <ele>312.8</ele>
        <time>2024-12-23T21:54:52.219Z</time>
      </trkpt>
      <trkpt lat="48.21666" lon="5.25807">
        <ele>311.96</ele>
        <time>2024-12-23T21:54:56.777Z</time>
      </trkpt>
      <trkpt lat="48.21676" lon="5.25784">
        <ele>311.14</ele>
        <time>2024-12-23T21:55:01.338Z</time>
      </trkpt>
      <trkpt lat="48.21681" lon="5.25759">
        <ele>310.33</ele>
        <time>2024-12-23T21:55:05.902Z</time>
      </trkpt>
      <trkpt lat="48.21685" lon="5.25734">
        <ele>309.57</ele>
        <time>2024-12-23T21:55:10.468Z</time>
      </trkpt>
      <trkpt lat="48.21689" lon="5.25701">
        <ele>308.82</ele>
        <time>2024-12-23T21:55:15.038Z</time>
      </trkpt>
      <trkpt lat="48.21693" lon="5.25667">
        <ele>308.09</ele>
        <time>2024-12-23T21:55:19.612Z</time>
      </trkpt>
      <trkpt lat="48.21698" lon="5.25634">
        <ele>307.4</ele>
        <time>2024-12-23T21:55:24.189Z</time>
      </trkpt>
      <trkpt lat="48.21703" lon="5.25596">
        <ele>306.69</ele>
        <time>2024-12-23T21:55:28.770Z</time>
      </trkpt>
      <trkpt lat="48.21708" lon="5.25558">
        <ele>305.96</ele>
        <time>2024-12-23T21:55:33.356Z</time>
      </trkpt>
      <trkpt lat="48.21721" lon="5.25516">
        <ele>305.27</ele>
        <time>2024-12-23T21:55:37.947Z</time>
      </trkpt>
      <trkpt lat="48.21736" lon="5.25487">
        <ele>304.65</ele>
        <time>2024-12-23T21:55:42.541Z</time>
      </trkpt>
      <trkpt lat="48.21751" lon="5.25458">
        <ele>304.08</ele>
        <time>2024-12-23T21:55:47.139Z</time>
      </trkpt>
      <trkpt lat="48.21766" lon="5.25429">
        <ele>303.49</ele>
        <time>2024-12-23T21:55:51.741Z</time>
      </trkpt>
      <trkpt lat="48.21781" lon="5.254">
        <ele>302.87</ele>
        <time>2024-12-23T21:55:56.347Z</time>
      </trkpt>
      <trkpt lat="48.21793" lon="5.25365">
        <ele>302.34</ele>
        <time>2024-12-23T21:56:00.957Z</time>
      </trkpt>
      <trkpt lat="48.21805" lon="5.25331">
        <ele>301.86</ele>
        <time>2024-12-23T21:56:05.572Z</time>
      </trkpt>
      <trkpt lat="48.21816" lon="5.25305">
        <ele>301.46</ele>
        <time>2024-12-23T21:56:10.190Z</time>
      </trkpt>
      <trkpt lat="48.21826" lon="5.2528">
        <ele>301.1</ele>
        <time>2024-12-23T21:56:14.811Z</time>
      </trkpt>
      <trkpt lat="48.21839" lon="5.25237">
        <ele>300.76</ele>
        <time>2024-12-23T21:56:19.437Z</time>
      </trkpt>
      <trkpt lat="48.21844" lon="5.25202">
        <ele>300.47</ele>
        <time>2024-12-23T21:56:24.067Z</time>
      </trkpt>
      <trkpt lat="48.21843" lon="5.25166">
        <ele>300.22</ele>
        <time>2024-12-23T21:56:28.701Z</time>
      </trkpt>
      <trkpt lat="48.21841" lon="5.2513">
        <ele>300.02</ele>
        <time>2024-12-23T21:56:33.339Z</time>
      </trkpt>
      <trkpt lat="48.2184" lon="5.25093">
        <ele>299.83</ele>
        <time>2024-12-23T21:56:37.980Z</time>
      </trkpt>
      <trkpt lat="48.21839" lon="5.25056">
        <ele>299.66</ele>
        <time>2024-12-23T21:56:42.625Z</time>
      </trkpt>
      <trkpt lat="48.21839" lon="5.2505">
        <ele>299.55</ele>
        <time>2024-12-23T21:56:47.271Z</time>
      </trkpt>
      <trkpt lat="48.21836" lon="5.25015">
        <ele>299.48</ele>
        <time>2024-12-23T21:56:51.921Z</time>
      </trkpt>
      <trkpt lat="48.21832" lon="5.24979">
        <ele>299.46</ele>
        <time>2024-12-23T21:56:56.575Z</time>
      </trkpt>
      <trkpt lat="48.21828" lon="5.24944">
        <ele>299.45</ele>
        <time>2024-12-23T21:57:01.233Z</time>
      </trkpt>
      <trkpt lat="48.21824" lon="5.24908">
        <ele>299.44</ele>
        <time>2024-12-23T21:57:05.894Z</time>
      </trkpt>
      <trkpt lat="48.21824" lon="5.24889">
        <ele>299.44</ele>
        <time>2024-12-23T21:57:10.558Z</time>
      </trkpt>
      <trkpt lat="48.21829" lon="5.24878">
        <ele>299.45</ele>
        <time>2024-12-23T21:57:15.223Z</time>
      </trkpt>
      <trkpt lat="48.21844" lon="5.24848">
        <ele>299.46</ele>
        <time>2024-12-23T21:57:19.892Z</time>
      </trkpt>
      <trkpt lat="48.21852" lon="5.24863">
        <ele>299.48</ele>
        <time>2024-12-23T21:57:24.563Z</time>
      </trkpt>
      <trkpt lat="48.21861" lon="5.24868">
        <ele>299.52</ele>
        <time>2024-12-23T21:57:29.235Z</time>
      </trkpt>
      <trkpt lat="48.21883" lon="5.24864">
        <ele>299.54</ele>
        <time>2024-12-23T21:57:33.911Z</time>
      </trkpt>
      <trkpt lat="48.21905" lon="5.2486">
        <ele>299.54</ele>
        <time>2024-12-23T21:57:38.591Z</time>
      </trkpt>
      <trkpt lat="48.21927" lon="5.24857">
        <ele>299.52</ele>
        <time>2024-12-23T21:57:43.274Z</time>
      </trkpt>
      <trkpt lat="48.21925" lon="5.2484">
        <ele>299.51</ele>
        <time>2024-12-23T21:57:47.959Z</time>
      </trkpt>
      <trkpt lat="48.21925" lon="5.2484">
        <ele>299.5</ele>
        <time>2024-12-23T21:57:52.644Z</time>
      </trkpt>
      <trkpt lat="48.21925" lon="5.2484">
        <ele>299.49</ele>
        <time>2024-12-23T21:57:57.329Z</time>
      </trkpt>
      <trkpt lat="48.21925" lon="5.2484">
        <ele>299.47</ele>
        <time>2024-12-23T21:58:02.014Z</time>
      </trkpt>
      <trkpt lat="48.21925" lon="5.2484">
        <ele>299.44</ele>
        <time>2024-12-23T21:58:06.699Z</time>
      </trkpt>
      <trkpt lat="48.21925" lon="5.2484">
        <ele>299.39</ele>
        <time>2024-12-23T21:58:11.384Z</time>
      </trkpt>
      <trkpt lat="48.21921" lon="5.24805">
        <ele>299.31</ele>
        <time>2024-12-23T21:58:16.073Z</time>
      </trkpt>
      <trkpt lat="48.21923" lon="5.24769">
        <ele>299.18</ele>
        <time>2024-12-23T21:58:20.766Z</time>
      </trkpt>
      <trkpt lat="48.21921" lon="5.24745">
        <ele>299.12</ele>
        <time>2024-12-23T21:58:25.461Z</time>
      </trkpt>
      <trkpt lat="48.21919" lon="5.24722">
        <ele>299.05</ele>
        <time>2024-12-23T21:58:30.159Z</time>
      </trkpt>
      <trkpt lat="48.21912" lon="5.24689">
        <ele>298.95</ele>
        <time>2024-12-23T21:58:34.860Z</time>
      </trkpt>
      <trkpt lat="48.21905" lon="5.24665">
        <ele>298.87</ele>
        <time>2024-12-23T21:58:39.564Z</time>
      </trkpt>
      <trkpt lat="48.21897" lon="5.2464">
        <ele>298.73</ele>
        <time>2024-12-23T21:58:44.271Z</time>
      </trkpt>
      <trkpt lat="48.2189" lon="5.24599">
        <ele>298.57</ele>
        <time>2024-12-23T21:58:48.983Z</time>
      </trkpt>
      <trkpt lat="48.21882" lon="5.24557">
        <ele>298.35</ele>
        <time>2024-12-23T21:58:53.699Z</time>
      </trkpt>
      <trkpt lat="48.21875" lon="5.24515">
        <ele>298.05</ele>
        <time>2024-12-23T21:58:58.420Z</time>
      </trkpt>
      <trkpt lat="48.21867" lon="5.24473">
        <ele>297.83</ele>
        <time>2024-12-23T21:59:03.146Z</time>
      </trkpt>
      <trkpt lat="48.21868" lon="5.24433">
        <ele>297.61</ele>
        <time>2024-12-23T21:59:07.876Z</time>
      </trkpt>
      <trkpt lat="48.21869" lon="5.24393">
        <ele>297.4</ele>
        <time>2024-12-23T21:59:12.610Z</time>
      </trkpt>
      <trkpt lat="48.21871" lon="5.24366">
        <ele>297.16</ele>
        <time>2024-12-23T21:59:17.347Z</time>
      </trkpt>
      <trkpt lat="48.21873" lon="5.24339">
        <ele>296.94</ele>
        <time>2024-12-23T21:59:22.087Z</time>
      </trkpt>
      <trkpt lat="48.21873" lon="5.24339">
        <ele>296.74</ele>
        <time>2024-12-23T21:59:26.827Z</time>
      </trkpt>
      <trkpt lat="48.21873" lon="5.24339">
        <ele>296.55</ele>
        <time>2024-12-23T21:59:31.567Z</time>
      </trkpt>
      <trkpt lat="48.21873" lon="5.24339">
        <ele>296.36</ele>
        <time>2024-12-23T21:59:36.307Z</time>
      </trkpt>
      <trkpt lat="48.21873" lon="5.24339">
        <ele>296.19</ele>
        <time>2024-12-23T21:59:41.047Z</time>
      </trkpt>
      <trkpt lat="48.21873" lon="5.24339">
        <ele>296.02</ele>
        <time>2024-12-23T21:59:45.787Z</time>
      </trkpt>
      <trkpt lat="48.21876" lon="5.24307">
        <ele>295.87</ele>
        <time>2024-12-23T21:59:50.530Z</time>
      </trkpt>
      <trkpt lat="48.21874" lon="5.24297">
        <ele>295.72</ele>
        <time>2024-12-23T21:59:55.275Z</time>
      </trkpt>
      <trkpt lat="48.21865" lon="5.24271">
        <ele>295.57</ele>
        <time>2024-12-23T22:00:00.023Z</time>
      </trkpt>
      <trkpt lat="48.21856" lon="5.24245">
        <ele>295.42</ele>
        <time>2024-12-23T22:00:04.774Z</time>
      </trkpt>
      <trkpt lat="48.21848" lon="5.2423">
        <ele>295.29</ele>
        <time>2024-12-23T22:00:09.527Z</time>
      </trkpt>
      <trkpt lat="48.2184" lon="5.242">
        <ele>295.14</ele>
        <time>2024-12-23T22:00:14.283Z</time>
      </trkpt>
      <trkpt lat="48.21833" lon="5.2417">
        <ele>295.05</ele>
        <time>2024-12-23T22:00:19.043Z</time>
      </trkpt>
      <trkpt lat="48.21819" lon="5.2413">
        <ele>294.97</ele>
        <time>2024-12-23T22:00:23.808Z</time>
      </trkpt>
      <trkpt lat="48.21806" lon="5.24089">
        <ele>294.94</ele>
        <time>2024-12-23T22:00:28.578Z</time>
      </trkpt>
      <trkpt lat="48.21792" lon="5.24048">
        <ele>294.93</ele>
        <time>2024-12-23T22:00:33.352Z</time>
      </trkpt>
      <trkpt lat="48.21779" lon="5.24007">
        <ele>294.91</ele>
        <time>2024-12-23T22:00:38.131Z</time>
      </trkpt>
      <trkpt lat="48.21765" lon="5.23966">
        <ele>294.9</ele>
        <time>2024-12-23T22:00:42.915Z</time>
      </trkpt>
      <trkpt lat="48.21751" lon="5.23926">
        <ele>294.87</ele>
        <time>2024-12-23T22:00:47.704Z</time>
      </trkpt>
      <trkpt lat="48.21737" lon="5.23889">
        <ele>294.91</ele>
        <time>2024-12-23T22:00:52.498Z</time>
      </trkpt>
      <trkpt lat="48.21723" lon="5.23852">
        <ele>294.92</ele>
        <time>2024-12-23T22:00:57.296Z</time>
      </trkpt>
      <trkpt lat="48.21708" lon="5.23814">
        <ele>294.9</ele>
        <time>2024-12-23T22:01:02.099Z</time>
      </trkpt>
      <trkpt lat="48.21694" lon="5.23777">
        <ele>294.88</ele>
        <time>2024-12-23T22:01:06.906Z</time>
      </trkpt>
      <trkpt lat="48.21679" lon="5.2374">
        <ele>294.91</ele>
        <time>2024-12-23T22:01:11.718Z</time>
      </trkpt>
      <trkpt lat="48.21665" lon="5.23702">
        <ele>294.89</ele>
        <time>2024-12-23T22:01:16.535Z</time>
      </trkpt>
      <trkpt lat="48.2165" lon="5.23665">
        <ele>294.84</ele>
        <time>2024-12-23T22:01:21.356Z</time>
      </trkpt>
      <trkpt lat="48.21636" lon="5.23628">
        <ele>294.78</ele>
        <time>2024-12-23T22:01:26.182Z</time>
      </trkpt>
      <trkpt lat="48.21621" lon="5.2359">
        <ele>294.79</ele>
        <time>2024-12-23T22:01:31.013Z</time>
      </trkpt>
      <trkpt lat="48.21607" lon="5.23553">
        <ele>294.7</ele>
        <time>2024-12-23T22:01:35.848Z</time>
      </trkpt>
      <trkpt lat="48.21593" lon="5.23516">
        <ele>294.57</ele>
        <time>2024-12-23T22:01:40.688Z</time>
      </trkpt>
      <trkpt lat="48.21583" lon="5.23483">
        <ele>294.38</ele>
        <time>2024-12-23T22:01:45.532Z</time>
      </trkpt>
      <trkpt lat="48.21573" lon="5.23449">
        <ele>294.18</ele>
        <time>2024-12-23T22:01:50.380Z</time>
      </trkpt>
      <trkpt lat="48.21562" lon="5.23408">
        <ele>293.97</ele>
        <time>2024-12-23T22:01:55.232Z</time>
      </trkpt>
      <trkpt lat="48.2155" lon="5.23366">
        <ele>293.79</ele>
        <time>2024-12-23T22:02:00.089Z</time>
      </trkpt>
      <trkpt lat="48.21539" lon="5.23325">
        <ele>293.61</ele>
        <time>2024-12-23T22:02:04.951Z</time>
      </trkpt>
      <trkpt lat="48.2153" lon="5.23281">
        <ele>293.41</ele>
        <time>2024-12-23T22:02:09.818Z</time>
      </trkpt>
      <trkpt lat="48.21522" lon="5.23237">
        <ele>293.11</ele>
        <time>2024-12-23T22:02:14.690Z</time>
      </trkpt>
      <trkpt lat="48.21513" lon="5.23193">
        <ele>292.77</ele>
        <time>2024-12-23T22:02:19.567Z</time>
      </trkpt>
      <trkpt lat="48.21505" lon="5.23149">
        <ele>292.39</ele>
        <time>2024-12-23T22:02:24.449Z</time>
      </trkpt>
      <trkpt lat="48.21496" lon="5.23105">
        <ele>291.93</ele>
        <time>2024-12-23T22:02:29.335Z</time>
      </trkpt>
      <trkpt lat="48.21487" lon="5.23061">
        <ele>291.52</ele>
        <time>2024-12-23T22:02:34.226Z</time>
      </trkpt>
      <trkpt lat="48.21479" lon="5.23017">
        <ele>291.02</ele>
        <time>2024-12-23T22:02:39.122Z</time>
      </trkpt>
      <trkpt lat="48.2147" lon="5.22973">
        <ele>290.52</ele>
        <time>2024-12-23T22:02:44.023Z</time>
      </trkpt>
      <trkpt lat="48.21464" lon="5.22933">
        <ele>289.99</ele>
        <time>2024-12-23T22:02:48.928Z</time>
      </trkpt>
      <trkpt lat="48.21458" lon="5.22893">
        <ele>289.41</ele>
        <time>2024-12-23T22:02:53.838Z</time>
      </trkpt>
      <trkpt lat="48.21452" lon="5.22853">
        <ele>288.78</ele>
        <time>2024-12-23T22:02:58.752Z</time>
      </trkpt>
      <trkpt lat="48.21446" lon="5.22813">
        <ele>288.17</ele>
        <time>2024-12-23T22:03:03.671Z</time>
      </trkpt>
      <trkpt lat="48.2144" lon="5.22773">
        <ele>287.52</ele>
        <time>2024-12-23T22:03:08.594Z</time>
      </trkpt>
      <trkpt lat="48.21434" lon="5.22737">
        <ele>286.86</ele>
        <time>2024-12-23T22:03:13.521Z</time>
      </trkpt>
      <trkpt lat="48.21453" lon="5.22728">
        <ele>286.12</ele>
        <time>2024-12-23T22:03:18.451Z</time>
      </trkpt>
      <trkpt lat="48.2146" lon="5.2272">
        <ele>285.44</ele>
        <time>2024-12-23T22:03:23.383Z</time>
      </trkpt>
      <trkpt lat="48.21468" lon="5.22686">
        <ele>284.7</ele>
        <time>2024-12-23T22:03:28.319Z</time>
      </trkpt>
      <trkpt lat="48.21477" lon="5.22652">
        <ele>284.06</ele>
        <time>2024-12-23T22:03:33.258Z</time>
      </trkpt>
      <trkpt lat="48.21485" lon="5.22619">
        <ele>283.43</ele>
        <time>2024-12-23T22:03:38.201Z</time>
      </trkpt>
      <trkpt lat="48.21497" lon="5.22578">
        <ele>282.72</ele>
        <time>2024-12-23T22:03:43.149Z</time>
      </trkpt>
      <trkpt lat="48.21509" lon="5.22537">
        <ele>282.09</ele>
        <time>2024-12-23T22:03:48.102Z</time>
      </trkpt>
      <trkpt lat="48.2152" lon="5.22513">
        <ele>281.49</ele>
        <time>2024-12-23T22:03:53.058Z</time>
      </trkpt>
      <trkpt lat="48.2153" lon="5.22488">
        <ele>280.98</ele>
        <time>2024-12-23T22:03:58.017Z</time>
      </trkpt>
      <trkpt lat="48.21541" lon="5.22469">
        <ele>280.51</ele>
        <time>2024-12-23T22:04:02.979Z</time>
      </trkpt>
      <trkpt lat="48.21541" lon="5.22469">
        <ele>280.13</ele>
        <time>2024-12-23T22:04:07.941Z</time>
      </trkpt>
      <trkpt lat="48.21552" lon="5.22441">
        <ele>279.77</ele>
        <time>2024-12-23T22:04:12.906Z</time>
      </trkpt>
      <trkpt lat="48.21565" lon="5.22424">
        <ele>279.52</ele>
        <time>2024-12-23T22:04:17.874Z</time>
      </trkpt>
      <trkpt lat="48.21578" lon="5.22406">
        <ele>279.42</ele>
        <time>2024-12-23T22:04:22.845Z</time>
      </trkpt>
      <trkpt lat="48.21602" lon="5.22383">
        <ele>279.48</ele>
        <time>2024-12-23T22:04:27.820Z</time>
      </trkpt>
      <trkpt lat="48.21602" lon="5.22383">
        <ele>279.56</ele>
        <time>2024-12-23T22:04:32.795Z</time>
      </trkpt>
      <trkpt lat="48.21602" lon="5.22383">
        <ele>279.75</ele>
        <time>2024-12-23T22:04:37.770Z</time>
      </trkpt>
      <trkpt lat="48.21602" lon="5.22383">
        <ele>280.06</ele>
        <time>2024-12-23T22:04:42.745Z</time>
      </trkpt>
      <trkpt lat="48.21602" lon="5.22383">
        <ele>280.49</ele>
        <time>2024-12-23T22:04:47.720Z</time>
      </trkpt>
      <trkpt lat="48.21602" lon="5.22383">
        <ele>281.05</ele>
        <time>2024-12-23T22:04:52.695Z</time>
      </trkpt>
      <trkpt lat="48.21602" lon="5.22383">
        <ele>281.74</ele>
        <time>2024-12-23T22:04:57.670Z</time>
      </trkpt>
      <trkpt lat="48.2161" lon="5.22376">
        <ele>282.59</ele>
        <time>2024-12-23T22:05:02.647Z</time>
      </trkpt>
      <trkpt lat="48.21633" lon="5.22361">
        <ele>283.6</ele>
        <time>2024-12-23T22:05:07.628Z</time>
      </trkpt>
      <trkpt lat="48.21657" lon="5.22346">
        <ele>284.73</ele>
        <time>2024-12-23T22:05:12.613Z</time>
      </trkpt>
      <trkpt lat="48.21679" lon="5.22336">
        <ele>285.97</ele>
        <time>2024-12-23T22:05:17.602Z</time>
      </trkpt>
      <trkpt lat="48.21702" lon="5.22325">
        <ele>287.39</ele>
        <time>2024-12-23T22:05:22.595Z</time>
      </trkpt>
      <trkpt lat="48.2173" lon="5.22318">
        <ele>288.95</ele>
        <time>2024-12-23T22:05:27.592Z</time>
      </trkpt>
      <trkpt lat="48.21746" lon="5.22319">
        <ele>290.63</ele>
        <time>2024-12-23T22:05:32.592Z</time>
      </trkpt>
      <trkpt lat="48.21762" lon="5.22321">
        <ele>292.46</ele>
        <time>2024-12-23T22:05:37.594Z</time>
      </trkpt>
      <trkpt lat="48.21791" lon="5.22326">
        <ele>294.48</ele>
        <time>2024-12-23T22:05:42.601Z</time>
      </trkpt>
      <trkpt lat="48.21819" lon="5.22332">
        <ele>296.62</ele>
        <time>2024-12-23T22:05:47.613Z</time>
      </trkpt>
      <trkpt lat="48.21848" lon="5.22338">
        <ele>298.99</ele>
        <time>2024-12-23T22:05:52.629Z</time>
      </trkpt>
      <trkpt lat="48.21869" lon="5.22336">
        <ele>301.46</ele>
        <time>2024-12-23T22:05:57.649Z</time>
      </trkpt>
      <trkpt lat="48.21895" lon="5.22327">
        <ele>304.08</ele>
        <time>2024-12-23T22:06:02.673Z</time>
      </trkpt>
      <trkpt lat="48.21917" lon="5.22305">
        <ele>306.64</ele>
        <time>2024-12-23T22:06:07.701Z</time>
      </trkpt>
      <trkpt lat="48.21938" lon="5.22283">
        <ele>309.28</ele>
        <time>2024-12-23T22:06:12.733Z</time>
      </trkpt>
      <trkpt lat="48.21959" lon="5.2226">
        <ele>311.94</ele>
        <time>2024-12-23T22:06:17.769Z</time>
      </trkpt>
      <trkpt lat="48.21972" lon="5.22234">
        <ele>314.43</ele>
        <time>2024-12-23T22:06:22.809Z</time>
      </trkpt>
      <trkpt lat="48.21984" lon="5.22208">
        <ele>316.87</ele>
        <time>2024-12-23T22:06:27.852Z</time>
      </trkpt>
      <trkpt lat="48.21996" lon="5.22181">
        <ele>319.19</ele>
        <time>2024-12-23T22:06:32.899Z</time>
      </trkpt>
      <trkpt lat="48.22013" lon="5.22153">
        <ele>321.57</ele>
        <time>2024-12-23T22:06:37.950Z</time>
      </trkpt>
      <trkpt lat="48.2203" lon="5.22125">
        <ele>323.93</ele>
        <time>2024-12-23T22:06:43.005Z</time>
      </trkpt>
      <trkpt lat="48.22047" lon="5.22106">
        <ele>326.23</ele>
        <time>2024-12-23T22:06:48.063Z</time>
      </trkpt>
      <trkpt lat="48.22069" lon="5.22102">
        <ele>328.71</ele>
        <time>2024-12-23T22:06:53.125Z</time>
      </trkpt>
      <trkpt lat="48.2209" lon="5.22097">
        <ele>331.15</ele>
        <time>2024-12-23T22:06:58.190Z</time>
      </trkpt>
      <trkpt lat="48.22101" lon="5.22082">
        <ele>333.27</ele>
        <time>2024-12-23T22:07:03.257Z</time>
      </trkpt>
      <trkpt lat="48.2211" lon="5.22065">
        <ele>335.26</ele>
        <time>2024-12-23T22:07:08.327Z</time>
      </trkpt>
      <trkpt lat="48.22116" lon="5.22031">
        <ele>337.13</ele>
        <time>2024-12-23T22:07:13.401Z</time>
      </trkpt>
      <trkpt lat="48.22113" lon="5.22007">
        <ele>338.88</ele>
        <time>2024-12-23T22:07:18.477Z</time>
      </trkpt>
      <trkpt lat="48.2211" lon="5.21984">
        <ele>340.59</ele>
        <time>2024-12-23T22:07:23.556Z</time>
      </trkpt>
      <trkpt lat="48.22092" lon="5.21947">
        <ele>342</ele>
        <time>2024-12-23T22:07:28.640Z</time>
      </trkpt>
      <trkpt lat="48.22074" lon="5.21911">
        <ele>343.28</ele>
        <time>2024-12-23T22:07:33.728Z</time>
      </trkpt>
      <trkpt lat="48.22056" lon="5.21874">
        <ele>344.6</ele>
        <time>2024-12-23T22:07:38.821Z</time>
      </trkpt>
      <trkpt lat="48.22037" lon="5.21848">
        <ele>345.75</ele>
        <time>2024-12-23T22:07:43.918Z</time>
      </trkpt>
      <trkpt lat="48.22011" lon="5.21833">
        <ele>346.74</ele>
        <time>2024-12-23T22:07:49.020Z</time>
      </trkpt>
      <trkpt lat="48.21992" lon="5.21816">
        <ele>347.74</ele>
        <time>2024-12-23T22:07:54.125Z</time>
      </trkpt>
      <trkpt lat="48.21972" lon="5.21784">
        <ele>348.81</ele>
        <time>2024-12-23T22:07:59.235Z</time>
      </trkpt>
      <trkpt lat="48.21961" lon="5.21748">
        <ele>349.83</ele>
        <time>2024-12-23T22:08:04.349Z</time>
      </trkpt>
      <trkpt lat="48.2195" lon="5.21712">
        <ele>350.73</ele>
        <time>2024-12-23T22:08:09.468Z</time>
      </trkpt>
      <trkpt lat="48.21939" lon="5.21676">
        <ele>351.58</ele>
        <time>2024-12-23T22:08:14.591Z</time>
      </trkpt>
      <trkpt lat="48.21928" lon="5.2164">
        <ele>352.34</ele>
        <time>2024-12-23T22:08:19.718Z</time>
      </trkpt>
      <trkpt lat="48.21917" lon="5.21604">
        <ele>352.92</ele>
        <time>2024-12-23T22:08:24.849Z</time>
      </trkpt>
      <trkpt lat="48.21906" lon="5.21561">
        <ele>353.44</ele>
        <time>2024-12-23T22:08:29.985Z</time>
      </trkpt>
      <trkpt lat="48.21895" lon="5.21518">
        <ele>353.83</ele>
        <time>2024-12-23T22:08:35.126Z</time>
      </trkpt>
      <trkpt lat="48.2189" lon="5.21485">
        <ele>354.17</ele>
        <time>2024-12-23T22:08:40.271Z</time>
      </trkpt>
      <trkpt lat="48.21885" lon="5.21451">
        <ele>354.46</ele>
        <time>2024-12-23T22:08:45.419Z</time>
      </trkpt>
      <trkpt lat="48.2188" lon="5.21417">
        <ele>354.73</ele>
        <time>2024-12-23T22:08:50.571Z</time>
      </trkpt>
      <trkpt lat="48.21879" lon="5.21377">
        <ele>355</ele>
        <time>2024-12-23T22:08:55.727Z</time>
      </trkpt>
      <trkpt lat="48.21878" lon="5.21337">
        <ele>355.15</ele>
        <time>2024-12-23T22:09:00.888Z</time>
      </trkpt>
      <trkpt lat="48.21877" lon="5.21296">
        <ele>355.22</ele>
        <time>2024-12-23T22:09:06.053Z</time>
      </trkpt>
      <trkpt lat="48.21876" lon="5.21256">
        <ele>355.35</ele>
        <time>2024-12-23T22:09:11.222Z</time>
      </trkpt>
      <trkpt lat="48.21876" lon="5.21215">
        <ele>355.34</ele>
        <time>2024-12-23T22:09:16.396Z</time>
      </trkpt>
      <trkpt lat="48.21875" lon="5.21174">
        <ele>355.25</ele>
        <time>2024-12-23T22:09:21.574Z</time>
      </trkpt>
      <trkpt lat="48.21874" lon="5.21134">
        <ele>355.17</ele>
        <time>2024-12-23T22:09:26.756Z</time>
      </trkpt>
      <trkpt lat="48.2188" lon="5.21149">
        <ele>355.15</ele>
        <time>2024-12-23T22:09:31.940Z</time>
      </trkpt>
      <trkpt lat="48.21883" lon="5.21181">
        <ele>355.17</ele>
        <time>2024-12-23T22:09:37.128Z</time>
      </trkpt>
      <trkpt lat="48.21886" lon="5.21214">
        <ele>355.17</ele>
        <time>2024-12-23T22:09:42.319Z</time>
      </trkpt>
      <trkpt lat="48.21886" lon="5.21213">
        <ele>355.08</ele>
        <time>2024-12-23T22:09:47.510Z</time>
      </trkpt>
      <trkpt lat="48.21886" lon="5.21213">
        <ele>354.99</ele>
        <time>2024-12-23T22:09:52.701Z</time>
      </trkpt>
      <trkpt lat="48.21886" lon="5.21213">
        <ele>354.89</ele>
        <time>2024-12-23T22:09:57.892Z</time>
      </trkpt>
      <trkpt lat="48.21886" lon="5.21213">
        <ele>354.78</ele>
        <time>2024-12-23T22:10:03.083Z</time>
      </trkpt>
      <trkpt lat="48.21886" lon="5.21213">
        <ele>354.68</ele>
        <time>2024-12-23T22:10:08.274Z</time>
      </trkpt>
      <trkpt lat="48.21886" lon="5.21213">
        <ele>354.58</ele>
        <time>2024-12-23T22:10:13.465Z</time>
      </trkpt>
      <trkpt lat="48.21883" lon="5.21181">
        <ele>354.41</ele>
        <time>2024-12-23T22:10:18.660Z</time>
      </trkpt>
      <trkpt lat="48.2188" lon="5.21149">
        <ele>355.15</ele>
        <time>2024-12-23T22:10:23.858Z</time>
      </trkpt>
      <trkpt lat="48.21874" lon="5.21134">
        <ele>355.17</ele>
        <time>2024-12-23T22:10:29.058Z</time>
      </trkpt>
      <trkpt lat="48.21874" lon="5.21094">
        <ele>354.19</ele>
        <time>2024-12-23T22:10:34.263Z</time>
      </trkpt>
      <trkpt lat="48.21874" lon="5.21055">
        <ele>354.22</ele>
        <time>2024-12-23T22:10:39.472Z</time>
      </trkpt>
      <trkpt lat="48.21877" lon="5.21025">
        <ele>354.25</ele>
        <time>2024-12-23T22:10:44.684Z</time>
      </trkpt>
      <trkpt lat="48.2188" lon="5.20997">
        <ele>354.25</ele>
        <time>2024-12-23T22:10:49.899Z</time>
      </trkpt>
      <trkpt lat="48.21888" lon="5.20969">
        <ele>354.24</ele>
        <time>2024-12-23T22:10:55.117Z</time>
      </trkpt>
      <trkpt lat="48.21895" lon="5.20941">
        <ele>354.21</ele>
        <time>2024-12-23T22:11:00.338Z</time>
      </trkpt>
      <trkpt lat="48.21909" lon="5.20904">
        <ele>354.17</ele>
        <time>2024-12-23T22:11:05.564Z</time>
      </trkpt>
      <trkpt lat="48.21922" lon="5.20866">
        <ele>354.13</ele>
        <time>2024-12-23T22:11:10.795Z</time>
      </trkpt>
      <trkpt lat="48.21936" lon="5.20829">
        <ele>354.15</ele>
        <time>2024-12-23T22:11:16.030Z</time>
      </trkpt>
      <trkpt lat="48.21951" lon="5.20788">
        <ele>354.22</ele>
        <time>2024-12-23T22:11:21.270Z</time>
      </trkpt>
      <trkpt lat="48.21967" lon="5.20749">
        <ele>354.36</ele>
        <time>2024-12-23T22:11:26.515Z</time>
      </trkpt>
      <trkpt lat="48.21982" lon="5.2071">
        <ele>354.49</ele>
        <time>2024-12-23T22:11:31.765Z</time>
      </trkpt>
      <trkpt lat="48.21998" lon="5.2067">
        <ele>354.63</ele>
        <time>2024-12-23T22:11:37.020Z</time>
      </trkpt>
      <trkpt lat="48.22007" lon="5.2063">
        <ele>354.74</ele>
        <time>2024-12-23T22:11:42.279Z</time>
      </trkpt>
      <trkpt lat="48.22017" lon="5.2059">
        <ele>354.86</ele>
        <time>2024-12-23T22:11:47.543Z</time>
      </trkpt>
      <trkpt lat="48.22026" lon="5.2055">
        <ele>354.98</ele>
        <time>2024-12-23T22:11:52.811Z</time>
      </trkpt>
      <trkpt lat="48.22026" lon="5.20548">
        <ele>355.07</ele>
        <time>2024-12-23T22:11:58.080Z</time>
      </trkpt>
      <trkpt lat="48.22034" lon="5.20517">
        <ele>355.19</ele>
        <time>2024-12-23T22:12:03.352Z</time>
      </trkpt>
      <trkpt lat="48.22042" lon="5.20486">
        <ele>355.27</ele>
        <time>2024-12-23T22:12:08.628Z</time>
      </trkpt>
      <trkpt lat="48.2205" lon="5.20456">
        <ele>355.3</ele>
        <time>2024-12-23T22:12:13.907Z</time>
      </trkpt>
      <trkpt lat="48.22043" lon="5.20424">
        <ele>355.27</ele>
        <time>2024-12-23T22:12:19.190Z</time>
      </trkpt>
      <trkpt lat="48.22037" lon="5.20391">
        <ele>355.21</ele>
        <time>2024-12-23T22:12:24.476Z</time>
      </trkpt>
      <trkpt lat="48.22062" lon="5.20373">
        <ele>355.13</ele>
        <time>2024-12-23T22:12:29.767Z</time>
      </trkpt>
      <trkpt lat="48.22088" lon="5.20355">
        <ele>354.93</ele>
        <time>2024-12-23T22:12:35.063Z</time>
      </trkpt>
      <trkpt lat="48.2211" lon="5.20343">
        <ele>354.69</ele>
        <time>2024-12-23T22:12:40.362Z</time>
      </trkpt>
      <trkpt lat="48.22131" lon="5.20331">
        <ele>354.33</ele>
        <time>2024-12-23T22:12:45.665Z</time>
      </trkpt>
      <trkpt lat="48.22153" lon="5.20319">
        <ele>354.01</ele>
        <time>2024-12-23T22:12:50.972Z</time>
      </trkpt>
      <trkpt lat="48.22135" lon="5.20288">
        <ele>353.73</ele>
        <time>2024-12-23T22:12:56.283Z</time>
      </trkpt>
      <trkpt lat="48.22118" lon="5.20258">
        <ele>353.38</ele>
        <time>2024-12-23T22:13:01.598Z</time>
      </trkpt>
      <trkpt lat="48.22105" lon="5.20235">
        <ele>352.97</ele>
        <time>2024-12-23T22:13:06.916Z</time>
      </trkpt>
      <trkpt lat="48.22093" lon="5.20204">
        <ele>352.46</ele>
        <time>2024-12-23T22:13:12.238Z</time>
      </trkpt>
      <trkpt lat="48.2208" lon="5.20173">
        <ele>351.83</ele>
        <time>2024-12-23T22:13:17.564Z</time>
      </trkpt>
      <trkpt lat="48.22058" lon="5.20138">
        <ele>351.08</ele>
        <time>2024-12-23T22:13:22.895Z</time>
      </trkpt>
      <trkpt lat="48.22045" lon="5.20123">
        <ele>350.34</ele>
        <time>2024-12-23T22:13:28.229Z</time>
      </trkpt>
      <trkpt lat="48.22032" lon="5.20107">
        <ele>349.53</ele>
        <time>2024-12-23T22:13:33.566Z</time>
      </trkpt>
      <trkpt lat="48.22032" lon="5.20107">
        <ele>348.62</ele>
        <time>2024-12-23T22:13:38.903Z</time>
      </trkpt>
      <trkpt lat="48.22032" lon="5.20107">
        <ele>347.61</ele>
        <time>2024-12-23T22:13:44.240Z</time>
      </trkpt>
      <trkpt lat="48.22032" lon="5.20107">
        <ele>346.52</ele>
        <time>2024-12-23T22:13:49.577Z</time>
      </trkpt>
      <trkpt lat="48.22032" lon="5.20107">
        <ele>345.33</ele>
        <time>2024-12-23T22:13:54.914Z</time>
      </trkpt>
      <trkpt lat="48.22022" lon="5.20095">
        <ele>344.04</ele>
        <time>2024-12-23T22:14:00.253Z</time>
      </trkpt>
      <trkpt lat="48.21995" lon="5.20077">
        <ele>342.59</ele>
        <time>2024-12-23T22:14:05.596Z</time>
      </trkpt>
      <trkpt lat="48.21969" lon="5.20058">
        <ele>341.02</ele>
        <time>2024-12-23T22:14:10.944Z</time>
      </trkpt>
      <trkpt lat="48.21942" lon="5.2004">
        <ele>339.23</ele>
        <time>2024-12-23T22:14:16.297Z</time>
      </trkpt>
      <trkpt lat="48.21917" lon="5.20016">
        <ele>337.47</ele>
        <time>2024-12-23T22:14:21.654Z</time>
      </trkpt>
      <trkpt lat="48.21891" lon="5.19992">
        <ele>335.62</ele>
        <time>2024-12-23T22:14:27.016Z</time>
      </trkpt>
      <trkpt lat="48.21865" lon="5.19968">
        <ele>333.71</ele>
        <time>2024-12-23T22:14:32.383Z</time>
      </trkpt>
      <trkpt lat="48.21839" lon="5.19944">
        <ele>331.73</ele>
        <time>2024-12-23T22:14:37.755Z</time>
      </trkpt>
      <trkpt lat="48.21814" lon="5.1992">
        <ele>329.73</ele>
        <time>2024-12-23T22:14:43.132Z</time>
      </trkpt>
      <trkpt lat="48.21788" lon="5.19896">
        <ele>327.66</ele>
        <time>2024-12-23T22:14:48.514Z</time>
      </trkpt>
      <trkpt lat="48.2176" lon="5.19881">
        <ele>325.39</ele>
        <time>2024-12-23T22:14:53.900Z</time>
      </trkpt>
      <trkpt lat="48.21732" lon="5.19866">
        <ele>323.13</ele>
        <time>2024-12-23T22:14:59.291Z</time>
      </trkpt>
      <trkpt lat="48.21704" lon="5.19851">
        <ele>320.91</ele>
        <time>2024-12-23T22:15:04.687Z</time>
      </trkpt>
      <trkpt lat="48.21676" lon="5.19836">
        <ele>318.75</ele>
        <time>2024-12-23T22:15:10.088Z</time>
      </trkpt>
      <trkpt lat="48.21648" lon="5.19821">
        <ele>316.53</ele>
        <time>2024-12-23T22:15:15.493Z</time>
      </trkpt>
      <trkpt lat="48.2162" lon="5.19806">
        <ele>314.26</ele>
        <time>2024-12-23T22:15:20.903Z</time>
      </trkpt>
      <trkpt lat="48.21595" lon="5.198">
        <ele>312.05</ele>
        <time>2024-12-23T22:15:26.317Z</time>
      </trkpt>
      <trkpt lat="48.2157" lon="5.19795">
        <ele>309.86</ele>
        <time>2024-12-23T22:15:31.735Z</time>
      </trkpt>
      <trkpt lat="48.21545" lon="5.19789">
        <ele>307.79</ele>
        <time>2024-12-23T22:15:37.157Z</time>
      </trkpt>
      <trkpt lat="48.21519" lon="5.19784">
        <ele>305.83</ele>
        <time>2024-12-23T22:15:42.584Z</time>
      </trkpt>
      <trkpt lat="48.21513" lon="5.19783">
        <ele>303.88</ele>
        <time>2024-12-23T22:15:48.012Z</time>
      </trkpt>
      <trkpt lat="48.21513" lon="5.19783">
        <ele>301.98</ele>
        <time>2024-12-23T22:15:53.440Z</time>
      </trkpt>
      <trkpt lat="48.21513" lon="5.19783">
        <ele>300.12</ele>
        <time>2024-12-23T22:15:58.868Z</time>
      </trkpt>
      <trkpt lat="48.21513" lon="5.19783">
        <ele>298.3</ele>
        <time>2024-12-23T22:16:04.296Z</time>
      </trkpt>
      <trkpt lat="48.21511" lon="5.19782">
        <ele>296.51</ele>
        <time>2024-12-23T22:16:09.724Z</time>
      </trkpt>
      <trkpt lat="48.21488" lon="5.19766">
        <ele>294.76</ele>
        <time>2024-12-23T22:16:15.156Z</time>
      </trkpt>
      <trkpt lat="48.21465" lon="5.19751">
        <ele>292.87</ele>
        <time>2024-12-23T22:16:20.592Z</time>
      </trkpt>
      <trkpt lat="48.21442" lon="5.19735">
        <ele>291.08</ele>
        <time>2024-12-23T22:16:26.032Z</time>
      </trkpt>
      <trkpt lat="48.21414" lon="5.19719">
        <ele>289.42</ele>
        <time>2024-12-23T22:16:31.477Z</time>
      </trkpt>
      <trkpt lat="48.21387" lon="5.19703">
        <ele>287.86</ele>
        <time>2024-12-23T22:16:36.927Z</time>
      </trkpt>
      <trkpt lat="48.21357" lon="5.19689">
        <ele>286.36</ele>
        <time>2024-12-23T22:16:42.382Z</time>
      </trkpt>
      <trkpt lat="48.21326" lon="5.19676">
        <ele>284.77</ele>
        <time>2024-12-23T22:16:47.842Z</time>
      </trkpt>
      <trkpt lat="48.21296" lon="5.19663">
        <ele>283.29</ele>
        <time>2024-12-23T22:16:53.307Z</time>
      </trkpt>
      <trkpt lat="48.21266" lon="5.1965">
        <ele>281.92</ele>
        <time>2024-12-23T22:16:58.777Z</time>
      </trkpt>
      <trkpt lat="48.21236" lon="5.19637">
        <ele>280.57</ele>
        <time>2024-12-23T22:17:04.252Z</time>
      </trkpt>
      <trkpt lat="48.21206" lon="5.19623">
        <ele>279.35</ele>
        <time>2024-12-23T22:17:09.732Z</time>
      </trkpt>
      <trkpt lat="48.21179" lon="5.19605">
        <ele>278.33</ele>
        <time>2024-12-23T22:17:15.216Z</time>
      </trkpt>
      <trkpt lat="48.21152" lon="5.19587">
        <ele>277.39</ele>
        <time>2024-12-23T22:17:20.705Z</time>
      </trkpt>
      <trkpt lat="48.21126" lon="5.19569">
        <ele>276.5</ele>
        <time>2024-12-23T22:17:26.199Z</time>
      </trkpt>
      <trkpt lat="48.21099" lon="5.19551">
        <ele>275.7</ele>
        <time>2024-12-23T22:17:31.698Z</time>
      </trkpt>
      <trkpt lat="48.21072" lon="5.19533">
        <ele>275.01</ele>
        <time>2024-12-23T22:17:37.201Z</time>
      </trkpt>
      <trkpt lat="48.21045" lon="5.19515">
        <ele>274.45</ele>
        <time>2024-12-23T22:17:42.709Z</time>
      </trkpt>
      <trkpt lat="48.21018" lon="5.19496">
        <ele>273.86</ele>
        <time>2024-12-23T22:17:48.222Z</time>
      </trkpt>
      <trkpt lat="48.20991" lon="5.19478">
        <ele>273.32</ele>
        <time>2024-12-23T22:17:53.739Z</time>
      </trkpt>
      <trkpt lat="48.20964" lon="5.1946">
        <ele>272.96</ele>
        <time>2024-12-23T22:17:59.261Z</time>
      </trkpt>
      <trkpt lat="48.20948" lon="5.1944">
        <ele>272.77</ele>
        <time>2024-12-23T22:18:04.787Z</time>
      </trkpt>
      <trkpt lat="48.20932" lon="5.19419">
        <ele>272.62</ele>
        <time>2024-12-23T22:18:10.316Z</time>
      </trkpt>
      <trkpt lat="48.20919" lon="5.19384">
        <ele>272.55</ele>
        <time>2024-12-23T22:18:15.849Z</time>
      </trkpt>
      <trkpt lat="48.20906" lon="5.19348">
        <ele>272.44</ele>
        <time>2024-12-23T22:18:21.387Z</time>
      </trkpt>
      <trkpt lat="48.20893" lon="5.19311">
        <ele>272.42</ele>
        <time>2024-12-23T22:18:26.929Z</time>
      </trkpt>
      <trkpt lat="48.2088" lon="5.19275">
        <ele>272.47</ele>
        <time>2024-12-23T22:18:32.475Z</time>
      </trkpt>
      <trkpt lat="48.20867" lon="5.19239">
        <ele>272.51</ele>
        <time>2024-12-23T22:18:38.026Z</time>
      </trkpt>
      <trkpt lat="48.20859" lon="5.19222">
        <ele>272.57</ele>
        <time>2024-12-23T22:18:43.579Z</time>
      </trkpt>
      <trkpt lat="48.20848" lon="5.19213">
        <ele>272.65</ele>
        <time>2024-12-23T22:18:49.134Z</time>
      </trkpt>
      <trkpt lat="48.20846" lon="5.19192">
        <ele>272.76</ele>
        <time>2024-12-23T22:18:54.691Z</time>
      </trkpt>
      <trkpt lat="48.20837" lon="5.19161">
        <ele>272.93</ele>
        <time>2024-12-23T22:19:00.252Z</time>
      </trkpt>
      <trkpt lat="48.20829" lon="5.19131">
        <ele>273.13</ele>
        <time>2024-12-23T22:19:05.817Z</time>
      </trkpt>
      <trkpt lat="48.2082" lon="5.191">
        <ele>273.33</ele>
        <time>2024-12-23T22:19:11.385Z</time>
      </trkpt>
      <trkpt lat="48.20816" lon="5.19075">
        <ele>273.49</ele>
        <time>2024-12-23T22:19:16.956Z</time>
      </trkpt>
      <trkpt lat="48.20812" lon="5.1905">
        <ele>273.55</ele>
        <time>2024-12-23T22:19:22.530Z</time>
      </trkpt>
      <trkpt lat="48.20808" lon="5.19007">
        <ele>273.59</ele>
        <time>2024-12-23T22:19:28.108Z</time>
      </trkpt>
      <trkpt lat="48.20804" lon="5.18964">
        <ele>273.71</ele>
        <time>2024-12-23T22:19:33.691Z</time>
      </trkpt>
      <trkpt lat="48.208" lon="5.1892">
        <ele>273.77</ele>
        <time>2024-12-23T22:19:39.279Z</time>
      </trkpt>
      <trkpt lat="48.20796" lon="5.18877">
        <ele>273.81</ele>
        <time>2024-12-23T22:19:44.871Z</time>
      </trkpt>
      <trkpt lat="48.20793" lon="5.18842">
        <ele>273.82</ele>
        <time>2024-12-23T22:19:50.467Z</time>
      </trkpt>
      <trkpt lat="48.2079" lon="5.18808">
        <ele>273.77</ele>
        <time>2024-12-23T22:19:56.067Z</time>
      </trkpt>
      <trkpt lat="48.20783" lon="5.18774">
        <ele>273.72</ele>
        <time>2024-12-23T22:20:01.671Z</time>
      </trkpt>
      <trkpt lat="48.20776" lon="5.18741">
        <ele>273.6</ele>
        <time>2024-12-23T22:20:07.278Z</time>
      </trkpt>
      <trkpt lat="48.20769" lon="5.18707">
        <ele>273.49</ele>
        <time>2024-12-23T22:20:12.889Z</time>
      </trkpt>
      <trkpt lat="48.20761" lon="5.18676">
        <ele>273.36</ele>
        <time>2024-12-23T22:20:18.504Z</time>
      </trkpt>
      <trkpt lat="48.20753" lon="5.18644">
        <ele>273.3</ele>
        <time>2024-12-23T22:20:24.122Z</time>
      </trkpt>
      <trkpt lat="48.20745" lon="5.18613">
        <ele>273.26</ele>
        <time>2024-12-23T22:20:29.744Z</time>
      </trkpt>
      <trkpt lat="48.20736" lon="5.1858">
        <ele>273.2</ele>
        <time>2024-12-23T22:20:35.370Z</time>
      </trkpt>
      <trkpt lat="48.20721" lon="5.1855">
        <ele>273.07</ele>
        <time>2024-12-23T22:20:41.000Z</time>
      </trkpt>
      <trkpt lat="48.20713" lon="5.1854">
        <ele>273</ele>
        <time>2024-12-23T22:20:46.631Z</time>
      </trkpt>
      <trkpt lat="48.20695" lon="5.18525">
        <ele>272.95</ele>
        <time>2024-12-23T22:20:52.266Z</time>
      </trkpt>
      <trkpt lat="48.20676" lon="5.1851">
        <ele>272.93</ele>
        <time>2024-12-23T22:20:57.904Z</time>
      </trkpt>
      <trkpt lat="48.20658" lon="5.18492">
        <ele>272.95</ele>
        <time>2024-12-23T22:21:03.545Z</time>
      </trkpt>
      <trkpt lat="48.20641" lon="5.18474">
        <ele>272.94</ele>
        <time>2024-12-23T22:21:09.190Z</time>
      </trkpt>
      <trkpt lat="48.20623" lon="5.18456">
        <ele>272.94</ele>
        <time>2024-12-23T22:21:14.838Z</time>
      </trkpt>
      <trkpt lat="48.20623" lon="5.18456">
        <ele>272.97</ele>
        <time>2024-12-23T22:21:20.486Z</time>
      </trkpt>
      <trkpt lat="48.20606" lon="5.18426">
        <ele>273</ele>
        <time>2024-12-23T22:21:26.139Z</time>
      </trkpt>
      <trkpt lat="48.20597" lon="5.18404">
        <ele>273.06</ele>
        <time>2024-12-23T22:21:31.794Z</time>
      </trkpt>
      <trkpt lat="48.2059" lon="5.18366">
        <ele>273.13</ele>
        <time>2024-12-23T22:21:37.454Z</time>
      </trkpt>
      <trkpt lat="48.20584" lon="5.18335">
        <ele>273.17</ele>
        <time>2024-12-23T22:21:43.117Z</time>
      </trkpt>
      <trkpt lat="48.20578" lon="5.18304">
        <ele>273.29</ele>
        <time>2024-12-23T22:21:48.784Z</time>
      </trkpt>
      <trkpt lat="48.20574" lon="5.1826">
        <ele>273.42</ele>
        <time>2024-12-23T22:21:54.455Z</time>
      </trkpt>
      <trkpt lat="48.20571" lon="5.18216">
        <ele>273.58</ele>
        <time>2024-12-23T22:22:00.131Z</time>
      </trkpt>
      <trkpt lat="48.20568" lon="5.18172">
        <ele>273.71</ele>
        <time>2024-12-23T22:22:05.812Z</time>
      </trkpt>
      <trkpt lat="48.20565" lon="5.18128">
        <ele>273.88</ele>
        <time>2024-12-23T22:22:11.497Z</time>
      </trkpt>
      <trkpt lat="48.20558" lon="5.18083">
        <ele>273.95</ele>
        <time>2024-12-23T22:22:17.187Z</time>
      </trkpt>
      <trkpt lat="48.20551" lon="5.18037">
        <ele>274.11</ele>
        <time>2024-12-23T22:22:22.882Z</time>
      </trkpt>
      <trkpt lat="48.20543" lon="5.17992">
        <ele>274.29</ele>
        <time>2024-12-23T22:22:28.582Z</time>
      </trkpt>
      <trkpt lat="48.20536" lon="5.17946">
        <ele>274.48</ele>
        <time>2024-12-23T22:22:34.287Z</time>
      </trkpt>
      <trkpt lat="48.20529" lon="5.17901">
        <ele>274.62</ele>
        <time>2024-12-23T22:22:39.997Z</time>
      </trkpt>
      <trkpt lat="48.20522" lon="5.17855">
        <ele>274.65</ele>
        <time>2024-12-23T22:22:45.712Z</time>
      </trkpt>
      <trkpt lat="48.20512" lon="5.17816">
        <ele>274.68</ele>
        <time>2024-12-23T22:22:51.432Z</time>
      </trkpt>
      <trkpt lat="48.20503" lon="5.17776">
        <ele>274.72</ele>
        <time>2024-12-23T22:22:57.156Z</time>
      </trkpt>
      <trkpt lat="48.2049" lon="5.17733">
        <ele>274.76</ele>
        <time>2024-12-23T22:23:02.885Z</time>
      </trkpt>
      <trkpt lat="48.20477" lon="5.1769">
        <ele>274.79</ele>
        <time>2024-12-23T22:23:08.620Z</time>
      </trkpt>
      <trkpt lat="48.20464" lon="5.17647">
        <ele>274.68</ele>
        <time>2024-12-23T22:23:14.360Z</time>
      </trkpt>
      <trkpt lat="48.20454" lon="5.17608">
        <ele>274.54</ele>
        <time>2024-12-23T22:23:20.104Z</time>
      </trkpt>
      <trkpt lat="48.20445" lon="5.1757">
        <ele>274.3</ele>
        <time>2024-12-23T22:23:25.852Z</time>
      </trkpt>
      <trkpt lat="48.20441" lon="5.17543">
        <ele>274.1</ele>
        <time>2024-12-23T22:23:31.603Z</time>
      </trkpt>
      <trkpt lat="48.20438" lon="5.17516">
        <ele>273.89</ele>
        <time>2024-12-23T22:23:37.357Z</time>
      </trkpt>
      <trkpt lat="48.20435" lon="5.17473">
        <ele>273.6</ele>
        <time>2024-12-23T22:23:43.116Z</time>
      </trkpt>
      <trkpt lat="48.20432" lon="5.1743">
        <ele>273.21</ele>
        <time>2024-12-23T22:23:48.879Z</time>
      </trkpt>
      <trkpt lat="48.20432" lon="5.1743">
        <ele>272.83</ele>
        <time>2024-12-23T22:23:54.642Z</time>
      </trkpt>
      <trkpt lat="48.20431" lon="5.17391">
        <ele>272.45</ele>
        <time>2024-12-23T22:24:00.410Z</time>
      </trkpt>
      <trkpt lat="48.2043" lon="5.17352">
        <ele>271.92</ele>
        <time>2024-12-23T22:24:06.182Z</time>
      </trkpt>
      <trkpt lat="48.2043" lon="5.17312">
        <ele>271.34</ele>
        <time>2024-12-23T22:24:11.958Z</time>
      </trkpt>
      <trkpt lat="48.20433" lon="5.17271">
        <ele>270.77</ele>
        <time>2024-12-23T22:24:17.739Z</time>
      </trkpt>
      <trkpt lat="48.20436" lon="5.17229">
        <ele>270.11</ele>
        <time>2024-12-23T22:24:23.524Z</time>
      </trkpt>
      <trkpt lat="48.2044" lon="5.17192">
        <ele>269.42</ele>
        <time>2024-12-23T22:24:29.313Z</time>
      </trkpt>
      <trkpt lat="48.20445" lon="5.17154">
        <ele>268.73</ele>
        <time>2024-12-23T22:24:35.106Z</time>
      </trkpt>
      <trkpt lat="48.20449" lon="5.17117">
        <ele>268.03</ele>
        <time>2024-12-23T22:24:40.903Z</time>
      </trkpt>
      <trkpt lat="48.20453" lon="5.17079">
        <ele>267.25</ele>
        <time>2024-12-23T22:24:46.704Z</time>
      </trkpt>
      <trkpt lat="48.20457" lon="5.17042">
        <ele>266.45</ele>
        <time>2024-12-23T22:24:52.509Z</time>
      </trkpt>
      <trkpt lat="48.20465" lon="5.17006">
        <ele>265.59</ele>
        <time>2024-12-23T22:24:58.318Z</time>
      </trkpt>
      <trkpt lat="48.20473" lon="5.16969">
        <ele>264.65</ele>
        <time>2024-12-23T22:25:04.132Z</time>
      </trkpt>
      <trkpt lat="48.20481" lon="5.16932">
        <ele>263.76</ele>
        <time>2024-12-23T22:25:09.950Z</time>
      </trkpt>
      <trkpt lat="48.2049" lon="5.16898">
        <ele>262.86</ele>
        <time>2024-12-23T22:25:15.772Z</time>
      </trkpt>
      <trkpt lat="48.205" lon="5.16862">
        <ele>261.93</ele>
        <time>2024-12-23T22:25:21.598Z</time>
      </trkpt>
      <trkpt lat="48.20509" lon="5.16827">
        <ele>261.02</ele>
        <time>2024-12-23T22:25:27.428Z</time>
      </trkpt>
      <trkpt lat="48.20519" lon="5.16795">
        <ele>260.05</ele>
        <time>2024-12-23T22:25:33.262Z</time>
      </trkpt>
      <trkpt lat="48.20528" lon="5.16763">
        <ele>259.05</ele>
        <time>2024-12-23T22:25:39.099Z</time>
      </trkpt>
      <trkpt lat="48.20535" lon="5.16724">
        <ele>258.01</ele>
        <time>2024-12-23T22:25:44.941Z</time>
      </trkpt>
      <trkpt lat="48.20535" lon="5.16724">
        <ele>257.11</ele>
        <time>2024-12-23T22:25:50.783Z</time>
      </trkpt>
      <trkpt lat="48.20537" lon="5.16686">
        <ele>256.07</ele>
        <time>2024-12-23T22:25:56.629Z</time>
      </trkpt>
      <trkpt lat="48.20539" lon="5.16647">
        <ele>255.16</ele>
        <time>2024-12-23T22:26:02.479Z</time>
      </trkpt>
      <trkpt lat="48.20536" lon="5.16617">
        <ele>254.3</ele>
        <time>2024-12-23T22:26:08.332Z</time>
      </trkpt>
      <trkpt lat="48.20533" lon="5.16587">
        <ele>253.47</ele>
        <time>2024-12-23T22:26:14.188Z</time>
      </trkpt>
      <trkpt lat="48.20526" lon="5.16546">
        <ele>252.67</ele>
        <time>2024-12-23T22:26:20.049Z</time>
      </trkpt>
      <trkpt lat="48.20518" lon="5.16518">
        <ele>251.9</ele>
        <time>2024-12-23T22:26:25.913Z</time>
      </trkpt>
      <trkpt lat="48.20509" lon="5.1649">
        <ele>251.18</ele>
        <time>2024-12-23T22:26:31.781Z</time>
      </trkpt>
      <trkpt lat="48.20505" lon="5.1648">
        <ele>250.55</ele>
        <time>2024-12-23T22:26:37.650Z</time>
      </trkpt>
      <trkpt lat="48.20492" lon="5.16443">
        <ele>249.94</ele>
        <time>2024-12-23T22:26:43.523Z</time>
      </trkpt>
      <trkpt lat="48.20483" lon="5.16413">
        <ele>249.29</ele>
        <time>2024-12-23T22:26:49.400Z</time>
      </trkpt>
      <trkpt lat="48.20477" lon="5.16375">
        <ele>248.73</ele>
        <time>2024-12-23T22:26:55.281Z</time>
      </trkpt>
      <trkpt lat="48.2047" lon="5.16336">
        <ele>248.25</ele>
        <time>2024-12-23T22:27:01.166Z</time>
      </trkpt>
      <trkpt lat="48.20469" lon="5.163">
        <ele>247.79</ele>
        <time>2024-12-23T22:27:07.055Z</time>
      </trkpt>
      <trkpt lat="48.20468" lon="5.16263">
        <ele>247.39</ele>
        <time>2024-12-23T22:27:12.948Z</time>
      </trkpt>
      <trkpt lat="48.20472" lon="5.16222">
        <ele>247</ele>
        <time>2024-12-23T22:27:18.845Z</time>
      </trkpt>
      <trkpt lat="48.20477" lon="5.16181">
        <ele>246.65</ele>
        <time>2024-12-23T22:27:24.747Z</time>
      </trkpt>
      <trkpt lat="48.20481" lon="5.1614">
        <ele>246.41</ele>
        <time>2024-12-23T22:27:30.653Z</time>
      </trkpt>
      <trkpt lat="48.20485" lon="5.16099">
        <ele>246.28</ele>
        <time>2024-12-23T22:27:36.564Z</time>
      </trkpt>
      <trkpt lat="48.2049" lon="5.16057">
        <ele>246.15</ele>
        <time>2024-12-23T22:27:42.479Z</time>
      </trkpt>
      <trkpt lat="48.20494" lon="5.16016">
        <ele>246.05</ele>
        <time>2024-12-23T22:27:48.399Z</time>
      </trkpt>
      <trkpt lat="48.20495" lon="5.15978">
        <ele>245.95</ele>
        <time>2024-12-23T22:27:54.323Z</time>
      </trkpt>
      <trkpt lat="48.20496" lon="5.15939">
        <ele>245.87</ele>
        <time>2024-12-23T22:28:00.251Z</time>
      </trkpt>
      <trkpt lat="48.20495" lon="5.15893">
        <ele>245.67</ele>
        <time>2024-12-23T22:28:06.184Z</time>
      </trkpt>
      <trkpt lat="48.20495" lon="5.15846">
        <ele>245.51</ele>
        <time>2024-12-23T22:28:12.122Z</time>
      </trkpt>
      <trkpt lat="48.20494" lon="5.158">
        <ele>245.36</ele>
        <time>2024-12-23T22:28:18.065Z</time>
      </trkpt>
      <trkpt lat="48.20491" lon="5.1576">
        <ele>245.18</ele>
        <time>2024-12-23T22:28:24.012Z</time>
      </trkpt>
      <trkpt lat="48.20489" lon="5.15721">
        <ele>244.94</ele>
        <time>2024-12-23T22:28:29.963Z</time>
      </trkpt>
      <trkpt lat="48.20486" lon="5.15681">
        <ele>244.73</ele>
        <time>2024-12-23T22:28:35.919Z</time>
      </trkpt>
      <trkpt lat="48.20484" lon="5.15642">
        <ele>244.46</ele>
        <time>2024-12-23T22:28:41.879Z</time>
      </trkpt>
      <trkpt lat="48.20481" lon="5.15602">
        <ele>244.18</ele>
        <time>2024-12-23T22:28:47.843Z</time>
      </trkpt>
      <trkpt lat="48.20477" lon="5.15559">
        <ele>243.86</ele>
        <time>2024-12-23T22:28:53.812Z</time>
      </trkpt>
      <trkpt lat="48.20473" lon="5.15514">
        <ele>243.58</ele>
        <time>2024-12-23T22:28:59.786Z</time>
      </trkpt>
      <trkpt lat="48.20468" lon="5.1547">
        <ele>243.36</ele>
        <time>2024-12-23T22:29:05.765Z</time>
      </trkpt>
      <trkpt lat="48.20464" lon="5.15426">
        <ele>243.13</ele>
        <time>2024-12-23T22:29:11.748Z</time>
      </trkpt>
      <trkpt lat="48.2046" lon="5.15382">
        <ele>242.84</ele>
        <time>2024-12-23T22:29:17.736Z</time>
      </trkpt>
      <trkpt lat="48.20456" lon="5.15337">
        <ele>242.58</ele>
        <time>2024-12-23T22:29:23.729Z</time>
      </trkpt>
      <trkpt lat="48.20451" lon="5.15293">
        <ele>242.3</ele>
        <time>2024-12-23T22:29:29.727Z</time>
      </trkpt>
      <trkpt lat="48.20451" lon="5.15293">
        <ele>242.04</ele>
        <time>2024-12-23T22:29:35.725Z</time>
      </trkpt>
      <trkpt lat="48.20451" lon="5.15293">
        <ele>241.77</ele>
        <time>2024-12-23T22:29:41.723Z</time>
      </trkpt>
      <trkpt lat="48.2045" lon="5.15284">
        <ele>241.48</ele>
        <time>2024-12-23T22:29:47.722Z</time>
      </trkpt>
      <trkpt lat="48.2045" lon="5.15284">
        <ele>241.21</ele>
        <time>2024-12-23T22:29:53.721Z</time>
      </trkpt>
      <trkpt lat="48.2045" lon="5.15284">
        <ele>240.93</ele>
        <time>2024-12-23T22:29:59.720Z</time>
      </trkpt>
      <trkpt lat="48.2045" lon="5.15284">
        <ele>240.65</ele>
        <time>2024-12-23T22:30:05.719Z</time>
      </trkpt>
      <trkpt lat="48.20448" lon="5.15255">
        <ele>240.34</ele>
        <time>2024-12-23T22:30:11.721Z</time>
      </trkpt>
      <trkpt lat="48.20444" lon="5.15217">
        <ele>240.04</ele>
        <time>2024-12-23T22:30:17.727Z</time>
      </trkpt>
      <trkpt lat="48.2044" lon="5.15179">
        <ele>239.77</ele>
        <time>2024-12-23T22:30:23.737Z</time>
      </trkpt>
      <trkpt lat="48.20437" lon="5.15134">
        <ele>239.49</ele>
        <time>2024-12-23T22:30:29.752Z</time>
      </trkpt>
      <trkpt lat="48.20434" lon="5.15087">
        <ele>239.27</ele>
        <time>2024-12-23T22:30:35.772Z</time>
      </trkpt>
      <trkpt lat="48.20431" lon="5.15041">
        <ele>239.03</ele>
        <time>2024-12-23T22:30:41.797Z</time>
      </trkpt>
      <trkpt lat="48.20427" lon="5.14995">
        <ele>238.65</ele>
        <time>2024-12-23T22:30:47.827Z</time>
      </trkpt>
      <trkpt lat="48.20427" lon="5.14995">
        <ele>238.39</ele>
        <time>2024-12-23T22:30:53.857Z</time>
      </trkpt>
      <trkpt lat="48.20427" lon="5.14961">
        <ele>238.02</ele>
        <time>2024-12-23T22:30:59.891Z</time>
      </trkpt>
      <trkpt lat="48.20427" lon="5.14926">
        <ele>237.78</ele>
        <time>2024-12-23T22:31:05.928Z</time>
      </trkpt>
      <trkpt lat="48.20427" lon="5.14892">
        <ele>237.56</ele>
        <time>2024-12-23T22:31:11.969Z</time>
      </trkpt>
      <trkpt lat="48.20427" lon="5.14881">
        <ele>237.37</ele>
        <time>2024-12-23T22:31:18.011Z</time>
      </trkpt>
      <trkpt lat="48.20427" lon="5.14873">
        <ele>237.21</ele>
        <time>2024-12-23T22:31:24.054Z</time>
      </trkpt>
      <trkpt lat="48.20427" lon="5.14858">
        <ele>237.08</ele>
        <time>2024-12-23T22:31:30.099Z</time>
      </trkpt>
      <trkpt lat="48.20426" lon="5.14817">
        <ele>236.99</ele>
        <time>2024-12-23T22:31:36.148Z</time>
      </trkpt>
      <trkpt lat="48.20425" lon="5.14776">
        <ele>236.81</ele>
        <time>2024-12-23T22:31:42.201Z</time>
      </trkpt>
      <trkpt lat="48.20425" lon="5.14755">
        <ele>236.72</ele>
        <time>2024-12-23T22:31:48.257Z</time>
      </trkpt>
      <trkpt lat="48.20425" lon="5.14711">
        <ele>236.61</ele>
        <time>2024-12-23T22:31:54.317Z</time>
      </trkpt>
      <trkpt lat="48.20424" lon="5.14668">
        <ele>236.64</ele>
        <time>2024-12-23T22:32:00.382Z</time>
      </trkpt>
      <trkpt lat="48.20424" lon="5.14624">
        <ele>236.64</ele>
        <time>2024-12-23T22:32:06.452Z</time>
      </trkpt>
      <trkpt lat="48.20423" lon="5.14581">
        <ele>236.66</ele>
        <time>2024-12-23T22:32:12.526Z</time>
      </trkpt>
      <trkpt lat="48.20418" lon="5.1455">
        <ele>236.72</ele>
        <time>2024-12-23T22:32:18.604Z</time>
      </trkpt>
      <trkpt lat="48.20412" lon="5.14518">
        <ele>236.83</ele>
        <time>2024-12-23T22:32:24.685Z</time>
      </trkpt>
      <trkpt lat="48.20405" lon="5.14476">
        <ele>237.03</ele>
        <time>2024-12-23T22:32:30.771Z</time>
      </trkpt>
      <trkpt lat="48.20397" lon="5.14433">
        <ele>237.17</ele>
        <time>2024-12-23T22:32:36.862Z</time>
      </trkpt>
      <trkpt lat="48.20395" lon="5.14411">
        <ele>237.37</ele>
        <time>2024-12-23T22:32:42.955Z</time>
      </trkpt>
      <trkpt lat="48.20391" lon="5.14394">
        <ele>237.61</ele>
        <time>2024-12-23T22:32:49.050Z</time>
      </trkpt>
      <trkpt lat="48.20385" lon="5.14355">
        <ele>237.93</ele>
        <time>2024-12-23T22:32:55.149Z</time>
      </trkpt>
      <trkpt lat="48.20367" lon="5.14319">
        <ele>238.27</ele>
        <time>2024-12-23T22:33:01.253Z</time>
      </trkpt>
      <trkpt lat="48.20363" lon="5.1431">
        <ele>238.57</ele>
        <time>2024-12-23T22:33:07.358Z</time>
      </trkpt>
      <trkpt lat="48.20346" lon="5.14284">
        <ele>238.92</ele>
        <time>2024-12-23T22:33:13.467Z</time>
      </trkpt>
      <trkpt lat="48.20329" lon="5.14257">
        <ele>239.28</ele>
        <time>2024-12-23T22:33:19.580Z</time>
      </trkpt>
      <trkpt lat="48.20312" lon="5.14231">
        <ele>239.65</ele>
        <time>2024-12-23T22:33:25.697Z</time>
      </trkpt>
      <trkpt lat="48.20298" lon="5.14217">
        <ele>239.95</ele>
        <time>2024-12-23T22:33:31.817Z</time>
      </trkpt>
      <trkpt lat="48.20284" lon="5.14203">
        <ele>240.21</ele>
        <time>2024-12-23T22:33:37.939Z</time>
      </trkpt>
      <trkpt lat="48.20271" lon="5.14188">
        <ele>240.42</ele>
        <time>2024-12-23T22:33:44.064Z</time>
      </trkpt>
      <trkpt lat="48.20258" lon="5.14173">
        <ele>240.62</ele>
        <time>2024-12-23T22:33:50.191Z</time>
      </trkpt>
      <trkpt lat="48.20245" lon="5.14156">
        <ele>240.79</ele>
        <time>2024-12-23T22:33:56.321Z</time>
      </trkpt>
      <trkpt lat="48.20236" lon="5.14134">
        <ele>240.92</ele>
        <time>2024-12-23T22:34:02.454Z</time>
      </trkpt>
      <trkpt lat="48.20234" lon="5.1413">
        <ele>240.95</ele>
        <time>2024-12-23T22:34:08.587Z</time>
      </trkpt>
      <trkpt lat="48.20225" lon="5.14096">
        <ele>240.94</ele>
        <time>2024-12-23T22:34:14.724Z</time>
      </trkpt>
      <trkpt lat="48.20215" lon="5.14061">
        <ele>240.88</ele>
        <time>2024-12-23T22:34:20.865Z</time>
      </trkpt>
      <trkpt lat="48.20231" lon="5.14034">
        <ele>240.68</ele>
        <time>2024-12-23T22:34:27.010Z</time>
      </trkpt>
      <trkpt lat="48.20246" lon="5.14006">
        <ele>240.45</ele>
        <time>2024-12-23T22:34:33.159Z</time>
      </trkpt>
      <trkpt lat="48.20262" lon="5.13978">
        <ele>240.18</ele>
        <time>2024-12-23T22:34:39.312Z</time>
      </trkpt>
      <trkpt lat="48.20284" lon="5.13952">
        <ele>239.86</ele>
        <time>2024-12-23T22:34:45.470Z</time>
      </trkpt>
      <trkpt lat="48.20301" lon="5.13931">
        <ele>239.51</ele>
        <time>2024-12-23T22:34:51.631Z</time>
      </trkpt>
      <trkpt lat="48.20318" lon="5.13907">
        <ele>239.15</ele>
        <time>2024-12-23T22:34:57.796Z</time>
      </trkpt>
      <trkpt lat="48.20332" lon="5.13894">
        <ele>238.8</ele>
        <time>2024-12-23T22:35:03.964Z</time>
      </trkpt>
      <trkpt lat="48.20346" lon="5.13881">
        <ele>238.44</ele>
        <time>2024-12-23T22:35:10.134Z</time>
      </trkpt>
      <trkpt lat="48.20357" lon="5.13877">
        <ele>238.12</ele>
        <time>2024-12-23T22:35:16.306Z</time>
      </trkpt>
      <trkpt lat="48.2038" lon="5.13874">
        <ele>237.82</ele>
        <time>2024-12-23T22:35:22.482Z</time>
      </trkpt>
      <trkpt lat="48.20404" lon="5.13871">
        <ele>237.54</ele>
        <time>2024-12-23T22:35:28.662Z</time>
      </trkpt>
      <trkpt lat="48.20427" lon="5.13868">
        <ele>237.29</ele>
        <time>2024-12-23T22:35:34.845Z</time>
      </trkpt>
      <trkpt lat="48.20449" lon="5.1386">
        <ele>237.04</ele>
        <time>2024-12-23T22:35:41.032Z</time>
      </trkpt>
      <trkpt lat="48.2047" lon="5.13839">
        <ele>236.81</ele>
        <time>2024-12-23T22:35:47.223Z</time>
      </trkpt>
      <trkpt lat="48.2049" lon="5.13818">
        <ele>236.64</ele>
        <time>2024-12-23T22:35:53.418Z</time>
      </trkpt>
      <trkpt lat="48.20511" lon="5.13798">
        <ele>236.47</ele>
        <time>2024-12-23T22:35:59.617Z</time>
      </trkpt>
      <trkpt lat="48.20533" lon="5.1377">
        <ele>236.38</ele>
        <time>2024-12-23T22:36:05.820Z</time>
      </trkpt>
      <trkpt lat="48.20543" lon="5.1375">
        <ele>236.34</ele>
        <time>2024-12-23T22:36:12.026Z</time>
      </trkpt>
      <trkpt lat="48.2055" lon="5.13731">
        <ele>236.35</ele>
        <time>2024-12-23T22:36:18.234Z</time>
      </trkpt>
      <trkpt lat="48.2055" lon="5.13731">
        <ele>236.39</ele>
        <time>2024-12-23T22:36:24.442Z</time>
      </trkpt>
      <trkpt lat="48.2056" lon="5.13693">
        <ele>236.57</ele>
        <time>2024-12-23T22:36:30.655Z</time>
      </trkpt>
      <trkpt lat="48.2057" lon="5.13655">
        <ele>236.79</ele>
        <time>2024-12-23T22:36:36.872Z</time>
      </trkpt>
      <trkpt lat="48.2058" lon="5.13617">
        <ele>236.98</ele>
        <time>2024-12-23T22:36:43.093Z</time>
      </trkpt>
      <trkpt lat="48.20596" lon="5.13579">
        <ele>237.2</ele>
        <time>2024-12-23T22:36:49.319Z</time>
      </trkpt>
      <trkpt lat="48.20613" lon="5.13542">
        <ele>237.53</ele>
        <time>2024-12-23T22:36:55.550Z</time>
      </trkpt>
      <trkpt lat="48.20629" lon="5.13504">
        <ele>237.78</ele>
        <time>2024-12-23T22:37:01.786Z</time>
      </trkpt>
      <trkpt lat="48.20639" lon="5.13465">
        <ele>238.02</ele>
        <time>2024-12-23T22:37:08.026Z</time>
      </trkpt>
      <trkpt lat="48.20648" lon="5.13425">
        <ele>238.28</ele>
        <time>2024-12-23T22:37:14.271Z</time>
      </trkpt>
      <trkpt lat="48.20658" lon="5.13386">
        <ele>238.63</ele>
        <time>2024-12-23T22:37:20.520Z</time>
      </trkpt>
      <trkpt lat="48.20668" lon="5.13346">
        <ele>239</ele>
        <time>2024-12-23T22:37:26.774Z</time>
      </trkpt>
      <trkpt lat="48.20677" lon="5.13307">
        <ele>239.41</ele>
        <time>2024-12-23T22:37:33.032Z</time>
      </trkpt>
      <trkpt lat="48.20687" lon="5.13268">
        <ele>239.95</ele>
        <time>2024-12-23T22:37:39.295Z</time>
      </trkpt>
      <trkpt lat="48.20687" lon="5.13268">
        <ele>240.39</ele>
        <time>2024-12-23T22:37:45.558Z</time>
      </trkpt>
      <trkpt lat="48.20689" lon="5.13257">
        <ele>240.86</ele>
        <time>2024-12-23T22:37:51.822Z</time>
      </trkpt>
      <trkpt lat="48.20697" lon="5.1322">
        <ele>241.38</ele>
        <time>2024-12-23T22:37:58.090Z</time>
      </trkpt>
      <trkpt lat="48.20705" lon="5.13182">
        <ele>241.87</ele>
        <time>2024-12-23T22:38:04.362Z</time>
      </trkpt>
      <trkpt lat="48.20714" lon="5.13145">
        <ele>242.43</ele>
        <time>2024-12-23T22:38:10.639Z</time>
      </trkpt>
      <trkpt lat="48.20722" lon="5.13108">
        <ele>242.95</ele>
        <time>2024-12-23T22:38:16.920Z</time>
      </trkpt>
      <trkpt lat="48.2073" lon="5.1307">
        <ele>243.4</ele>
        <time>2024-12-23T22:38:23.205Z</time>
      </trkpt>
      <trkpt lat="48.20745" lon="5.13037">
        <ele>243.91</ele>
        <time>2024-12-23T22:38:29.494Z</time>
      </trkpt>
      <trkpt lat="48.2076" lon="5.13004">
        <ele>244.39</ele>
        <time>2024-12-23T22:38:35.788Z</time>
      </trkpt>
      <trkpt lat="48.20759" lon="5.1298">
        <ele>244.67</ele>
        <time>2024-12-23T22:38:42.084Z</time>
      </trkpt>
      <trkpt lat="48.20758" lon="5.12956">
        <ele>244.94</ele>
        <time>2024-12-23T22:38:48.383Z</time>
      </trkpt>
      <trkpt lat="48.20754" lon="5.12937">
        <ele>245.19</ele>
        <time>2024-12-23T22:38:54.684Z</time>
      </trkpt>
      <trkpt lat="48.20747" lon="5.12933">
        <ele>245.46</ele>
        <time>2024-12-23T22:39:00.986Z</time>
      </trkpt>
      <trkpt lat="48.20741" lon="5.12922">
        <ele>245.71</ele>
        <time>2024-12-23T22:39:07.290Z</time>
      </trkpt>
      <trkpt lat="48.20741" lon="5.12909">
        <ele>245.98</ele>
        <time>2024-12-23T22:39:13.595Z</time>
      </trkpt>
      <trkpt lat="48.20745" lon="5.12896">
        <ele>246.25</ele>
        <time>2024-12-23T22:39:19.902Z</time>
      </trkpt>
      <trkpt lat="48.20754" lon="5.12888">
        <ele>246.55</ele>
        <time>2024-12-23T22:39:26.210Z</time>
      </trkpt>
      <trkpt lat="48.2076" lon="5.12873">
        <ele>246.84</ele>
        <time>2024-12-23T22:39:32.520Z</time>
      </trkpt>
      <trkpt lat="48.20767" lon="5.12842">
        <ele>247.14</ele>
        <time>2024-12-23T22:39:38.834Z</time>
      </trkpt>
      <trkpt lat="48.20775" lon="5.1281">
        <ele>247.39</ele>
        <time>2024-12-23T22:39:45.151Z</time>
      </trkpt>
      <trkpt lat="48.20781" lon="5.12767">
        <ele>247.62</ele>
        <time>2024-12-23T22:39:51.473Z</time>
      </trkpt>
      <trkpt lat="48.20788" lon="5.12723">
        <ele>247.81</ele>
        <time>2024-12-23T22:39:57.800Z</time>
      </trkpt>
      <trkpt lat="48.20794" lon="5.1268">
        <ele>248.04</ele>
        <time>2024-12-23T22:40:04.132Z</time>
      </trkpt>
      <trkpt lat="48.208" lon="5.12654">
        <ele>248.27</ele>
        <time>2024-12-23T22:40:10.466Z</time>
      </trkpt>
      <trkpt lat="48.20805" lon="5.12628">
        <ele>248.47</ele>
        <time>2024-12-23T22:40:16.803Z</time>
      </trkpt>
      <trkpt lat="48.20818" lon="5.12587">
        <ele>248.7</ele>
        <time>2024-12-23T22:40:23.145Z</time>
      </trkpt>
      <trkpt lat="48.20833" lon="5.12551">
        <ele>248.93</ele>
        <time>2024-12-23T22:40:29.492Z</time>
      </trkpt>
      <trkpt lat="48.20852" lon="5.12519">
        <ele>249.15</ele>
        <time>2024-12-23T22:40:35.843Z</time>
      </trkpt>
      <trkpt lat="48.20874" lon="5.12486">
        <ele>249.31</ele>
        <time>2024-12-23T22:40:42.199Z</time>
      </trkpt>
      <trkpt lat="48.20897" lon="5.12465">
        <ele>249.43</ele>
        <time>2024-12-23T22:40:48.560Z</time>
      </trkpt>
      <trkpt lat="48.20916" lon="5.12445">
        <ele>249.48</ele>
        <time>2024-12-23T22:40:54.924Z</time>
      </trkpt>
      <trkpt lat="48.20934" lon="5.12424">
        <ele>249.42</ele>
        <time>2024-12-23T22:41:01.292Z</time>
      </trkpt>
      <trkpt lat="48.20947" lon="5.12401">
        <ele>249.34</ele>
        <time>2024-12-23T22:41:07.663Z</time>
      </trkpt>
      <trkpt lat="48.20947" lon="5.12394">
        <ele>249.27</ele>
        <time>2024-12-23T22:41:14.035Z</time>
      </trkpt>
      <trkpt lat="48.20949" lon="5.12371">
        <ele>249.15</ele>
        <time>2024-12-23T22:41:20.409Z</time>
      </trkpt>
      <trkpt lat="48.20945" lon="5.12346">
        <ele>249.04</ele>
        <time>2024-12-23T22:41:26.786Z</time>
      </trkpt>
      <trkpt lat="48.2094" lon="5.12321">
        <ele>248.92</ele>
        <time>2024-12-23T22:41:33.166Z</time>
      </trkpt>
      <trkpt lat="48.20935" lon="5.12297">
        <ele>248.78</ele>
        <time>2024-12-23T22:41:39.549Z</time>
      </trkpt>
      <trkpt lat="48.2093" lon="5.12272">
        <ele>248.6</ele>
        <time>2024-12-23T22:41:45.934Z</time>
      </trkpt>
      <trkpt lat="48.20931" lon="5.12245">
        <ele>248.43</ele>
        <time>2024-12-23T22:41:52.322Z</time>
      </trkpt>
      <trkpt lat="48.20932" lon="5.12218">
        <ele>248.26</ele>
        <time>2024-12-23T22:41:58.713Z</time>
      </trkpt>
      <trkpt lat="48.20938" lon="5.12188">
        <ele>248.08</ele>
        <time>2024-12-23T22:42:05.108Z</time>
      </trkpt>
      <trkpt lat="48.20948" lon="5.12154">
        <ele>247.94</ele>
        <time>2024-12-23T22:42:11.507Z</time>
      </trkpt>
      <trkpt lat="48.20957" lon="5.12119">
        <ele>247.84</ele>
        <time>2024-12-23T22:42:17.910Z</time>
      </trkpt>
      <trkpt lat="48.20967" lon="5.12084">
        <ele>247.7</ele>
        <time>2024-12-23T22:42:24.317Z</time>
      </trkpt>
      <trkpt lat="48.20977" lon="5.12049">
        <ele>247.59</ele>
        <time>2024-12-23T22:42:30.728Z</time>
      </trkpt>
      <trkpt lat="48.20985" lon="5.12006">
        <ele>247.47</ele>
        <time>2024-12-23T22:42:37.144Z</time>
      </trkpt>
      <trkpt lat="48.2099" lon="5.11965">
        <ele>247.51</ele>
        <time>2024-12-23T22:42:43.564Z</time>
      </trkpt>
      <trkpt lat="48.2099" lon="5.11922">
        <ele>247.59</ele>
        <time>2024-12-23T22:42:49.989Z</time>
      </trkpt>
      <trkpt lat="48.20987" lon="5.11892">
        <ele>247.75</ele>
        <time>2024-12-23T22:42:56.417Z</time>
      </trkpt>
      <trkpt lat="48.20985" lon="5.11862">
        <ele>247.96</ele>
        <time>2024-12-23T22:43:02.848Z</time>
      </trkpt>
      <trkpt lat="48.20976" lon="5.11824">
        <ele>248.23</ele>
        <time>2024-12-23T22:43:09.283Z</time>
      </trkpt>
      <trkpt lat="48.20967" lon="5.11786">
        <ele>248.55</ele>
        <time>2024-12-23T22:43:15.723Z</time>
      </trkpt>
      <trkpt lat="48.20967" lon="5.11786">
        <ele>248.87</ele>
        <time>2024-12-23T22:43:22.163Z</time>
      </trkpt>
      <trkpt lat="48.20967" lon="5.11786">
        <ele>249.25</ele>
        <time>2024-12-23T22:43:28.603Z</time>
      </trkpt>
      <trkpt lat="48.20967" lon="5.11786">
        <ele>249.68</ele>
        <time>2024-12-23T22:43:35.043Z</time>
      </trkpt>
      <trkpt lat="48.20966" lon="5.11781">
        <ele>250.19</ele>
        <time>2024-12-23T22:43:41.483Z</time>
      </trkpt>
      <trkpt lat="48.20965" lon="5.11778">
        <ele>250.74</ele>
        <time>2024-12-23T22:43:47.924Z</time>
      </trkpt>
      <trkpt lat="48.20965" lon="5.11778">
        <ele>251.35</ele>
        <time>2024-12-23T22:43:54.365Z</time>
      </trkpt>
      <trkpt lat="48.20965" lon="5.11778">
        <ele>252.01</ele>
        <time>2024-12-23T22:44:00.806Z</time>
      </trkpt>
      <trkpt lat="48.20965" lon="5.11778">
        <ele>252.72</ele>
        <time>2024-12-23T22:44:07.247Z</time>
      </trkpt>
      <trkpt lat="48.20955" lon="5.11749">
        <ele>253.55</ele>
        <time>2024-12-23T22:44:13.691Z</time>
      </trkpt>
      <trkpt lat="48.20945" lon="5.11718">
        <ele>254.44</ele>
        <time>2024-12-23T22:44:20.139Z</time>
      </trkpt>
      <trkpt lat="48.2093" lon="5.11678">
        <ele>255.38</ele>
        <time>2024-12-23T22:44:26.592Z</time>
      </trkpt>
      <trkpt lat="48.20906" lon="5.11652">
        <ele>256.31</ele>
        <time>2024-12-23T22:44:33.049Z</time>
      </trkpt>
      <trkpt lat="48.20898" lon="5.11613">
        <ele>257.27</ele>
        <time>2024-12-23T22:44:39.511Z</time>
      </trkpt>
      <trkpt lat="48.2089" lon="5.11575">
        <ele>258.25</ele>
        <time>2024-12-23T22:44:45.977Z</time>
      </trkpt>
      <trkpt lat="48.20882" lon="5.11536">
        <ele>259.22</ele>
        <time>2024-12-23T22:44:52.447Z</time>
      </trkpt>
      <trkpt lat="48.20874" lon="5.11497">
        <ele>260.23</ele>
        <time>2024-12-23T22:44:58.922Z</time>
      </trkpt>
      <trkpt lat="48.20865" lon="5.11461">
        <ele>261.3</ele>
        <time>2024-12-23T22:45:05.401Z</time>
      </trkpt>
      <trkpt lat="48.20852" lon="5.11419">
        <ele>262.42</ele>
        <time>2024-12-23T22:45:11.885Z</time>
      </trkpt>
      <trkpt lat="48.20839" lon="5.11377">
        <ele>263.35</ele>
        <time>2024-12-23T22:45:18.374Z</time>
      </trkpt>
      <trkpt lat="48.20823" lon="5.11344">
        <ele>264.35</ele>
        <time>2024-12-23T22:45:24.867Z</time>
      </trkpt>
      <trkpt lat="48.20807" lon="5.11311">
        <ele>265.32</ele>
        <time>2024-12-23T22:45:31.365Z</time>
      </trkpt>
      <trkpt lat="48.20797" lon="5.1129">
        <ele>266.26</ele>
        <time>2024-12-23T22:45:37.865Z</time>
      </trkpt>
      <trkpt lat="48.20786" lon="5.1127">
        <ele>267.15</ele>
        <time>2024-12-23T22:45:44.368Z</time>
      </trkpt>
      <trkpt lat="48.20766" lon="5.11242">
        <ele>268</ele>
        <time>2024-12-23T22:45:50.875Z</time>
      </trkpt>
      <trkpt lat="48.20747" lon="5.11214">
        <ele>268.77</ele>
        <time>2024-12-23T22:45:57.387Z</time>
      </trkpt>
      <trkpt lat="48.20729" lon="5.11184">
        <ele>269.52</ele>
        <time>2024-12-23T22:46:03.903Z</time>
      </trkpt>
      <trkpt lat="48.20711" lon="5.11154">
        <ele>270.17</ele>
        <time>2024-12-23T22:46:10.423Z</time>
      </trkpt>
      <trkpt lat="48.20699" lon="5.11122">
        <ele>270.82</ele>
        <time>2024-12-23T22:46:16.947Z</time>
      </trkpt>
      <trkpt lat="48.20688" lon="5.1109">
        <ele>271.42</ele>
        <time>2024-12-23T22:46:23.475Z</time>
      </trkpt>
      <trkpt lat="48.20676" lon="5.11057">
        <ele>271.9</ele>
        <time>2024-12-23T22:46:30.007Z</time>
      </trkpt>
      <trkpt lat="48.20668" lon="5.1102">
        <ele>272.3</ele>
        <time>2024-12-23T22:46:36.543Z</time>
      </trkpt>
      <trkpt lat="48.20659" lon="5.10983">
        <ele>272.67</ele>
        <time>2024-12-23T22:46:43.083Z</time>
      </trkpt>
      <trkpt lat="48.20651" lon="5.10946">
        <ele>272.87</ele>
        <time>2024-12-23T22:46:49.628Z</time>
      </trkpt>
      <trkpt lat="48.20643" lon="5.10908">
        <ele>273</ele>
        <time>2024-12-23T22:46:56.177Z</time>
      </trkpt>
      <trkpt lat="48.20635" lon="5.1087">
        <ele>273.06</ele>
        <time>2024-12-23T22:47:02.730Z</time>
      </trkpt>
      <trkpt lat="48.20627" lon="5.10832">
        <ele>273.1</ele>
        <time>2024-12-23T22:47:09.287Z</time>
      </trkpt>
      <trkpt lat="48.20619" lon="5.10789">
        <ele>273.07</ele>
        <time>2024-12-23T22:47:15.849Z</time>
      </trkpt>
      <trkpt lat="48.20611" lon="5.10745">
        <ele>272.99</ele>
        <time>2024-12-23T22:47:22.416Z</time>
      </trkpt>
      <trkpt lat="48.20603" lon="5.107">
        <ele>272.82</ele>
        <time>2024-12-23T22:47:28.988Z</time>
      </trkpt>
      <trkpt lat="48.20596" lon="5.10656">
        <ele>272.51</ele>
        <time>2024-12-23T22:47:35.565Z</time>
      </trkpt>
      <trkpt lat="48.20588" lon="5.10612">
        <ele>272.14</ele>
        <time>2024-12-23T22:47:42.147Z</time>
      </trkpt>
      <trkpt lat="48.2058" lon="5.10568">
        <ele>271.76</ele>
        <time>2024-12-23T22:47:48.734Z</time>
      </trkpt>
      <trkpt lat="48.20572" lon="5.10524">
        <ele>271.45</ele>
        <time>2024-12-23T22:47:55.326Z</time>
      </trkpt>
      <trkpt lat="48.20564" lon="5.10479">
        <ele>271.13</ele>
        <time>2024-12-23T22:48:01.923Z</time>
      </trkpt>
      <trkpt lat="48.20556" lon="5.10435">
        <ele>270.7</ele>
        <time>2024-12-23T22:48:08.524Z</time>
      </trkpt>
      <trkpt lat="48.20552" lon="5.10412">
        <ele>270.23</ele>
        <time>2024-12-23T22:48:15.128Z</time>
      </trkpt>
      <trkpt lat="48.20547" lon="5.10382">
        <ele>269.82</ele>
        <time>2024-12-23T22:48:21.735Z</time>
      </trkpt>
      <trkpt lat="48.20541" lon="5.10351">
        <ele>269.42</ele>
        <time>2024-12-23T22:48:28.346Z</time>
      </trkpt>
      <trkpt lat="48.20539" lon="5.10325">
        <ele>269.02</ele>
        <time>2024-12-23T22:48:34.960Z</time>
      </trkpt>
      <trkpt lat="48.20537" lon="5.10298">
        <ele>268.58</ele>
        <time>2024-12-23T22:48:41.576Z</time>
      </trkpt>
      <trkpt lat="48.2054" lon="5.1026">
        <ele>268.18</ele>
        <time>2024-12-23T22:48:48.197Z</time>
      </trkpt>
      <trkpt lat="48.20542" lon="5.10222">
        <ele>267.76</ele>
        <time>2024-12-23T22:48:54.822Z</time>
      </trkpt>
      <trkpt lat="48.20545" lon="5.10184">
        <ele>267.33</ele>
        <time>2024-12-23T22:49:01.451Z</time>
      </trkpt>
      <trkpt lat="48.20548" lon="5.10145">
        <ele>266.91</ele>
        <time>2024-12-23T22:49:08.084Z</time>
      </trkpt>
      <trkpt lat="48.20544" lon="5.10108">
        <ele>266.44</ele>
        <time>2024-12-23T22:49:14.721Z</time>
      </trkpt>
      <trkpt lat="48.20541" lon="5.1007">
        <ele>266.01</ele>
        <time>2024-12-23T22:49:21.362Z</time>
      </trkpt>
      <trkpt lat="48.20533" lon="5.10035">
        <ele>265.61</ele>
        <time>2024-12-23T22:49:28.007Z</time>
      </trkpt>
      <trkpt lat="48.20524" lon="5.1">
        <ele>265.23</ele>
        <time>2024-12-23T22:49:34.656Z</time>
      </trkpt>
      <trkpt lat="48.20515" lon="5.09965">
        <ele>264.85</ele>
        <time>2024-12-23T22:49:41.309Z</time>
      </trkpt>
      <trkpt lat="48.20508" lon="5.09922">
        <ele>264.53</ele>
        <time>2024-12-23T22:49:47.967Z</time>
      </trkpt>
      <trkpt lat="48.20501" lon="5.09879">
        <ele>264.3</ele>
        <time>2024-12-23T22:49:54.629Z</time>
      </trkpt>
      <trkpt lat="48.20494" lon="5.09836">
        <ele>264.11</ele>
        <time>2024-12-23T22:50:01.296Z</time>
      </trkpt>
      <trkpt lat="48.20487" lon="5.09792">
        <ele>263.92</ele>
        <time>2024-12-23T22:50:07.968Z</time>
      </trkpt>
      <trkpt lat="48.2048" lon="5.09749">
        <ele>263.75</ele>
        <time>2024-12-23T22:50:14.645Z</time>
      </trkpt>
      <trkpt lat="48.20472" lon="5.09706">
        <ele>263.71</ele>
        <time>2024-12-23T22:50:21.327Z</time>
      </trkpt>
      <trkpt lat="48.2046" lon="5.09669">
        <ele>263.74</ele>
        <time>2024-12-23T22:50:28.013Z</time>
      </trkpt>
      <trkpt lat="48.20438" lon="5.0965">
        <ele>263.78</ele>
        <time>2024-12-23T22:50:34.703Z</time>
      </trkpt>
      <trkpt lat="48.20417" lon="5.0963">
        <ele>263.92</ele>
        <time>2024-12-23T22:50:41.397Z</time>
      </trkpt>
      <trkpt lat="48.20398" lon="5.09599">
        <ele>264.11</ele>
        <time>2024-12-23T22:50:48.095Z</time>
      </trkpt>
      <trkpt lat="48.2038" lon="5.09568">
        <ele>264.42</ele>
        <time>2024-12-23T22:50:54.798Z</time>
      </trkpt>
      <trkpt lat="48.20378" lon="5.09566">
        <ele>264.77</ele>
        <time>2024-12-23T22:51:01.501Z</time>
      </trkpt>
      <trkpt lat="48.20378" lon="5.09566">
        <ele>265.19</ele>
        <time>2024-12-23T22:51:08.204Z</time>
      </trkpt>
      <trkpt lat="48.20374" lon="5.0956">
        <ele>265.68</ele>
        <time>2024-12-23T22:51:14.908Z</time>
      </trkpt>
      <trkpt lat="48.20374" lon="5.09559">
        <ele>266.22</ele>
        <time>2024-12-23T22:51:21.612Z</time>
      </trkpt>
      <trkpt lat="48.20374" lon="5.09559">
        <ele>266.82</ele>
        <time>2024-12-23T22:51:28.316Z</time>
      </trkpt>
      <trkpt lat="48.20374" lon="5.09559">
        <ele>267.46</ele>
        <time>2024-12-23T22:51:35.020Z</time>
      </trkpt>
      <trkpt lat="48.20357" lon="5.09535">
        <ele>268.19</ele>
        <time>2024-12-23T22:51:41.728Z</time>
      </trkpt>
      <trkpt lat="48.20335" lon="5.09504">
        <ele>269.01</ele>
        <time>2024-12-23T22:51:48.441Z</time>
      </trkpt>
      <trkpt lat="48.20313" lon="5.09473">
        <ele>269.9</ele>
        <time>2024-12-23T22:51:55.159Z</time>
      </trkpt>
      <trkpt lat="48.20291" lon="5.09441">
        <ele>270.79</ele>
        <time>2024-12-23T22:52:01.882Z</time>
      </trkpt>
      <trkpt lat="48.20269" lon="5.0941">
        <ele>271.66</ele>
        <time>2024-12-23T22:52:08.609Z</time>
      </trkpt>
      <trkpt lat="48.20247" lon="5.09379">
        <ele>272.48</ele>
        <time>2024-12-23T22:52:15.341Z</time>
      </trkpt>
      <trkpt lat="48.20226" lon="5.09353">
        <ele>273.28</ele>
        <time>2024-12-23T22:52:22.078Z</time>
      </trkpt>
      <trkpt lat="48.20204" lon="5.09326">
        <ele>274.05</ele>
        <time>2024-12-23T22:52:28.819Z</time>
      </trkpt>
      <trkpt lat="48.20191" lon="5.09308">
        <ele>274.77</ele>
        <time>2024-12-23T22:52:35.563Z</time>
      </trkpt>
      <trkpt lat="48.20179" lon="5.09289">
        <ele>275.44</ele>
        <time>2024-12-23T22:52:42.310Z</time>
      </trkpt>
      <trkpt lat="48.2017" lon="5.09268">
        <ele>276.07</ele>
        <time>2024-12-23T22:52:49.060Z</time>
      </trkpt>
      <trkpt lat="48.20161" lon="5.09246">
        <ele>276.63</ele>
        <time>2024-12-23T22:52:55.812Z</time>
      </trkpt>
      <trkpt lat="48.20154" lon="5.09202">
        <ele>277.12</ele>
        <time>2024-12-23T22:53:02.569Z</time>
      </trkpt>
      <trkpt lat="48.20146" lon="5.09158">
        <ele>277.63</ele>
        <time>2024-12-23T22:53:09.331Z</time>
      </trkpt>
      <trkpt lat="48.20138" lon="5.09124">
        <ele>278.05</ele>
        <time>2024-12-23T22:53:16.097Z</time>
      </trkpt>
      <trkpt lat="48.20123" lon="5.0909">
        <ele>278.37</ele>
        <time>2024-12-23T22:53:22.867Z</time>
      </trkpt>
      <trkpt lat="48.20108" lon="5.09055">
        <ele>278.58</ele>
        <time>2024-12-23T22:53:29.642Z</time>
      </trkpt>
      <trkpt lat="48.20093" lon="5.09021">
        <ele>278.61</ele>
        <time>2024-12-23T22:53:36.421Z</time>
      </trkpt>
      <trkpt lat="48.20078" lon="5.08987">
        <ele>278.56</ele>
        <time>2024-12-23T22:53:43.204Z</time>
      </trkpt>
      <trkpt lat="48.20078" lon="5.08987">
        <ele>278.5</ele>
        <time>2024-12-23T22:53:49.987Z</time>
      </trkpt>
      <trkpt lat="48.20063" lon="5.08947">
        <ele>278.35</ele>
        <time>2024-12-23T22:53:56.775Z</time>
      </trkpt>
      <trkpt lat="48.20048" lon="5.08907">
        <ele>278.12</ele>
        <time>2024-12-23T22:54:03.568Z</time>
      </trkpt>
      <trkpt lat="48.20037" lon="5.08864">
        <ele>277.79</ele>
        <time>2024-12-23T22:54:10.366Z</time>
      </trkpt>
      <trkpt lat="48.20026" lon="5.0882">
        <ele>277.34</ele>
        <time>2024-12-23T22:54:17.169Z</time>
      </trkpt>
      <trkpt lat="48.20015" lon="5.08776">
        <ele>276.82</ele>
        <time>2024-12-23T22:54:23.977Z</time>
      </trkpt>
      <trkpt lat="48.20005" lon="5.08748">
        <ele>276.27</ele>
        <time>2024-12-23T22:54:30.789Z</time>
      </trkpt>
      <trkpt lat="48.19995" lon="5.08719">
        <ele>275.69</ele>
        <time>2024-12-23T22:54:37.604Z</time>
      </trkpt>
      <trkpt lat="48.19985" lon="5.08691">
        <ele>275.09</ele>
        <time>2024-12-23T22:54:44.423Z</time>
      </trkpt>
      <trkpt lat="48.19965" lon="5.0866">
        <ele>274.4</ele>
        <time>2024-12-23T22:54:51.246Z</time>
      </trkpt>
      <trkpt lat="48.19945" lon="5.08628">
        <ele>273.69</ele>
        <time>2024-12-23T22:54:58.074Z</time>
      </trkpt>
      <trkpt lat="48.19925" lon="5.08604">
        <ele>273.02</ele>
        <time>2024-12-23T22:55:04.906Z</time>
      </trkpt>
      <trkpt lat="48.19906" lon="5.08579">
        <ele>272.35</ele>
        <time>2024-12-23T22:55:11.742Z</time>
      </trkpt>
      <trkpt lat="48.19889" lon="5.08546">
        <ele>271.69</ele>
        <time>2024-12-23T22:55:18.582Z</time>
      </trkpt>
      <trkpt lat="48.19872" lon="5.08512">
        <ele>270.96</ele>
        <time>2024-12-23T22:55:25.427Z</time>
      </trkpt>
      <trkpt lat="48.19856" lon="5.08477">
        <ele>270.23</ele>
        <time>2024-12-23T22:55:32.277Z</time>
      </trkpt>
      <trkpt lat="48.19839" lon="5.08442">
        <ele>269.49</ele>
        <time>2024-12-23T22:55:39.131Z</time>
      </trkpt>
      <trkpt lat="48.19833" lon="5.08407">
        <ele>268.74</ele>
        <time>2024-12-23T22:55:45.989Z</time>
      </trkpt>
      <trkpt lat="48.19803" lon="5.08415">
        <ele>267.99</ele>
        <time>2024-12-23T22:55:52.852Z</time>
      </trkpt>
      <trkpt lat="48.19773" lon="5.08422">
        <ele>267.24</ele>
        <time>2024-12-23T22:55:59.720Z</time>
      </trkpt>
      <trkpt lat="48.19751" lon="5.08449">
        <ele>266.53</ele>
        <time>2024-12-23T22:56:06.592Z</time>
      </trkpt>
      <trkpt lat="48.19729" lon="5.08475">
        <ele>265.85</ele>
        <time>2024-12-23T22:56:13.469Z</time>
      </trkpt>
      <trkpt lat="48.19706" lon="5.08502">
        <ele>265.19</ele>
        <time>2024-12-23T22:56:20.350Z</time>
      </trkpt>
      <trkpt lat="48.1969" lon="5.08517">
        <ele>264.54</ele>
        <time>2024-12-23T22:56:27.234Z</time>
      </trkpt>
      <trkpt lat="48.19674" lon="5.08532">
        <ele>263.95</ele>
        <time>2024-12-23T22:56:34.121Z</time>
      </trkpt>
      <trkpt lat="48.19657" lon="5.08543">
        <ele>263.33</ele>
        <time>2024-12-23T22:56:41.011Z</time>
      </trkpt>
      <trkpt lat="48.19649" lon="5.08555">
        <ele>262.69</ele>
        <time>2024-12-23T22:56:47.903Z</time>
      </trkpt>
      <trkpt lat="48.19647" lon="5.08557">
        <ele>262.11</ele>
        <time>2024-12-23T22:56:54.796Z</time>
      </trkpt>
      <trkpt lat="48.19647" lon="5.08557">
        <ele>261.55</ele>
        <time>2024-12-23T22:57:01.689Z</time>
      </trkpt>
      <trkpt lat="48.19646" lon="5.08557">
        <ele>261.01</ele>
        <time>2024-12-23T22:57:08.582Z</time>
      </trkpt>
      <trkpt lat="48.19641" lon="5.08561">
        <ele>260.46</ele>
        <time>2024-12-23T22:57:15.476Z</time>
      </trkpt>
      <trkpt lat="48.19641" lon="5.08561">
        <ele>259.93</ele>
        <time>2024-12-23T22:57:22.370Z</time>
      </trkpt>
      <trkpt lat="48.19641" lon="5.08561">
        <ele>259.41</ele>
        <time>2024-12-23T22:57:29.264Z</time>
      </trkpt>
      <trkpt lat="48.19641" lon="5.08561">
        <ele>258.91</ele>
        <time>2024-12-23T22:57:36.158Z</time>
      </trkpt>
      <trkpt lat="48.19629" lon="5.0857">
        <ele>258.37</ele>
        <time>2024-12-23T22:57:43.054Z</time>
      </trkpt>
      <trkpt lat="48.19604" lon="5.08587">
        <ele>257.82</ele>
        <time>2024-12-23T22:57:49.954Z</time>
      </trkpt>
      <trkpt lat="48.1958" lon="5.08604">
        <ele>257.29</ele>
        <time>2024-12-23T22:57:56.859Z</time>
      </trkpt>
      <trkpt lat="48.19555" lon="5.0862">
        <ele>256.82</ele>
        <time>2024-12-23T22:58:03.768Z</time>
      </trkpt>
      <trkpt lat="48.1953" lon="5.08637">
        <ele>256.28</ele>
        <time>2024-12-23T22:58:10.681Z</time>
      </trkpt>
      <trkpt lat="48.19505" lon="5.08653">
        <ele>255.78</ele>
        <time>2024-12-23T22:58:17.599Z</time>
      </trkpt>
      <trkpt lat="48.1948" lon="5.0867">
        <ele>255.32</ele>
        <time>2024-12-23T22:58:24.521Z</time>
      </trkpt>
      <trkpt lat="48.19455" lon="5.08686">
        <ele>254.83</ele>
        <time>2024-12-23T22:58:31.447Z</time>
      </trkpt>
      <trkpt lat="48.1943" lon="5.08706">
        <ele>254.39</ele>
        <time>2024-12-23T22:58:38.378Z</time>
      </trkpt>
      <trkpt lat="48.19404" lon="5.08725">
        <ele>254</ele>
        <time>2024-12-23T22:58:45.314Z</time>
      </trkpt>
      <trkpt lat="48.19385" lon="5.08751">
        <ele>253.63</ele>
        <time>2024-12-23T22:58:52.254Z</time>
      </trkpt>
      <trkpt lat="48.19374" lon="5.08789">
        <ele>253.2</ele>
        <time>2024-12-23T22:58:59.198Z</time>
      </trkpt>
      <trkpt lat="48.1937" lon="5.0882">
        <ele>252.9</ele>
        <time>2024-12-23T22:59:06.146Z</time>
      </trkpt>
      <trkpt lat="48.19365" lon="5.08851">
        <ele>252.59</ele>
        <time>2024-12-23T22:59:13.097Z</time>
      </trkpt>
      <trkpt lat="48.19361" lon="5.08882">
        <ele>252.28</ele>
        <time>2024-12-23T22:59:20.051Z</time>
      </trkpt>
      <trkpt lat="48.19352" lon="5.08902">
        <ele>251.98</ele>
        <time>2024-12-23T22:59:27.008Z</time>
      </trkpt>
      <trkpt lat="48.19344" lon="5.08922">
        <ele>251.7</ele>
        <time>2024-12-23T22:59:33.967Z</time>
      </trkpt>
      <trkpt lat="48.19329" lon="5.0895">
        <ele>251.44</ele>
        <time>2024-12-23T22:59:40.930Z</time>
      </trkpt>
      <trkpt lat="48.19314" lon="5.08977">
        <ele>251.15</ele>
        <time>2024-12-23T22:59:47.897Z</time>
      </trkpt>
      <trkpt lat="48.19299" lon="5.09004">
        <ele>250.83</ele>
        <time>2024-12-23T22:59:54.868Z</time>
      </trkpt>
      <trkpt lat="48.19288" lon="5.09031">
        <ele>250.54</ele>
        <time>2024-12-23T23:00:01.842Z</time>
      </trkpt>
      <trkpt lat="48.19277" lon="5.09058">
        <ele>250.29</ele>
        <time>2024-12-23T23:00:08.819Z</time>
      </trkpt>
      <trkpt lat="48.19264" lon="5.09098">
        <ele>250.12</ele>
        <time>2024-12-23T23:00:15.801Z</time>
      </trkpt>
      <trkpt lat="48.19251" lon="5.09139">
        <ele>250</ele>
        <time>2024-12-23T23:00:22.788Z</time>
      </trkpt>
      <trkpt lat="48.19238" lon="5.09179">
        <ele>249.86</ele>
        <time>2024-12-23T23:00:29.780Z</time>
      </trkpt>
      <trkpt lat="48.19224" lon="5.0922">
        <ele>249.7</ele>
        <time>2024-12-23T23:00:36.777Z</time>
      </trkpt>
      <trkpt lat="48.19211" lon="5.0926">
        <ele>249.58</ele>
        <time>2024-12-23T23:00:43.779Z</time>
      </trkpt>
      <trkpt lat="48.19198" lon="5.09301">
        <ele>249.52</ele>
        <time>2024-12-23T23:00:50.785Z</time>
      </trkpt>
      <trkpt lat="48.19185" lon="5.09341">
        <ele>249.46</ele>
        <time>2024-12-23T23:00:57.796Z</time>
      </trkpt>
      <trkpt lat="48.19176" lon="5.09377">
        <ele>249.4</ele>
        <time>2024-12-23T23:01:04.811Z</time>
      </trkpt>
      <trkpt lat="48.19176" lon="5.09422">
        <ele>249.34</ele>
        <time>2024-12-23T23:01:11.831Z</time>
      </trkpt>
      <trkpt lat="48.19181" lon="5.09461">
        <ele>249.29</ele>
        <time>2024-12-23T23:01:18.855Z</time>
      </trkpt>
      <trkpt lat="48.19186" lon="5.095">
        <ele>249.27</ele>
        <time>2024-12-23T23:01:25.884Z</time>
      </trkpt>
      <trkpt lat="48.1919" lon="5.0954">
        <ele>249.21</ele>
        <time>2024-12-23T23:01:32.917Z</time>
      </trkpt>
      <trkpt lat="48.19195" lon="5.09579">
        <ele>249.11</ele>
        <time>2024-12-23T23:01:39.954Z</time>
      </trkpt>
      <trkpt lat="48.192" lon="5.09618">
        <ele>249.05</ele>
        <time>2024-12-23T23:01:46.995Z</time>
      </trkpt>
      <trkpt lat="48.19204" lon="5.09656">
        <ele>249.07</ele>
        <time>2024-12-23T23:01:54.041Z</time>
      </trkpt>
      <trkpt lat="48.19206" lon="5.09695">
        <ele>249.13</ele>
        <time>2024-12-23T23:02:01.091Z</time>
      </trkpt>
      <trkpt lat="48.19209" lon="5.09733">
        <ele>249.2</ele>
        <time>2024-12-23T23:02:08.145Z</time>
      </trkpt>
      <trkpt lat="48.19204" lon="5.09761">
        <ele>249.28</ele>
        <time>2024-12-23T23:02:15.202Z</time>
      </trkpt>
      <trkpt lat="48.19196" lon="5.09791">
        <ele>249.34</ele>
        <time>2024-12-23T23:02:22.262Z</time>
      </trkpt>
      <trkpt lat="48.19179" lon="5.09826">
        <ele>249.34</ele>
        <time>2024-12-23T23:02:29.327Z</time>
      </trkpt>
      <trkpt lat="48.19162" lon="5.09862">
        <ele>249.14</ele>
        <time>2024-12-23T23:02:36.397Z</time>
      </trkpt>
      <trkpt lat="48.19145" lon="5.09897">
        <ele>248.96</ele>
        <time>2024-12-23T23:02:43.471Z</time>
      </trkpt>
      <trkpt lat="48.19128" lon="5.09932">
        <ele>248.8</ele>
        <time>2024-12-23T23:02:50.550Z</time>
      </trkpt>
      <trkpt lat="48.19112" lon="5.09967">
        <ele>248.75</ele>
        <time>2024-12-23T23:02:57.634Z</time>
      </trkpt>
      <trkpt lat="48.19095" lon="5.10002">
        <ele>248.61</ele>
        <time>2024-12-23T23:03:04.722Z</time>
      </trkpt>
      <trkpt lat="48.19078" lon="5.10029">
        <ele>248.52</ele>
        <time>2024-12-23T23:03:11.814Z</time>
      </trkpt>
      <trkpt lat="48.19061" lon="5.10055">
        <ele>248.47</ele>
        <time>2024-12-23T23:03:18.910Z</time>
      </trkpt>
      <trkpt lat="48.19039" lon="5.10086">
        <ele>248.37</ele>
        <time>2024-12-23T23:03:26.011Z</time>
      </trkpt>
      <trkpt lat="48.19018" lon="5.10116">
        <ele>248.33</ele>
        <time>2024-12-23T23:03:33.117Z</time>
      </trkpt>
      <trkpt lat="48.18996" lon="5.10146">
        <ele>248.26</ele>
        <time>2024-12-23T23:03:40.227Z</time>
      </trkpt>
      <trkpt lat="48.18975" lon="5.10177">
        <ele>248.21</ele>
        <time>2024-12-23T23:03:47.342Z</time>
      </trkpt>
      <trkpt lat="48.18953" lon="5.10207">
        <ele>248.17</ele>
        <time>2024-12-23T23:03:54.462Z</time>
      </trkpt>
      <trkpt lat="48.18932" lon="5.10237">
        <ele>248.11</ele>
        <time>2024-12-23T23:04:01.586Z</time>
      </trkpt>
      <trkpt lat="48.1891" lon="5.10268">
        <ele>248.02</ele>
        <time>2024-12-23T23:04:08.715Z</time>
      </trkpt>
      <trkpt lat="48.18889" lon="5.10298">
        <ele>247.89</ele>
        <time>2024-12-23T23:04:15.849Z</time>
      </trkpt>
      <trkpt lat="48.18867" lon="5.10328">
        <ele>247.79</ele>
        <time>2024-12-23T23:04:22.988Z</time>
      </trkpt>
      <trkpt lat="48.18846" lon="5.10358">
        <ele>247.71</ele>
        <time>2024-12-23T23:04:30.131Z</time>
      </trkpt>
      <trkpt lat="48.18828" lon="5.10383">
        <ele>247.62</ele>
        <time>2024-12-23T23:04:37.278Z</time>
      </trkpt>
      <trkpt lat="48.1881" lon="5.10408">
        <ele>247.53</ele>
        <time>2024-12-23T23:04:44.429Z</time>
      </trkpt>
      <trkpt lat="48.18792" lon="5.10433">
        <ele>247.41</ele>
        <time>2024-12-23T23:04:51.584Z</time>
      </trkpt>
      <trkpt lat="48.18776" lon="5.10457">
        <ele>247.36</ele>
        <time>2024-12-23T23:04:58.743Z</time>
      </trkpt>
      <trkpt lat="48.1876" lon="5.1048">
        <ele>247.34</ele>
        <time>2024-12-23T23:05:05.905Z</time>
      </trkpt>
      <trkpt lat="48.18743" lon="5.10495">
        <ele>247.37</ele>
        <time>2024-12-23T23:05:13.070Z</time>
      </trkpt>
      <trkpt lat="48.18718" lon="5.10501">
        <ele>247.43</ele>
        <time>2024-12-23T23:05:20.239Z</time>
      </trkpt>
      <trkpt lat="48.18694" lon="5.10506">
        <ele>247.48</ele>
        <time>2024-12-23T23:05:27.412Z</time>
      </trkpt>
      <trkpt lat="48.18681" lon="5.10519">
        <ele>247.5</ele>
        <time>2024-12-23T23:05:34.588Z</time>
      </trkpt>
      <trkpt lat="48.18668" lon="5.10484">
        <ele>247.63</ele>
        <time>2024-12-23T23:05:41.768Z</time>
      </trkpt>
      <trkpt lat="48.18656" lon="5.1045">
        <ele>247.72</ele>
        <time>2024-12-23T23:05:48.952Z</time>
      </trkpt>
      <trkpt lat="48.18644" lon="5.10415">
        <ele>247.73</ele>
        <time>2024-12-23T23:05:56.140Z</time>
      </trkpt>
      <trkpt lat="48.18646" lon="5.10423">
        <ele>247.8</ele>
        <time>2024-12-23T23:06:03.329Z</time>
      </trkpt>
      <trkpt lat="48.18646" lon="5.10423">
        <ele>247.87</ele>
        <time>2024-12-23T23:06:10.518Z</time>
      </trkpt>
      <trkpt lat="48.18646" lon="5.10423">
        <ele>247.93</ele>
        <time>2024-12-23T23:06:17.707Z</time>
      </trkpt>
      <trkpt lat="48.18646" lon="5.10423">
        <ele>248.01</ele>
        <time>2024-12-23T23:06:24.896Z</time>
      </trkpt>
      <trkpt lat="48.18656" lon="5.1045">
        <ele>248.11</ele>
        <time>2024-12-23T23:06:32.089Z</time>
      </trkpt>
      <trkpt lat="48.18668" lon="5.10484">
        <ele>248.15</ele>
        <time>2024-12-23T23:06:39.286Z</time>
      </trkpt>
      <trkpt lat="48.18681" lon="5.10519">
        <ele>248.15</ele>
        <time>2024-12-23T23:06:46.487Z</time>
      </trkpt>
      <trkpt lat="48.18676" lon="5.10521">
        <ele>248.24</ele>
        <time>2024-12-23T23:06:53.689Z</time>
      </trkpt>
      <trkpt lat="48.18659" lon="5.10553">
        <ele>248.37</ele>
        <time>2024-12-23T23:07:00.895Z</time>
      </trkpt>
      <trkpt lat="48.18649" lon="5.10581">
        <ele>248.46</ele>
        <time>2024-12-23T23:07:08.105Z</time>
      </trkpt>
      <trkpt lat="48.18644" lon="5.10602">
        <ele>248.56</ele>
        <time>2024-12-23T23:07:15.317Z</time>
      </trkpt>
      <trkpt lat="48.18649" lon="5.10626">
        <ele>248.68</ele>
        <time>2024-12-23T23:07:22.532Z</time>
      </trkpt>
      <trkpt lat="48.18653" lon="5.10654">
        <ele>248.78</ele>
        <time>2024-12-23T23:07:29.750Z</time>
      </trkpt>
      <trkpt lat="48.18657" lon="5.10682">
        <ele>248.87</ele>
        <time>2024-12-23T23:07:36.971Z</time>
      </trkpt>
      <trkpt lat="48.18657" lon="5.10727">
        <ele>249.03</ele>
        <time>2024-12-23T23:07:44.197Z</time>
      </trkpt>
      <trkpt lat="48.18663" lon="5.1076">
        <ele>249.16</ele>
        <time>2024-12-23T23:07:51.426Z</time>
      </trkpt>
      <trkpt lat="48.18668" lon="5.10793">
        <ele>249.28</ele>
        <time>2024-12-23T23:07:58.659Z</time>
      </trkpt>
      <trkpt lat="48.18674" lon="5.10818">
        <ele>249.39</ele>
        <time>2024-12-23T23:08:05.895Z</time>
      </trkpt>
      <trkpt lat="48.18681" lon="5.10843">
        <ele>249.52</ele>
        <time>2024-12-23T23:08:13.134Z</time>
      </trkpt>
      <trkpt lat="48.18659" lon="5.10865">
        <ele>249.63</ele>
        <time>2024-12-23T23:08:20.377Z</time>
      </trkpt>
      <trkpt lat="48.18637" lon="5.10887">
        <ele>249.71</ele>
        <time>2024-12-23T23:08:27.624Z</time>
      </trkpt>
      <trkpt lat="48.18615" lon="5.10908">
        <ele>249.79</ele>
        <time>2024-12-23T23:08:34.875Z</time>
      </trkpt>
      <trkpt lat="48.18593" lon="5.1093">
        <ele>249.84</ele>
        <time>2024-12-23T23:08:42.130Z</time>
      </trkpt>
      <trkpt lat="48.18571" lon="5.10952">
        <ele>249.87</ele>
        <time>2024-12-23T23:08:49.390Z</time>
      </trkpt>
      <trkpt lat="48.18549" lon="5.10974">
        <ele>249.9</ele>
        <time>2024-12-23T23:08:56.654Z</time>
      </trkpt>
      <trkpt lat="48.18526" lon="5.10996">
        <ele>249.92</ele>
        <time>2024-12-23T23:09:03.922Z</time>
      </trkpt>
      <trkpt lat="48.18504" lon="5.11018">
        <ele>249.94</ele>
        <time>2024-12-23T23:09:11.195Z</time>
      </trkpt>
      <trkpt lat="48.18481" lon="5.1104">
        <ele>250.01</ele>
        <time>2024-12-23T23:09:18.472Z</time>
      </trkpt>
      <trkpt lat="48.18466" lon="5.11062">
        <ele>250.08</ele>
        <time>2024-12-23T23:09:25.752Z</time>
      </trkpt>
      <trkpt lat="48.18451" lon="5.11085">
        <ele>250.18</ele>
        <time>2024-12-23T23:09:33.036Z</time>
      </trkpt>
      <trkpt lat="48.18436" lon="5.11107">
        <ele>250.3</ele>
        <time>2024-12-23T23:09:40.323Z</time>
      </trkpt>
      <trkpt lat="48.1841" lon="5.11128">
        <ele>250.46</ele>
        <time>2024-12-23T23:09:47.615Z</time>
      </trkpt>
      <trkpt lat="48.18387" lon="5.11105">
        <ele>250.49</ele>
        <time>2024-12-23T23:09:54.911Z</time>
      </trkpt>
      <trkpt lat="48.18363" lon="5.11081">
        <ele>250.48</ele>
        <time>2024-12-23T23:10:02.212Z</time>
      </trkpt>
      <trkpt lat="48.18341" lon="5.11054">
        <ele>250.51</ele>
        <time>2024-12-23T23:10:09.517Z</time>
      </trkpt>
      <trkpt lat="48.18318" lon="5.11027">
        <ele>250.67</ele>
        <time>2024-12-23T23:10:16.827Z</time>
      </trkpt>
      <trkpt lat="48.183" lon="5.1101">
        <ele>250.82</ele>
        <time>2024-12-23T23:10:24.140Z</time>
      </trkpt>
      <trkpt lat="48.18282" lon="5.10993">
        <ele>250.92</ele>
        <time>2024-12-23T23:10:31.457Z</time>
      </trkpt>
      <trkpt lat="48.18264" lon="5.10976">
        <ele>251</ele>
        <time>2024-12-23T23:10:38.777Z</time>
      </trkpt>
      <trkpt lat="48.18244" lon="5.10961">
        <ele>251.05</ele>
        <time>2024-12-23T23:10:46.101Z</time>
      </trkpt>
      <trkpt lat="48.18224" lon="5.10946">
        <ele>251.04</ele>
        <time>2024-12-23T23:10:53.429Z</time>
      </trkpt>
      <trkpt lat="48.18202" lon="5.10925">
        <ele>251.01</ele>
        <time>2024-12-23T23:11:00.761Z</time>
      </trkpt>
      <trkpt lat="48.18181" lon="5.10905">
        <ele>250.99</ele>
        <time>2024-12-23T23:11:08.097Z</time>
      </trkpt>
      <trkpt lat="48.18155" lon="5.1089">
        <ele>251.02</ele>
        <time>2024-12-23T23:11:15.437Z</time>
      </trkpt>
      <trkpt lat="48.18129" lon="5.10875">
        <ele>251.1</ele>
        <time>2024-12-23T23:11:22.782Z</time>
      </trkpt>
      <trkpt lat="48.18111" lon="5.10859">
        <ele>251.14</ele>
        <time>2024-12-23T23:11:30.130Z</time>
      </trkpt>
      <trkpt lat="48.18094" lon="5.10842">
        <ele>251.23</ele>
        <time>2024-12-23T23:11:37.481Z</time>
      </trkpt>
      <trkpt lat="48.18076" lon="5.10826">
        <ele>251.35</ele>
        <time>2024-12-23T23:11:44.836Z</time>
      </trkpt>
      <trkpt lat="48.18076" lon="5.10826">
        <ele>251.45</ele>
        <time>2024-12-23T23:11:52.191Z</time>
      </trkpt>
      <trkpt lat="48.1805" lon="5.10801">
        <ele>251.6</ele>
        <time>2024-12-23T23:11:59.551Z</time>
      </trkpt>
      <trkpt lat="48.18045" lon="5.10797">
        <ele>251.72</ele>
        <time>2024-12-23T23:12:06.911Z</time>
      </trkpt>
      <trkpt lat="48.18045" lon="5.10797">
        <ele>251.84</ele>
        <time>2024-12-23T23:12:14.271Z</time>
      </trkpt>
      <trkpt lat="48.18045" lon="5.10797">
        <ele>251.98</ele>
        <time>2024-12-23T23:12:21.632Z</time>
      </trkpt>
      <trkpt lat="48.18045" lon="5.10796">
        <ele>252.11</ele>
        <time>2024-12-23T23:12:28.993Z</time>
      </trkpt>
      <trkpt lat="48.18027" lon="5.1078">
        <ele>252.28</ele>
        <time>2024-12-23T23:12:36.357Z</time>
      </trkpt>
      <trkpt lat="48.18005" lon="5.10759">
        <ele>252.48</ele>
        <time>2024-12-23T23:12:43.725Z</time>
      </trkpt>
      <trkpt lat="48.1798" lon="5.1073">
        <ele>252.65</ele>
        <time>2024-12-23T23:12:51.098Z</time>
      </trkpt>
      <trkpt lat="48.17955" lon="5.10701">
        <ele>252.79</ele>
        <time>2024-12-23T23:12:58.476Z</time>
      </trkpt>
      <trkpt lat="48.17933" lon="5.10671">
        <ele>252.94</ele>
        <time>2024-12-23T23:13:05.859Z</time>
      </trkpt>
      <trkpt lat="48.1791" lon="5.1064">
        <ele>253.12</ele>
        <time>2024-12-23T23:13:13.247Z</time>
      </trkpt>
      <trkpt lat="48.17886" lon="5.10609">
        <ele>253.26</ele>
        <time>2024-12-23T23:13:20.640Z</time>
      </trkpt>
      <trkpt lat="48.17863" lon="5.10578">
        <ele>253.41</ele>
        <time>2024-12-23T23:13:28.038Z</time>
      </trkpt>
      <trkpt lat="48.1784" lon="5.10547">
        <ele>253.53</ele>
        <time>2024-12-23T23:13:35.441Z</time>
      </trkpt>
      <trkpt lat="48.17817" lon="5.10516">
        <ele>253.62</ele>
        <time>2024-12-23T23:13:42.849Z</time>
      </trkpt>
      <trkpt lat="48.17794" lon="5.10485">
        <ele>253.71</ele>
        <time>2024-12-23T23:13:50.262Z</time>
      </trkpt>
      <trkpt lat="48.17771" lon="5.10454">
        <ele>253.87</ele>
        <time>2024-12-23T23:13:57.680Z</time>
      </trkpt>
      <trkpt lat="48.1775" lon="5.10431">
        <ele>253.95</ele>
        <time>2024-12-23T23:14:05.102Z</time>
      </trkpt>
      <trkpt lat="48.17729" lon="5.10407">
        <ele>254.01</ele>
        <time>2024-12-23T23:14:12.528Z</time>
      </trkpt>
      <trkpt lat="48.17709" lon="5.10384">
        <ele>254.03</ele>
        <time>2024-12-23T23:14:19.958Z</time>
      </trkpt>
      <trkpt lat="48.17686" lon="5.10362">
        <ele>254.08</ele>
        <time>2024-12-23T23:14:27.393Z</time>
      </trkpt>
      <trkpt lat="48.17662" lon="5.1034">
        <ele>254.14</ele>
        <time>2024-12-23T23:14:34.832Z</time>
      </trkpt>
      <trkpt lat="48.17639" lon="5.10318">
        <ele>254.18</ele>
        <time>2024-12-23T23:14:42.275Z</time>
      </trkpt>
      <trkpt lat="48.17616" lon="5.10297">
        <ele>254.17</ele>
        <time>2024-12-23T23:14:49.723Z</time>
      </trkpt>
      <trkpt lat="48.17592" lon="5.10275">
        <ele>254.17</ele>
        <time>2024-12-23T23:14:57.175Z</time>
      </trkpt>
      <trkpt lat="48.17569" lon="5.10253">
        <ele>254.16</ele>
        <time>2024-12-23T23:15:04.632Z</time>
      </trkpt>
      <trkpt lat="48.17546" lon="5.10231">
        <ele>254.19</ele>
        <time>2024-12-23T23:15:12.093Z</time>
      </trkpt>
      <trkpt lat="48.17525" lon="5.10214">
        <ele>254.22</ele>
        <time>2024-12-23T23:15:19.558Z</time>
      </trkpt>
      <trkpt lat="48.17504" lon="5.10197">
        <ele>254.26</ele>
        <time>2024-12-23T23:15:27.027Z</time>
      </trkpt>
      <trkpt lat="48.17483" lon="5.1018">
        <ele>254.31</ele>
        <time>2024-12-23T23:15:34.499Z</time>
      </trkpt>
      <trkpt lat="48.17461" lon="5.10166">
        <ele>254.41</ele>
        <time>2024-12-23T23:15:41.975Z</time>
      </trkpt>
      <trkpt lat="48.17439" lon="5.10152">
        <ele>254.47</ele>
        <time>2024-12-23T23:15:49.455Z</time>
      </trkpt>
      <trkpt lat="48.17417" lon="5.10138">
        <ele>254.52</ele>
        <time>2024-12-23T23:15:56.939Z</time>
      </trkpt>
      <trkpt lat="48.17395" lon="5.10124">
        <ele>254.58</ele>
        <time>2024-12-23T23:16:04.427Z</time>
      </trkpt>
      <trkpt lat="48.1737" lon="5.10107">
        <ele>254.64</ele>
        <time>2024-12-23T23:16:11.919Z</time>
      </trkpt>
      <trkpt lat="48.17344" lon="5.1009">
        <ele>254.73</ele>
        <time>2024-12-23T23:16:19.416Z</time>
      </trkpt>
      <trkpt lat="48.17318" lon="5.10072">
        <ele>254.81</ele>
        <time>2024-12-23T23:16:26.917Z</time>
      </trkpt>
      <trkpt lat="48.17292" lon="5.10055">
        <ele>254.94</ele>
        <time>2024-12-23T23:16:34.423Z</time>
      </trkpt>
      <trkpt lat="48.17267" lon="5.10038">
        <ele>255.09</ele>
        <time>2024-12-23T23:16:41.933Z</time>
      </trkpt>
      <trkpt lat="48.17241" lon="5.10021">
        <ele>255.32</ele>
        <time>2024-12-23T23:16:49.448Z</time>
      </trkpt>
      <trkpt lat="48.17215" lon="5.10004">
        <ele>255.57</ele>
        <time>2024-12-23T23:16:56.967Z</time>
      </trkpt>
      <trkpt lat="48.17192" lon="5.09994">
        <ele>255.76</ele>
        <time>2024-12-23T23:17:04.490Z</time>
      </trkpt>
      <trkpt lat="48.17168" lon="5.09984">
        <ele>255.95</ele>
        <time>2024-12-23T23:17:12.017Z</time>
      </trkpt>
      <trkpt lat="48.17168" lon="5.09984">
        <ele>256.19</ele>
        <time>2024-12-23T23:17:19.544Z</time>
      </trkpt>
      <trkpt lat="48.17141" lon="5.09975">
        <ele>256.43</ele>
        <time>2024-12-23T23:17:27.076Z</time>
      </trkpt>
      <trkpt lat="48.17114" lon="5.09965">
        <ele>256.77</ele>
        <time>2024-12-23T23:17:34.612Z</time>
      </trkpt>
      <trkpt lat="48.17088" lon="5.09956">
        <ele>257.11</ele>
        <time>2024-12-23T23:17:42.152Z</time>
      </trkpt>
      <trkpt lat="48.17061" lon="5.09946">
        <ele>257.42</ele>
        <time>2024-12-23T23:17:49.697Z</time>
      </trkpt>
      <trkpt lat="48.17035" lon="5.09932">
        <ele>257.78</ele>
        <time>2024-12-23T23:17:57.246Z</time>
      </trkpt>
      <trkpt lat="48.17009" lon="5.09919">
        <ele>258.19</ele>
        <time>2024-12-23T23:18:04.800Z</time>
      </trkpt>
      <trkpt lat="48.16983" lon="5.09906">
        <ele>258.57</ele>
        <time>2024-12-23T23:18:12.358Z</time>
      </trkpt>
      <trkpt lat="48.16958" lon="5.09892">
        <ele>258.92</ele>
        <time>2024-12-23T23:18:19.920Z</time>
      </trkpt>
      <trkpt lat="48.16932" lon="5.09872">
        <ele>259.28</ele>
        <time>2024-12-23T23:18:27.487Z</time>
      </trkpt>
      <trkpt lat="48.16906" lon="5.09851">
        <ele>259.72</ele>
        <time>2024-12-23T23:18:35.059Z</time>
      </trkpt>
      <trkpt lat="48.16879" lon="5.09831">
        <ele>260.08</ele>
        <time>2024-12-23T23:18:42.635Z</time>
      </trkpt>
      <trkpt lat="48.16853" lon="5.0981">
        <ele>260.46</ele>
        <time>2024-12-23T23:18:50.216Z</time>
      </trkpt>
      <trkpt lat="48.16827" lon="5.0979">
        <ele>260.81</ele>
        <time>2024-12-23T23:18:57.802Z</time>
      </trkpt>
      <trkpt lat="48.16801" lon="5.09769">
        <ele>261.14</ele>
        <time>2024-12-23T23:19:05.393Z</time>
      </trkpt>
      <trkpt lat="48.16775" lon="5.09749">
        <ele>261.46</ele>
        <time>2024-12-23T23:19:12.988Z</time>
      </trkpt>
      <trkpt lat="48.16749" lon="5.09728">
        <ele>261.78</ele>
        <time>2024-12-23T23:19:20.588Z</time>
      </trkpt>
      <trkpt lat="48.16722" lon="5.09708">
        <ele>262.09</ele>
        <time>2024-12-23T23:19:28.193Z</time>
      </trkpt>
      <trkpt lat="48.16696" lon="5.09687">
        <ele>262.45</ele>
        <time>2024-12-23T23:19:35.803Z</time>
      </trkpt>
      <trkpt lat="48.1667" lon="5.09667">
        <ele>262.9</ele>
        <time>2024-12-23T23:19:43.417Z</time>
      </trkpt>
      <trkpt lat="48.16647" lon="5.09642">
        <ele>263.33</ele>
        <time>2024-12-23T23:19:51.036Z</time>
      </trkpt>
      <trkpt lat="48.16624" lon="5.09618">
        <ele>263.69</ele>
        <time>2024-12-23T23:19:58.659Z</time>
      </trkpt>
      <trkpt lat="48.166" lon="5.09593">
        <ele>264.03</ele>
        <time>2024-12-23T23:20:06.287Z</time>
      </trkpt>
      <trkpt lat="48.16577" lon="5.09568">
        <ele>264.34</ele>
        <time>2024-12-23T23:20:13.920Z</time>
      </trkpt>
      <trkpt lat="48.16554" lon="5.09544">
        <ele>264.62</ele>
        <time>2024-12-23T23:20:21.557Z</time>
      </trkpt>
      <trkpt lat="48.1653" lon="5.09519">
        <ele>264.93</ele>
        <time>2024-12-23T23:20:29.199Z</time>
      </trkpt>
      <trkpt lat="48.16507" lon="5.09494">
        <ele>265.29</ele>
        <time>2024-12-23T23:20:36.845Z</time>
      </trkpt>
      <trkpt lat="48.16483" lon="5.0947">
        <ele>265.63</ele>
        <time>2024-12-23T23:20:44.496Z</time>
      </trkpt>
      <trkpt lat="48.16459" lon="5.09452">
        <ele>265.95</ele>
        <time>2024-12-23T23:20:52.151Z</time>
      </trkpt>
      <trkpt lat="48.16434" lon="5.09434">
        <ele>266.25</ele>
        <time>2024-12-23T23:20:59.811Z</time>
      </trkpt>
      <trkpt lat="48.1641" lon="5.09416">
        <ele>266.58</ele>
        <time>2024-12-23T23:21:07.475Z</time>
      </trkpt>
      <trkpt lat="48.16385" lon="5.09398">
        <ele>266.88</ele>
        <time>2024-12-23T23:21:15.143Z</time>
      </trkpt>
      <trkpt lat="48.16361" lon="5.09381">
        <ele>267.16</ele>
        <time>2024-12-23T23:21:22.816Z</time>
      </trkpt>
      <trkpt lat="48.16336" lon="5.09363">
        <ele>267.42</ele>
        <time>2024-12-23T23:21:30.493Z</time>
      </trkpt>
      <trkpt lat="48.16312" lon="5.09345">
        <ele>267.69</ele>
        <time>2024-12-23T23:21:38.174Z</time>
      </trkpt>
      <trkpt lat="48.16295" lon="5.09334">
        <ele>267.96</ele>
        <time>2024-12-23T23:21:45.858Z</time>
      </trkpt>
      <trkpt lat="48.16278" lon="5.09324">
        <ele>268.22</ele>
        <time>2024-12-23T23:21:53.545Z</time>
      </trkpt>
      <trkpt lat="48.1626" lon="5.09313">
        <ele>268.5</ele>
        <time>2024-12-23T23:22:01.235Z</time>
      </trkpt>
      <trkpt lat="48.1624" lon="5.09302">
        <ele>268.81</ele>
        <time>2024-12-23T23:22:08.929Z</time>
      </trkpt>
      <trkpt lat="48.1622" lon="5.09291">
        <ele>269.07</ele>
        <time>2024-12-23T23:22:16.626Z</time>
      </trkpt>
      <trkpt lat="48.162" lon="5.09276">
        <ele>269.26</ele>
        <time>2024-12-23T23:22:24.327Z</time>
      </trkpt>
      <trkpt lat="48.16181" lon="5.09261">
        <ele>269.47</ele>
        <time>2024-12-23T23:22:32.031Z</time>
      </trkpt>
      <trkpt lat="48.16162" lon="5.09246">
        <ele>269.74</ele>
        <time>2024-12-23T23:22:39.739Z</time>
      </trkpt>
      <trkpt lat="48.16139" lon="5.09235">
        <ele>270.02</ele>
        <time>2024-12-23T23:22:47.451Z</time>
      </trkpt>
      <trkpt lat="48.16117" lon="5.09223">
        <ele>270.29</ele>
        <time>2024-12-23T23:22:55.166Z</time>
      </trkpt>
      <trkpt lat="48.16094" lon="5.09211">
        <ele>270.54</ele>
        <time>2024-12-23T23:23:02.885Z</time>
      </trkpt>
      <trkpt lat="48.16072" lon="5.09199">
        <ele>270.79</ele>
        <time>2024-12-23T23:23:10.608Z</time>
      </trkpt>
      <trkpt lat="48.16054" lon="5.09195">
        <ele>271</ele>
        <time>2024-12-23T23:23:18.334Z</time>
      </trkpt>
      <trkpt lat="48.16036" lon="5.09191">
        <ele>271.21</ele>
        <time>2024-12-23T23:23:26.063Z</time>
      </trkpt>
      <trkpt lat="48.16018" lon="5.09186">
        <ele>271.43</ele>
        <time>2024-12-23T23:23:33.795Z</time>
      </trkpt>
      <trkpt lat="48.15989" lon="5.09176">
        <ele>271.6</ele>
        <time>2024-12-23T23:23:41.532Z</time>
      </trkpt>
      <trkpt lat="48.15959" lon="5.09166">
        <ele>271.76</ele>
        <time>2024-12-23T23:23:49.273Z</time>
      </trkpt>
      <trkpt lat="48.1593" lon="5.09155">
        <ele>271.9</ele>
        <time>2024-12-23T23:23:57.019Z</time>
      </trkpt>
      <trkpt lat="48.15901" lon="5.09145">
        <ele>272.01</ele>
        <time>2024-12-23T23:24:04.770Z</time>
      </trkpt>
      <trkpt lat="48.15872" lon="5.09135">
        <ele>272.2</ele>
        <time>2024-12-23T23:24:12.526Z</time>
      </trkpt>
      <trkpt lat="48.15848" lon="5.09131">
        <ele>272.39</ele>
        <time>2024-12-23T23:24:20.286Z</time>
      </trkpt>
      <trkpt lat="48.15823" lon="5.09128">
        <ele>272.5</ele>
        <time>2024-12-23T23:24:28.050Z</time>
      </trkpt>
      <trkpt lat="48.15799" lon="5.09124">
        <ele>272.55</ele>
        <time>2024-12-23T23:24:35.817Z</time>
      </trkpt>
      <trkpt lat="48.15772" lon="5.09119">
        <ele>272.58</ele>
        <time>2024-12-23T23:24:43.589Z</time>
      </trkpt>
      <trkpt lat="48.15745" lon="5.09113">
        <ele>272.61</ele>
        <time>2024-12-23T23:24:51.365Z</time>
      </trkpt>
      <trkpt lat="48.15718" lon="5.09106">
        <ele>272.68</ele>
        <time>2024-12-23T23:24:59.146Z</time>
      </trkpt>
      <trkpt lat="48.1569" lon="5.091">
        <ele>272.78</ele>
        <time>2024-12-23T23:25:06.931Z</time>
      </trkpt>
      <trkpt lat="48.15663" lon="5.09093">
        <ele>272.88</ele>
        <time>2024-12-23T23:25:14.721Z</time>
      </trkpt>
      <trkpt lat="48.15635" lon="5.09086">
        <ele>272.94</ele>
        <time>2024-12-23T23:25:22.515Z</time>
      </trkpt>
      <trkpt lat="48.15608" lon="5.09079">
        <ele>272.94</ele>
        <time>2024-12-23T23:25:30.313Z</time>
      </trkpt>
      <trkpt lat="48.15583" lon="5.09077">
        <ele>272.98</ele>
        <time>2024-12-23T23:25:38.115Z</time>
      </trkpt>
      <trkpt lat="48.15559" lon="5.09076">
        <ele>273.03</ele>
        <time>2024-12-23T23:25:45.921Z</time>
      </trkpt>
      <trkpt lat="48.15534" lon="5.09074">
        <ele>273.1</ele>
        <time>2024-12-23T23:25:53.731Z</time>
      </trkpt>
      <trkpt lat="48.15509" lon="5.09073">
        <ele>273.2</ele>
        <time>2024-12-23T23:26:01.545Z</time>
      </trkpt>
      <trkpt lat="48.15485" lon="5.09063">
        <ele>273.27</ele>
        <time>2024-12-23T23:26:09.363Z</time>
      </trkpt>
      <trkpt lat="48.1546" lon="5.09053">
        <ele>273.32</ele>
        <time>2024-12-23T23:26:17.185Z</time>
      </trkpt>
      <trkpt lat="48.15436" lon="5.09043">
        <ele>273.32</ele>
        <time>2024-12-23T23:26:25.011Z</time>
      </trkpt>
      <trkpt lat="48.15411" lon="5.09033">
        <ele>273.35</ele>
        <time>2024-12-23T23:26:32.842Z</time>
      </trkpt>
      <trkpt lat="48.15387" lon="5.09023">
        <ele>273.37</ele>
        <time>2024-12-23T23:26:40.677Z</time>
      </trkpt>
      <trkpt lat="48.15356" lon="5.09023">
        <ele>273.46</ele>
        <time>2024-12-23T23:26:48.516Z</time>
      </trkpt>
      <trkpt lat="48.15325" lon="5.09023">
        <ele>273.49</ele>
        <time>2024-12-23T23:26:56.360Z</time>
      </trkpt>
      <trkpt lat="48.15295" lon="5.09023">
        <ele>273.51</ele>
        <time>2024-12-23T23:27:04.209Z</time>
      </trkpt>
      <trkpt lat="48.15266" lon="5.09019">
        <ele>273.53</ele>
        <time>2024-12-23T23:27:12.063Z</time>
      </trkpt>
      <trkpt lat="48.15237" lon="5.09014">
        <ele>273.58</ele>
        <time>2024-12-23T23:27:19.922Z</time>
      </trkpt>
      <trkpt lat="48.15209" lon="5.09009">
        <ele>273.58</ele>
        <time>2024-12-23T23:27:27.785Z</time>
      </trkpt>
      <trkpt lat="48.1518" lon="5.09005">
        <ele>273.62</ele>
        <time>2024-12-23T23:27:35.653Z</time>
      </trkpt>
      <trkpt lat="48.15152" lon="5.09">
        <ele>273.64</ele>
        <time>2024-12-23T23:27:43.525Z</time>
      </trkpt>
      <trkpt lat="48.15123" lon="5.08995">
        <ele>273.6</ele>
        <time>2024-12-23T23:27:51.402Z</time>
      </trkpt>
      <trkpt lat="48.15094" lon="5.08988">
        <ele>273.58</ele>
        <time>2024-12-23T23:27:59.284Z</time>
      </trkpt>
      <trkpt lat="48.15064" lon="5.08981">
        <ele>273.5</ele>
        <time>2024-12-23T23:28:07.171Z</time>
      </trkpt>
      <trkpt lat="48.15035" lon="5.08973">
        <ele>273.4</ele>
        <time>2024-12-23T23:28:15.062Z</time>
      </trkpt>
      <trkpt lat="48.15005" lon="5.08966">
        <ele>273.29</ele>
        <time>2024-12-23T23:28:22.958Z</time>
      </trkpt>
      <trkpt lat="48.14976" lon="5.08958">
        <ele>273.14</ele>
        <time>2024-12-23T23:28:30.859Z</time>
      </trkpt>
      <trkpt lat="48.14947" lon="5.08951">
        <ele>272.95</ele>
        <time>2024-12-23T23:28:38.765Z</time>
      </trkpt>
      <trkpt lat="48.14917" lon="5.08944">
        <ele>272.75</ele>
        <time>2024-12-23T23:28:46.675Z</time>
      </trkpt>
      <trkpt lat="48.14917" lon="5.08944">
        <ele>272.59</ele>
        <time>2024-12-23T23:28:54.585Z</time>
      </trkpt>
      <trkpt lat="48.14891" lon="5.0894">
        <ele>272.4</ele>
        <time>2024-12-23T23:29:02.500Z</time>
      </trkpt>
      <trkpt lat="48.14861" lon="5.08935">
        <ele>272.27</ele>
        <time>2024-12-23T23:29:10.419Z</time>
      </trkpt>
      <trkpt lat="48.14831" lon="5.0893">
        <ele>272.13</ele>
        <time>2024-12-23T23:29:18.343Z</time>
      </trkpt>
      <trkpt lat="48.148" lon="5.08925">
        <ele>271.97</ele>
        <time>2024-12-23T23:29:26.272Z</time>
      </trkpt>
      <trkpt lat="48.1477" lon="5.0892">
        <ele>271.77</ele>
        <time>2024-12-23T23:29:34.206Z</time>
      </trkpt>
      <trkpt lat="48.1474" lon="5.08915">
        <ele>271.52</ele>
        <time>2024-12-23T23:29:42.145Z</time>
      </trkpt>
      <trkpt lat="48.14709" lon="5.0891">
        <ele>271.29</ele>
        <time>2024-12-23T23:29:50.089Z</time>
      </trkpt>
      <trkpt lat="48.14679" lon="5.08905">
        <ele>271.09</ele>
        <time>2024-12-23T23:29:58.038Z</time>
      </trkpt>
      <trkpt lat="48.14655" lon="5.08903">
        <ele>270.98</ele>
        <time>2024-12-23T23:30:05.991Z</time>
      </trkpt>
      <trkpt lat="48.14645" lon="5.08901">
        <ele>270.97</ele>
        <time>2024-12-23T23:30:13.945Z</time>
      </trkpt>
      <trkpt lat="48.14618" lon="5.08897">
        <ele>270.99</ele>
        <time>2024-12-23T23:30:21.904Z</time>
      </trkpt>
      <trkpt lat="48.14591" lon="5.08892">
        <ele>271.04</ele>
        <time>2024-12-23T23:30:29.867Z</time>
      </trkpt>
      <trkpt lat="48.14564" lon="5.08888">
        <ele>271.17</ele>
        <time>2024-12-23T23:30:37.834Z</time>
      </trkpt>
      <trkpt lat="48.14537" lon="5.08884">
        <ele>271.3</ele>
        <time>2024-12-23T23:30:45.806Z</time>
      </trkpt>
      <trkpt lat="48.14506" lon="5.08877">
        <ele>271.42</ele>
        <time>2024-12-23T23:30:53.783Z</time>
      </trkpt>
      <trkpt lat="48.14475" lon="5.0887">
        <ele>271.64</ele>
        <time>2024-12-23T23:31:01.765Z</time>
      </trkpt>
      <trkpt lat="48.14445" lon="5.08864">
        <ele>271.9</ele>
        <time>2024-12-23T23:31:09.752Z</time>
      </trkpt>
      <trkpt lat="48.14414" lon="5.08857">
        <ele>272.17</ele>
        <time>2024-12-23T23:31:17.744Z</time>
      </trkpt>
      <trkpt lat="48.14383" lon="5.0885">
        <ele>272.46</ele>
        <time>2024-12-23T23:31:25.741Z</time>
      </trkpt>
      <trkpt lat="48.14352" lon="5.08844">
        <ele>272.9</ele>
        <time>2024-12-23T23:31:33.743Z</time>
      </trkpt>
      <trkpt lat="48.14321" lon="5.08837">
        <ele>273.31</ele>
        <time>2024-12-23T23:31:41.750Z</time>
      </trkpt>
      <trkpt lat="48.1429" lon="5.0883">
        <ele>273.7</ele>
        <time>2024-12-23T23:31:49.762Z</time>
      </trkpt>
      <trkpt lat="48.14259" lon="5.08824">
        <ele>274.17</ele>
        <time>2024-12-23T23:31:57.779Z</time>
      </trkpt>
      <trkpt lat="48.14228" lon="5.08817">
        <ele>274.64</ele>
        <time>2024-12-23T23:32:05.801Z</time>
      </trkpt>
      <trkpt lat="48.14205" lon="5.08814">
        <ele>275.16</ele>
        <time>2024-12-23T23:32:13.826Z</time>
      </trkpt>
      <trkpt lat="48.14181" lon="5.0881">
        <ele>275.7</ele>
        <time>2024-12-23T23:32:21.855Z</time>
      </trkpt>
      <trkpt lat="48.14157" lon="5.08806">
        <ele>276.21</ele>
        <time>2024-12-23T23:32:29.888Z</time>
      </trkpt>
      <trkpt lat="48.14136" lon="5.08804">
        <ele>276.71</ele>
        <time>2024-12-23T23:32:37.924Z</time>
      </trkpt>
      <trkpt lat="48.14115" lon="5.08802">
        <ele>277.2</ele>
        <time>2024-12-23T23:32:45.964Z</time>
      </trkpt>
      <trkpt lat="48.14089" lon="5.08801">
        <ele>277.66</ele>
        <time>2024-12-23T23:32:54.008Z</time>
      </trkpt>
      <trkpt lat="48.14063" lon="5.088">
        <ele>278.1</ele>
        <time>2024-12-23T23:33:02.056Z</time>
      </trkpt>
      <trkpt lat="48.14039" lon="5.08791">
        <ele>278.52</ele>
        <time>2024-12-23T23:33:10.108Z</time>
      </trkpt>
      <trkpt lat="48.14014" lon="5.08783">
        <ele>278.91</ele>
        <time>2024-12-23T23:33:18.164Z</time>
      </trkpt>
      <trkpt lat="48.1399" lon="5.08774">
        <ele>279.22</ele>
        <time>2024-12-23T23:33:26.224Z</time>
      </trkpt>
      <trkpt lat="48.13963" lon="5.08766">
        <ele>279.47</ele>
        <time>2024-12-23T23:33:34.288Z</time>
      </trkpt>
      <trkpt lat="48.13936" lon="5.08757">
        <ele>279.75</ele>
        <time>2024-12-23T23:33:42.357Z</time>
      </trkpt>
      <trkpt lat="48.1391" lon="5.08749">
        <ele>279.99</ele>
        <time>2024-12-23T23:33:50.430Z</time>
      </trkpt>
      <trkpt lat="48.13883" lon="5.0874">
        <ele>280.19</ele>
        <time>2024-12-23T23:33:58.508Z</time>
      </trkpt>
      <trkpt lat="48.13859" lon="5.08723">
        <ele>280.37</ele>
        <time>2024-12-23T23:34:06.590Z</time>
      </trkpt>
      <trkpt lat="48.13833" lon="5.08697">
        <ele>280.44</ele>
        <time>2024-12-23T23:34:14.677Z</time>
      </trkpt>
      <trkpt lat="48.13808" lon="5.08671">
        <ele>280.47</ele>
        <time>2024-12-23T23:34:22.769Z</time>
      </trkpt>
      <trkpt lat="48.13793" lon="5.08654">
        <ele>280.48</ele>
        <time>2024-12-23T23:34:30.864Z</time>
      </trkpt>
      <trkpt lat="48.13778" lon="5.08637">
        <ele>280.43</ele>
        <time>2024-12-23T23:34:38.962Z</time>
      </trkpt>
      <trkpt lat="48.13764" lon="5.08623">
        <ele>280.35</ele>
        <time>2024-12-23T23:34:47.063Z</time>
      </trkpt>
      <trkpt lat="48.1375" lon="5.08609">
        <ele>280.27</ele>
        <time>2024-12-23T23:34:55.166Z</time>
      </trkpt>
      <trkpt lat="48.13722" lon="5.08592">
        <ele>280.18</ele>
        <time>2024-12-23T23:35:03.274Z</time>
      </trkpt>
      <trkpt lat="48.13694" lon="5.08575">
        <ele>280.05</ele>
        <time>2024-12-23T23:35:11.387Z</time>
      </trkpt>
      <trkpt lat="48.13666" lon="5.08558">
        <ele>279.87</ele>
        <time>2024-12-23T23:35:19.505Z</time>
      </trkpt>
      <trkpt lat="48.13648" lon="5.08545">
        <ele>279.68</ele>
        <time>2024-12-23T23:35:27.626Z</time>
      </trkpt>
      <trkpt lat="48.1363" lon="5.08532">
        <ele>279.46</ele>
        <time>2024-12-23T23:35:35.750Z</time>
      </trkpt>
      <trkpt lat="48.13623" lon="5.08526">
        <ele>279.28</ele>
        <time>2024-12-23T23:35:43.875Z</time>
      </trkpt>
      <trkpt lat="48.13623" lon="5.08526">
        <ele>279.13</ele>
        <time>2024-12-23T23:35:52.000Z</time>
      </trkpt>
      <trkpt lat="48.13623" lon="5.08526">
        <ele>278.99</ele>
        <time>2024-12-23T23:36:00.125Z</time>
      </trkpt>
      <trkpt lat="48.13623" lon="5.08526">
        <ele>278.87</ele>
        <time>2024-12-23T23:36:08.250Z</time>
      </trkpt>
      <trkpt lat="48.13618" lon="5.08521">
        <ele>278.75</ele>
        <time>2024-12-23T23:36:16.376Z</time>
      </trkpt>
      <trkpt lat="48.13618" lon="5.08521">
        <ele>278.66</ele>
        <time>2024-12-23T23:36:24.502Z</time>
      </trkpt>
      <trkpt lat="48.13618" lon="5.08521">
        <ele>278.61</ele>
        <time>2024-12-23T23:36:32.628Z</time>
      </trkpt>
      <trkpt lat="48.13618" lon="5.08521">
        <ele>278.58</ele>
        <time>2024-12-23T23:36:40.754Z</time>
      </trkpt>
      <trkpt lat="48.13595" lon="5.08499">
        <ele>278.55</ele>
        <time>2024-12-23T23:36:48.885Z</time>
      </trkpt>
      <trkpt lat="48.13572" lon="5.08478">
        <ele>278.6</ele>
        <time>2024-12-23T23:36:57.020Z</time>
      </trkpt>
      <trkpt lat="48.13555" lon="5.08451">
        <ele>278.73</ele>
        <time>2024-12-23T23:37:05.159Z</time>
      </trkpt>
      <trkpt lat="48.13537" lon="5.08425">
        <ele>278.91</ele>
        <time>2024-12-23T23:37:13.302Z</time>
      </trkpt>
      <trkpt lat="48.13537" lon="5.08425">
        <ele>279.07</ele>
        <time>2024-12-23T23:37:21.445Z</time>
      </trkpt>
      <trkpt lat="48.13526" lon="5.08462">
        <ele>279.23</ele>
        <time>2024-12-23T23:37:29.592Z</time>
      </trkpt>
      <trkpt lat="48.13515" lon="5.08499">
        <ele>279.5</ele>
        <time>2024-12-23T23:37:37.744Z</time>
      </trkpt>
      <trkpt lat="48.13503" lon="5.08536">
        <ele>279.77</ele>
        <time>2024-12-23T23:37:45.900Z</time>
      </trkpt>
      <trkpt lat="48.13492" lon="5.08573">
        <ele>280.05</ele>
        <time>2024-12-23T23:37:54.060Z</time>
      </trkpt>
      <trkpt lat="48.13479" lon="5.08613">
        <ele>280.43</ele>
        <time>2024-12-23T23:38:02.225Z</time>
      </trkpt>
      <trkpt lat="48.13466" lon="5.08654">
        <ele>280.85</ele>
        <time>2024-12-23T23:38:10.395Z</time>
      </trkpt>
      <trkpt lat="48.13454" lon="5.08695">
        <ele>281.32</ele>
        <time>2024-12-23T23:38:18.570Z</time>
      </trkpt>
      <trkpt lat="48.13441" lon="5.08736">
        <ele>281.78</ele>
        <time>2024-12-23T23:38:26.750Z</time>
      </trkpt>
      <trkpt lat="48.13429" lon="5.08774">
        <ele>282.26</ele>
        <time>2024-12-23T23:38:34.934Z</time>
      </trkpt>
      <trkpt lat="48.13416" lon="5.08812">
        <ele>282.77</ele>
        <time>2024-12-23T23:38:43.123Z</time>
      </trkpt>
      <trkpt lat="48.13404" lon="5.08851">
        <ele>283.29</ele>
        <time>2024-12-23T23:38:51.316Z</time>
      </trkpt>
      <trkpt lat="48.13392" lon="5.08889">
        <ele>283.84</ele>
        <time>2024-12-23T23:38:59.514Z</time>
      </trkpt>
      <trkpt lat="48.13379" lon="5.08928">
        <ele>284.39</ele>
        <time>2024-12-23T23:39:07.717Z</time>
      </trkpt>
      <trkpt lat="48.13367" lon="5.08966">
        <ele>284.92</ele>
        <time>2024-12-23T23:39:15.924Z</time>
      </trkpt>
      <trkpt lat="48.13355" lon="5.09004">
        <ele>285.48</ele>
        <time>2024-12-23T23:39:24.136Z</time>
      </trkpt>
      <trkpt lat="48.13344" lon="5.09034">
        <ele>285.98</ele>
        <time>2024-12-23T23:39:32.351Z</time>
      </trkpt>
      <trkpt lat="48.13331" lon="5.09075">
        <ele>286.48</ele>
        <time>2024-12-23T23:39:40.571Z</time>
      </trkpt>
      <trkpt lat="48.13318" lon="5.09117">
        <ele>286.93</ele>
        <time>2024-12-23T23:39:48.796Z</time>
      </trkpt>
      <trkpt lat="48.13306" lon="5.09158">
        <ele>287.48</ele>
        <time>2024-12-23T23:39:57.026Z</time>
      </trkpt>
      <trkpt lat="48.13293" lon="5.092">
        <ele>288.05</ele>
        <time>2024-12-23T23:40:05.261Z</time>
      </trkpt>
      <trkpt lat="48.1328" lon="5.09241">
        <ele>288.62</ele>
        <time>2024-12-23T23:40:13.501Z</time>
      </trkpt>
      <trkpt lat="48.13267" lon="5.09283">
        <ele>289.18</ele>
        <time>2024-12-23T23:40:21.746Z</time>
      </trkpt>
      <trkpt lat="48.13254" lon="5.09324">
        <ele>289.76</ele>
        <time>2024-12-23T23:40:29.996Z</time>
      </trkpt>
      <trkpt lat="48.13254" lon="5.09324">
        <ele>290.25</ele>
        <time>2024-12-23T23:40:38.246Z</time>
      </trkpt>
      <trkpt lat="48.13241" lon="5.09365">
        <ele>290.82</ele>
        <time>2024-12-23T23:40:46.501Z</time>
      </trkpt>
      <trkpt lat="48.13227" lon="5.09407">
        <ele>291.34</ele>
        <time>2024-12-23T23:40:54.760Z</time>
      </trkpt>
      <trkpt lat="48.13214" lon="5.09449">
        <ele>291.78</ele>
        <time>2024-12-23T23:41:03.024Z</time>
      </trkpt>
      <trkpt lat="48.13201" lon="5.09491">
        <ele>292.1</ele>
        <time>2024-12-23T23:41:11.293Z</time>
      </trkpt>
      <trkpt lat="48.13187" lon="5.09532">
        <ele>292.45</ele>
        <time>2024-12-23T23:41:19.567Z</time>
      </trkpt>
      <trkpt lat="48.13174" lon="5.09574">
        <ele>292.89</ele>
        <time>2024-12-23T23:41:27.846Z</time>
      </trkpt>
      <trkpt lat="48.1316" lon="5.09616">
        <ele>293.33</ele>
        <time>2024-12-23T23:41:36.130Z</time>
      </trkpt>
      <trkpt lat="48.13147" lon="5.09658">
        <ele>293.65</ele>
        <time>2024-12-23T23:41:44.419Z</time>
      </trkpt>
      <trkpt lat="48.13134" lon="5.09699">
        <ele>293.95</ele>
        <time>2024-12-23T23:41:52.713Z</time>
      </trkpt>
      <trkpt lat="48.1312" lon="5.09741">
        <ele>294.23</ele>
        <time>2024-12-23T23:42:01.012Z</time>
      </trkpt>
      <trkpt lat="48.13107" lon="5.09783">
        <ele>294.56</ele>
        <time>2024-12-23T23:42:09.316Z</time>
      </trkpt>
      <trkpt lat="48.13093" lon="5.09824">
        <ele>294.84</ele>
        <time>2024-12-23T23:42:17.625Z</time>
      </trkpt>
      <trkpt lat="48.1308" lon="5.09866">
        <ele>295.08</ele>
        <time>2024-12-23T23:42:25.939Z</time>
      </trkpt>
      <trkpt lat="48.13067" lon="5.09908">
        <ele>295.31</ele>
        <time>2024-12-23T23:42:34.258Z</time>
      </trkpt>
      <trkpt lat="48.13053" lon="5.0995">
        <ele>295.49</ele>
        <time>2024-12-23T23:42:42.582Z</time>
      </trkpt>
      <trkpt lat="48.1304" lon="5.09991">
        <ele>295.68</ele>
        <time>2024-12-23T23:42:50.911Z</time>
      </trkpt>
      <trkpt lat="48.13026" lon="5.10033">
        <ele>295.75</ele>
        <time>2024-12-23T23:42:59.245Z</time>
      </trkpt>
      <trkpt lat="48.13013" lon="5.10075">
        <ele>295.85</ele>
        <time>2024-12-23T23:43:07.584Z</time>
      </trkpt>
      <trkpt lat="48.13" lon="5.10117">
        <ele>295.93</ele>
        <time>2024-12-23T23:43:15.928Z</time>
      </trkpt>
      <trkpt lat="48.12986" lon="5.10158">
        <ele>295.92</ele>
        <time>2024-12-23T23:43:24.277Z</time>
      </trkpt>
      <trkpt lat="48.12973" lon="5.102">
        <ele>295.92</ele>
        <time>2024-12-23T23:43:32.631Z</time>
      </trkpt>
      <trkpt lat="48.1296" lon="5.1024">
        <ele>295.94</ele>
        <time>2024-12-23T23:43:40.989Z</time>
      </trkpt>
      <trkpt lat="48.12948" lon="5.10276">
        <ele>295.92</ele>
        <time>2024-12-23T23:43:49.352Z</time>
      </trkpt>
      <trkpt lat="48.12936" lon="5.10313">
        <ele>295.83</ele>
        <time>2024-12-23T23:43:57.719Z</time>
      </trkpt>
      <trkpt lat="48.12925" lon="5.10349">
        <ele>295.67</ele>
        <time>2024-12-23T23:44:06.091Z</time>
      </trkpt>
      <trkpt lat="48.12913" lon="5.10386">
        <ele>295.54</ele>
        <time>2024-12-23T23:44:14.467Z</time>
      </trkpt>
      <trkpt lat="48.12901" lon="5.10423">
        <ele>295.4</ele>
        <time>2024-12-23T23:44:22.847Z</time>
      </trkpt>
      <trkpt lat="48.12889" lon="5.10459">
        <ele>295.24</ele>
        <time>2024-12-23T23:44:31.232Z</time>
      </trkpt>
      <trkpt lat="48.12876" lon="5.10498">
        <ele>295.02</ele>
        <time>2024-12-23T23:44:39.621Z</time>
      </trkpt>
      <trkpt lat="48.12864" lon="5.10537">
        <ele>294.78</ele>
        <time>2024-12-23T23:44:48.015Z</time>
      </trkpt>
      <trkpt lat="48.12851" lon="5.10576">
        <ele>294.57</ele>
        <time>2024-12-23T23:44:56.414Z</time>
      </trkpt>
      <trkpt lat="48.12838" lon="5.10615">
        <ele>294.4</ele>
        <time>2024-12-23T23:45:04.817Z</time>
      </trkpt>
      <trkpt lat="48.12829" lon="5.10633">
        <ele>294.26</ele>
        <time>2024-12-23T23:45:13.223Z</time>
      </trkpt>
      <trkpt lat="48.12819" lon="5.10643">
        <ele>294.15</ele>
        <time>2024-12-23T23:45:21.631Z</time>
      </trkpt>
      <trkpt lat="48.12797" lon="5.10643">
        <ele>294.07</ele>
        <time>2024-12-23T23:45:30.042Z</time>
      </trkpt>
      <trkpt lat="48.12788" lon="5.1065">
        <ele>293.99</ele>
        <time>2024-12-23T23:45:38.455Z</time>
      </trkpt>
      <trkpt lat="48.12788" lon="5.1065">
        <ele>293.94</ele>
        <time>2024-12-23T23:45:46.868Z</time>
      </trkpt>
      <trkpt lat="48.12778" lon="5.1066">
        <ele>293.92</ele>
        <time>2024-12-23T23:45:55.283Z</time>
      </trkpt>
      <trkpt lat="48.12765" lon="5.10684">
        <ele>293.93</ele>
        <time>2024-12-23T23:46:03.701Z</time>
      </trkpt>
      <trkpt lat="48.12765" lon="5.10684">
        <ele>293.97</ele>
        <time>2024-12-23T23:46:12.119Z</time>
      </trkpt>
      <trkpt lat="48.12761" lon="5.10714">
        <ele>294.1</ele>
        <time>2024-12-23T23:46:20.540Z</time>
      </trkpt>
      <trkpt lat="48.12765" lon="5.10746">
        <ele>294.3</ele>
        <time>2024-12-23T23:46:28.965Z</time>
      </trkpt>
      <trkpt lat="48.12771" lon="5.10763">
        <ele>294.46</ele>
        <time>2024-12-23T23:46:37.392Z</time>
      </trkpt>
      <trkpt lat="48.12776" lon="5.1077">
        <ele>294.61</ele>
        <time>2024-12-23T23:46:45.820Z</time>
      </trkpt>
      <trkpt lat="48.12778" lon="5.10787">
        <ele>294.8</ele>
        <time>2024-12-23T23:46:54.250Z</time>
      </trkpt>
      <trkpt lat="48.12773" lon="5.10808">
        <ele>295.01</ele>
        <time>2024-12-23T23:47:02.682Z</time>
      </trkpt>
      <trkpt lat="48.12762" lon="5.10849">
        <ele>295.24</ele>
        <time>2024-12-23T23:47:11.119Z</time>
      </trkpt>
      <trkpt lat="48.1275" lon="5.10889">
        <ele>295.45</ele>
        <time>2024-12-23T23:47:19.561Z</time>
      </trkpt>
      <trkpt lat="48.12738" lon="5.10929">
        <ele>295.71</ele>
        <time>2024-12-23T23:47:28.007Z</time>
      </trkpt>
      <trkpt lat="48.12726" lon="5.10969">
        <ele>296.03</ele>
        <time>2024-12-23T23:47:36.458Z</time>
      </trkpt>
      <trkpt lat="48.12713" lon="5.1101">
        <ele>296.23</ele>
        <time>2024-12-23T23:47:44.914Z</time>
      </trkpt>
      <trkpt lat="48.127" lon="5.11051">
        <ele>296.46</ele>
        <time>2024-12-23T23:47:53.375Z</time>
      </trkpt>
      <trkpt lat="48.12688" lon="5.11092">
        <ele>296.83</ele>
        <time>2024-12-23T23:48:01.840Z</time>
      </trkpt>
      <trkpt lat="48.12675" lon="5.11133">
        <ele>297.21</ele>
        <time>2024-12-23T23:48:10.310Z</time>
      </trkpt>
      <trkpt lat="48.12662" lon="5.11174">
        <ele>297.58</ele>
        <time>2024-12-23T23:48:18.785Z</time>
      </trkpt>
      <trkpt lat="48.12649" lon="5.11215">
        <ele>297.96</ele>
        <time>2024-12-23T23:48:27.265Z</time>
      </trkpt>
      <trkpt lat="48.12636" lon="5.11255">
        <ele>298.35</ele>
        <time>2024-12-23T23:48:35.750Z</time>
      </trkpt>
      <trkpt lat="48.12623" lon="5.11296">
        <ele>298.77</ele>
        <time>2024-12-23T23:48:44.240Z</time>
      </trkpt>
      <trkpt lat="48.1261" lon="5.11337">
        <ele>299.14</ele>
        <time>2024-12-23T23:48:52.734Z</time>
      </trkpt>
      <trkpt lat="48.12597" lon="5.11378">
        <ele>299.51</ele>
        <time>2024-12-23T23:49:01.233Z</time>
      </trkpt>
      <trkpt lat="48.12584" lon="5.11419">
        <ele>299.85</ele>
        <time>2024-12-23T23:49:09.737Z</time>
      </trkpt>
      <trkpt lat="48.12572" lon="5.11459">
        <ele>300.22</ele>
        <time>2024-12-23T23:49:18.246Z</time>
      </trkpt>
      <trkpt lat="48.12559" lon="5.11456">
        <ele>300.57</ele>
        <time>2024-12-23T23:49:26.757Z</time>
      </trkpt>
      <trkpt lat="48.12546" lon="5.11472">
        <ele>300.93</ele>
        <time>2024-12-23T23:49:35.271Z</time>
      </trkpt>
      <trkpt lat="48.12544" lon="5.11489">
        <ele>301.29</ele>
        <time>2024-12-23T23:49:43.786Z</time>
      </trkpt>
      <trkpt lat="48.12552" lon="5.1151">
        <ele>301.61</ele>
        <time>2024-12-23T23:49:52.304Z</time>
      </trkpt>
      <trkpt lat="48.12541" lon="5.11547">
        <ele>301.91</ele>
        <time>2024-12-23T23:50:00.827Z</time>
      </trkpt>
      <trkpt lat="48.12529" lon="5.11584">
        <ele>302.29</ele>
        <time>2024-12-23T23:50:09.354Z</time>
      </trkpt>
      <trkpt lat="48.12517" lon="5.11622">
        <ele>302.68</ele>
        <time>2024-12-23T23:50:17.885Z</time>
      </trkpt>
      <trkpt lat="48.12506" lon="5.11659">
        <ele>303.05</ele>
        <time>2024-12-23T23:50:26.421Z</time>
      </trkpt>
      <trkpt lat="48.12494" lon="5.11696">
        <ele>303.36</ele>
        <time>2024-12-23T23:50:34.961Z</time>
      </trkpt>
      <trkpt lat="48.12482" lon="5.11733">
        <ele>303.72</ele>
        <time>2024-12-23T23:50:43.506Z</time>
      </trkpt>
      <trkpt lat="48.12471" lon="5.1177">
        <ele>304.12</ele>
        <time>2024-12-23T23:50:52.055Z</time>
      </trkpt>
      <trkpt lat="48.12458" lon="5.11809">
        <ele>304.56</ele>
        <time>2024-12-23T23:51:00.609Z</time>
      </trkpt>
      <trkpt lat="48.12446" lon="5.11848">
        <ele>305.07</ele>
        <time>2024-12-23T23:51:09.167Z</time>
      </trkpt>
      <trkpt lat="48.12433" lon="5.11887">
        <ele>305.54</ele>
        <time>2024-12-23T23:51:17.730Z</time>
      </trkpt>
      <trkpt lat="48.12421" lon="5.11926">
        <ele>305.91</ele>
        <time>2024-12-23T23:51:26.297Z</time>
      </trkpt>
      <trkpt lat="48.12408" lon="5.11965">
        <ele>306.3</ele>
        <time>2024-12-23T23:51:34.869Z</time>
      </trkpt>
      <trkpt lat="48.12396" lon="5.12004">
        <ele>306.69</ele>
        <time>2024-12-23T23:51:43.446Z</time>
      </trkpt>
      <trkpt lat="48.12396" lon="5.12004">
        <ele>306.99</ele>
        <time>2024-12-23T23:51:52.023Z</time>
      </trkpt>
      <trkpt lat="48.12382" lon="5.12046">
        <ele>307.27</ele>
        <time>2024-12-23T23:52:00.605Z</time>
      </trkpt>
      <trkpt lat="48.12369" lon="5.12088">
        <ele>307.45</ele>
        <time>2024-12-23T23:52:09.192Z</time>
      </trkpt>
      <trkpt lat="48.12355" lon="5.1213">
        <ele>307.71</ele>
        <time>2024-12-23T23:52:17.784Z</time>
      </trkpt>
      <trkpt lat="48.12342" lon="5.12172">
        <ele>307.81</ele>
        <time>2024-12-23T23:52:26.381Z</time>
      </trkpt>
      <trkpt lat="48.12329" lon="5.12215">
        <ele>307.87</ele>
        <time>2024-12-23T23:52:34.983Z</time>
      </trkpt>
      <trkpt lat="48.12315" lon="5.12257">
        <ele>307.97</ele>
        <time>2024-12-23T23:52:43.590Z</time>
      </trkpt>
      <trkpt lat="48.12302" lon="5.12299">
        <ele>308.03</ele>
        <time>2024-12-23T23:52:52.202Z</time>
      </trkpt>
      <trkpt lat="48.12289" lon="5.12341">
        <ele>308.04</ele>
        <time>2024-12-23T23:53:00.819Z</time>
      </trkpt>
      <trkpt lat="48.12278" lon="5.12375">
        <ele>308.03</ele>
        <time>2024-12-23T23:53:09.440Z</time>
      </trkpt>
      <trkpt lat="48.12266" lon="5.12414">
        <ele>308</ele>
        <time>2024-12-23T23:53:18.065Z</time>
      </trkpt>
      <trkpt lat="48.12254" lon="5.12452">
        <ele>307.86</ele>
        <time>2024-12-23T23:53:26.695Z</time>
      </trkpt>
      <trkpt lat="48.12238" lon="5.12491">
        <ele>307.62</ele>
        <time>2024-12-23T23:53:35.330Z</time>
      </trkpt>
      <trkpt lat="48.12222" lon="5.12529">
        <ele>307.25</ele>
        <time>2024-12-23T23:53:43.970Z</time>
      </trkpt>
      <trkpt lat="48.12205" lon="5.12561">
        <ele>306.78</ele>
        <time>2024-12-23T23:53:52.614Z</time>
      </trkpt>
      <trkpt lat="48.12188" lon="5.12592">
        <ele>306.32</ele>
        <time>2024-12-23T23:54:01.262Z</time>
      </trkpt>
      <trkpt lat="48.12171" lon="5.12624">
        <ele>305.78</ele>
        <time>2024-12-23T23:54:09.915Z</time>
      </trkpt>
      <trkpt lat="48.12154" lon="5.1266">
        <ele>305.16</ele>
        <time>2024-12-23T23:54:18.572Z</time>
      </trkpt>
      <trkpt lat="48.12138" lon="5.12696">
        <ele>304.41</ele>
        <time>2024-12-23T23:54:27.234Z</time>
      </trkpt>
      <trkpt lat="48.12122" lon="5.12732">
        <ele>303.51</ele>
        <time>2024-12-23T23:54:35.901Z</time>
      </trkpt>
      <trkpt lat="48.12106" lon="5.12768">
        <ele>302.51</ele>
        <time>2024-12-23T23:54:44.572Z</time>
      </trkpt>
      <trkpt lat="48.12089" lon="5.128">
        <ele>301.43</ele>
        <time>2024-12-23T23:54:53.248Z</time>
      </trkpt>
      <trkpt lat="48.12072" lon="5.12833">
        <ele>300.46</ele>
        <time>2024-12-23T23:55:01.928Z</time>
      </trkpt>
      <trkpt lat="48.12055" lon="5.12866">
        <ele>299.58</ele>
        <time>2024-12-23T23:55:10.613Z</time>
      </trkpt>
      <trkpt lat="48.12037" lon="5.12898">
        <ele>298.69</ele>
        <time>2024-12-23T23:55:19.302Z</time>
      </trkpt>
      <trkpt lat="48.1202" lon="5.12921">
        <ele>297.78</ele>
        <time>2024-12-23T23:55:27.995Z</time>
      </trkpt>
      <trkpt lat="48.12003" lon="5.12944">
        <ele>296.79</ele>
        <time>2024-12-23T23:55:36.691Z</time>
      </trkpt>
      <trkpt lat="48.11975" lon="5.12961">
        <ele>295.8</ele>
        <time>2024-12-23T23:55:45.392Z</time>
      </trkpt>
      <trkpt lat="48.11958" lon="5.12965">
        <ele>294.86</ele>
        <time>2024-12-23T23:55:54.096Z</time>
      </trkpt>
      <trkpt lat="48.1194" lon="5.1296">
        <ele>293.92</ele>
        <time>2024-12-23T23:56:02.803Z</time>
      </trkpt>
      <trkpt lat="48.11922" lon="5.12954">
        <ele>292.97</ele>
        <time>2024-12-23T23:56:11.513Z</time>
      </trkpt>
      <trkpt lat="48.11902" lon="5.12938">
        <ele>292.02</ele>
        <time>2024-12-23T23:56:20.226Z</time>
      </trkpt>
      <trkpt lat="48.11883" lon="5.12922">
        <ele>291.09</ele>
        <time>2024-12-23T23:56:28.943Z</time>
      </trkpt>
      <trkpt lat="48.11866" lon="5.12898">
        <ele>290.12</ele>
        <time>2024-12-23T23:56:37.664Z</time>
      </trkpt>
      <trkpt lat="48.11849" lon="5.12864">
        <ele>289.12</ele>
        <time>2024-12-23T23:56:46.389Z</time>
      </trkpt>
      <trkpt lat="48.11836" lon="5.12823">
        <ele>288.07</ele>
        <time>2024-12-23T23:56:55.119Z</time>
      </trkpt>
      <trkpt lat="48.11829" lon="5.1279">
        <ele>287.11</ele>
        <time>2024-12-23T23:57:03.853Z</time>
      </trkpt>
      <trkpt lat="48.11823" lon="5.12756">
        <ele>286.12</ele>
        <time>2024-12-23T23:57:12.591Z</time>
      </trkpt>
      <trkpt lat="48.11816" lon="5.12722">
        <ele>285.09</ele>
        <time>2024-12-23T23:57:21.332Z</time>
      </trkpt>
      <trkpt lat="48.11805" lon="5.12685">
        <ele>284</ele>
        <time>2024-12-23T23:57:30.078Z</time>
      </trkpt>
      <trkpt lat="48.11794" lon="5.12647">
        <ele>282.91</ele>
        <time>2024-12-23T23:57:38.828Z</time>
      </trkpt>
      <trkpt lat="48.11783" lon="5.1261">
        <ele>281.84</ele>
        <time>2024-12-23T23:57:47.583Z</time>
      </trkpt>
      <trkpt lat="48.11771" lon="5.12572">
        <ele>280.74</ele>
        <time>2024-12-23T23:57:56.342Z</time>
      </trkpt>
      <trkpt lat="48.11761" lon="5.12531">
        <ele>279.6</ele>
        <time>2024-12-23T23:58:05.106Z</time>
      </trkpt>
      <trkpt lat="48.1175" lon="5.12491">
        <ele>278.48</ele>
        <time>2024-12-23T23:58:13.874Z</time>
      </trkpt>
      <trkpt lat="48.11739" lon="5.1245">
        <ele>277.52</ele>
        <time>2024-12-23T23:58:22.647Z</time>
      </trkpt>
      <trkpt lat="48.11733" lon="5.12419">
        <ele>276.5</ele>
        <time>2024-12-23T23:58:31.424Z</time>
      </trkpt>
      <trkpt lat="48.11728" lon="5.12388">
        <ele>275.47</ele>
        <time>2024-12-23T23:58:40.204Z</time>
      </trkpt>
      <trkpt lat="48.11722" lon="5.12358">
        <ele>274.53</ele>
        <time>2024-12-23T23:58:48.987Z</time>
      </trkpt>
      <trkpt lat="48.11715" lon="5.12313">
        <ele>273.71</ele>
        <time>2024-12-23T23:58:57.775Z</time>
      </trkpt>
      <trkpt lat="48.11708" lon="5.12269">
        <ele>272.73</ele>
        <time>2024-12-23T23:59:06.568Z</time>
      </trkpt>
      <trkpt lat="48.11701" lon="5.12225">
        <ele>271.68</ele>
        <time>2024-12-23T23:59:15.366Z</time>
      </trkpt>
      <trkpt lat="48.11695" lon="5.1218">
        <ele>270.75</ele>
        <time>2024-12-23T23:59:24.169Z</time>
      </trkpt>
      <trkpt lat="48.11688" lon="5.12137">
        <ele>269.86</ele>
        <time>2024-12-23T23:59:32.977Z</time>
      </trkpt>
      <trkpt lat="48.11688" lon="5.12137">
        <ele>269.1</ele>
        <time>2024-12-23T23:59:41.785Z</time>
      </trkpt>
      <trkpt lat="48.11681" lon="5.12112">
        <ele>268.31</ele>
        <time>2024-12-23T23:59:50.596Z</time>
      </trkpt>
      <trkpt lat="48.11675" lon="5.12087">
        <ele>267.59</ele>
        <time>2024-12-23T23:59:59.409Z</time>
      </trkpt>
      <trkpt lat="48.11661" lon="5.12055">
        <ele>266.82</ele>
        <time>2024-12-24T00:00:08.227Z</time>
      </trkpt>
      <trkpt lat="48.11647" lon="5.12023">
        <ele>266.21</ele>
        <time>2024-12-24T00:00:17.049Z</time>
      </trkpt>
      <trkpt lat="48.11636" lon="5.12003">
        <ele>265.75</ele>
        <time>2024-12-24T00:00:25.873Z</time>
      </trkpt>
      <trkpt lat="48.11625" lon="5.11982">
        <ele>265.37</ele>
        <time>2024-12-24T00:00:34.700Z</time>
      </trkpt>
      <trkpt lat="48.11609" lon="5.11963">
        <ele>265.03</ele>
        <time>2024-12-24T00:00:43.530Z</time>
      </trkpt>
      <trkpt lat="48.11593" lon="5.11944">
        <ele>264.73</ele>
        <time>2024-12-24T00:00:52.364Z</time>
      </trkpt>
      <trkpt lat="48.11574" lon="5.11926">
        <ele>264.58</ele>
        <time>2024-12-24T00:01:01.201Z</time>
      </trkpt>
      <trkpt lat="48.11557" lon="5.11914">
        <ele>264.61</ele>
        <time>2024-12-24T00:01:10.041Z</time>
      </trkpt>
      <trkpt lat="48.11531" lon="5.11899">
        <ele>264.74</ele>
        <time>2024-12-24T00:01:18.886Z</time>
      </trkpt>
      <trkpt lat="48.11501" lon="5.1189">
        <ele>264.87</ele>
        <time>2024-12-24T00:01:27.736Z</time>
      </trkpt>
      <trkpt lat="48.11482" lon="5.11888">
        <ele>265.04</ele>
        <time>2024-12-24T00:01:36.589Z</time>
      </trkpt>
      <trkpt lat="48.11462" lon="5.11886">
        <ele>265.3</ele>
        <time>2024-12-24T00:01:45.445Z</time>
      </trkpt>
      <trkpt lat="48.11435" lon="5.11887">
        <ele>265.73</ele>
        <time>2024-12-24T00:01:54.305Z</time>
      </trkpt>
      <trkpt lat="48.11408" lon="5.11888">
        <ele>266.09</ele>
        <time>2024-12-24T00:02:03.170Z</time>
      </trkpt>
      <trkpt lat="48.1138" lon="5.11889">
        <ele>266.62</ele>
        <time>2024-12-24T00:02:12.039Z</time>
      </trkpt>
      <trkpt lat="48.11353" lon="5.1189">
        <ele>267.24</ele>
        <time>2024-12-24T00:02:20.913Z</time>
      </trkpt>
      <trkpt lat="48.11334" lon="5.1189">
        <ele>267.83</ele>
        <time>2024-12-24T00:02:29.790Z</time>
      </trkpt>
      <trkpt lat="48.11321" lon="5.1189">
        <ele>268.4</ele>
        <time>2024-12-24T00:02:38.669Z</time>
      </trkpt>
      <trkpt lat="48.113" lon="5.11891">
        <ele>269</ele>
        <time>2024-12-24T00:02:47.551Z</time>
      </trkpt>
      <trkpt lat="48.1128" lon="5.11892">
        <ele>269.57</ele>
        <time>2024-12-24T00:02:56.436Z</time>
      </trkpt>
      <trkpt lat="48.11255" lon="5.11886">
        <ele>270.14</ele>
        <time>2024-12-24T00:03:05.325Z</time>
      </trkpt>
      <trkpt lat="48.11229" lon="5.11881">
        <ele>270.72</ele>
        <time>2024-12-24T00:03:14.218Z</time>
      </trkpt>
      <trkpt lat="48.11204" lon="5.11875">
        <ele>271.31</ele>
        <time>2024-12-24T00:03:23.116Z</time>
      </trkpt>
      <trkpt lat="48.11179" lon="5.1187">
        <ele>271.85</ele>
        <time>2024-12-24T00:03:32.018Z</time>
      </trkpt>
      <trkpt lat="48.11153" lon="5.11864">
        <ele>272.36</ele>
        <time>2024-12-24T00:03:40.924Z</time>
      </trkpt>
      <trkpt lat="48.11126" lon="5.11853">
        <ele>272.69</ele>
        <time>2024-12-24T00:03:49.834Z</time>
      </trkpt>
      <trkpt lat="48.11115" lon="5.11847">
        <ele>272.93</ele>
        <time>2024-12-24T00:03:58.746Z</time>
      </trkpt>
      <trkpt lat="48.11113" lon="5.11864">
        <ele>273.18</ele>
        <time>2024-12-24T00:04:07.660Z</time>
      </trkpt>
      <trkpt lat="48.11113" lon="5.11871">
        <ele>273.35</ele>
        <time>2024-12-24T00:04:16.575Z</time>
      </trkpt>
      <trkpt lat="48.11109" lon="5.11907">
        <ele>273.53</ele>
        <time>2024-12-24T00:04:25.494Z</time>
      </trkpt>
      <trkpt lat="48.11105" lon="5.11944">
        <ele>273.46</ele>
        <time>2024-12-24T00:04:34.417Z</time>
      </trkpt>
      <trkpt lat="48.11101" lon="5.1198">
        <ele>273.15</ele>
        <time>2024-12-24T00:04:43.344Z</time>
      </trkpt>
      <trkpt lat="48.11098" lon="5.12017">
        <ele>272.86</ele>
        <time>2024-12-24T00:04:52.275Z</time>
      </trkpt>
      <trkpt lat="48.11098" lon="5.12017">
        <ele>272.89</ele>
        <time>2024-12-24T00:05:01.206Z</time>
      </trkpt>
      <trkpt lat="48.11093" lon="5.12062">
        <ele>272.69</ele>
        <time>2024-12-24T00:05:10.141Z</time>
      </trkpt>
      <trkpt lat="48.11093" lon="5.12066">
        <ele>272.78</ele>
        <time>2024-12-24T00:05:19.077Z</time>
      </trkpt>
      <trkpt lat="48.11072" lon="5.12064">
        <ele>273.04</ele>
        <time>2024-12-24T00:05:28.016Z</time>
      </trkpt>
      <trkpt lat="48.11055" lon="5.12057">
        <ele>273.24</ele>
        <time>2024-12-24T00:05:36.958Z</time>
      </trkpt>
      <trkpt lat="48.11038" lon="5.12051">
        <ele>273.49</ele>
        <time>2024-12-24T00:05:45.903Z</time>
      </trkpt>
      <trkpt lat="48.11012" lon="5.1207">
        <ele>273.74</ele>
        <time>2024-12-24T00:05:54.853Z</time>
      </trkpt>
      <trkpt lat="48.1099" lon="5.12092">
        <ele>274.2</ele>
        <time>2024-12-24T00:06:03.807Z</time>
      </trkpt>
      <trkpt lat="48.10973" lon="5.12109">
        <ele>274.99</ele>
        <time>2024-12-24T00:06:12.764Z</time>
      </trkpt>
      <trkpt lat="48.10965" lon="5.1212">
        <ele>275.74</ele>
        <time>2024-12-24T00:06:21.723Z</time>
      </trkpt>
      <trkpt lat="48.10951" lon="5.12132">
        <ele>276.7</ele>
        <time>2024-12-24T00:06:30.684Z</time>
      </trkpt>
      <trkpt lat="48.10937" lon="5.12145">
        <ele>277.71</ele>
        <time>2024-12-24T00:06:39.648Z</time>
      </trkpt>
      <trkpt lat="48.10913" lon="5.1216">
        <ele>278.9</ele>
        <time>2024-12-24T00:06:48.616Z</time>
      </trkpt>
      <trkpt lat="48.10889" lon="5.12175">
        <ele>280.04</ele>
        <time>2024-12-24T00:06:57.588Z</time>
      </trkpt>
      <trkpt lat="48.10866" lon="5.1219">
        <ele>281.25</ele>
        <time>2024-12-24T00:07:06.564Z</time>
      </trkpt>
      <trkpt lat="48.10842" lon="5.12205">
        <ele>282.56</ele>
        <time>2024-12-24T00:07:15.545Z</time>
      </trkpt>
      <trkpt lat="48.10819" lon="5.1222">
        <ele>284.09</ele>
        <time>2024-12-24T00:07:24.530Z</time>
      </trkpt>
      <trkpt lat="48.10799" lon="5.12235">
        <ele>285.78</ele>
        <time>2024-12-24T00:07:33.518Z</time>
      </trkpt>
      <trkpt lat="48.1078" lon="5.1225">
        <ele>287.37</ele>
        <time>2024-12-24T00:07:42.510Z</time>
      </trkpt>
      <trkpt lat="48.10761" lon="5.12265">
        <ele>288.91</ele>
        <time>2024-12-24T00:07:51.505Z</time>
      </trkpt>
      <trkpt lat="48.10736" lon="5.12263">
        <ele>290.8</ele>
        <time>2024-12-24T00:08:00.504Z</time>
      </trkpt>
      <trkpt lat="48.10712" lon="5.12261">
        <ele>292.91</ele>
        <time>2024-12-24T00:08:09.507Z</time>
      </trkpt>
      <trkpt lat="48.10688" lon="5.12259">
        <ele>294.7</ele>
        <time>2024-12-24T00:08:18.514Z</time>
      </trkpt>
      <trkpt lat="48.10679" lon="5.12257">
        <ele>296.4</ele>
        <time>2024-12-24T00:08:27.522Z</time>
      </trkpt>
      <trkpt lat="48.10668" lon="5.12233">
        <ele>298.27</ele>
        <time>2024-12-24T00:08:36.533Z</time>
      </trkpt>
      <trkpt lat="48.10658" lon="5.12212">
        <ele>300.02</ele>
        <time>2024-12-24T00:08:45.547Z</time>
      </trkpt>
      <trkpt lat="48.10647" lon="5.1219">
        <ele>301.61</ele>
        <time>2024-12-24T00:08:54.564Z</time>
      </trkpt>
      <trkpt lat="48.10639" lon="5.12149">
        <ele>303.11</ele>
        <time>2024-12-24T00:09:03.586Z</time>
      </trkpt>
      <trkpt lat="48.10631" lon="5.12109">
        <ele>304.42</ele>
        <time>2024-12-24T00:09:12.612Z</time>
      </trkpt>
      <trkpt lat="48.10623" lon="5.12068">
        <ele>305.54</ele>
        <time>2024-12-24T00:09:21.643Z</time>
      </trkpt>
      <trkpt lat="48.10619" lon="5.12024">
        <ele>306.53</ele>
        <time>2024-12-24T00:09:30.678Z</time>
      </trkpt>
      <trkpt lat="48.10615" lon="5.1198">
        <ele>307.28</ele>
        <time>2024-12-24T00:09:39.718Z</time>
      </trkpt>
      <trkpt lat="48.10613" lon="5.11965">
        <ele>307.87</ele>
        <time>2024-12-24T00:09:48.760Z</time>
      </trkpt>
      <trkpt lat="48.10607" lon="5.11946">
        <ele>308.28</ele>
        <time>2024-12-24T00:09:57.804Z</time>
      </trkpt>
      <trkpt lat="48.10607" lon="5.11946">
        <ele>308.51</ele>
        <time>2024-12-24T00:10:06.848Z</time>
      </trkpt>
      <trkpt lat="48.10607" lon="5.11946">
        <ele>308.55</ele>
        <time>2024-12-24T00:10:15.892Z</time>
      </trkpt>
      <trkpt lat="48.10607" lon="5.11946">
        <ele>308.41</ele>
        <time>2024-12-24T00:10:24.936Z</time>
      </trkpt>
      <trkpt lat="48.10613" lon="5.11965">
        <ele>307.87</ele>
        <time>2024-12-24T00:10:33.982Z</time>
      </trkpt>
      <trkpt lat="48.10615" lon="5.1198">
        <ele>307.28</ele>
        <time>2024-12-24T00:10:43.030Z</time>
      </trkpt>
      <trkpt lat="48.10619" lon="5.12024">
        <ele>306.87</ele>
        <time>2024-12-24T00:10:52.083Z</time>
      </trkpt>
      <trkpt lat="48.10623" lon="5.12068">
        <ele>305.54</ele>
        <time>2024-12-24T00:11:01.140Z</time>
      </trkpt>
      <trkpt lat="48.10631" lon="5.12109">
        <ele>304.85</ele>
        <time>2024-12-24T00:11:10.202Z</time>
      </trkpt>
      <trkpt lat="48.10639" lon="5.1215">
        <ele>303.56</ele>
        <time>2024-12-24T00:11:19.269Z</time>
      </trkpt>
      <trkpt lat="48.10647" lon="5.1219">
        <ele>301.61</ele>
        <time>2024-12-24T00:11:28.340Z</time>
      </trkpt>
      <trkpt lat="48.10658" lon="5.12212">
        <ele>300.45</ele>
        <time>2024-12-24T00:11:37.414Z</time>
      </trkpt>
      <trkpt lat="48.10668" lon="5.12233">
        <ele>298.27</ele>
        <time>2024-12-24T00:11:46.491Z</time>
      </trkpt>
      <trkpt lat="48.10679" lon="5.12257">
        <ele>296.4</ele>
        <time>2024-12-24T00:11:55.571Z</time>
      </trkpt>
      <trkpt lat="48.10688" lon="5.12259">
        <ele>294.7</ele>
        <time>2024-12-24T00:12:04.652Z</time>
      </trkpt>
      <trkpt lat="48.10712" lon="5.12261">
        <ele>293.02</ele>
        <time>2024-12-24T00:12:13.737Z</time>
      </trkpt>
      <trkpt lat="48.10736" lon="5.12263">
        <ele>290.76</ele>
        <time>2024-12-24T00:12:22.826Z</time>
      </trkpt>
      <trkpt lat="48.10761" lon="5.12265">
        <ele>288.69</ele>
        <time>2024-12-24T00:12:31.919Z</time>
      </trkpt>
      <trkpt lat="48.1078" lon="5.1225">
        <ele>286.95</ele>
        <time>2024-12-24T00:12:41.015Z</time>
      </trkpt>
      <trkpt lat="48.10799" lon="5.12235">
        <ele>285.12</ele>
        <time>2024-12-24T00:12:50.115Z</time>
      </trkpt>
      <trkpt lat="48.10819" lon="5.1222">
        <ele>284.09</ele>
        <time>2024-12-24T00:12:59.218Z</time>
      </trkpt>
      <trkpt lat="48.10842" lon="5.12205">
        <ele>281.33</ele>
        <time>2024-12-24T00:13:08.326Z</time>
      </trkpt>
      <trkpt lat="48.10866" lon="5.1219">
        <ele>279.69</ele>
        <time>2024-12-24T00:13:17.438Z</time>
      </trkpt>
      <trkpt lat="48.10889" lon="5.12175">
        <ele>278.13</ele>
        <time>2024-12-24T00:13:26.554Z</time>
      </trkpt>
      <trkpt lat="48.10913" lon="5.1216">
        <ele>276.61</ele>
        <time>2024-12-24T00:13:35.674Z</time>
      </trkpt>
      <trkpt lat="48.10937" lon="5.12145">
        <ele>277.71</ele>
        <time>2024-12-24T00:13:44.798Z</time>
      </trkpt>
      <trkpt lat="48.10951" lon="5.12132">
        <ele>273.57</ele>
        <time>2024-12-24T00:13:53.925Z</time>
      </trkpt>
      <trkpt lat="48.10965" lon="5.1212">
        <ele>275.74</ele>
        <time>2024-12-24T00:14:03.054Z</time>
      </trkpt>
      <trkpt lat="48.10973" lon="5.12109">
        <ele>274.99</ele>
        <time>2024-12-24T00:14:12.185Z</time>
      </trkpt>
      <trkpt lat="48.1099" lon="5.12092">
        <ele>274.2</ele>
        <time>2024-12-24T00:14:21.319Z</time>
      </trkpt>
      <trkpt lat="48.11012" lon="5.1207">
        <ele>273.74</ele>
        <time>2024-12-24T00:14:30.457Z</time>
      </trkpt>
      <trkpt lat="48.11038" lon="5.12051">
        <ele>273.49</ele>
        <time>2024-12-24T00:14:39.600Z</time>
      </trkpt>
      <trkpt lat="48.11055" lon="5.12057">
        <ele>267.42</ele>
        <time>2024-12-24T00:14:48.746Z</time>
      </trkpt>
      <trkpt lat="48.11072" lon="5.12064">
        <ele>273.04</ele>
        <time>2024-12-24T00:14:57.895Z</time>
      </trkpt>
      <trkpt lat="48.11093" lon="5.12066">
        <ele>272.78</ele>
        <time>2024-12-24T00:15:07.047Z</time>
      </trkpt>
      <trkpt lat="48.11101" lon="5.12044">
        <ele>265.76</ele>
        <time>2024-12-24T00:15:16.202Z</time>
      </trkpt>
      <trkpt lat="48.11108" lon="5.12023">
        <ele>265.54</ele>
        <time>2024-12-24T00:15:25.359Z</time>
      </trkpt>
      <trkpt lat="48.11126" lon="5.1201">
        <ele>265.35</ele>
        <time>2024-12-24T00:15:34.519Z</time>
      </trkpt>
      <trkpt lat="48.11144" lon="5.12002">
        <ele>265.18</ele>
        <time>2024-12-24T00:15:43.683Z</time>
      </trkpt>
      <trkpt lat="48.11162" lon="5.11993">
        <ele>265.06</ele>
        <time>2024-12-24T00:15:52.850Z</time>
      </trkpt>
      <trkpt lat="48.11189" lon="5.11979">
        <ele>264.92</ele>
        <time>2024-12-24T00:16:02.021Z</time>
      </trkpt>
      <trkpt lat="48.11216" lon="5.11965">
        <ele>264.9</ele>
        <time>2024-12-24T00:16:11.197Z</time>
      </trkpt>
      <trkpt lat="48.11241" lon="5.1195">
        <ele>264.9</ele>
        <time>2024-12-24T00:16:20.377Z</time>
      </trkpt>
      <trkpt lat="48.11252" lon="5.11939">
        <ele>265.07</ele>
        <time>2024-12-24T00:16:29.559Z</time>
      </trkpt>
      <trkpt lat="48.11269" lon="5.11953">
        <ele>265.2</ele>
        <time>2024-12-24T00:16:38.744Z</time>
      </trkpt>
      <trkpt lat="48.11286" lon="5.11967">
        <ele>265.44</ele>
        <time>2024-12-24T00:16:47.932Z</time>
      </trkpt>
      <trkpt lat="48.11308" lon="5.11995">
        <ele>265.71</ele>
        <time>2024-12-24T00:16:57.125Z</time>
      </trkpt>
      <trkpt lat="48.11308" lon="5.11995">
        <ele>266.14</ele>
        <time>2024-12-24T00:17:06.318Z</time>
      </trkpt>
      <trkpt lat="48.11321" lon="5.12014">
        <ele>266.63</ele>
        <time>2024-12-24T00:17:15.514Z</time>
      </trkpt>
      <trkpt lat="48.11333" lon="5.12042">
        <ele>267.2</ele>
        <time>2024-12-24T00:17:24.713Z</time>
      </trkpt>
      <trkpt lat="48.11344" lon="5.1207">
        <ele>267.82</ele>
        <time>2024-12-24T00:17:33.916Z</time>
      </trkpt>
      <trkpt lat="48.11347" lon="5.121">
        <ele>268.56</ele>
        <time>2024-12-24T00:17:43.122Z</time>
      </trkpt>
      <trkpt lat="48.11349" lon="5.12124">
        <ele>269.37</ele>
        <time>2024-12-24T00:17:52.331Z</time>
      </trkpt>
      <trkpt lat="48.11347" lon="5.1215">
        <ele>270.2</ele>
        <time>2024-12-24T00:18:01.543Z</time>
      </trkpt>
      <trkpt lat="48.11344" lon="5.12175">
        <ele>271.18</ele>
        <time>2024-12-24T00:18:10.757Z</time>
      </trkpt>
      <trkpt lat="48.11339" lon="5.12199">
        <ele>272.2</ele>
        <time>2024-12-24T00:18:19.974Z</time>
      </trkpt>
      <trkpt lat="48.11334" lon="5.12223">
        <ele>273.3</ele>
        <time>2024-12-24T00:18:29.194Z</time>
      </trkpt>
      <trkpt lat="48.11324" lon="5.12243">
        <ele>274.46</ele>
        <time>2024-12-24T00:18:38.416Z</time>
      </trkpt>
      <trkpt lat="48.11314" lon="5.12263">
        <ele>275.59</ele>
        <time>2024-12-24T00:18:47.641Z</time>
      </trkpt>
      <trkpt lat="48.11303" lon="5.1228">
        <ele>276.68</ele>
        <time>2024-12-24T00:18:56.869Z</time>
      </trkpt>
      <trkpt lat="48.11291" lon="5.12298">
        <ele>277.76</ele>
        <time>2024-12-24T00:19:06.099Z</time>
      </trkpt>
      <trkpt lat="48.11271" lon="5.12315">
        <ele>278.78</ele>
        <time>2024-12-24T00:19:15.333Z</time>
      </trkpt>
      <trkpt lat="48.11248" lon="5.12322">
        <ele>279.72</ele>
        <time>2024-12-24T00:19:24.571Z</time>
      </trkpt>
      <trkpt lat="48.11224" lon="5.1233">
        <ele>280.83</ele>
        <time>2024-12-24T00:19:33.813Z</time>
      </trkpt>
      <trkpt lat="48.11194" lon="5.12332">
        <ele>282.17</ele>
        <time>2024-12-24T00:19:43.059Z</time>
      </trkpt>
      <trkpt lat="48.11164" lon="5.12334">
        <ele>283.46</ele>
        <time>2024-12-24T00:19:52.310Z</time>
      </trkpt>
      <trkpt lat="48.11134" lon="5.12336">
        <ele>284.68</ele>
        <time>2024-12-24T00:20:01.566Z</time>
      </trkpt>
      <trkpt lat="48.11117" lon="5.12334">
        <ele>285.84</ele>
        <time>2024-12-24T00:20:10.825Z</time>
      </trkpt>
      <trkpt lat="48.111" lon="5.12332">
        <ele>286.99</ele>
        <time>2024-12-24T00:20:20.087Z</time>
      </trkpt>
      <trkpt lat="48.11071" lon="5.1233">
        <ele>288.17</ele>
        <time>2024-12-24T00:20:29.353Z</time>
      </trkpt>
      <trkpt lat="48.11042" lon="5.12328">
        <ele>289.41</ele>
        <time>2024-12-24T00:20:38.624Z</time>
      </trkpt>
      <trkpt lat="48.11042" lon="5.12328">
        <ele>290.61</ele>
        <time>2024-12-24T00:20:47.895Z</time>
      </trkpt>
      <trkpt lat="48.11014" lon="5.12334">
        <ele>291.75</ele>
        <time>2024-12-24T00:20:57.170Z</time>
      </trkpt>
      <trkpt lat="48.10988" lon="5.12358">
        <ele>292.92</ele>
        <time>2024-12-24T00:21:06.450Z</time>
      </trkpt>
      <trkpt lat="48.10979" lon="5.12378">
        <ele>294.22</ele>
        <time>2024-12-24T00:21:15.733Z</time>
      </trkpt>
      <trkpt lat="48.10969" lon="5.12398">
        <ele>295.51</ele>
        <time>2024-12-24T00:21:25.019Z</time>
      </trkpt>
      <trkpt lat="48.10962" lon="5.1243">
        <ele>296.8</ele>
        <time>2024-12-24T00:21:34.308Z</time>
      </trkpt>
      <trkpt lat="48.10956" lon="5.12461">
        <ele>298.2</ele>
        <time>2024-12-24T00:21:43.601Z</time>
      </trkpt>
      <trkpt lat="48.1095" lon="5.12495">
        <ele>299.68</ele>
        <time>2024-12-24T00:21:52.897Z</time>
      </trkpt>
      <trkpt lat="48.10942" lon="5.12533">
        <ele>301.15</ele>
        <time>2024-12-24T00:22:02.198Z</time>
      </trkpt>
      <trkpt lat="48.10935" lon="5.1257">
        <ele>302.46</ele>
        <time>2024-12-24T00:22:11.503Z</time>
      </trkpt>
      <trkpt lat="48.10935" lon="5.126">
        <ele>303.79</ele>
        <time>2024-12-24T00:22:20.811Z</time>
      </trkpt>
      <trkpt lat="48.10935" lon="5.1263">
        <ele>305.05</ele>
        <time>2024-12-24T00:22:30.122Z</time>
      </trkpt>
      <trkpt lat="48.10942" lon="5.12665">
        <ele>306.3</ele>
        <time>2024-12-24T00:22:39.437Z</time>
      </trkpt>
      <trkpt lat="48.1095" lon="5.12699">
        <ele>307.51</ele>
        <time>2024-12-24T00:22:48.756Z</time>
      </trkpt>
      <trkpt lat="48.1096" lon="5.12735">
        <ele>308.73</ele>
        <time>2024-12-24T00:22:58.079Z</time>
      </trkpt>
      <trkpt lat="48.1097" lon="5.12778">
        <ele>309.9</ele>
        <time>2024-12-24T00:23:07.407Z</time>
      </trkpt>
      <trkpt lat="48.1098" lon="5.1282">
        <ele>310.98</ele>
        <time>2024-12-24T00:23:16.740Z</time>
      </trkpt>
      <trkpt lat="48.1099" lon="5.12862">
        <ele>311.87</ele>
        <time>2024-12-24T00:23:26.078Z</time>
      </trkpt>
      <trkpt lat="48.11" lon="5.12904">
        <ele>312.7</ele>
        <time>2024-12-24T00:23:35.420Z</time>
      </trkpt>
      <trkpt lat="48.1101" lon="5.12946">
        <ele>313.52</ele>
        <time>2024-12-24T00:23:44.767Z</time>
      </trkpt>
      <trkpt lat="48.1101" lon="5.12946">
        <ele>314.31</ele>
        <time>2024-12-24T00:23:54.114Z</time>
      </trkpt>
      <trkpt lat="48.1102" lon="5.12989">
        <ele>315.08</ele>
        <time>2024-12-24T00:24:03.466Z</time>
      </trkpt>
      <trkpt lat="48.11031" lon="5.13032">
        <ele>315.8</ele>
        <time>2024-12-24T00:24:12.823Z</time>
      </trkpt>
      <trkpt lat="48.11042" lon="5.13074">
        <ele>316.53</ele>
        <time>2024-12-24T00:24:22.185Z</time>
      </trkpt>
      <trkpt lat="48.11044" lon="5.13087">
        <ele>317.15</ele>
        <time>2024-12-24T00:24:31.548Z</time>
      </trkpt>
      <trkpt lat="48.11046" lon="5.13102">
        <ele>317.72</ele>
        <time>2024-12-24T00:24:40.913Z</time>
      </trkpt>
      <trkpt lat="48.1105" lon="5.13117">
        <ele>318.19</ele>
        <time>2024-12-24T00:24:50.280Z</time>
      </trkpt>
      <trkpt lat="48.11059" lon="5.13155">
        <ele>318.58</ele>
        <time>2024-12-24T00:24:59.651Z</time>
      </trkpt>
      <trkpt lat="48.11068" lon="5.13192">
        <ele>318.97</ele>
        <time>2024-12-24T00:25:09.026Z</time>
      </trkpt>
      <trkpt lat="48.11076" lon="5.13229">
        <ele>319.42</ele>
        <time>2024-12-24T00:25:18.405Z</time>
      </trkpt>
      <trkpt lat="48.11074" lon="5.13242">
        <ele>319.82</ele>
        <time>2024-12-24T00:25:27.786Z</time>
      </trkpt>
      <trkpt lat="48.11072" lon="5.13261">
        <ele>320.22</ele>
        <time>2024-12-24T00:25:37.169Z</time>
      </trkpt>
      <trkpt lat="48.11072" lon="5.13265">
        <ele>320.53</ele>
        <time>2024-12-24T00:25:46.552Z</time>
      </trkpt>
      <trkpt lat="48.11072" lon="5.13272">
        <ele>320.81</ele>
        <time>2024-12-24T00:25:55.936Z</time>
      </trkpt>
      <trkpt lat="48.11074" lon="5.13274">
        <ele>321.04</ele>
        <time>2024-12-24T00:26:05.321Z</time>
      </trkpt>
      <trkpt lat="48.1108" lon="5.13289">
        <ele>321.27</ele>
        <time>2024-12-24T00:26:14.707Z</time>
      </trkpt>
      <trkpt lat="48.11087" lon="5.133">
        <ele>321.43</ele>
        <time>2024-12-24T00:26:24.095Z</time>
      </trkpt>
      <trkpt lat="48.11089" lon="5.13325">
        <ele>321.55</ele>
        <time>2024-12-24T00:26:33.486Z</time>
      </trkpt>
      <trkpt lat="48.11091" lon="5.13353">
        <ele>321.62</ele>
        <time>2024-12-24T00:26:42.880Z</time>
      </trkpt>
      <trkpt lat="48.11094" lon="5.13386">
        <ele>321.73</ele>
        <time>2024-12-24T00:26:52.277Z</time>
      </trkpt>
      <trkpt lat="48.11098" lon="5.13418">
        <ele>321.76</ele>
        <time>2024-12-24T00:27:01.678Z</time>
      </trkpt>
      <trkpt lat="48.11098" lon="5.13418">
        <ele>321.68</ele>
        <time>2024-12-24T00:27:11.079Z</time>
      </trkpt>
      <trkpt lat="48.11101" lon="5.13441">
        <ele>321.57</ele>
        <time>2024-12-24T00:27:20.482Z</time>
      </trkpt>
      <trkpt lat="48.11104" lon="5.13465">
        <ele>321.39</ele>
        <time>2024-12-24T00:27:29.888Z</time>
      </trkpt>
      <trkpt lat="48.11104" lon="5.13465">
        <ele>321.15</ele>
        <time>2024-12-24T00:27:39.294Z</time>
      </trkpt>
      <trkpt lat="48.11106" lon="5.13465">
        <ele>320.85</ele>
        <time>2024-12-24T00:27:48.700Z</time>
      </trkpt>
      <trkpt lat="48.11106" lon="5.13474">
        <ele>320.51</ele>
        <time>2024-12-24T00:27:58.107Z</time>
      </trkpt>
      <trkpt lat="48.11111" lon="5.13471">
        <ele>320.12</ele>
        <time>2024-12-24T00:28:07.515Z</time>
      </trkpt>
      <trkpt lat="48.11117" lon="5.13476">
        <ele>319.7</ele>
        <time>2024-12-24T00:28:16.924Z</time>
      </trkpt>
      <trkpt lat="48.11134" lon="5.13482">
        <ele>319.24</ele>
        <time>2024-12-24T00:28:26.336Z</time>
      </trkpt>
      <trkpt lat="48.11141" lon="5.13495">
        <ele>318.67</ele>
        <time>2024-12-24T00:28:35.750Z</time>
      </trkpt>
      <trkpt lat="48.11153" lon="5.13501">
        <ele>318.04</ele>
        <time>2024-12-24T00:28:45.166Z</time>
      </trkpt>
      <trkpt lat="48.11156" lon="5.13516">
        <ele>317.41</ele>
        <time>2024-12-24T00:28:54.583Z</time>
      </trkpt>
      <trkpt lat="48.11164" lon="5.13521">
        <ele>316.7</ele>
        <time>2024-12-24T00:29:04.002Z</time>
      </trkpt>
      <trkpt lat="48.11177" lon="5.13546">
        <ele>315.81</ele>
        <time>2024-12-24T00:29:13.424Z</time>
      </trkpt>
      <trkpt lat="48.11181" lon="5.13544">
        <ele>315.21</ele>
        <time>2024-12-24T00:29:22.847Z</time>
      </trkpt>
      <trkpt lat="48.1119" lon="5.13534">
        <ele>314.6</ele>
        <time>2024-12-24T00:29:32.272Z</time>
      </trkpt>
      <trkpt lat="48.11193" lon="5.13507">
        <ele>314.18</ele>
        <time>2024-12-24T00:29:41.700Z</time>
      </trkpt>
      <trkpt lat="48.11195" lon="5.1348">
        <ele>313.81</ele>
        <time>2024-12-24T00:29:51.131Z</time>
      </trkpt>
      <trkpt lat="48.11195" lon="5.1348">
        <ele>313.36</ele>
        <time>2024-12-24T00:30:00.562Z</time>
      </trkpt>
      <trkpt lat="48.11195" lon="5.1348">
        <ele>312.94</ele>
        <time>2024-12-24T00:30:09.993Z</time>
      </trkpt>
      <trkpt lat="48.11195" lon="5.1348">
        <ele>312.57</ele>
        <time>2024-12-24T00:30:19.424Z</time>
      </trkpt>
      <trkpt lat="48.11193" lon="5.13502">
        <ele>312.14</ele>
        <time>2024-12-24T00:30:28.857Z</time>
      </trkpt>
      <trkpt lat="48.1119" lon="5.13534">
        <ele>314.6</ele>
        <time>2024-12-24T00:30:38.293Z</time>
      </trkpt>
      <trkpt lat="48.11181" lon="5.13544">
        <ele>311.63</ele>
        <time>2024-12-24T00:30:47.731Z</time>
      </trkpt>
      <trkpt lat="48.11181" lon="5.13544">
        <ele>311.47</ele>
        <time>2024-12-24T00:30:57.169Z</time>
      </trkpt>
      <trkpt lat="48.11181" lon="5.13544">
        <ele>311.38</ele>
        <time>2024-12-24T00:31:06.607Z</time>
      </trkpt>
      <trkpt lat="48.11181" lon="5.13544">
        <ele>315.21</ele>
        <time>2024-12-24T00:31:16.045Z</time>
      </trkpt>
      <trkpt lat="48.11177" lon="5.13546">
        <ele>315.81</ele>
        <time>2024-12-24T00:31:25.484Z</time>
      </trkpt>
      <trkpt lat="48.11177" lon="5.13548">
        <ele>311.46</ele>
        <time>2024-12-24T00:31:34.923Z</time>
      </trkpt>
      <trkpt lat="48.11177" lon="5.13548">
        <ele>311.59</ele>
        <time>2024-12-24T00:31:44.362Z</time>
      </trkpt>
      <trkpt lat="48.11177" lon="5.13548">
        <ele>311.76</ele>
        <time>2024-12-24T00:31:53.801Z</time>
      </trkpt>
      <trkpt lat="48.11177" lon="5.13546">
        <ele>312</ele>
        <time>2024-12-24T00:32:03.240Z</time>
      </trkpt>
      <trkpt lat="48.11173" lon="5.13568">
        <ele>312.21</ele>
        <time>2024-12-24T00:32:12.682Z</time>
      </trkpt>
      <trkpt lat="48.11168" lon="5.13581">
        <ele>312.54</ele>
        <time>2024-12-24T00:32:22.125Z</time>
      </trkpt>
      <trkpt lat="48.11164" lon="5.13587">
        <ele>312.93</ele>
        <time>2024-12-24T00:32:31.569Z</time>
      </trkpt>
      <trkpt lat="48.11162" lon="5.13581">
        <ele>313.37</ele>
        <time>2024-12-24T00:32:41.014Z</time>
      </trkpt>
      <trkpt lat="48.11158" lon="5.1357">
        <ele>313.9</ele>
        <time>2024-12-24T00:32:50.460Z</time>
      </trkpt>
      <trkpt lat="48.11144" lon="5.13556">
        <ele>314.49</ele>
        <time>2024-12-24T00:32:59.909Z</time>
      </trkpt>
      <trkpt lat="48.1113" lon="5.13542">
        <ele>315.05</ele>
        <time>2024-12-24T00:33:09.361Z</time>
      </trkpt>
      <trkpt lat="48.11117" lon="5.1354">
        <ele>315.47</ele>
        <time>2024-12-24T00:33:18.815Z</time>
      </trkpt>
      <trkpt lat="48.11117" lon="5.13551">
        <ele>315.84</ele>
        <time>2024-12-24T00:33:28.270Z</time>
      </trkpt>
      <trkpt lat="48.11115" lon="5.13587">
        <ele>316.17</ele>
        <time>2024-12-24T00:33:37.729Z</time>
      </trkpt>
      <trkpt lat="48.11113" lon="5.13611">
        <ele>316.54</ele>
        <time>2024-12-24T00:33:47.190Z</time>
      </trkpt>
      <trkpt lat="48.11111" lon="5.13634">
        <ele>316.86</ele>
        <time>2024-12-24T00:33:56.654Z</time>
      </trkpt>
      <trkpt lat="48.11106" lon="5.13661">
        <ele>317.19</ele>
        <time>2024-12-24T00:34:06.121Z</time>
      </trkpt>
      <trkpt lat="48.11102" lon="5.13688">
        <ele>317.56</ele>
        <time>2024-12-24T00:34:15.591Z</time>
      </trkpt>
      <trkpt lat="48.11093" lon="5.1372">
        <ele>317.95</ele>
        <time>2024-12-24T00:34:25.065Z</time>
      </trkpt>
      <trkpt lat="48.11085" lon="5.13752">
        <ele>318.27</ele>
        <time>2024-12-24T00:34:34.542Z</time>
      </trkpt>
      <trkpt lat="48.11083" lon="5.13759">
        <ele>318.5</ele>
        <time>2024-12-24T00:34:44.020Z</time>
      </trkpt>
      <trkpt lat="48.11099" lon="5.13791">
        <ele>318.64</ele>
        <time>2024-12-24T00:34:53.502Z</time>
      </trkpt>
      <trkpt lat="48.11115" lon="5.13823">
        <ele>318.75</ele>
        <time>2024-12-24T00:35:02.989Z</time>
      </trkpt>
      <trkpt lat="48.1113" lon="5.13855">
        <ele>318.86</ele>
        <time>2024-12-24T00:35:12.480Z</time>
      </trkpt>
      <trkpt lat="48.11141" lon="5.13822">
        <ele>318.84</ele>
        <time>2024-12-24T00:35:21.975Z</time>
      </trkpt>
      <trkpt lat="48.11151" lon="5.13789">
        <ele>318.82</ele>
        <time>2024-12-24T00:35:31.474Z</time>
      </trkpt>
      <trkpt lat="48.1116" lon="5.13778">
        <ele>318.85</ele>
        <time>2024-12-24T00:35:40.975Z</time>
      </trkpt>
      <trkpt lat="48.11168" lon="5.13789">
        <ele>318.9</ele>
        <time>2024-12-24T00:35:50.477Z</time>
      </trkpt>
      <trkpt lat="48.11182" lon="5.13802">
        <ele>318.96</ele>
        <time>2024-12-24T00:35:59.982Z</time>
      </trkpt>
      <trkpt lat="48.11196" lon="5.13815">
        <ele>318.98</ele>
        <time>2024-12-24T00:36:09.490Z</time>
      </trkpt>
      <trkpt lat="48.11211" lon="5.13819">
        <ele>318.95</ele>
        <time>2024-12-24T00:36:19.000Z</time>
      </trkpt>
      <trkpt lat="48.11222" lon="5.13795">
        <ele>318.88</ele>
        <time>2024-12-24T00:36:28.513Z</time>
      </trkpt>
      <trkpt lat="48.11233" lon="5.13772">
        <ele>318.76</ele>
        <time>2024-12-24T00:36:38.029Z</time>
      </trkpt>
      <trkpt lat="48.11233" lon="5.13772">
        <ele>318.65</ele>
        <time>2024-12-24T00:36:47.545Z</time>
      </trkpt>
      <trkpt lat="48.11248" lon="5.13737">
        <ele>318.49</ele>
        <time>2024-12-24T00:36:57.066Z</time>
      </trkpt>
      <trkpt lat="48.11256" lon="5.13718">
        <ele>318.37</ele>
        <time>2024-12-24T00:37:06.589Z</time>
      </trkpt>
      <trkpt lat="48.11267" lon="5.13692">
        <ele>318.24</ele>
        <time>2024-12-24T00:37:16.115Z</time>
      </trkpt>
      <trkpt lat="48.11278" lon="5.13667">
        <ele>317.99</ele>
        <time>2024-12-24T00:37:25.645Z</time>
      </trkpt>
      <trkpt lat="48.11289" lon="5.13672">
        <ele>318</ele>
        <time>2024-12-24T00:37:35.177Z</time>
      </trkpt>
      <trkpt lat="48.11289" lon="5.13672">
        <ele>317.95</ele>
        <time>2024-12-24T00:37:44.709Z</time>
      </trkpt>
      <trkpt lat="48.11291" lon="5.13673">
        <ele>317.93</ele>
        <time>2024-12-24T00:37:54.241Z</time>
      </trkpt>
      <trkpt lat="48.11308" lon="5.13682">
        <ele>317.89</ele>
        <time>2024-12-24T00:38:03.776Z</time>
      </trkpt>
      <trkpt lat="48.11312" lon="5.13705">
        <ele>317.91</ele>
        <time>2024-12-24T00:38:13.313Z</time>
      </trkpt>
      <trkpt lat="48.11319" lon="5.13727">
        <ele>317.99</ele>
        <time>2024-12-24T00:38:22.853Z</time>
      </trkpt>
      <trkpt lat="48.11329" lon="5.13757">
        <ele>318.07</ele>
        <time>2024-12-24T00:38:32.396Z</time>
      </trkpt>
      <trkpt lat="48.11337" lon="5.13779">
        <ele>318.23</ele>
        <time>2024-12-24T00:38:41.942Z</time>
      </trkpt>
      <trkpt lat="48.11344" lon="5.13802">
        <ele>318.44</ele>
        <time>2024-12-24T00:38:51.491Z</time>
      </trkpt>
      <trkpt lat="48.11366" lon="5.13798">
        <ele>318.38</ele>
        <time>2024-12-24T00:39:01.043Z</time>
      </trkpt>
      <trkpt lat="48.11374" lon="5.13825">
        <ele>318.72</ele>
        <time>2024-12-24T00:39:10.599Z</time>
      </trkpt>
      <trkpt lat="48.11369" lon="5.13848">
        <ele>319.13</ele>
        <time>2024-12-24T00:39:20.157Z</time>
      </trkpt>
      <trkpt lat="48.11364" lon="5.1387">
        <ele>319.49</ele>
        <time>2024-12-24T00:39:29.718Z</time>
      </trkpt>
      <trkpt lat="48.11342" lon="5.1387">
        <ele>319.89</ele>
        <time>2024-12-24T00:39:39.282Z</time>
      </trkpt>
      <trkpt lat="48.11321" lon="5.1387">
        <ele>320.2</ele>
        <time>2024-12-24T00:39:48.850Z</time>
      </trkpt>
      <trkpt lat="48.11314" lon="5.13916">
        <ele>320.52</ele>
        <time>2024-12-24T00:39:58.423Z</time>
      </trkpt>
      <trkpt lat="48.11312" lon="5.13931">
        <ele>320.81</ele>
        <time>2024-12-24T00:40:07.997Z</time>
      </trkpt>
      <trkpt lat="48.11308" lon="5.13954">
        <ele>321.08</ele>
        <time>2024-12-24T00:40:17.574Z</time>
      </trkpt>
      <trkpt lat="48.11327" lon="5.13961">
        <ele>321.33</ele>
        <time>2024-12-24T00:40:27.154Z</time>
      </trkpt>
      <trkpt lat="48.11355" lon="5.13958">
        <ele>321.56</ele>
        <time>2024-12-24T00:40:36.739Z</time>
      </trkpt>
      <trkpt lat="48.11374" lon="5.13946">
        <ele>321.73</ele>
        <time>2024-12-24T00:40:46.327Z</time>
      </trkpt>
      <trkpt lat="48.11384" lon="5.13974">
        <ele>322.08</ele>
        <time>2024-12-24T00:40:55.918Z</time>
      </trkpt>
      <trkpt lat="48.11394" lon="5.14001">
        <ele>322.39</ele>
        <time>2024-12-24T00:41:05.513Z</time>
      </trkpt>
      <trkpt lat="48.11407" lon="5.14026">
        <ele>322.59</ele>
        <time>2024-12-24T00:41:15.111Z</time>
      </trkpt>
      <trkpt lat="48.1142" lon="5.14052">
        <ele>322.69</ele>
        <time>2024-12-24T00:41:24.712Z</time>
      </trkpt>
      <trkpt lat="48.11432" lon="5.14076">
        <ele>322.83</ele>
        <time>2024-12-24T00:41:34.317Z</time>
      </trkpt>
      <trkpt lat="48.11452" lon="5.14066">
        <ele>322.98</ele>
        <time>2024-12-24T00:41:43.925Z</time>
      </trkpt>
      <trkpt lat="48.11471" lon="5.14055">
        <ele>323.11</ele>
        <time>2024-12-24T00:41:53.536Z</time>
      </trkpt>
      <trkpt lat="48.11498" lon="5.14041">
        <ele>323.26</ele>
        <time>2024-12-24T00:42:03.152Z</time>
      </trkpt>
      <trkpt lat="48.11525" lon="5.14027">
        <ele>323.33</ele>
        <time>2024-12-24T00:42:12.772Z</time>
      </trkpt>
      <trkpt lat="48.1154" lon="5.14023">
        <ele>323.41</ele>
        <time>2024-12-24T00:42:22.395Z</time>
      </trkpt>
      <trkpt lat="48.11571" lon="5.14025">
        <ele>323.5</ele>
        <time>2024-12-24T00:42:32.023Z</time>
      </trkpt>
      <trkpt lat="48.11602" lon="5.14027">
        <ele>323.6</ele>
        <time>2024-12-24T00:42:41.656Z</time>
      </trkpt>
      <trkpt lat="48.11602" lon="5.14027">
        <ele>323.63</ele>
        <time>2024-12-24T00:42:51.289Z</time>
      </trkpt>
      <trkpt lat="48.11622" lon="5.1403">
        <ele>323.61</ele>
        <time>2024-12-24T00:43:00.925Z</time>
      </trkpt>
      <trkpt lat="48.11643" lon="5.14034">
        <ele>323.6</ele>
        <time>2024-12-24T00:43:10.564Z</time>
      </trkpt>
      <trkpt lat="48.11649" lon="5.14038">
        <ele>323.6</ele>
        <time>2024-12-24T00:43:20.205Z</time>
      </trkpt>
      <trkpt lat="48.11649" lon="5.14051">
        <ele>323.58</ele>
        <time>2024-12-24T00:43:29.847Z</time>
      </trkpt>
      <trkpt lat="48.11658" lon="5.14057">
        <ele>323.51</ele>
        <time>2024-12-24T00:43:39.491Z</time>
      </trkpt>
      <trkpt lat="48.11664" lon="5.14053">
        <ele>323.42</ele>
        <time>2024-12-24T00:43:49.136Z</time>
      </trkpt>
      <trkpt lat="48.11664" lon="5.14042">
        <ele>323.31</ele>
        <time>2024-12-24T00:43:58.782Z</time>
      </trkpt>
      <trkpt lat="48.11671" lon="5.14038">
        <ele>323.18</ele>
        <time>2024-12-24T00:44:08.429Z</time>
      </trkpt>
      <trkpt lat="48.11693" lon="5.14042">
        <ele>323.03</ele>
        <time>2024-12-24T00:44:18.080Z</time>
      </trkpt>
      <trkpt lat="48.11716" lon="5.14046">
        <ele>322.87</ele>
        <time>2024-12-24T00:44:27.734Z</time>
      </trkpt>
      <trkpt lat="48.11726" lon="5.14046">
        <ele>322.74</ele>
        <time>2024-12-24T00:44:37.390Z</time>
      </trkpt>
      <trkpt lat="48.11726" lon="5.14046">
        <ele>322.59</ele>
        <time>2024-12-24T00:44:47.046Z</time>
      </trkpt>
      <trkpt lat="48.11739" lon="5.14046">
        <ele>322.42</ele>
        <time>2024-12-24T00:44:56.704Z</time>
      </trkpt>
      <trkpt lat="48.11765" lon="5.1404">
        <ele>322.21</ele>
        <time>2024-12-24T00:45:06.366Z</time>
      </trkpt>
      <trkpt lat="48.11792" lon="5.14024">
        <ele>321.95</ele>
        <time>2024-12-24T00:45:16.033Z</time>
      </trkpt>
      <trkpt lat="48.11819" lon="5.14009">
        <ele>321.68</ele>
        <time>2024-12-24T00:45:25.704Z</time>
      </trkpt>
      <trkpt lat="48.11846" lon="5.13993">
        <ele>321.37</ele>
        <time>2024-12-24T00:45:35.380Z</time>
      </trkpt>
      <trkpt lat="48.11874" lon="5.13977">
        <ele>321.1</ele>
        <time>2024-12-24T00:45:45.061Z</time>
      </trkpt>
      <trkpt lat="48.11901" lon="5.13961">
        <ele>320.77</ele>
        <time>2024-12-24T00:45:54.746Z</time>
      </trkpt>
      <trkpt lat="48.11928" lon="5.13946">
        <ele>320.43</ele>
        <time>2024-12-24T00:46:04.436Z</time>
      </trkpt>
      <trkpt lat="48.11954" lon="5.13927">
        <ele>320.08</ele>
        <time>2024-12-24T00:46:14.131Z</time>
      </trkpt>
      <trkpt lat="48.11981" lon="5.13909">
        <ele>319.63</ele>
        <time>2024-12-24T00:46:23.830Z</time>
      </trkpt>
      <trkpt lat="48.12007" lon="5.13891">
        <ele>319.08</ele>
        <time>2024-12-24T00:46:33.534Z</time>
      </trkpt>
      <trkpt lat="48.12033" lon="5.13873">
        <ele>318.37</ele>
        <time>2024-12-24T00:46:43.243Z</time>
      </trkpt>
      <trkpt lat="48.12054" lon="5.13852">
        <ele>317.44</ele>
        <time>2024-12-24T00:46:52.956Z</time>
      </trkpt>
      <trkpt lat="48.12074" lon="5.13832">
        <ele>316.36</ele>
        <time>2024-12-24T00:47:02.673Z</time>
      </trkpt>
      <trkpt lat="48.12074" lon="5.13832">
        <ele>315.15</ele>
        <time>2024-12-24T00:47:12.390Z</time>
      </trkpt>
      <trkpt lat="48.12093" lon="5.13813">
        <ele>313.64</ele>
        <time>2024-12-24T00:47:22.110Z</time>
      </trkpt>
      <trkpt lat="48.12111" lon="5.13793">
        <ele>311.94</ele>
        <time>2024-12-24T00:47:31.834Z</time>
      </trkpt>
      <trkpt lat="48.1213" lon="5.13774">
        <ele>310.13</ele>
        <time>2024-12-24T00:47:41.561Z</time>
      </trkpt>
      <trkpt lat="48.12151" lon="5.13752">
        <ele>308.29</ele>
        <time>2024-12-24T00:47:51.293Z</time>
      </trkpt>
      <trkpt lat="48.12176" lon="5.13727">
        <ele>306.29</ele>
        <time>2024-12-24T00:48:01.029Z</time>
      </trkpt>
      <trkpt lat="48.12201" lon="5.13701">
        <ele>304.23</ele>
        <time>2024-12-24T00:48:10.770Z</time>
      </trkpt>
      <trkpt lat="48.12222" lon="5.13683">
        <ele>302.11</ele>
        <time>2024-12-24T00:48:20.515Z</time>
      </trkpt>
      <trkpt lat="48.12243" lon="5.13665">
        <ele>299.96</ele>
        <time>2024-12-24T00:48:30.264Z</time>
      </trkpt>
      <trkpt lat="48.12265" lon="5.13647">
        <ele>297.78</ele>
        <time>2024-12-24T00:48:40.017Z</time>
      </trkpt>
      <trkpt lat="48.12265" lon="5.13647">
        <ele>295.72</ele>
        <time>2024-12-24T00:48:49.770Z</time>
      </trkpt>
      <trkpt lat="48.12286" lon="5.13628">
        <ele>293.37</ele>
        <time>2024-12-24T00:48:59.527Z</time>
      </trkpt>
      <trkpt lat="48.12312" lon="5.13606">
        <ele>290.87</ele>
        <time>2024-12-24T00:49:09.289Z</time>
      </trkpt>
      <trkpt lat="48.12337" lon="5.13584">
        <ele>288.29</ele>
        <time>2024-12-24T00:49:19.055Z</time>
      </trkpt>
      <trkpt lat="48.12363" lon="5.13562">
        <ele>285.83</ele>
        <time>2024-12-24T00:49:28.826Z</time>
      </trkpt>
      <trkpt lat="48.12388" lon="5.1354">
        <ele>283.58</ele>
        <time>2024-12-24T00:49:38.602Z</time>
      </trkpt>
      <trkpt lat="48.12413" lon="5.13518">
        <ele>281.6</ele>
        <time>2024-12-24T00:49:48.383Z</time>
      </trkpt>
      <trkpt lat="48.12438" lon="5.13497">
        <ele>279.8</ele>
        <time>2024-12-24T00:49:58.168Z</time>
      </trkpt>
    </trkseg>
  </trk>
</gpx>